<?xml version="1.0" encoding="UTF-8" standalone="no" ?>
<gpx xmlns="http://www.topografix.com/GPX/1/1" xmlns:xsi="http://www.w3.org/2001/XMLSchema-instance" xsi:schemaLocation="http://www.topografix.com/GPX/1/1 http://www.topografix.com/GPX/1/1/gpx.xsd" version="1.1" creator="VisuGPX - https://www.visugpx.com">
  <metadata>
    <name>Barres de Castillon </name>
    <desc><![CDATA[Itinéraire facile, départ du grand Caunet. ]]></desc>
  </metadata>
  <trk>
    <name><![CDATA[Barres de Castillon _1]]></name>
    <trkseg>
      <trkpt lat="43.235" lon="5.67021">
        <ele>403.5</ele>
        <time>2021-10-06T08:21:04Z</time>
      </trkpt>
      <trkpt lat="43.23504" lon="5.67017">
        <ele>403.4</ele>
        <time>2021-10-06T08:21:09Z</time>
      </trkpt>
      <trkpt lat="43.23509" lon="5.67017">
        <ele>403.3</ele>
        <time>2021-10-06T08:24:03Z</time>
      </trkpt>
      <trkpt lat="43.23511" lon="5.67024">
        <ele>403.1</ele>
        <time>2021-10-06T08:24:51Z</time>
      </trkpt>
      <trkpt lat="43.23513" lon="5.67029">
        <ele>402.9</ele>
        <time>2021-10-06T08:24:57Z</time>
      </trkpt>
      <trkpt lat="43.23515" lon="5.67036">
        <ele>402.8</ele>
        <time>2021-10-06T08:25:03Z</time>
      </trkpt>
      <trkpt lat="43.23519" lon="5.67041">
        <ele>402.6</ele>
        <time>2021-10-06T08:25:09Z</time>
      </trkpt>
      <trkpt lat="43.23524" lon="5.67046">
        <ele>402.4</ele>
        <time>2021-10-06T08:25:15Z</time>
      </trkpt>
      <trkpt lat="43.23529" lon="5.67049">
        <ele>402.2</ele>
        <time>2021-10-06T08:25:21Z</time>
      </trkpt>
      <trkpt lat="43.23534" lon="5.6705">
        <ele>402.1</ele>
        <time>2021-10-06T08:25:27Z</time>
      </trkpt>
      <trkpt lat="43.2354" lon="5.6705">
        <ele>401.9</ele>
        <time>2021-10-06T08:25:33Z</time>
      </trkpt>
      <trkpt lat="43.23547" lon="5.67048">
        <ele>401.8</ele>
        <time>2021-10-06T08:25:39Z</time>
      </trkpt>
      <trkpt lat="43.23551" lon="5.67045">
        <ele>401.7</ele>
        <time>2021-10-06T08:25:43Z</time>
      </trkpt>
      <trkpt lat="43.23556" lon="5.67042">
        <ele>401.7</ele>
        <time>2021-10-06T08:25:47Z</time>
      </trkpt>
      <trkpt lat="43.23559" lon="5.67039">
        <ele>401.6</ele>
        <time>2021-10-06T08:25:51Z</time>
      </trkpt>
      <trkpt lat="43.23565" lon="5.67037">
        <ele>401.5</ele>
        <time>2021-10-06T08:25:57Z</time>
      </trkpt>
      <trkpt lat="43.2357" lon="5.67039">
        <ele>401.3</ele>
        <time>2021-10-06T08:26:03Z</time>
      </trkpt>
      <trkpt lat="43.23575" lon="5.67041">
        <ele>401.2</ele>
        <time>2021-10-06T08:26:09Z</time>
      </trkpt>
      <trkpt lat="43.23581" lon="5.67043">
        <ele>401.1</ele>
        <time>2021-10-06T08:26:15Z</time>
      </trkpt>
      <trkpt lat="43.23587" lon="5.67043">
        <ele>400.9</ele>
        <time>2021-10-06T08:26:21Z</time>
      </trkpt>
      <trkpt lat="43.23594" lon="5.67043">
        <ele>400.7</ele>
        <time>2021-10-06T08:26:27Z</time>
      </trkpt>
      <trkpt lat="43.23599" lon="5.67043">
        <ele>400.5</ele>
        <time>2021-10-06T08:26:31Z</time>
      </trkpt>
      <trkpt lat="43.23603" lon="5.67044">
        <ele>400.4</ele>
        <time>2021-10-06T08:26:35Z</time>
      </trkpt>
      <trkpt lat="43.23608" lon="5.67044">
        <ele>400.3</ele>
        <time>2021-10-06T08:26:39Z</time>
      </trkpt>
      <trkpt lat="43.23613" lon="5.67044">
        <ele>400.2</ele>
        <time>2021-10-06T08:26:43Z</time>
      </trkpt>
      <trkpt lat="43.23617" lon="5.67045">
        <ele>400</ele>
        <time>2021-10-06T08:26:47Z</time>
      </trkpt>
      <trkpt lat="43.23622" lon="5.67045">
        <ele>399.9</ele>
        <time>2021-10-06T08:26:51Z</time>
      </trkpt>
      <trkpt lat="43.23627" lon="5.67044">
        <ele>399.7</ele>
        <time>2021-10-06T08:26:55Z</time>
      </trkpt>
      <trkpt lat="43.23633" lon="5.67043">
        <ele>399.5</ele>
        <time>2021-10-06T08:27:01Z</time>
      </trkpt>
      <trkpt lat="43.23639" lon="5.6704">
        <ele>399.3</ele>
        <time>2021-10-06T08:27:07Z</time>
      </trkpt>
      <trkpt lat="43.23645" lon="5.67036">
        <ele>399</ele>
        <time>2021-10-06T08:27:13Z</time>
      </trkpt>
      <trkpt lat="43.2365" lon="5.67035">
        <ele>398.8</ele>
        <time>2021-10-06T08:27:19Z</time>
      </trkpt>
      <trkpt lat="43.23654" lon="5.67033">
        <ele>398.6</ele>
        <time>2021-10-06T08:27:25Z</time>
      </trkpt>
      <trkpt lat="43.23659" lon="5.6703">
        <ele>398.4</ele>
        <time>2021-10-06T08:27:31Z</time>
      </trkpt>
      <trkpt lat="43.23665" lon="5.67029">
        <ele>398.1</ele>
        <time>2021-10-06T08:27:37Z</time>
      </trkpt>
      <trkpt lat="43.23669" lon="5.67029">
        <ele>398.2</ele>
        <time>2021-10-06T08:27:43Z</time>
      </trkpt>
      <trkpt lat="43.23675" lon="5.67029">
        <ele>398.5</ele>
        <time>2021-10-06T08:27:49Z</time>
      </trkpt>
      <trkpt lat="43.2368" lon="5.67029">
        <ele>398.9</ele>
        <time>2021-10-06T08:27:55Z</time>
      </trkpt>
      <trkpt lat="43.23685" lon="5.67033">
        <ele>399.3</ele>
        <time>2021-10-06T08:28:03Z</time>
      </trkpt>
      <trkpt lat="43.23685" lon="5.67042">
        <ele>399.6</ele>
        <time>2021-10-06T08:28:09Z</time>
      </trkpt>
      <trkpt lat="43.23686" lon="5.67049">
        <ele>399.9</ele>
        <time>2021-10-06T08:28:15Z</time>
      </trkpt>
      <trkpt lat="43.23688" lon="5.67057">
        <ele>400.3</ele>
        <time>2021-10-06T08:28:21Z</time>
      </trkpt>
      <trkpt lat="43.23689" lon="5.67066">
        <ele>400.7</ele>
        <time>2021-10-06T08:28:27Z</time>
      </trkpt>
      <trkpt lat="43.2369" lon="5.67072">
        <ele>401</ele>
        <time>2021-10-06T08:28:31Z</time>
      </trkpt>
      <trkpt lat="43.2369" lon="5.6708">
        <ele>401.3</ele>
        <time>2021-10-06T08:28:37Z</time>
      </trkpt>
      <trkpt lat="43.23692" lon="5.67089">
        <ele>401.6</ele>
        <time>2021-10-06T08:28:43Z</time>
      </trkpt>
      <trkpt lat="43.23693" lon="5.67095">
        <ele>401.8</ele>
        <time>2021-10-06T08:28:47Z</time>
      </trkpt>
      <trkpt lat="43.23694" lon="5.67104">
        <ele>402</ele>
        <time>2021-10-06T08:28:53Z</time>
      </trkpt>
      <trkpt lat="43.23695" lon="5.6711">
        <ele>402.2</ele>
        <time>2021-10-06T08:28:57Z</time>
      </trkpt>
      <trkpt lat="43.23696" lon="5.67118">
        <ele>402.5</ele>
        <time>2021-10-06T08:29:03Z</time>
      </trkpt>
      <trkpt lat="43.23698" lon="5.67125">
        <ele>402.7</ele>
        <time>2021-10-06T08:29:07Z</time>
      </trkpt>
      <trkpt lat="43.237" lon="5.67132">
        <ele>403.1</ele>
        <time>2021-10-06T08:29:13Z</time>
      </trkpt>
      <trkpt lat="43.23702" lon="5.6714">
        <ele>403.4</ele>
        <time>2021-10-06T08:29:19Z</time>
      </trkpt>
      <trkpt lat="43.23705" lon="5.67147">
        <ele>403.7</ele>
        <time>2021-10-06T08:29:25Z</time>
      </trkpt>
      <trkpt lat="43.23706" lon="5.67154">
        <ele>404</ele>
        <time>2021-10-06T08:29:31Z</time>
      </trkpt>
      <trkpt lat="43.23708" lon="5.67161">
        <ele>404.3</ele>
        <time>2021-10-06T08:29:37Z</time>
      </trkpt>
      <trkpt lat="43.2371" lon="5.67168">
        <ele>404.6</ele>
        <time>2021-10-06T08:29:43Z</time>
      </trkpt>
      <trkpt lat="43.23713" lon="5.67175">
        <ele>405</ele>
        <time>2021-10-06T08:29:49Z</time>
      </trkpt>
      <trkpt lat="43.23714" lon="5.67182">
        <ele>405.2</ele>
        <time>2021-10-06T08:29:55Z</time>
      </trkpt>
      <trkpt lat="43.23717" lon="5.67189">
        <ele>405.5</ele>
        <time>2021-10-06T08:30:01Z</time>
      </trkpt>
      <trkpt lat="43.2372" lon="5.67197">
        <ele>405.9</ele>
        <time>2021-10-06T08:30:07Z</time>
      </trkpt>
      <trkpt lat="43.23722" lon="5.67205">
        <ele>406.1</ele>
        <time>2021-10-06T08:30:13Z</time>
      </trkpt>
      <trkpt lat="43.23723" lon="5.67213">
        <ele>406.3</ele>
        <time>2021-10-06T08:30:19Z</time>
      </trkpt>
      <trkpt lat="43.23726" lon="5.6722">
        <ele>406.6</ele>
        <time>2021-10-06T08:30:25Z</time>
      </trkpt>
      <trkpt lat="43.2373" lon="5.67225">
        <ele>407</ele>
        <time>2021-10-06T08:30:31Z</time>
      </trkpt>
      <trkpt lat="43.23733" lon="5.67231">
        <ele>407.4</ele>
        <time>2021-10-06T08:30:37Z</time>
      </trkpt>
      <trkpt lat="43.23736" lon="5.67237">
        <ele>407.6</ele>
        <time>2021-10-06T08:30:43Z</time>
      </trkpt>
      <trkpt lat="43.23738" lon="5.67242">
        <ele>407.9</ele>
        <time>2021-10-06T08:30:49Z</time>
      </trkpt>
      <trkpt lat="43.23742" lon="5.67247">
        <ele>408.3</ele>
        <time>2021-10-06T08:30:53Z</time>
      </trkpt>
      <trkpt lat="43.23745" lon="5.67251">
        <ele>408.6</ele>
        <time>2021-10-06T08:30:57Z</time>
      </trkpt>
      <trkpt lat="43.2375" lon="5.67257">
        <ele>409</ele>
        <time>2021-10-06T08:31:03Z</time>
      </trkpt>
      <trkpt lat="43.23754" lon="5.67259">
        <ele>409.3</ele>
        <time>2021-10-06T08:31:07Z</time>
      </trkpt>
      <trkpt lat="43.23759" lon="5.67263">
        <ele>409.6</ele>
        <time>2021-10-06T08:31:13Z</time>
      </trkpt>
      <trkpt lat="43.23763" lon="5.67268">
        <ele>409.9</ele>
        <time>2021-10-06T08:31:19Z</time>
      </trkpt>
      <trkpt lat="43.23768" lon="5.67273">
        <ele>410.2</ele>
        <time>2021-10-06T08:31:25Z</time>
      </trkpt>
      <trkpt lat="43.23772" lon="5.67281">
        <ele>410.5</ele>
        <time>2021-10-06T08:31:31Z</time>
      </trkpt>
      <trkpt lat="43.23775" lon="5.67285">
        <ele>410.8</ele>
        <time>2021-10-06T08:31:35Z</time>
      </trkpt>
      <trkpt lat="43.2378" lon="5.6729">
        <ele>411.1</ele>
        <time>2021-10-06T08:31:41Z</time>
      </trkpt>
      <trkpt lat="43.23785" lon="5.67295">
        <ele>411.6</ele>
        <time>2021-10-06T08:31:47Z</time>
      </trkpt>
      <trkpt lat="43.2379" lon="5.67302">
        <ele>412</ele>
        <time>2021-10-06T08:31:53Z</time>
      </trkpt>
      <trkpt lat="43.23793" lon="5.67306">
        <ele>412.3</ele>
        <time>2021-10-06T08:31:57Z</time>
      </trkpt>
      <trkpt lat="43.23797" lon="5.67312">
        <ele>412.7</ele>
        <time>2021-10-06T08:32:03Z</time>
      </trkpt>
      <trkpt lat="43.23802" lon="5.67318">
        <ele>413.1</ele>
        <time>2021-10-06T08:32:09Z</time>
      </trkpt>
      <trkpt lat="43.23806" lon="5.67323">
        <ele>413.5</ele>
        <time>2021-10-06T08:32:15Z</time>
      </trkpt>
      <trkpt lat="43.23809" lon="5.67329">
        <ele>413.9</ele>
        <time>2021-10-06T08:32:21Z</time>
      </trkpt>
      <trkpt lat="43.23814" lon="5.67335">
        <ele>414.4</ele>
        <time>2021-10-06T08:32:27Z</time>
      </trkpt>
      <trkpt lat="43.23819" lon="5.6734">
        <ele>414.9</ele>
        <time>2021-10-06T08:32:33Z</time>
      </trkpt>
      <trkpt lat="43.23824" lon="5.67343">
        <ele>415.3</ele>
        <time>2021-10-06T08:32:39Z</time>
      </trkpt>
      <trkpt lat="43.23828" lon="5.67345">
        <ele>415.7</ele>
        <time>2021-10-06T08:32:43Z</time>
      </trkpt>
      <trkpt lat="43.23833" lon="5.67347">
        <ele>416.1</ele>
        <time>2021-10-06T08:32:49Z</time>
      </trkpt>
      <trkpt lat="43.23837" lon="5.6735">
        <ele>416.5</ele>
        <time>2021-10-06T08:32:55Z</time>
      </trkpt>
      <trkpt lat="43.23842" lon="5.67353">
        <ele>416.9</ele>
        <time>2021-10-06T08:33:01Z</time>
      </trkpt>
      <trkpt lat="43.23846" lon="5.67359">
        <ele>417.3</ele>
        <time>2021-10-06T08:33:07Z</time>
      </trkpt>
      <trkpt lat="43.2385" lon="5.67364">
        <ele>417.6</ele>
        <time>2021-10-06T08:33:13Z</time>
      </trkpt>
      <trkpt lat="43.23855" lon="5.67368">
        <ele>418.1</ele>
        <time>2021-10-06T08:33:19Z</time>
      </trkpt>
      <trkpt lat="43.23859" lon="5.67371">
        <ele>418.5</ele>
        <time>2021-10-06T08:33:23Z</time>
      </trkpt>
      <trkpt lat="43.23865" lon="5.67378">
        <ele>419</ele>
        <time>2021-10-06T08:33:29Z</time>
      </trkpt>
      <trkpt lat="43.2387" lon="5.67384">
        <ele>419.5</ele>
        <time>2021-10-06T08:33:35Z</time>
      </trkpt>
      <trkpt lat="43.23873" lon="5.6739">
        <ele>419.9</ele>
        <time>2021-10-06T08:33:41Z</time>
      </trkpt>
      <trkpt lat="43.23879" lon="5.67394">
        <ele>420.4</ele>
        <time>2021-10-06T08:33:47Z</time>
      </trkpt>
      <trkpt lat="43.23883" lon="5.67398">
        <ele>420.8</ele>
        <time>2021-10-06T08:33:53Z</time>
      </trkpt>
      <trkpt lat="43.23886" lon="5.67403">
        <ele>421.2</ele>
        <time>2021-10-06T08:33:57Z</time>
      </trkpt>
      <trkpt lat="43.23891" lon="5.67408">
        <ele>421.7</ele>
        <time>2021-10-06T08:34:03Z</time>
      </trkpt>
      <trkpt lat="43.23895" lon="5.67413">
        <ele>422.1</ele>
        <time>2021-10-06T08:34:09Z</time>
      </trkpt>
      <trkpt lat="43.23899" lon="5.67418">
        <ele>422.5</ele>
        <time>2021-10-06T08:34:15Z</time>
      </trkpt>
      <trkpt lat="43.23904" lon="5.67423">
        <ele>422.9</ele>
        <time>2021-10-06T08:34:21Z</time>
      </trkpt>
      <trkpt lat="43.23908" lon="5.67427">
        <ele>423.2</ele>
        <time>2021-10-06T08:34:25Z</time>
      </trkpt>
      <trkpt lat="43.23911" lon="5.67431">
        <ele>423.6</ele>
        <time>2021-10-06T08:34:31Z</time>
      </trkpt>
      <trkpt lat="43.23915" lon="5.67436">
        <ele>423.8</ele>
        <time>2021-10-06T08:34:35Z</time>
      </trkpt>
      <trkpt lat="43.23921" lon="5.67438">
        <ele>424.2</ele>
        <time>2021-10-06T08:34:39Z</time>
      </trkpt>
      <trkpt lat="43.23926" lon="5.67441">
        <ele>424.4</ele>
        <time>2021-10-06T08:34:43Z</time>
      </trkpt>
      <trkpt lat="43.23931" lon="5.67444">
        <ele>424.6</ele>
        <time>2021-10-06T08:34:49Z</time>
      </trkpt>
      <trkpt lat="43.23937" lon="5.67445">
        <ele>424.8</ele>
        <time>2021-10-06T08:34:57Z</time>
      </trkpt>
      <trkpt lat="43.23942" lon="5.67446">
        <ele>425</ele>
        <time>2021-10-06T08:35:11Z</time>
      </trkpt>
      <trkpt lat="43.23945" lon="5.67451">
        <ele>425.2</ele>
        <time>2021-10-06T08:35:17Z</time>
      </trkpt>
      <trkpt lat="43.23948" lon="5.67457">
        <ele>425.3</ele>
        <time>2021-10-06T08:35:23Z</time>
      </trkpt>
      <trkpt lat="43.23952" lon="5.67462">
        <ele>425.5</ele>
        <time>2021-10-06T08:35:29Z</time>
      </trkpt>
      <trkpt lat="43.23957" lon="5.67468">
        <ele>425.8</ele>
        <time>2021-10-06T08:35:35Z</time>
      </trkpt>
      <trkpt lat="43.23963" lon="5.67473">
        <ele>426</ele>
        <time>2021-10-06T08:35:41Z</time>
      </trkpt>
      <trkpt lat="43.23967" lon="5.67478">
        <ele>426.3</ele>
        <time>2021-10-06T08:35:47Z</time>
      </trkpt>
      <trkpt lat="43.23971" lon="5.67483">
        <ele>426.5</ele>
        <time>2021-10-06T08:35:53Z</time>
      </trkpt>
      <trkpt lat="43.23976" lon="5.67488">
        <ele>426.7</ele>
        <time>2021-10-06T08:35:59Z</time>
      </trkpt>
      <trkpt lat="43.2398" lon="5.67491">
        <ele>427</ele>
        <time>2021-10-06T08:36:05Z</time>
      </trkpt>
      <trkpt lat="43.23983" lon="5.67496">
        <ele>427.2</ele>
        <time>2021-10-06T08:36:11Z</time>
      </trkpt>
      <trkpt lat="43.23987" lon="5.67502">
        <ele>427.4</ele>
        <time>2021-10-06T08:36:17Z</time>
      </trkpt>
      <trkpt lat="43.23992" lon="5.67508">
        <ele>427.6</ele>
        <time>2021-10-06T08:36:23Z</time>
      </trkpt>
      <trkpt lat="43.23996" lon="5.67512">
        <ele>427.8</ele>
        <time>2021-10-06T08:36:27Z</time>
      </trkpt>
      <trkpt lat="43.24001" lon="5.67517">
        <ele>428</ele>
        <time>2021-10-06T08:36:33Z</time>
      </trkpt>
      <trkpt lat="43.24007" lon="5.67522">
        <ele>428.2</ele>
        <time>2021-10-06T08:36:39Z</time>
      </trkpt>
      <trkpt lat="43.24011" lon="5.67526">
        <ele>428.3</ele>
        <time>2021-10-06T08:36:43Z</time>
      </trkpt>
      <trkpt lat="43.24015" lon="5.67529">
        <ele>428.5</ele>
        <time>2021-10-06T08:36:47Z</time>
      </trkpt>
      <trkpt lat="43.24019" lon="5.67532">
        <ele>428.6</ele>
        <time>2021-10-06T08:36:51Z</time>
      </trkpt>
      <trkpt lat="43.24024" lon="5.67534">
        <ele>428.7</ele>
        <time>2021-10-06T08:36:55Z</time>
      </trkpt>
      <trkpt lat="43.24028" lon="5.6754">
        <ele>428.9</ele>
        <time>2021-10-06T08:37:01Z</time>
      </trkpt>
      <trkpt lat="43.24032" lon="5.67544">
        <ele>428.9</ele>
        <time>2021-10-06T08:37:05Z</time>
      </trkpt>
      <trkpt lat="43.24036" lon="5.6755">
        <ele>429</ele>
        <time>2021-10-06T08:37:11Z</time>
      </trkpt>
      <trkpt lat="43.2404" lon="5.67556">
        <ele>429.1</ele>
        <time>2021-10-06T08:37:17Z</time>
      </trkpt>
      <trkpt lat="43.24042" lon="5.67564">
        <ele>429.1</ele>
        <time>2021-10-06T08:37:23Z</time>
      </trkpt>
      <trkpt lat="43.24042" lon="5.67573">
        <ele>429.1</ele>
        <time>2021-10-06T08:37:29Z</time>
      </trkpt>
      <trkpt lat="43.24045" lon="5.6758">
        <ele>429.1</ele>
        <time>2021-10-06T08:37:35Z</time>
      </trkpt>
      <trkpt lat="43.24047" lon="5.67586">
        <ele>429.1</ele>
        <time>2021-10-06T08:37:39Z</time>
      </trkpt>
      <trkpt lat="43.24048" lon="5.67592">
        <ele>429.3</ele>
        <time>2021-10-06T08:37:43Z</time>
      </trkpt>
      <trkpt lat="43.2405" lon="5.67599">
        <ele>429.4</ele>
        <time>2021-10-06T08:37:47Z</time>
      </trkpt>
      <trkpt lat="43.24053" lon="5.67603">
        <ele>429.5</ele>
        <time>2021-10-06T08:37:53Z</time>
      </trkpt>
      <trkpt lat="43.24059" lon="5.67603">
        <ele>429.6</ele>
        <time>2021-10-06T08:37:59Z</time>
      </trkpt>
      <trkpt lat="43.24064" lon="5.67602">
        <ele>429.8</ele>
        <time>2021-10-06T08:38:07Z</time>
      </trkpt>
      <trkpt lat="43.24069" lon="5.67602">
        <ele>429.9</ele>
        <time>2021-10-06T08:38:11Z</time>
      </trkpt>
      <trkpt lat="43.24075" lon="5.67601">
        <ele>430</ele>
        <time>2021-10-06T08:38:17Z</time>
      </trkpt>
      <trkpt lat="43.24081" lon="5.676">
        <ele>430.1</ele>
        <time>2021-10-06T08:38:23Z</time>
      </trkpt>
      <trkpt lat="43.24086" lon="5.67598">
        <ele>430.2</ele>
        <time>2021-10-06T08:38:27Z</time>
      </trkpt>
      <trkpt lat="43.24092" lon="5.67595">
        <ele>430.2</ele>
        <time>2021-10-06T08:38:33Z</time>
      </trkpt>
      <trkpt lat="43.24097" lon="5.67593">
        <ele>430.3</ele>
        <time>2021-10-06T08:38:37Z</time>
      </trkpt>
      <trkpt lat="43.24101" lon="5.67587">
        <ele>430.2</ele>
        <time>2021-10-06T08:38:45Z</time>
      </trkpt>
      <trkpt lat="43.24103" lon="5.6758">
        <ele>430.3</ele>
        <time>2021-10-06T08:38:51Z</time>
      </trkpt>
      <trkpt lat="43.24103" lon="5.67572">
        <ele>430.3</ele>
        <time>2021-10-06T08:38:57Z</time>
      </trkpt>
      <trkpt lat="43.24106" lon="5.67565">
        <ele>430.4</ele>
        <time>2021-10-06T08:39:03Z</time>
      </trkpt>
      <trkpt lat="43.24114" lon="5.67565">
        <ele>430.5</ele>
        <time>2021-10-06T08:39:09Z</time>
      </trkpt>
      <trkpt lat="43.2412" lon="5.67564">
        <ele>430.6</ele>
        <time>2021-10-06T08:39:13Z</time>
      </trkpt>
      <trkpt lat="43.24124" lon="5.67559">
        <ele>430.6</ele>
        <time>2021-10-06T08:39:21Z</time>
      </trkpt>
      <trkpt lat="43.24127" lon="5.67553">
        <ele>430.7</ele>
        <time>2021-10-06T08:39:27Z</time>
      </trkpt>
      <trkpt lat="43.24132" lon="5.67549">
        <ele>430.8</ele>
        <time>2021-10-06T08:39:33Z</time>
      </trkpt>
      <trkpt lat="43.24137" lon="5.67547">
        <ele>430.8</ele>
        <time>2021-10-06T08:39:39Z</time>
      </trkpt>
      <trkpt lat="43.2414" lon="5.67542">
        <ele>430.8</ele>
        <time>2021-10-06T08:39:49Z</time>
      </trkpt>
      <trkpt lat="43.2414" lon="5.67535">
        <ele>430.9</ele>
        <time>2021-10-06T08:39:55Z</time>
      </trkpt>
      <trkpt lat="43.24137" lon="5.67528">
        <ele>430.9</ele>
        <time>2021-10-06T08:40:01Z</time>
      </trkpt>
      <trkpt lat="43.24135" lon="5.6752">
        <ele>430.9</ele>
        <time>2021-10-06T08:40:07Z</time>
      </trkpt>
      <trkpt lat="43.24132" lon="5.67515">
        <ele>430.9</ele>
        <time>2021-10-06T08:40:11Z</time>
      </trkpt>
      <trkpt lat="43.2413" lon="5.67507">
        <ele>431</ele>
        <time>2021-10-06T08:40:17Z</time>
      </trkpt>
      <trkpt lat="43.24128" lon="5.675">
        <ele>431</ele>
        <time>2021-10-06T08:40:23Z</time>
      </trkpt>
      <trkpt lat="43.24126" lon="5.67494">
        <ele>430.9</ele>
        <time>2021-10-06T08:40:27Z</time>
      </trkpt>
      <trkpt lat="43.24122" lon="5.6749">
        <ele>430.8</ele>
        <time>2021-10-06T08:40:31Z</time>
      </trkpt>
      <trkpt lat="43.24116" lon="5.67485">
        <ele>430.7</ele>
        <time>2021-10-06T08:40:37Z</time>
      </trkpt>
      <trkpt lat="43.24111" lon="5.67485">
        <ele>430.6</ele>
        <time>2021-10-06T08:40:43Z</time>
      </trkpt>
      <trkpt lat="43.24105" lon="5.67486">
        <ele>430.7</ele>
        <time>2021-10-06T08:40:49Z</time>
      </trkpt>
      <trkpt lat="43.24103" lon="5.6748">
        <ele>430.5</ele>
        <time>2021-10-06T08:44:15Z</time>
      </trkpt>
      <trkpt lat="43.24106" lon="5.67484">
        <ele>430.6</ele>
        <time>2021-10-06T08:46:09Z</time>
      </trkpt>
      <trkpt lat="43.24111" lon="5.67486">
        <ele>430.7</ele>
        <time>2021-10-06T08:46:17Z</time>
      </trkpt>
      <trkpt lat="43.24116" lon="5.67487">
        <ele>430.7</ele>
        <time>2021-10-06T08:46:23Z</time>
      </trkpt>
      <trkpt lat="43.2412" lon="5.67493">
        <ele>430.8</ele>
        <time>2021-10-06T08:46:31Z</time>
      </trkpt>
      <trkpt lat="43.24122" lon="5.675">
        <ele>431</ele>
        <time>2021-10-06T08:46:37Z</time>
      </trkpt>
      <trkpt lat="43.24125" lon="5.67505">
        <ele>431</ele>
        <time>2021-10-06T08:46:43Z</time>
      </trkpt>
      <trkpt lat="43.24127" lon="5.67511">
        <ele>430.9</ele>
        <time>2021-10-06T08:46:49Z</time>
      </trkpt>
      <trkpt lat="43.2413" lon="5.67519">
        <ele>430.9</ele>
        <time>2021-10-06T08:46:57Z</time>
      </trkpt>
      <trkpt lat="43.24132" lon="5.67526">
        <ele>430.9</ele>
        <time>2021-10-06T08:47:05Z</time>
      </trkpt>
      <trkpt lat="43.24134" lon="5.67534">
        <ele>430.8</ele>
        <time>2021-10-06T08:47:13Z</time>
      </trkpt>
      <trkpt lat="43.24136" lon="5.6754">
        <ele>430.8</ele>
        <time>2021-10-06T08:47:17Z</time>
      </trkpt>
      <trkpt lat="43.24134" lon="5.67546">
        <ele>430.8</ele>
        <time>2021-10-06T08:47:27Z</time>
      </trkpt>
      <trkpt lat="43.24129" lon="5.67547">
        <ele>430.7</ele>
        <time>2021-10-06T08:47:33Z</time>
      </trkpt>
      <trkpt lat="43.24124" lon="5.6755">
        <ele>430.7</ele>
        <time>2021-10-06T08:47:39Z</time>
      </trkpt>
      <trkpt lat="43.2412" lon="5.67556">
        <ele>430.6</ele>
        <time>2021-10-06T08:47:45Z</time>
      </trkpt>
      <trkpt lat="43.24116" lon="5.6756">
        <ele>430.6</ele>
        <time>2021-10-06T08:47:49Z</time>
      </trkpt>
      <trkpt lat="43.24112" lon="5.67561">
        <ele>430.5</ele>
        <time>2021-10-06T08:47:53Z</time>
      </trkpt>
      <trkpt lat="43.24105" lon="5.67562">
        <ele>430.5</ele>
        <time>2021-10-06T08:47:59Z</time>
      </trkpt>
      <trkpt lat="43.241" lon="5.67567">
        <ele>430.4</ele>
        <time>2021-10-06T08:48:05Z</time>
      </trkpt>
      <trkpt lat="43.24098" lon="5.67573">
        <ele>430.3</ele>
        <time>2021-10-06T08:48:09Z</time>
      </trkpt>
      <trkpt lat="43.24098" lon="5.6758">
        <ele>430.2</ele>
        <time>2021-10-06T08:48:13Z</time>
      </trkpt>
      <trkpt lat="43.24096" lon="5.67587">
        <ele>430.2</ele>
        <time>2021-10-06T08:48:19Z</time>
      </trkpt>
      <trkpt lat="43.24091" lon="5.67592">
        <ele>430.2</ele>
        <time>2021-10-06T08:48:25Z</time>
      </trkpt>
      <trkpt lat="43.24085" lon="5.67594">
        <ele>430.2</ele>
        <time>2021-10-06T08:48:31Z</time>
      </trkpt>
      <trkpt lat="43.24081" lon="5.67595">
        <ele>430.1</ele>
        <time>2021-10-06T08:48:35Z</time>
      </trkpt>
      <trkpt lat="43.24076" lon="5.67595">
        <ele>430</ele>
        <time>2021-10-06T08:48:39Z</time>
      </trkpt>
      <trkpt lat="43.24071" lon="5.67595">
        <ele>429.8</ele>
        <time>2021-10-06T08:48:43Z</time>
      </trkpt>
      <trkpt lat="43.24066" lon="5.67597">
        <ele>429.7</ele>
        <time>2021-10-06T08:48:47Z</time>
      </trkpt>
      <trkpt lat="43.2406" lon="5.67599">
        <ele>429.6</ele>
        <time>2021-10-06T08:48:53Z</time>
      </trkpt>
      <trkpt lat="43.24055" lon="5.67604">
        <ele>429.6</ele>
        <time>2021-10-06T08:48:59Z</time>
      </trkpt>
      <trkpt lat="43.24052" lon="5.67609">
        <ele>429.6</ele>
        <time>2021-10-06T08:49:03Z</time>
      </trkpt>
      <trkpt lat="43.2405" lon="5.67615">
        <ele>429.6</ele>
        <time>2021-10-06T08:49:07Z</time>
      </trkpt>
      <trkpt lat="43.24052" lon="5.67621">
        <ele>429.7</ele>
        <time>2021-10-06T08:49:11Z</time>
      </trkpt>
      <trkpt lat="43.24056" lon="5.67628">
        <ele>429.9</ele>
        <time>2021-10-06T08:49:17Z</time>
      </trkpt>
      <trkpt lat="43.24059" lon="5.67633">
        <ele>430</ele>
        <time>2021-10-06T08:49:21Z</time>
      </trkpt>
      <trkpt lat="43.24063" lon="5.67637">
        <ele>430.1</ele>
        <time>2021-10-06T08:49:25Z</time>
      </trkpt>
      <trkpt lat="43.24067" lon="5.6764">
        <ele>430.3</ele>
        <time>2021-10-06T08:49:29Z</time>
      </trkpt>
      <trkpt lat="43.24072" lon="5.67644">
        <ele>430.5</ele>
        <time>2021-10-06T08:49:35Z</time>
      </trkpt>
      <trkpt lat="43.24076" lon="5.67648">
        <ele>430.6</ele>
        <time>2021-10-06T08:49:41Z</time>
      </trkpt>
      <trkpt lat="43.24082" lon="5.67651">
        <ele>430.8</ele>
        <time>2021-10-06T08:49:47Z</time>
      </trkpt>
      <trkpt lat="43.24087" lon="5.67654">
        <ele>430.9</ele>
        <time>2021-10-06T08:49:53Z</time>
      </trkpt>
      <trkpt lat="43.24093" lon="5.67654">
        <ele>431</ele>
        <time>2021-10-06T08:49:59Z</time>
      </trkpt>
      <trkpt lat="43.24099" lon="5.67653">
        <ele>431</ele>
        <time>2021-10-06T08:50:05Z</time>
      </trkpt>
      <trkpt lat="43.24104" lon="5.67652">
        <ele>431.1</ele>
        <time>2021-10-06T08:50:11Z</time>
      </trkpt>
      <trkpt lat="43.24111" lon="5.67651">
        <ele>431.1</ele>
        <time>2021-10-06T08:50:17Z</time>
      </trkpt>
      <trkpt lat="43.24115" lon="5.67649">
        <ele>431.2</ele>
        <time>2021-10-06T08:50:21Z</time>
      </trkpt>
      <trkpt lat="43.2412" lon="5.67647">
        <ele>431.2</ele>
        <time>2021-10-06T08:50:25Z</time>
      </trkpt>
      <trkpt lat="43.24124" lon="5.67644">
        <ele>431.2</ele>
        <time>2021-10-06T08:50:29Z</time>
      </trkpt>
      <trkpt lat="43.2413" lon="5.67642">
        <ele>431.3</ele>
        <time>2021-10-06T08:50:35Z</time>
      </trkpt>
      <trkpt lat="43.24136" lon="5.67637">
        <ele>431.3</ele>
        <time>2021-10-06T08:50:41Z</time>
      </trkpt>
      <trkpt lat="43.24141" lon="5.67635">
        <ele>431.3</ele>
        <time>2021-10-06T08:50:47Z</time>
      </trkpt>
      <trkpt lat="43.24148" lon="5.67635">
        <ele>431.4</ele>
        <time>2021-10-06T08:50:53Z</time>
      </trkpt>
      <trkpt lat="43.24152" lon="5.67637">
        <ele>431.5</ele>
        <time>2021-10-06T08:50:57Z</time>
      </trkpt>
      <trkpt lat="43.24158" lon="5.6764">
        <ele>431.6</ele>
        <time>2021-10-06T08:51:03Z</time>
      </trkpt>
      <trkpt lat="43.24162" lon="5.67645">
        <ele>431.7</ele>
        <time>2021-10-06T08:51:09Z</time>
      </trkpt>
      <trkpt lat="43.24166" lon="5.67648">
        <ele>431.8</ele>
        <time>2021-10-06T08:51:15Z</time>
      </trkpt>
      <trkpt lat="43.2417" lon="5.67654">
        <ele>432.1</ele>
        <time>2021-10-06T08:51:21Z</time>
      </trkpt>
      <trkpt lat="43.24174" lon="5.67661">
        <ele>432.5</ele>
        <time>2021-10-06T08:51:27Z</time>
      </trkpt>
      <trkpt lat="43.24178" lon="5.67665">
        <ele>433</ele>
        <time>2021-10-06T08:51:33Z</time>
      </trkpt>
      <trkpt lat="43.24184" lon="5.67669">
        <ele>433.6</ele>
        <time>2021-10-06T08:51:39Z</time>
      </trkpt>
      <trkpt lat="43.2419" lon="5.67672">
        <ele>434.2</ele>
        <time>2021-10-06T08:51:45Z</time>
      </trkpt>
      <trkpt lat="43.24194" lon="5.67677">
        <ele>434.8</ele>
        <time>2021-10-06T08:51:51Z</time>
      </trkpt>
      <trkpt lat="43.24199" lon="5.67682">
        <ele>435.5</ele>
        <time>2021-10-06T08:51:57Z</time>
      </trkpt>
      <trkpt lat="43.24204" lon="5.67687">
        <ele>436.1</ele>
        <time>2021-10-06T08:52:03Z</time>
      </trkpt>
      <trkpt lat="43.24208" lon="5.67693">
        <ele>436.8</ele>
        <time>2021-10-06T08:52:09Z</time>
      </trkpt>
      <trkpt lat="43.24213" lon="5.67699">
        <ele>437.4</ele>
        <time>2021-10-06T08:52:15Z</time>
      </trkpt>
      <trkpt lat="43.24216" lon="5.67704">
        <ele>437.8</ele>
        <time>2021-10-06T08:52:19Z</time>
      </trkpt>
      <trkpt lat="43.24219" lon="5.67711">
        <ele>438.4</ele>
        <time>2021-10-06T08:52:25Z</time>
      </trkpt>
      <trkpt lat="43.24223" lon="5.67716">
        <ele>438.9</ele>
        <time>2021-10-06T08:52:31Z</time>
      </trkpt>
      <trkpt lat="43.24227" lon="5.67721">
        <ele>439.4</ele>
        <time>2021-10-06T08:52:37Z</time>
      </trkpt>
      <trkpt lat="43.24233" lon="5.67725">
        <ele>439.9</ele>
        <time>2021-10-06T08:52:43Z</time>
      </trkpt>
      <trkpt lat="43.24237" lon="5.67731">
        <ele>440.4</ele>
        <time>2021-10-06T08:52:49Z</time>
      </trkpt>
      <trkpt lat="43.24242" lon="5.67736">
        <ele>441</ele>
        <time>2021-10-06T08:52:55Z</time>
      </trkpt>
      <trkpt lat="43.24245" lon="5.6774">
        <ele>441.4</ele>
        <time>2021-10-06T08:52:59Z</time>
      </trkpt>
      <trkpt lat="43.24249" lon="5.67745">
        <ele>441.8</ele>
        <time>2021-10-06T08:53:05Z</time>
      </trkpt>
      <trkpt lat="43.24254" lon="5.67746">
        <ele>442.1</ele>
        <time>2021-10-06T08:53:13Z</time>
      </trkpt>
      <trkpt lat="43.24259" lon="5.67746">
        <ele>442.3</ele>
        <time>2021-10-06T08:53:25Z</time>
      </trkpt>
      <trkpt lat="43.24264" lon="5.6775">
        <ele>442.7</ele>
        <time>2021-10-06T08:53:33Z</time>
      </trkpt>
      <trkpt lat="43.24267" lon="5.67755">
        <ele>442.8</ele>
        <time>2021-10-06T08:53:39Z</time>
      </trkpt>
      <trkpt lat="43.24272" lon="5.67757">
        <ele>443.1</ele>
        <time>2021-10-06T08:53:45Z</time>
      </trkpt>
      <trkpt lat="43.24278" lon="5.67759">
        <ele>443.4</ele>
        <time>2021-10-06T08:53:51Z</time>
      </trkpt>
      <trkpt lat="43.24282" lon="5.67762">
        <ele>443.6</ele>
        <time>2021-10-06T08:53:55Z</time>
      </trkpt>
      <trkpt lat="43.24286" lon="5.67768">
        <ele>443.9</ele>
        <time>2021-10-06T08:54:01Z</time>
      </trkpt>
      <trkpt lat="43.2429" lon="5.67773">
        <ele>444.2</ele>
        <time>2021-10-06T08:54:07Z</time>
      </trkpt>
      <trkpt lat="43.24294" lon="5.67778">
        <ele>444.5</ele>
        <time>2021-10-06T08:54:13Z</time>
      </trkpt>
      <trkpt lat="43.24299" lon="5.67783">
        <ele>444.8</ele>
        <time>2021-10-06T08:54:19Z</time>
      </trkpt>
      <trkpt lat="43.24304" lon="5.67787">
        <ele>445.2</ele>
        <time>2021-10-06T08:54:25Z</time>
      </trkpt>
      <trkpt lat="43.24309" lon="5.67791">
        <ele>445.5</ele>
        <time>2021-10-06T08:54:31Z</time>
      </trkpt>
      <trkpt lat="43.24313" lon="5.67795">
        <ele>445.9</ele>
        <time>2021-10-06T08:54:39Z</time>
      </trkpt>
      <trkpt lat="43.24318" lon="5.678">
        <ele>446.2</ele>
        <time>2021-10-06T08:54:45Z</time>
      </trkpt>
      <trkpt lat="43.24323" lon="5.67806">
        <ele>446.7</ele>
        <time>2021-10-06T08:54:51Z</time>
      </trkpt>
      <trkpt lat="43.24327" lon="5.67809">
        <ele>447</ele>
        <time>2021-10-06T08:54:55Z</time>
      </trkpt>
      <trkpt lat="43.24331" lon="5.67815">
        <ele>447.4</ele>
        <time>2021-10-06T08:55:01Z</time>
      </trkpt>
      <trkpt lat="43.24335" lon="5.67821">
        <ele>447.8</ele>
        <time>2021-10-06T08:55:09Z</time>
      </trkpt>
      <trkpt lat="43.24339" lon="5.67826">
        <ele>448.3</ele>
        <time>2021-10-06T08:55:15Z</time>
      </trkpt>
      <trkpt lat="43.24342" lon="5.67832">
        <ele>448.6</ele>
        <time>2021-10-06T08:55:21Z</time>
      </trkpt>
      <trkpt lat="43.24346" lon="5.67836">
        <ele>448.9</ele>
        <time>2021-10-06T08:55:27Z</time>
      </trkpt>
      <trkpt lat="43.24349" lon="5.67844">
        <ele>449.2</ele>
        <time>2021-10-06T08:55:35Z</time>
      </trkpt>
      <trkpt lat="43.24352" lon="5.67849">
        <ele>449.5</ele>
        <time>2021-10-06T08:55:39Z</time>
      </trkpt>
      <trkpt lat="43.24358" lon="5.67853">
        <ele>450</ele>
        <time>2021-10-06T08:55:45Z</time>
      </trkpt>
      <trkpt lat="43.24364" lon="5.67856">
        <ele>450.5</ele>
        <time>2021-10-06T08:55:51Z</time>
      </trkpt>
      <trkpt lat="43.24369" lon="5.6786">
        <ele>450.9</ele>
        <time>2021-10-06T08:55:57Z</time>
      </trkpt>
      <trkpt lat="43.24375" lon="5.67863">
        <ele>451.4</ele>
        <time>2021-10-06T08:56:03Z</time>
      </trkpt>
      <trkpt lat="43.24381" lon="5.67865">
        <ele>451.8</ele>
        <time>2021-10-06T08:56:09Z</time>
      </trkpt>
      <trkpt lat="43.24386" lon="5.67865">
        <ele>452.2</ele>
        <time>2021-10-06T08:56:13Z</time>
      </trkpt>
      <trkpt lat="43.24391" lon="5.67868">
        <ele>452.5</ele>
        <time>2021-10-06T08:56:19Z</time>
      </trkpt>
      <trkpt lat="43.24394" lon="5.67874">
        <ele>452.9</ele>
        <time>2021-10-06T08:56:25Z</time>
      </trkpt>
      <trkpt lat="43.24398" lon="5.6788">
        <ele>453.2</ele>
        <time>2021-10-06T08:56:31Z</time>
      </trkpt>
      <trkpt lat="43.24402" lon="5.67887">
        <ele>453.6</ele>
        <time>2021-10-06T08:56:37Z</time>
      </trkpt>
      <trkpt lat="43.24405" lon="5.67893">
        <ele>453.9</ele>
        <time>2021-10-06T08:56:43Z</time>
      </trkpt>
      <trkpt lat="43.24407" lon="5.67901">
        <ele>454.1</ele>
        <time>2021-10-06T08:56:49Z</time>
      </trkpt>
      <trkpt lat="43.2441" lon="5.67908">
        <ele>454.4</ele>
        <time>2021-10-06T08:56:55Z</time>
      </trkpt>
      <trkpt lat="43.24415" lon="5.67914">
        <ele>454.8</ele>
        <time>2021-10-06T08:57:01Z</time>
      </trkpt>
      <trkpt lat="43.24419" lon="5.67919">
        <ele>454.9</ele>
        <time>2021-10-06T08:57:07Z</time>
      </trkpt>
      <trkpt lat="43.24423" lon="5.67925">
        <ele>454.7</ele>
        <time>2021-10-06T08:57:13Z</time>
      </trkpt>
      <trkpt lat="43.24427" lon="5.67929">
        <ele>454.5</ele>
        <time>2021-10-06T08:57:17Z</time>
      </trkpt>
      <trkpt lat="43.24431" lon="5.67933">
        <ele>454.3</ele>
        <time>2021-10-06T08:57:21Z</time>
      </trkpt>
      <trkpt lat="43.24435" lon="5.67937">
        <ele>454.2</ele>
        <time>2021-10-06T08:57:25Z</time>
      </trkpt>
      <trkpt lat="43.24438" lon="5.67942">
        <ele>454.2</ele>
        <time>2021-10-06T08:57:29Z</time>
      </trkpt>
      <trkpt lat="43.24441" lon="5.67946">
        <ele>454.2</ele>
        <time>2021-10-06T08:57:33Z</time>
      </trkpt>
      <trkpt lat="43.24444" lon="5.67954">
        <ele>454.2</ele>
        <time>2021-10-06T08:57:39Z</time>
      </trkpt>
      <trkpt lat="43.24446" lon="5.67959">
        <ele>454.3</ele>
        <time>2021-10-06T08:57:43Z</time>
      </trkpt>
      <trkpt lat="43.24448" lon="5.67966">
        <ele>454.5</ele>
        <time>2021-10-06T08:57:49Z</time>
      </trkpt>
      <trkpt lat="43.24449" lon="5.67975">
        <ele>454.7</ele>
        <time>2021-10-06T08:57:55Z</time>
      </trkpt>
      <trkpt lat="43.24451" lon="5.6798">
        <ele>454.8</ele>
        <time>2021-10-06T08:57:59Z</time>
      </trkpt>
      <trkpt lat="43.24454" lon="5.67986">
        <ele>455</ele>
        <time>2021-10-06T08:58:05Z</time>
      </trkpt>
      <trkpt lat="43.24456" lon="5.67994">
        <ele>455.3</ele>
        <time>2021-10-06T08:58:11Z</time>
      </trkpt>
      <trkpt lat="43.24457" lon="5.68">
        <ele>455.5</ele>
        <time>2021-10-06T08:58:15Z</time>
      </trkpt>
      <trkpt lat="43.24459" lon="5.68007">
        <ele>455.4</ele>
        <time>2021-10-06T08:58:19Z</time>
      </trkpt>
      <trkpt lat="43.24461" lon="5.68015">
        <ele>455.3</ele>
        <time>2021-10-06T08:58:23Z</time>
      </trkpt>
      <trkpt lat="43.24462" lon="5.68022">
        <ele>455.3</ele>
        <time>2021-10-06T08:58:27Z</time>
      </trkpt>
      <trkpt lat="43.24463" lon="5.6803">
        <ele>455.2</ele>
        <time>2021-10-06T08:58:33Z</time>
      </trkpt>
      <trkpt lat="43.24463" lon="5.68038">
        <ele>455.1</ele>
        <time>2021-10-06T08:58:39Z</time>
      </trkpt>
      <trkpt lat="43.24462" lon="5.68046">
        <ele>455</ele>
        <time>2021-10-06T08:58:45Z</time>
      </trkpt>
      <trkpt lat="43.24462" lon="5.68055">
        <ele>454.9</ele>
        <time>2021-10-06T08:58:51Z</time>
      </trkpt>
      <trkpt lat="43.24461" lon="5.68061">
        <ele>454.8</ele>
        <time>2021-10-06T08:58:55Z</time>
      </trkpt>
      <trkpt lat="43.24459" lon="5.68067">
        <ele>454.7</ele>
        <time>2021-10-06T08:58:59Z</time>
      </trkpt>
      <trkpt lat="43.24458" lon="5.68076">
        <ele>454.6</ele>
        <time>2021-10-06T08:59:05Z</time>
      </trkpt>
      <trkpt lat="43.24457" lon="5.68084">
        <ele>454.4</ele>
        <time>2021-10-06T08:59:11Z</time>
      </trkpt>
      <trkpt lat="43.24455" lon="5.68093">
        <ele>454.1</ele>
        <time>2021-10-06T08:59:17Z</time>
      </trkpt>
      <trkpt lat="43.24452" lon="5.681">
        <ele>453.8</ele>
        <time>2021-10-06T08:59:23Z</time>
      </trkpt>
      <trkpt lat="43.24448" lon="5.68105">
        <ele>453.6</ele>
        <time>2021-10-06T08:59:29Z</time>
      </trkpt>
      <trkpt lat="43.24444" lon="5.68111">
        <ele>453.3</ele>
        <time>2021-10-06T08:59:35Z</time>
      </trkpt>
      <trkpt lat="43.2444" lon="5.68117">
        <ele>453.1</ele>
        <time>2021-10-06T08:59:41Z</time>
      </trkpt>
      <trkpt lat="43.24435" lon="5.68124">
        <ele>452.9</ele>
        <time>2021-10-06T08:59:47Z</time>
      </trkpt>
      <trkpt lat="43.24434" lon="5.68131">
        <ele>452.7</ele>
        <time>2021-10-06T08:59:51Z</time>
      </trkpt>
      <trkpt lat="43.24432" lon="5.68137">
        <ele>452.6</ele>
        <time>2021-10-06T08:59:55Z</time>
      </trkpt>
      <trkpt lat="43.24428" lon="5.68143">
        <ele>452.4</ele>
        <time>2021-10-06T08:59:59Z</time>
      </trkpt>
      <trkpt lat="43.24426" lon="5.68149">
        <ele>452.3</ele>
        <time>2021-10-06T09:00:03Z</time>
      </trkpt>
      <trkpt lat="43.24425" lon="5.68155">
        <ele>452.1</ele>
        <time>2021-10-06T09:00:07Z</time>
      </trkpt>
      <trkpt lat="43.24423" lon="5.68161">
        <ele>452</ele>
        <time>2021-10-06T09:00:11Z</time>
      </trkpt>
      <trkpt lat="43.24422" lon="5.68167">
        <ele>451.8</ele>
        <time>2021-10-06T09:00:15Z</time>
      </trkpt>
      <trkpt lat="43.2442" lon="5.68176">
        <ele>451.5</ele>
        <time>2021-10-06T09:00:21Z</time>
      </trkpt>
      <trkpt lat="43.24418" lon="5.68184">
        <ele>451.3</ele>
        <time>2021-10-06T09:00:27Z</time>
      </trkpt>
      <trkpt lat="43.24416" lon="5.68192">
        <ele>451.1</ele>
        <time>2021-10-06T09:00:33Z</time>
      </trkpt>
      <trkpt lat="43.24415" lon="5.68201">
        <ele>450.7</ele>
        <time>2021-10-06T09:00:39Z</time>
      </trkpt>
      <trkpt lat="43.24415" lon="5.68208">
        <ele>450.5</ele>
        <time>2021-10-06T09:00:43Z</time>
      </trkpt>
      <trkpt lat="43.24413" lon="5.68217">
        <ele>450.1</ele>
        <time>2021-10-06T09:00:49Z</time>
      </trkpt>
      <trkpt lat="43.24411" lon="5.68225">
        <ele>449.8</ele>
        <time>2021-10-06T09:00:55Z</time>
      </trkpt>
      <trkpt lat="43.24408" lon="5.6823">
        <ele>449.6</ele>
        <time>2021-10-06T09:00:59Z</time>
      </trkpt>
      <trkpt lat="43.24405" lon="5.68238">
        <ele>449.3</ele>
        <time>2021-10-06T09:01:05Z</time>
      </trkpt>
      <trkpt lat="43.24401" lon="5.68246">
        <ele>449.1</ele>
        <time>2021-10-06T09:01:11Z</time>
      </trkpt>
      <trkpt lat="43.24399" lon="5.68251">
        <ele>449</ele>
        <time>2021-10-06T09:01:15Z</time>
      </trkpt>
      <trkpt lat="43.24397" lon="5.68257">
        <ele>448.7</ele>
        <time>2021-10-06T09:01:19Z</time>
      </trkpt>
      <trkpt lat="43.24395" lon="5.68264">
        <ele>448.4</ele>
        <time>2021-10-06T09:01:23Z</time>
      </trkpt>
      <trkpt lat="43.24395" lon="5.68271">
        <ele>448.1</ele>
        <time>2021-10-06T09:01:27Z</time>
      </trkpt>
      <trkpt lat="43.24395" lon="5.68279">
        <ele>447.8</ele>
        <time>2021-10-06T09:01:31Z</time>
      </trkpt>
      <trkpt lat="43.24395" lon="5.68285">
        <ele>447.5</ele>
        <time>2021-10-06T09:01:35Z</time>
      </trkpt>
      <trkpt lat="43.24396" lon="5.68292">
        <ele>447.3</ele>
        <time>2021-10-06T09:01:39Z</time>
      </trkpt>
      <trkpt lat="43.24397" lon="5.68298">
        <ele>447</ele>
        <time>2021-10-06T09:01:43Z</time>
      </trkpt>
      <trkpt lat="43.24398" lon="5.68304">
        <ele>446.7</ele>
        <time>2021-10-06T09:01:47Z</time>
      </trkpt>
      <trkpt lat="43.24399" lon="5.68311">
        <ele>446.4</ele>
        <time>2021-10-06T09:01:51Z</time>
      </trkpt>
      <trkpt lat="43.244" lon="5.68317">
        <ele>446.1</ele>
        <time>2021-10-06T09:01:55Z</time>
      </trkpt>
      <trkpt lat="43.244" lon="5.68323">
        <ele>445.8</ele>
        <time>2021-10-06T09:01:59Z</time>
      </trkpt>
      <trkpt lat="43.24401" lon="5.6833">
        <ele>445.5</ele>
        <time>2021-10-06T09:02:03Z</time>
      </trkpt>
      <trkpt lat="43.24401" lon="5.68337">
        <ele>445.2</ele>
        <time>2021-10-06T09:02:07Z</time>
      </trkpt>
      <trkpt lat="43.24402" lon="5.68343">
        <ele>444.9</ele>
        <time>2021-10-06T09:02:11Z</time>
      </trkpt>
      <trkpt lat="43.24404" lon="5.6835">
        <ele>444.6</ele>
        <time>2021-10-06T09:02:15Z</time>
      </trkpt>
      <trkpt lat="43.24406" lon="5.68356">
        <ele>444.3</ele>
        <time>2021-10-06T09:02:19Z</time>
      </trkpt>
      <trkpt lat="43.24407" lon="5.68362">
        <ele>443.9</ele>
        <time>2021-10-06T09:02:23Z</time>
      </trkpt>
      <trkpt lat="43.24408" lon="5.68369">
        <ele>443.6</ele>
        <time>2021-10-06T09:02:27Z</time>
      </trkpt>
      <trkpt lat="43.24409" lon="5.68375">
        <ele>443.3</ele>
        <time>2021-10-06T09:02:31Z</time>
      </trkpt>
      <trkpt lat="43.24411" lon="5.68384">
        <ele>442.8</ele>
        <time>2021-10-06T09:02:37Z</time>
      </trkpt>
      <trkpt lat="43.24412" lon="5.6839">
        <ele>442.4</ele>
        <time>2021-10-06T09:02:41Z</time>
      </trkpt>
      <trkpt lat="43.24414" lon="5.68399">
        <ele>441.9</ele>
        <time>2021-10-06T09:02:47Z</time>
      </trkpt>
      <trkpt lat="43.24415" lon="5.68405">
        <ele>441.6</ele>
        <time>2021-10-06T09:02:51Z</time>
      </trkpt>
      <trkpt lat="43.24416" lon="5.68412">
        <ele>441.3</ele>
        <time>2021-10-06T09:02:55Z</time>
      </trkpt>
      <trkpt lat="43.24416" lon="5.68421">
        <ele>440.9</ele>
        <time>2021-10-06T09:03:01Z</time>
      </trkpt>
      <trkpt lat="43.24417" lon="5.6843">
        <ele>440.6</ele>
        <time>2021-10-06T09:03:07Z</time>
      </trkpt>
      <trkpt lat="43.24417" lon="5.68439">
        <ele>440.4</ele>
        <time>2021-10-06T09:03:13Z</time>
      </trkpt>
      <trkpt lat="43.24417" lon="5.68447">
        <ele>440.3</ele>
        <time>2021-10-06T09:03:19Z</time>
      </trkpt>
      <trkpt lat="43.24416" lon="5.68453">
        <ele>440.2</ele>
        <time>2021-10-06T09:03:25Z</time>
      </trkpt>
      <trkpt lat="43.24417" lon="5.68461">
        <ele>439.9</ele>
        <time>2021-10-06T09:03:31Z</time>
      </trkpt>
      <trkpt lat="43.24416" lon="5.68469">
        <ele>439.8</ele>
        <time>2021-10-06T09:03:37Z</time>
      </trkpt>
      <trkpt lat="43.24415" lon="5.68478">
        <ele>439.6</ele>
        <time>2021-10-06T09:03:43Z</time>
      </trkpt>
      <trkpt lat="43.24414" lon="5.68484">
        <ele>439.5</ele>
        <time>2021-10-06T09:03:47Z</time>
      </trkpt>
      <trkpt lat="43.24413" lon="5.6849">
        <ele>439.3</ele>
        <time>2021-10-06T09:03:51Z</time>
      </trkpt>
      <trkpt lat="43.24412" lon="5.68496">
        <ele>439.2</ele>
        <time>2021-10-06T09:03:55Z</time>
      </trkpt>
      <trkpt lat="43.2441" lon="5.68502">
        <ele>438.9</ele>
        <time>2021-10-06T09:03:59Z</time>
      </trkpt>
      <trkpt lat="43.24408" lon="5.68511">
        <ele>438.2</ele>
        <time>2021-10-06T09:04:05Z</time>
      </trkpt>
      <trkpt lat="43.24406" lon="5.68519">
        <ele>437.4</ele>
        <time>2021-10-06T09:04:11Z</time>
      </trkpt>
      <trkpt lat="43.24404" lon="5.68526">
        <ele>436.9</ele>
        <time>2021-10-06T09:04:15Z</time>
      </trkpt>
      <trkpt lat="43.24402" lon="5.68531">
        <ele>436.4</ele>
        <time>2021-10-06T09:04:19Z</time>
      </trkpt>
      <trkpt lat="43.244" lon="5.68539">
        <ele>435.8</ele>
        <time>2021-10-06T09:04:25Z</time>
      </trkpt>
      <trkpt lat="43.24399" lon="5.68545">
        <ele>435.2</ele>
        <time>2021-10-06T09:04:29Z</time>
      </trkpt>
      <trkpt lat="43.24396" lon="5.68553">
        <ele>434.6</ele>
        <time>2021-10-06T09:04:35Z</time>
      </trkpt>
      <trkpt lat="43.24394" lon="5.6856">
        <ele>434</ele>
        <time>2021-10-06T09:04:41Z</time>
      </trkpt>
      <trkpt lat="43.24391" lon="5.68568">
        <ele>433.4</ele>
        <time>2021-10-06T09:04:47Z</time>
      </trkpt>
      <trkpt lat="43.24388" lon="5.68576">
        <ele>432.7</ele>
        <time>2021-10-06T09:04:53Z</time>
      </trkpt>
      <trkpt lat="43.24384" lon="5.68583">
        <ele>432.2</ele>
        <time>2021-10-06T09:04:59Z</time>
      </trkpt>
      <trkpt lat="43.24382" lon="5.68591">
        <ele>431.2</ele>
        <time>2021-10-06T09:05:05Z</time>
      </trkpt>
      <trkpt lat="43.24379" lon="5.68598">
        <ele>430.4</ele>
        <time>2021-10-06T09:05:11Z</time>
      </trkpt>
      <trkpt lat="43.24377" lon="5.68605">
        <ele>429.6</ele>
        <time>2021-10-06T09:05:17Z</time>
      </trkpt>
      <trkpt lat="43.24374" lon="5.68613">
        <ele>428.7</ele>
        <time>2021-10-06T09:05:23Z</time>
      </trkpt>
      <trkpt lat="43.2437" lon="5.6862">
        <ele>427.9</ele>
        <time>2021-10-06T09:05:29Z</time>
      </trkpt>
      <trkpt lat="43.24367" lon="5.68627">
        <ele>427.1</ele>
        <time>2021-10-06T09:05:35Z</time>
      </trkpt>
      <trkpt lat="43.24364" lon="5.68633">
        <ele>426.5</ele>
        <time>2021-10-06T09:05:41Z</time>
      </trkpt>
      <trkpt lat="43.2436" lon="5.68639">
        <ele>425.9</ele>
        <time>2021-10-06T09:05:47Z</time>
      </trkpt>
      <trkpt lat="43.24358" lon="5.68645">
        <ele>425.3</ele>
        <time>2021-10-06T09:05:53Z</time>
      </trkpt>
      <trkpt lat="43.24354" lon="5.68651">
        <ele>424.7</ele>
        <time>2021-10-06T09:05:59Z</time>
      </trkpt>
      <trkpt lat="43.24351" lon="5.68658">
        <ele>424.1</ele>
        <time>2021-10-06T09:06:05Z</time>
      </trkpt>
      <trkpt lat="43.24348" lon="5.68664">
        <ele>423.4</ele>
        <time>2021-10-06T09:06:11Z</time>
      </trkpt>
      <trkpt lat="43.24345" lon="5.68671">
        <ele>422.7</ele>
        <time>2021-10-06T09:06:17Z</time>
      </trkpt>
      <trkpt lat="43.24343" lon="5.68678">
        <ele>422.2</ele>
        <time>2021-10-06T09:06:23Z</time>
      </trkpt>
      <trkpt lat="43.24339" lon="5.68685">
        <ele>421.6</ele>
        <time>2021-10-06T09:06:29Z</time>
      </trkpt>
      <trkpt lat="43.24336" lon="5.68693">
        <ele>421</ele>
        <time>2021-10-06T09:06:35Z</time>
      </trkpt>
      <trkpt lat="43.24333" lon="5.687">
        <ele>420.4</ele>
        <time>2021-10-06T09:06:41Z</time>
      </trkpt>
      <trkpt lat="43.24331" lon="5.68708">
        <ele>419.5</ele>
        <time>2021-10-06T09:06:47Z</time>
      </trkpt>
      <trkpt lat="43.24328" lon="5.68716">
        <ele>418.7</ele>
        <time>2021-10-06T09:06:53Z</time>
      </trkpt>
      <trkpt lat="43.24326" lon="5.68724">
        <ele>417.9</ele>
        <time>2021-10-06T09:06:59Z</time>
      </trkpt>
      <trkpt lat="43.24324" lon="5.68731">
        <ele>417.1</ele>
        <time>2021-10-06T09:07:05Z</time>
      </trkpt>
      <trkpt lat="43.24321" lon="5.68739">
        <ele>416.3</ele>
        <time>2021-10-06T09:07:11Z</time>
      </trkpt>
      <trkpt lat="43.24317" lon="5.68744">
        <ele>415.7</ele>
        <time>2021-10-06T09:07:17Z</time>
      </trkpt>
      <trkpt lat="43.24314" lon="5.6875">
        <ele>415</ele>
        <time>2021-10-06T09:07:23Z</time>
      </trkpt>
      <trkpt lat="43.24311" lon="5.68757">
        <ele>414.1</ele>
        <time>2021-10-06T09:07:29Z</time>
      </trkpt>
      <trkpt lat="43.24308" lon="5.68765">
        <ele>413.2</ele>
        <time>2021-10-06T09:07:35Z</time>
      </trkpt>
      <trkpt lat="43.24307" lon="5.68774">
        <ele>412.2</ele>
        <time>2021-10-06T09:07:41Z</time>
      </trkpt>
      <trkpt lat="43.24305" lon="5.6878">
        <ele>411.5</ele>
        <time>2021-10-06T09:07:49Z</time>
      </trkpt>
      <trkpt lat="43.24304" lon="5.68787">
        <ele>410.8</ele>
        <time>2021-10-06T09:09:47Z</time>
      </trkpt>
      <trkpt lat="43.24301" lon="5.68793">
        <ele>410.1</ele>
        <time>2021-10-06T09:09:57Z</time>
      </trkpt>
      <trkpt lat="43.24298" lon="5.688">
        <ele>409.4</ele>
        <time>2021-10-06T09:10:03Z</time>
      </trkpt>
      <trkpt lat="43.24297" lon="5.68808">
        <ele>408.6</ele>
        <time>2021-10-06T09:10:09Z</time>
      </trkpt>
      <trkpt lat="43.24298" lon="5.68816">
        <ele>407.6</ele>
        <time>2021-10-06T09:10:15Z</time>
      </trkpt>
      <trkpt lat="43.24301" lon="5.68822">
        <ele>406.9</ele>
        <time>2021-10-06T09:10:21Z</time>
      </trkpt>
      <trkpt lat="43.24305" lon="5.68827">
        <ele>406.1</ele>
        <time>2021-10-06T09:10:27Z</time>
      </trkpt>
      <trkpt lat="43.2431" lon="5.68831">
        <ele>405.4</ele>
        <time>2021-10-06T09:10:35Z</time>
      </trkpt>
      <trkpt lat="43.24315" lon="5.68834">
        <ele>404.9</ele>
        <time>2021-10-06T09:10:41Z</time>
      </trkpt>
      <trkpt lat="43.24318" lon="5.68839">
        <ele>404.4</ele>
        <time>2021-10-06T09:10:47Z</time>
      </trkpt>
      <trkpt lat="43.24323" lon="5.68843">
        <ele>403.9</ele>
        <time>2021-10-06T09:10:55Z</time>
      </trkpt>
      <trkpt lat="43.24327" lon="5.68848">
        <ele>403.3</ele>
        <time>2021-10-06T09:11:03Z</time>
      </trkpt>
      <trkpt lat="43.24332" lon="5.68851">
        <ele>402.8</ele>
        <time>2021-10-06T09:11:13Z</time>
      </trkpt>
      <trkpt lat="43.24337" lon="5.68854">
        <ele>402.4</ele>
        <time>2021-10-06T09:11:21Z</time>
      </trkpt>
      <trkpt lat="43.24341" lon="5.68857">
        <ele>402</ele>
        <time>2021-10-06T09:11:27Z</time>
      </trkpt>
      <trkpt lat="43.24346" lon="5.68862">
        <ele>401.4</ele>
        <time>2021-10-06T09:11:35Z</time>
      </trkpt>
      <trkpt lat="43.24349" lon="5.68868">
        <ele>400.8</ele>
        <time>2021-10-06T09:11:43Z</time>
      </trkpt>
      <trkpt lat="43.24353" lon="5.68873">
        <ele>400.3</ele>
        <time>2021-10-06T09:11:49Z</time>
      </trkpt>
      <trkpt lat="43.24356" lon="5.68879">
        <ele>399.7</ele>
        <time>2021-10-06T09:11:57Z</time>
      </trkpt>
      <trkpt lat="43.24359" lon="5.68884">
        <ele>399.3</ele>
        <time>2021-10-06T09:12:03Z</time>
      </trkpt>
      <trkpt lat="43.24364" lon="5.68888">
        <ele>398.7</ele>
        <time>2021-10-06T09:12:09Z</time>
      </trkpt>
      <trkpt lat="43.24367" lon="5.68893">
        <ele>398.2</ele>
        <time>2021-10-06T09:12:15Z</time>
      </trkpt>
      <trkpt lat="43.24371" lon="5.68899">
        <ele>397.6</ele>
        <time>2021-10-06T09:12:21Z</time>
      </trkpt>
      <trkpt lat="43.24374" lon="5.68905">
        <ele>397</ele>
        <time>2021-10-06T09:12:29Z</time>
      </trkpt>
      <trkpt lat="43.24377" lon="5.68909">
        <ele>396.5</ele>
        <time>2021-10-06T09:12:37Z</time>
      </trkpt>
      <trkpt lat="43.24379" lon="5.68918">
        <ele>395.8</ele>
        <time>2021-10-06T09:12:45Z</time>
      </trkpt>
      <trkpt lat="43.24383" lon="5.68922">
        <ele>395.6</ele>
        <time>2021-10-06T09:12:51Z</time>
      </trkpt>
      <trkpt lat="43.24386" lon="5.68927">
        <ele>395.4</ele>
        <time>2021-10-06T09:13:01Z</time>
      </trkpt>
      <trkpt lat="43.2439" lon="5.68931">
        <ele>395.1</ele>
        <time>2021-10-06T09:13:11Z</time>
      </trkpt>
      <trkpt lat="43.24395" lon="5.68934">
        <ele>394.9</ele>
        <time>2021-10-06T09:13:19Z</time>
      </trkpt>
      <trkpt lat="43.244" lon="5.68937">
        <ele>394.6</ele>
        <time>2021-10-06T09:13:29Z</time>
      </trkpt>
      <trkpt lat="43.24404" lon="5.68941">
        <ele>394.4</ele>
        <time>2021-10-06T09:13:35Z</time>
      </trkpt>
      <trkpt lat="43.24406" lon="5.68949">
        <ele>394.2</ele>
        <time>2021-10-06T09:13:43Z</time>
      </trkpt>
      <trkpt lat="43.24407" lon="5.68955">
        <ele>394.1</ele>
        <time>2021-10-06T09:13:49Z</time>
      </trkpt>
      <trkpt lat="43.24408" lon="5.68962">
        <ele>393.9</ele>
        <time>2021-10-06T09:13:55Z</time>
      </trkpt>
      <trkpt lat="43.2441" lon="5.68968">
        <ele>393.8</ele>
        <time>2021-10-06T09:14:01Z</time>
      </trkpt>
      <trkpt lat="43.24414" lon="5.68973">
        <ele>393.5</ele>
        <time>2021-10-06T09:14:07Z</time>
      </trkpt>
      <trkpt lat="43.2442" lon="5.68975">
        <ele>393.2</ele>
        <time>2021-10-06T09:14:13Z</time>
      </trkpt>
      <trkpt lat="43.24426" lon="5.68976">
        <ele>393</ele>
        <time>2021-10-06T09:14:19Z</time>
      </trkpt>
      <trkpt lat="43.24431" lon="5.68978">
        <ele>392.8</ele>
        <time>2021-10-06T09:14:25Z</time>
      </trkpt>
      <trkpt lat="43.24437" lon="5.6898">
        <ele>392.6</ele>
        <time>2021-10-06T09:14:31Z</time>
      </trkpt>
      <trkpt lat="43.24443" lon="5.68983">
        <ele>392.3</ele>
        <time>2021-10-06T09:14:37Z</time>
      </trkpt>
      <trkpt lat="43.24448" lon="5.68984">
        <ele>392</ele>
        <time>2021-10-06T09:14:43Z</time>
      </trkpt>
      <trkpt lat="43.24452" lon="5.68986">
        <ele>391.8</ele>
        <time>2021-10-06T09:14:47Z</time>
      </trkpt>
      <trkpt lat="43.24459" lon="5.68987">
        <ele>391.5</ele>
        <time>2021-10-06T09:14:53Z</time>
      </trkpt>
      <trkpt lat="43.24464" lon="5.68989">
        <ele>391.2</ele>
        <time>2021-10-06T09:14:59Z</time>
      </trkpt>
      <trkpt lat="43.2447" lon="5.68992">
        <ele>390.9</ele>
        <time>2021-10-06T09:15:05Z</time>
      </trkpt>
      <trkpt lat="43.24475" lon="5.68995">
        <ele>390.5</ele>
        <time>2021-10-06T09:15:11Z</time>
      </trkpt>
      <trkpt lat="43.2448" lon="5.68998">
        <ele>390</ele>
        <time>2021-10-06T09:15:17Z</time>
      </trkpt>
      <trkpt lat="43.24486" lon="5.69002">
        <ele>389.7</ele>
        <time>2021-10-06T09:15:23Z</time>
      </trkpt>
      <trkpt lat="43.2449" lon="5.69006">
        <ele>389.6</ele>
        <time>2021-10-06T09:15:29Z</time>
      </trkpt>
      <trkpt lat="43.24493" lon="5.69012">
        <ele>389.5</ele>
        <time>2021-10-06T09:15:35Z</time>
      </trkpt>
      <trkpt lat="43.24497" lon="5.69017">
        <ele>389.2</ele>
        <time>2021-10-06T09:15:41Z</time>
      </trkpt>
      <trkpt lat="43.24501" lon="5.69021">
        <ele>389</ele>
        <time>2021-10-06T09:15:47Z</time>
      </trkpt>
      <trkpt lat="43.24504" lon="5.69026">
        <ele>388.9</ele>
        <time>2021-10-06T09:15:53Z</time>
      </trkpt>
      <trkpt lat="43.24504" lon="5.69033">
        <ele>388.9</ele>
        <time>2021-10-06T09:15:59Z</time>
      </trkpt>
      <trkpt lat="43.24503" lon="5.69039">
        <ele>388.9</ele>
        <time>2021-10-06T09:16:05Z</time>
      </trkpt>
      <trkpt lat="43.24502" lon="5.69047">
        <ele>389</ele>
        <time>2021-10-06T09:16:15Z</time>
      </trkpt>
      <trkpt lat="43.24501" lon="5.69053">
        <ele>389</ele>
        <time>2021-10-06T09:16:21Z</time>
      </trkpt>
      <trkpt lat="43.24499" lon="5.69059">
        <ele>389.1</ele>
        <time>2021-10-06T09:16:29Z</time>
      </trkpt>
      <trkpt lat="43.24497" lon="5.69066">
        <ele>389.4</ele>
        <time>2021-10-06T09:16:39Z</time>
      </trkpt>
      <trkpt lat="43.24496" lon="5.69073">
        <ele>389.6</ele>
        <time>2021-10-06T09:16:45Z</time>
      </trkpt>
      <trkpt lat="43.24495" lon="5.69079">
        <ele>389.8</ele>
        <time>2021-10-06T09:16:51Z</time>
      </trkpt>
      <trkpt lat="43.24495" lon="5.69085">
        <ele>390</ele>
        <time>2021-10-06T09:17:01Z</time>
      </trkpt>
      <trkpt lat="43.24494" lon="5.69093">
        <ele>390.7</ele>
        <time>2021-10-06T09:17:15Z</time>
      </trkpt>
      <trkpt lat="43.24494" lon="5.69099">
        <ele>391.1</ele>
        <time>2021-10-06T09:17:21Z</time>
      </trkpt>
      <trkpt lat="43.24494" lon="5.69106">
        <ele>391.6</ele>
        <time>2021-10-06T09:17:27Z</time>
      </trkpt>
      <trkpt lat="43.24494" lon="5.69113">
        <ele>392.2</ele>
        <time>2021-10-06T09:17:33Z</time>
      </trkpt>
      <trkpt lat="43.24493" lon="5.6912">
        <ele>392.8</ele>
        <time>2021-10-06T09:17:39Z</time>
      </trkpt>
      <trkpt lat="43.24494" lon="5.69126">
        <ele>393.1</ele>
        <time>2021-10-06T09:17:45Z</time>
      </trkpt>
      <trkpt lat="43.24495" lon="5.69133">
        <ele>393.4</ele>
        <time>2021-10-06T09:17:51Z</time>
      </trkpt>
      <trkpt lat="43.24496" lon="5.69139">
        <ele>393.7</ele>
        <time>2021-10-06T09:17:57Z</time>
      </trkpt>
      <trkpt lat="43.24497" lon="5.69146">
        <ele>394</ele>
        <time>2021-10-06T09:18:03Z</time>
      </trkpt>
      <trkpt lat="43.24499" lon="5.69153">
        <ele>394.1</ele>
        <time>2021-10-06T09:18:09Z</time>
      </trkpt>
      <trkpt lat="43.245" lon="5.69161">
        <ele>394.6</ele>
        <time>2021-10-06T09:18:15Z</time>
      </trkpt>
      <trkpt lat="43.24502" lon="5.69169">
        <ele>395.4</ele>
        <time>2021-10-06T09:18:21Z</time>
      </trkpt>
      <trkpt lat="43.24503" lon="5.69175">
        <ele>396.4</ele>
        <time>2021-10-06T09:18:27Z</time>
      </trkpt>
      <trkpt lat="43.24506" lon="5.69183">
        <ele>397.6</ele>
        <time>2021-10-06T09:18:33Z</time>
      </trkpt>
      <trkpt lat="43.24509" lon="5.69188">
        <ele>398.6</ele>
        <time>2021-10-06T09:18:39Z</time>
      </trkpt>
      <trkpt lat="43.24512" lon="5.69193">
        <ele>399.6</ele>
        <time>2021-10-06T09:18:45Z</time>
      </trkpt>
      <trkpt lat="43.24513" lon="5.69201">
        <ele>400.7</ele>
        <time>2021-10-06T09:18:53Z</time>
      </trkpt>
      <trkpt lat="43.24513" lon="5.69207">
        <ele>401.8</ele>
        <time>2021-10-06T09:19:01Z</time>
      </trkpt>
      <trkpt lat="43.24515" lon="5.69214">
        <ele>402.8</ele>
        <time>2021-10-06T09:19:09Z</time>
      </trkpt>
      <trkpt lat="43.24518" lon="5.69222">
        <ele>404.2</ele>
        <time>2021-10-06T09:19:17Z</time>
      </trkpt>
      <trkpt lat="43.24521" lon="5.69226">
        <ele>405.1</ele>
        <time>2021-10-06T09:19:27Z</time>
      </trkpt>
      <trkpt lat="43.24527" lon="5.69223">
        <ele>405.1</ele>
        <time>2021-10-06T09:19:35Z</time>
      </trkpt>
      <trkpt lat="43.24532" lon="5.69219">
        <ele>404.8</ele>
        <time>2021-10-06T09:19:41Z</time>
      </trkpt>
      <trkpt lat="43.24536" lon="5.69215">
        <ele>404.4</ele>
        <time>2021-10-06T09:19:47Z</time>
      </trkpt>
      <trkpt lat="43.2454" lon="5.69211">
        <ele>404.1</ele>
        <time>2021-10-06T09:19:53Z</time>
      </trkpt>
      <trkpt lat="43.24542" lon="5.69206">
        <ele>403.3</ele>
        <time>2021-10-06T09:19:59Z</time>
      </trkpt>
      <trkpt lat="43.24546" lon="5.69202">
        <ele>403.1</ele>
        <time>2021-10-06T09:20:11Z</time>
      </trkpt>
      <trkpt lat="43.24551" lon="5.69203">
        <ele>403.5</ele>
        <time>2021-10-06T09:20:19Z</time>
      </trkpt>
      <trkpt lat="43.24555" lon="5.69208">
        <ele>404.6</ele>
        <time>2021-10-06T09:20:29Z</time>
      </trkpt>
      <trkpt lat="43.24556" lon="5.69215">
        <ele>405.9</ele>
        <time>2021-10-06T09:20:37Z</time>
      </trkpt>
      <trkpt lat="43.24559" lon="5.69222">
        <ele>407.2</ele>
        <time>2021-10-06T09:20:47Z</time>
      </trkpt>
      <trkpt lat="43.24562" lon="5.69227">
        <ele>408.3</ele>
        <time>2021-10-06T09:20:57Z</time>
      </trkpt>
      <trkpt lat="43.24565" lon="5.69232">
        <ele>409.3</ele>
        <time>2021-10-06T09:21:03Z</time>
      </trkpt>
      <trkpt lat="43.2457" lon="5.69236">
        <ele>410.4</ele>
        <time>2021-10-06T09:21:09Z</time>
      </trkpt>
      <trkpt lat="43.24573" lon="5.6924">
        <ele>411.3</ele>
        <time>2021-10-06T09:21:15Z</time>
      </trkpt>
      <trkpt lat="43.24577" lon="5.69243">
        <ele>412.3</ele>
        <time>2021-10-06T09:21:23Z</time>
      </trkpt>
      <trkpt lat="43.24583" lon="5.69242">
        <ele>412.6</ele>
        <time>2021-10-06T09:21:31Z</time>
      </trkpt>
      <trkpt lat="43.24588" lon="5.69242">
        <ele>412.5</ele>
        <time>2021-10-06T09:21:37Z</time>
      </trkpt>
      <trkpt lat="43.24588" lon="5.69249">
        <ele>413.8</ele>
        <time>2021-10-06T09:25:33Z</time>
      </trkpt>
      <trkpt lat="43.24588" lon="5.69257">
        <ele>414.7</ele>
        <time>2021-10-06T09:25:41Z</time>
      </trkpt>
      <trkpt lat="43.24588" lon="5.69265">
        <ele>415.7</ele>
        <time>2021-10-06T09:25:49Z</time>
      </trkpt>
      <trkpt lat="43.24588" lon="5.69272">
        <ele>416.4</ele>
        <time>2021-10-06T09:25:57Z</time>
      </trkpt>
      <trkpt lat="43.24588" lon="5.6928">
        <ele>417.3</ele>
        <time>2021-10-06T09:26:05Z</time>
      </trkpt>
      <trkpt lat="43.24587" lon="5.69286">
        <ele>417.9</ele>
        <time>2021-10-06T09:26:11Z</time>
      </trkpt>
      <trkpt lat="43.24585" lon="5.69292">
        <ele>418.5</ele>
        <time>2021-10-06T09:26:17Z</time>
      </trkpt>
      <trkpt lat="43.24584" lon="5.69299">
        <ele>419.3</ele>
        <time>2021-10-06T09:26:23Z</time>
      </trkpt>
      <trkpt lat="43.24583" lon="5.69306">
        <ele>420</ele>
        <time>2021-10-06T09:26:29Z</time>
      </trkpt>
      <trkpt lat="43.24582" lon="5.69312">
        <ele>420.7</ele>
        <time>2021-10-06T09:26:35Z</time>
      </trkpt>
      <trkpt lat="43.24581" lon="5.69319">
        <ele>421.3</ele>
        <time>2021-10-06T09:26:41Z</time>
      </trkpt>
      <trkpt lat="43.24581" lon="5.69327">
        <ele>422.3</ele>
        <time>2021-10-06T09:26:49Z</time>
      </trkpt>
      <trkpt lat="43.24581" lon="5.69333">
        <ele>422.9</ele>
        <time>2021-10-06T09:26:55Z</time>
      </trkpt>
      <trkpt lat="43.24579" lon="5.6934">
        <ele>423</ele>
        <time>2021-10-06T09:27:03Z</time>
      </trkpt>
      <trkpt lat="43.24577" lon="5.69346">
        <ele>423</ele>
        <time>2021-10-06T09:27:09Z</time>
      </trkpt>
      <trkpt lat="43.24576" lon="5.69353">
        <ele>423.1</ele>
        <time>2021-10-06T09:27:15Z</time>
      </trkpt>
      <trkpt lat="43.24575" lon="5.6936">
        <ele>423.2</ele>
        <time>2021-10-06T09:27:21Z</time>
      </trkpt>
      <trkpt lat="43.24575" lon="5.69367">
        <ele>423.4</ele>
        <time>2021-10-06T09:27:27Z</time>
      </trkpt>
      <trkpt lat="43.24574" lon="5.69375">
        <ele>423.5</ele>
        <time>2021-10-06T09:27:35Z</time>
      </trkpt>
      <trkpt lat="43.24572" lon="5.69381">
        <ele>423.6</ele>
        <time>2021-10-06T09:27:41Z</time>
      </trkpt>
      <trkpt lat="43.24572" lon="5.69387">
        <ele>423.7</ele>
        <time>2021-10-06T09:27:53Z</time>
      </trkpt>
      <trkpt lat="43.24576" lon="5.6939">
        <ele>423.7</ele>
        <time>2021-10-06T09:28:01Z</time>
      </trkpt>
      <trkpt lat="43.24581" lon="5.69394">
        <ele>423.8</ele>
        <time>2021-10-06T09:28:09Z</time>
      </trkpt>
      <trkpt lat="43.24585" lon="5.69399">
        <ele>423.9</ele>
        <time>2021-10-06T09:28:15Z</time>
      </trkpt>
      <trkpt lat="43.24589" lon="5.69404">
        <ele>424.2</ele>
        <time>2021-10-06T09:28:23Z</time>
      </trkpt>
      <trkpt lat="43.24594" lon="5.6941">
        <ele>424.5</ele>
        <time>2021-10-06T09:28:29Z</time>
      </trkpt>
      <trkpt lat="43.24597" lon="5.69414">
        <ele>424.8</ele>
        <time>2021-10-06T09:28:35Z</time>
      </trkpt>
      <trkpt lat="43.24601" lon="5.69418">
        <ele>425</ele>
        <time>2021-10-06T09:28:45Z</time>
      </trkpt>
      <trkpt lat="43.24605" lon="5.69423">
        <ele>425.1</ele>
        <time>2021-10-06T09:28:55Z</time>
      </trkpt>
      <trkpt lat="43.24609" lon="5.69427">
        <ele>425.3</ele>
        <time>2021-10-06T09:28:59Z</time>
      </trkpt>
      <trkpt lat="43.24614" lon="5.69431">
        <ele>425.6</ele>
        <time>2021-10-06T09:29:05Z</time>
      </trkpt>
      <trkpt lat="43.24618" lon="5.69433">
        <ele>425.8</ele>
        <time>2021-10-06T09:29:09Z</time>
      </trkpt>
      <trkpt lat="43.24625" lon="5.69433">
        <ele>426.3</ele>
        <time>2021-10-06T09:29:15Z</time>
      </trkpt>
      <trkpt lat="43.2463" lon="5.69431">
        <ele>426.7</ele>
        <time>2021-10-06T09:29:21Z</time>
      </trkpt>
      <trkpt lat="43.24635" lon="5.69428">
        <ele>427</ele>
        <time>2021-10-06T09:31:09Z</time>
      </trkpt>
      <trkpt lat="43.24639" lon="5.69426">
        <ele>427.3</ele>
        <time>2021-10-06T09:31:19Z</time>
      </trkpt>
      <trkpt lat="43.24644" lon="5.69427">
        <ele>427.6</ele>
        <time>2021-10-06T09:31:29Z</time>
      </trkpt>
      <trkpt lat="43.24649" lon="5.6943">
        <ele>428</ele>
        <time>2021-10-06T09:31:37Z</time>
      </trkpt>
      <trkpt lat="43.24654" lon="5.69433">
        <ele>428.3</ele>
        <time>2021-10-06T09:31:43Z</time>
      </trkpt>
      <trkpt lat="43.24658" lon="5.69438">
        <ele>428.7</ele>
        <time>2021-10-06T09:31:49Z</time>
      </trkpt>
      <trkpt lat="43.24662" lon="5.69444">
        <ele>429</ele>
        <time>2021-10-06T09:31:55Z</time>
      </trkpt>
      <trkpt lat="43.24663" lon="5.69451">
        <ele>429.1</ele>
        <time>2021-10-06T09:32:01Z</time>
      </trkpt>
      <trkpt lat="43.24662" lon="5.69458">
        <ele>429.1</ele>
        <time>2021-10-06T09:32:07Z</time>
      </trkpt>
      <trkpt lat="43.2466" lon="5.69464">
        <ele>429</ele>
        <time>2021-10-06T09:32:13Z</time>
      </trkpt>
      <trkpt lat="43.24655" lon="5.69464">
        <ele>428.6</ele>
        <time>2021-10-06T09:32:25Z</time>
      </trkpt>
      <trkpt lat="43.24651" lon="5.69457">
        <ele>428.2</ele>
        <time>2021-10-06T09:32:33Z</time>
      </trkpt>
      <trkpt lat="43.24647" lon="5.69453">
        <ele>427.9</ele>
        <time>2021-10-06T09:32:39Z</time>
      </trkpt>
      <trkpt lat="43.24642" lon="5.69454">
        <ele>427.4</ele>
        <time>2021-10-06T09:32:47Z</time>
      </trkpt>
      <trkpt lat="43.24638" lon="5.69456">
        <ele>427.1</ele>
        <time>2021-10-06T09:32:53Z</time>
      </trkpt>
      <trkpt lat="43.24633" lon="5.6946">
        <ele>426.6</ele>
        <time>2021-10-06T09:32:59Z</time>
      </trkpt>
      <trkpt lat="43.24627" lon="5.69462">
        <ele>426.2</ele>
        <time>2021-10-06T09:33:05Z</time>
      </trkpt>
      <trkpt lat="43.24623" lon="5.69464">
        <ele>425.7</ele>
        <time>2021-10-06T09:33:11Z</time>
      </trkpt>
      <trkpt lat="43.24616" lon="5.69467">
        <ele>425.1</ele>
        <time>2021-10-06T09:33:17Z</time>
      </trkpt>
      <trkpt lat="43.2461" lon="5.69469">
        <ele>424.5</ele>
        <time>2021-10-06T09:33:23Z</time>
      </trkpt>
      <trkpt lat="43.24606" lon="5.69471">
        <ele>424.1</ele>
        <time>2021-10-06T09:33:29Z</time>
      </trkpt>
      <trkpt lat="43.24601" lon="5.69474">
        <ele>423.6</ele>
        <time>2021-10-06T09:33:37Z</time>
      </trkpt>
      <trkpt lat="43.24597" lon="5.69477">
        <ele>423.1</ele>
        <time>2021-10-06T09:33:43Z</time>
      </trkpt>
      <trkpt lat="43.24592" lon="5.69479">
        <ele>422.5</ele>
        <time>2021-10-06T09:33:49Z</time>
      </trkpt>
      <trkpt lat="43.24586" lon="5.69483">
        <ele>421.9</ele>
        <time>2021-10-06T09:33:57Z</time>
      </trkpt>
      <trkpt lat="43.24582" lon="5.69486">
        <ele>421.5</ele>
        <time>2021-10-06T09:34:03Z</time>
      </trkpt>
      <trkpt lat="43.24577" lon="5.69489">
        <ele>421.4</ele>
        <time>2021-10-06T09:34:09Z</time>
      </trkpt>
      <trkpt lat="43.24572" lon="5.69492">
        <ele>421.3</ele>
        <time>2021-10-06T09:34:15Z</time>
      </trkpt>
      <trkpt lat="43.24567" lon="5.69495">
        <ele>421.2</ele>
        <time>2021-10-06T09:34:21Z</time>
      </trkpt>
      <trkpt lat="43.24564" lon="5.69501">
        <ele>421</ele>
        <time>2021-10-06T09:34:27Z</time>
      </trkpt>
      <trkpt lat="43.24561" lon="5.69508">
        <ele>420.8</ele>
        <time>2021-10-06T09:34:33Z</time>
      </trkpt>
      <trkpt lat="43.24559" lon="5.69516">
        <ele>420.7</ele>
        <time>2021-10-06T09:34:39Z</time>
      </trkpt>
      <trkpt lat="43.24556" lon="5.69522">
        <ele>420.4</ele>
        <time>2021-10-06T09:34:47Z</time>
      </trkpt>
      <trkpt lat="43.24554" lon="5.69528">
        <ele>420.2</ele>
        <time>2021-10-06T09:34:55Z</time>
      </trkpt>
      <trkpt lat="43.24552" lon="5.69535">
        <ele>419.9</ele>
        <time>2021-10-06T09:35:03Z</time>
      </trkpt>
      <trkpt lat="43.24551" lon="5.69541">
        <ele>419.6</ele>
        <time>2021-10-06T09:35:09Z</time>
      </trkpt>
      <trkpt lat="43.2455" lon="5.69547">
        <ele>419.3</ele>
        <time>2021-10-06T09:35:15Z</time>
      </trkpt>
      <trkpt lat="43.24548" lon="5.69554">
        <ele>418.9</ele>
        <time>2021-10-06T09:35:21Z</time>
      </trkpt>
      <trkpt lat="43.24547" lon="5.69561">
        <ele>418.5</ele>
        <time>2021-10-06T09:35:27Z</time>
      </trkpt>
      <trkpt lat="43.24545" lon="5.69569">
        <ele>418.1</ele>
        <time>2021-10-06T09:35:33Z</time>
      </trkpt>
      <trkpt lat="43.24544" lon="5.69576">
        <ele>417.6</ele>
        <time>2021-10-06T09:35:39Z</time>
      </trkpt>
      <trkpt lat="43.24545" lon="5.69584">
        <ele>417.3</ele>
        <time>2021-10-06T09:35:47Z</time>
      </trkpt>
      <trkpt lat="43.24545" lon="5.69591">
        <ele>417.1</ele>
        <time>2021-10-06T09:35:53Z</time>
      </trkpt>
      <trkpt lat="43.24544" lon="5.69599">
        <ele>416.8</ele>
        <time>2021-10-06T09:36:01Z</time>
      </trkpt>
      <trkpt lat="43.24542" lon="5.69606">
        <ele>416.4</ele>
        <time>2021-10-06T09:36:09Z</time>
      </trkpt>
      <trkpt lat="43.2454" lon="5.69612">
        <ele>416</ele>
        <time>2021-10-06T09:36:15Z</time>
      </trkpt>
      <trkpt lat="43.2454" lon="5.6962">
        <ele>415.7</ele>
        <time>2021-10-06T09:36:23Z</time>
      </trkpt>
      <trkpt lat="43.24538" lon="5.69627">
        <ele>415.3</ele>
        <time>2021-10-06T09:36:31Z</time>
      </trkpt>
      <trkpt lat="43.24537" lon="5.69633">
        <ele>415</ele>
        <time>2021-10-06T09:36:37Z</time>
      </trkpt>
      <trkpt lat="43.24537" lon="5.6964">
        <ele>414.8</ele>
        <time>2021-10-06T09:36:43Z</time>
      </trkpt>
      <trkpt lat="43.24538" lon="5.69647">
        <ele>414.7</ele>
        <time>2021-10-06T09:36:49Z</time>
      </trkpt>
      <trkpt lat="43.24538" lon="5.69654">
        <ele>414.4</ele>
        <time>2021-10-06T09:36:55Z</time>
      </trkpt>
      <trkpt lat="43.24537" lon="5.69663">
        <ele>414.1</ele>
        <time>2021-10-06T09:37:01Z</time>
      </trkpt>
      <trkpt lat="43.24535" lon="5.6967">
        <ele>413.6</ele>
        <time>2021-10-06T09:37:07Z</time>
      </trkpt>
      <trkpt lat="43.24535" lon="5.69677">
        <ele>413</ele>
        <time>2021-10-06T09:37:13Z</time>
      </trkpt>
      <trkpt lat="43.24533" lon="5.69685">
        <ele>412.3</ele>
        <time>2021-10-06T09:37:19Z</time>
      </trkpt>
      <trkpt lat="43.24532" lon="5.69691">
        <ele>411.7</ele>
        <time>2021-10-06T09:37:25Z</time>
      </trkpt>
      <trkpt lat="43.24531" lon="5.69699">
        <ele>411.1</ele>
        <time>2021-10-06T09:37:31Z</time>
      </trkpt>
      <trkpt lat="43.2453" lon="5.69706">
        <ele>410.5</ele>
        <time>2021-10-06T09:37:37Z</time>
      </trkpt>
      <trkpt lat="43.24529" lon="5.69714">
        <ele>409.9</ele>
        <time>2021-10-06T09:37:43Z</time>
      </trkpt>
      <trkpt lat="43.24528" lon="5.69722">
        <ele>409.3</ele>
        <time>2021-10-06T09:37:49Z</time>
      </trkpt>
      <trkpt lat="43.24527" lon="5.69731">
        <ele>408.6</ele>
        <time>2021-10-06T09:37:55Z</time>
      </trkpt>
      <trkpt lat="43.24526" lon="5.69739">
        <ele>407.9</ele>
        <time>2021-10-06T09:38:01Z</time>
      </trkpt>
      <trkpt lat="43.24526" lon="5.69746">
        <ele>407.4</ele>
        <time>2021-10-06T09:38:07Z</time>
      </trkpt>
      <trkpt lat="43.24525" lon="5.69752">
        <ele>407</ele>
        <time>2021-10-06T09:38:13Z</time>
      </trkpt>
      <trkpt lat="43.24525" lon="5.69759">
        <ele>406.7</ele>
        <time>2021-10-06T09:38:21Z</time>
      </trkpt>
      <trkpt lat="43.24524" lon="5.69768">
        <ele>406.3</ele>
        <time>2021-10-06T09:38:29Z</time>
      </trkpt>
      <trkpt lat="43.24524" lon="5.69776">
        <ele>406</ele>
        <time>2021-10-06T09:38:37Z</time>
      </trkpt>
      <trkpt lat="43.24522" lon="5.69784">
        <ele>405.5</ele>
        <time>2021-10-06T09:38:45Z</time>
      </trkpt>
      <trkpt lat="43.24521" lon="5.6979">
        <ele>405.2</ele>
        <time>2021-10-06T09:38:51Z</time>
      </trkpt>
      <trkpt lat="43.24519" lon="5.69797">
        <ele>404.7</ele>
        <time>2021-10-06T09:38:59Z</time>
      </trkpt>
      <trkpt lat="43.24518" lon="5.69805">
        <ele>404.3</ele>
        <time>2021-10-06T09:39:07Z</time>
      </trkpt>
      <trkpt lat="43.24517" lon="5.69812">
        <ele>403.9</ele>
        <time>2021-10-06T09:39:13Z</time>
      </trkpt>
      <trkpt lat="43.24517" lon="5.69818">
        <ele>403.7</ele>
        <time>2021-10-06T09:39:21Z</time>
      </trkpt>
      <trkpt lat="43.24516" lon="5.69824">
        <ele>403.3</ele>
        <time>2021-10-06T09:39:27Z</time>
      </trkpt>
      <trkpt lat="43.24516" lon="5.69831">
        <ele>403</ele>
        <time>2021-10-06T09:39:33Z</time>
      </trkpt>
      <trkpt lat="43.24515" lon="5.69837">
        <ele>402.7</ele>
        <time>2021-10-06T09:39:39Z</time>
      </trkpt>
      <trkpt lat="43.24512" lon="5.69844">
        <ele>402.3</ele>
        <time>2021-10-06T09:39:47Z</time>
      </trkpt>
      <trkpt lat="43.24512" lon="5.69852">
        <ele>402.1</ele>
        <time>2021-10-06T09:39:53Z</time>
      </trkpt>
      <trkpt lat="43.24511" lon="5.69858">
        <ele>402</ele>
        <time>2021-10-06T09:39:59Z</time>
      </trkpt>
      <trkpt lat="43.2451" lon="5.69866">
        <ele>401.6</ele>
        <time>2021-10-06T09:40:09Z</time>
      </trkpt>
      <trkpt lat="43.24509" lon="5.69872">
        <ele>401.4</ele>
        <time>2021-10-06T09:40:15Z</time>
      </trkpt>
      <trkpt lat="43.24509" lon="5.6988">
        <ele>401.3</ele>
        <time>2021-10-06T09:40:21Z</time>
      </trkpt>
      <trkpt lat="43.24509" lon="5.69889">
        <ele>401.2</ele>
        <time>2021-10-06T09:40:27Z</time>
      </trkpt>
      <trkpt lat="43.24508" lon="5.69896">
        <ele>401</ele>
        <time>2021-10-06T09:40:33Z</time>
      </trkpt>
      <trkpt lat="43.24506" lon="5.69902">
        <ele>400.7</ele>
        <time>2021-10-06T09:40:39Z</time>
      </trkpt>
      <trkpt lat="43.24506" lon="5.6991">
        <ele>400.6</ele>
        <time>2021-10-06T09:40:45Z</time>
      </trkpt>
      <trkpt lat="43.24505" lon="5.69918">
        <ele>400.3</ele>
        <time>2021-10-06T09:40:51Z</time>
      </trkpt>
      <trkpt lat="43.24503" lon="5.69923">
        <ele>399.9</ele>
        <time>2021-10-06T09:40:57Z</time>
      </trkpt>
      <trkpt lat="43.24501" lon="5.69931">
        <ele>399.4</ele>
        <time>2021-10-06T09:41:03Z</time>
      </trkpt>
      <trkpt lat="43.24499" lon="5.69937">
        <ele>399</ele>
        <time>2021-10-06T09:41:09Z</time>
      </trkpt>
      <trkpt lat="43.24497" lon="5.69945">
        <ele>398.5</ele>
        <time>2021-10-06T09:41:15Z</time>
      </trkpt>
      <trkpt lat="43.24495" lon="5.69953">
        <ele>398.1</ele>
        <time>2021-10-06T09:41:21Z</time>
      </trkpt>
      <trkpt lat="43.24495" lon="5.6996">
        <ele>397.7</ele>
        <time>2021-10-06T09:41:27Z</time>
      </trkpt>
      <trkpt lat="43.24494" lon="5.69967">
        <ele>397.4</ele>
        <time>2021-10-06T09:41:33Z</time>
      </trkpt>
      <trkpt lat="43.24494" lon="5.69974">
        <ele>397.1</ele>
        <time>2021-10-06T09:41:39Z</time>
      </trkpt>
      <trkpt lat="43.24494" lon="5.69981">
        <ele>396.7</ele>
        <time>2021-10-06T09:41:45Z</time>
      </trkpt>
      <trkpt lat="43.24493" lon="5.69987">
        <ele>396.4</ele>
        <time>2021-10-06T09:41:51Z</time>
      </trkpt>
      <trkpt lat="43.24491" lon="5.69995">
        <ele>396</ele>
        <time>2021-10-06T09:41:59Z</time>
      </trkpt>
      <trkpt lat="43.2449" lon="5.70002">
        <ele>395.6</ele>
        <time>2021-10-06T09:42:07Z</time>
      </trkpt>
      <trkpt lat="43.2449" lon="5.7001">
        <ele>395</ele>
        <time>2021-10-06T09:42:13Z</time>
      </trkpt>
      <trkpt lat="43.2449" lon="5.70017">
        <ele>394.5</ele>
        <time>2021-10-06T09:42:19Z</time>
      </trkpt>
      <trkpt lat="43.2449" lon="5.70024">
        <ele>394</ele>
        <time>2021-10-06T09:42:25Z</time>
      </trkpt>
      <trkpt lat="43.24489" lon="5.70031">
        <ele>393.5</ele>
        <time>2021-10-06T09:42:31Z</time>
      </trkpt>
      <trkpt lat="43.24489" lon="5.70039">
        <ele>392.9</ele>
        <time>2021-10-06T09:42:37Z</time>
      </trkpt>
      <trkpt lat="43.24489" lon="5.70046">
        <ele>392.4</ele>
        <time>2021-10-06T09:42:43Z</time>
      </trkpt>
      <trkpt lat="43.24488" lon="5.70053">
        <ele>391.9</ele>
        <time>2021-10-06T09:42:51Z</time>
      </trkpt>
      <trkpt lat="43.24487" lon="5.7006">
        <ele>391.5</ele>
        <time>2021-10-06T09:43:01Z</time>
      </trkpt>
      <trkpt lat="43.24484" lon="5.70066">
        <ele>391.1</ele>
        <time>2021-10-06T09:43:11Z</time>
      </trkpt>
      <trkpt lat="43.24483" lon="5.70073">
        <ele>390.7</ele>
        <time>2021-10-06T09:43:25Z</time>
      </trkpt>
      <trkpt lat="43.24484" lon="5.70079">
        <ele>390.3</ele>
        <time>2021-10-06T09:44:15Z</time>
      </trkpt>
      <trkpt lat="43.24479" lon="5.70079">
        <ele>390.5</ele>
        <time>2021-10-06T09:56:09Z</time>
      </trkpt>
      <trkpt lat="43.24475" lon="5.70077">
        <ele>390.9</ele>
        <time>2021-10-06T09:56:27Z</time>
      </trkpt>
      <trkpt lat="43.2447" lon="5.7008">
        <ele>390.9</ele>
        <time>2021-10-06T09:56:51Z</time>
      </trkpt>
      <trkpt lat="43.2447" lon="5.70088">
        <ele>391.2</ele>
        <time>2021-10-06T09:57:01Z</time>
      </trkpt>
      <trkpt lat="43.24473" lon="5.70094">
        <ele>391.5</ele>
        <time>2021-10-06T09:57:11Z</time>
      </trkpt>
      <trkpt lat="43.24475" lon="5.70101">
        <ele>391.9</ele>
        <time>2021-10-06T09:57:19Z</time>
      </trkpt>
      <trkpt lat="43.24477" lon="5.70108">
        <ele>392.3</ele>
        <time>2021-10-06T09:57:27Z</time>
      </trkpt>
      <trkpt lat="43.24478" lon="5.70115">
        <ele>392.9</ele>
        <time>2021-10-06T09:57:35Z</time>
      </trkpt>
      <trkpt lat="43.24477" lon="5.70123">
        <ele>393.6</ele>
        <time>2021-10-06T09:57:43Z</time>
      </trkpt>
      <trkpt lat="43.24477" lon="5.7013">
        <ele>394.1</ele>
        <time>2021-10-06T09:57:49Z</time>
      </trkpt>
      <trkpt lat="43.24475" lon="5.70136">
        <ele>394.7</ele>
        <time>2021-10-06T09:57:55Z</time>
      </trkpt>
      <trkpt lat="43.24475" lon="5.70143">
        <ele>395.3</ele>
        <time>2021-10-06T09:58:03Z</time>
      </trkpt>
      <trkpt lat="43.24474" lon="5.7015">
        <ele>395.9</ele>
        <time>2021-10-06T09:58:11Z</time>
      </trkpt>
      <trkpt lat="43.24474" lon="5.70157">
        <ele>396.5</ele>
        <time>2021-10-06T09:58:19Z</time>
      </trkpt>
      <trkpt lat="43.24473" lon="5.70164">
        <ele>397.1</ele>
        <time>2021-10-06T09:58:27Z</time>
      </trkpt>
      <trkpt lat="43.24472" lon="5.70172">
        <ele>397.9</ele>
        <time>2021-10-06T09:58:33Z</time>
      </trkpt>
      <trkpt lat="43.24472" lon="5.70179">
        <ele>398.9</ele>
        <time>2021-10-06T09:58:41Z</time>
      </trkpt>
      <trkpt lat="43.24471" lon="5.70185">
        <ele>399.7</ele>
        <time>2021-10-06T09:58:51Z</time>
      </trkpt>
      <trkpt lat="43.2447" lon="5.70193">
        <ele>400.6</ele>
        <time>2021-10-06T09:58:59Z</time>
      </trkpt>
      <trkpt lat="43.24469" lon="5.702">
        <ele>401.4</ele>
        <time>2021-10-06T09:59:07Z</time>
      </trkpt>
      <trkpt lat="43.24468" lon="5.70207">
        <ele>402.3</ele>
        <time>2021-10-06T09:59:15Z</time>
      </trkpt>
      <trkpt lat="43.24467" lon="5.70215">
        <ele>403.3</ele>
        <time>2021-10-06T09:59:25Z</time>
      </trkpt>
      <trkpt lat="43.24466" lon="5.70222">
        <ele>404.1</ele>
        <time>2021-10-06T09:59:33Z</time>
      </trkpt>
      <trkpt lat="43.24466" lon="5.70229">
        <ele>404.9</ele>
        <time>2021-10-06T09:59:41Z</time>
      </trkpt>
      <trkpt lat="43.24464" lon="5.70235">
        <ele>405.7</ele>
        <time>2021-10-06T09:59:51Z</time>
      </trkpt>
      <trkpt lat="43.24464" lon="5.70241">
        <ele>406.4</ele>
        <time>2021-10-06T09:59:59Z</time>
      </trkpt>
      <trkpt lat="43.24463" lon="5.70249">
        <ele>407.3</ele>
        <time>2021-10-06T10:00:09Z</time>
      </trkpt>
      <trkpt lat="43.24463" lon="5.70257">
        <ele>408.4</ele>
        <time>2021-10-06T10:00:17Z</time>
      </trkpt>
      <trkpt lat="43.24461" lon="5.70264">
        <ele>409.2</ele>
        <time>2021-10-06T10:00:27Z</time>
      </trkpt>
      <trkpt lat="43.24459" lon="5.7027">
        <ele>410</ele>
        <time>2021-10-06T10:00:35Z</time>
      </trkpt>
      <trkpt lat="43.24458" lon="5.70277">
        <ele>410.9</ele>
        <time>2021-10-06T10:00:43Z</time>
      </trkpt>
      <trkpt lat="43.24458" lon="5.70284">
        <ele>411.8</ele>
        <time>2021-10-06T10:00:49Z</time>
      </trkpt>
      <trkpt lat="43.24457" lon="5.70291">
        <ele>412.7</ele>
        <time>2021-10-06T10:00:55Z</time>
      </trkpt>
      <trkpt lat="43.24456" lon="5.70297">
        <ele>413.5</ele>
        <time>2021-10-06T10:01:01Z</time>
      </trkpt>
      <trkpt lat="43.24455" lon="5.70306">
        <ele>414.6</ele>
        <time>2021-10-06T10:01:07Z</time>
      </trkpt>
      <trkpt lat="43.24453" lon="5.70313">
        <ele>415.6</ele>
        <time>2021-10-06T10:01:15Z</time>
      </trkpt>
      <trkpt lat="43.24452" lon="5.70322">
        <ele>416.7</ele>
        <time>2021-10-06T10:01:23Z</time>
      </trkpt>
      <trkpt lat="43.2445" lon="5.70329">
        <ele>417.6</ele>
        <time>2021-10-06T10:01:31Z</time>
      </trkpt>
      <trkpt lat="43.24449" lon="5.70336">
        <ele>418.4</ele>
        <time>2021-10-06T10:01:39Z</time>
      </trkpt>
      <trkpt lat="43.2445" lon="5.70344">
        <ele>419</ele>
        <time>2021-10-06T10:01:47Z</time>
      </trkpt>
      <trkpt lat="43.2445" lon="5.70351">
        <ele>419.5</ele>
        <time>2021-10-06T10:01:53Z</time>
      </trkpt>
      <trkpt lat="43.24449" lon="5.70358">
        <ele>420.1</ele>
        <time>2021-10-06T10:01:59Z</time>
      </trkpt>
      <trkpt lat="43.24448" lon="5.70366">
        <ele>420.7</ele>
        <time>2021-10-06T10:02:07Z</time>
      </trkpt>
      <trkpt lat="43.24446" lon="5.70372">
        <ele>421.1</ele>
        <time>2021-10-06T10:02:15Z</time>
      </trkpt>
      <trkpt lat="43.24446" lon="5.7038">
        <ele>421.7</ele>
        <time>2021-10-06T10:02:23Z</time>
      </trkpt>
      <trkpt lat="43.24445" lon="5.70388">
        <ele>422.2</ele>
        <time>2021-10-06T10:02:31Z</time>
      </trkpt>
      <trkpt lat="43.24444" lon="5.70394">
        <ele>422.7</ele>
        <time>2021-10-06T10:02:37Z</time>
      </trkpt>
      <trkpt lat="43.24443" lon="5.70401">
        <ele>423.2</ele>
        <time>2021-10-06T10:02:45Z</time>
      </trkpt>
      <trkpt lat="43.24443" lon="5.70408">
        <ele>423.7</ele>
        <time>2021-10-06T10:02:51Z</time>
      </trkpt>
      <trkpt lat="43.24443" lon="5.70415">
        <ele>424.2</ele>
        <time>2021-10-06T10:02:59Z</time>
      </trkpt>
      <trkpt lat="43.24442" lon="5.70422">
        <ele>424.7</ele>
        <time>2021-10-06T10:03:05Z</time>
      </trkpt>
      <trkpt lat="43.24442" lon="5.70428">
        <ele>425.2</ele>
        <time>2021-10-06T10:03:11Z</time>
      </trkpt>
      <trkpt lat="43.24442" lon="5.70435">
        <ele>425.8</ele>
        <time>2021-10-06T10:03:17Z</time>
      </trkpt>
      <trkpt lat="43.24443" lon="5.70442">
        <ele>426.4</ele>
        <time>2021-10-06T10:03:23Z</time>
      </trkpt>
      <trkpt lat="43.24442" lon="5.7045">
        <ele>427</ele>
        <time>2021-10-06T10:03:31Z</time>
      </trkpt>
      <trkpt lat="43.24441" lon="5.70458">
        <ele>427.7</ele>
        <time>2021-10-06T10:03:39Z</time>
      </trkpt>
      <trkpt lat="43.2444" lon="5.70464">
        <ele>428.2</ele>
        <time>2021-10-06T10:03:45Z</time>
      </trkpt>
      <trkpt lat="43.24438" lon="5.70471">
        <ele>428.7</ele>
        <time>2021-10-06T10:03:53Z</time>
      </trkpt>
      <trkpt lat="43.24438" lon="5.70479">
        <ele>429.3</ele>
        <time>2021-10-06T10:04:01Z</time>
      </trkpt>
      <trkpt lat="43.24438" lon="5.70487">
        <ele>429.9</ele>
        <time>2021-10-06T10:04:09Z</time>
      </trkpt>
      <trkpt lat="43.24437" lon="5.70494">
        <ele>430.5</ele>
        <time>2021-10-06T10:04:15Z</time>
      </trkpt>
      <trkpt lat="43.24436" lon="5.70502">
        <ele>431</ele>
        <time>2021-10-06T10:04:21Z</time>
      </trkpt>
      <trkpt lat="43.24436" lon="5.70509">
        <ele>431.2</ele>
        <time>2021-10-06T10:04:27Z</time>
      </trkpt>
      <trkpt lat="43.24435" lon="5.70516">
        <ele>431.4</ele>
        <time>2021-10-06T10:04:33Z</time>
      </trkpt>
      <trkpt lat="43.24435" lon="5.70523">
        <ele>431.7</ele>
        <time>2021-10-06T10:04:39Z</time>
      </trkpt>
      <trkpt lat="43.24434" lon="5.70531">
        <ele>431.9</ele>
        <time>2021-10-06T10:04:45Z</time>
      </trkpt>
      <trkpt lat="43.24433" lon="5.70537">
        <ele>432</ele>
        <time>2021-10-06T10:04:49Z</time>
      </trkpt>
      <trkpt lat="43.24431" lon="5.70545">
        <ele>432.1</ele>
        <time>2021-10-06T10:04:55Z</time>
      </trkpt>
      <trkpt lat="43.24431" lon="5.70553">
        <ele>432.4</ele>
        <time>2021-10-06T10:05:01Z</time>
      </trkpt>
      <trkpt lat="43.24431" lon="5.70561">
        <ele>432.6</ele>
        <time>2021-10-06T10:05:07Z</time>
      </trkpt>
      <trkpt lat="43.2443" lon="5.70569">
        <ele>432.8</ele>
        <time>2021-10-06T10:05:13Z</time>
      </trkpt>
      <trkpt lat="43.24428" lon="5.70578">
        <ele>432.9</ele>
        <time>2021-10-06T10:05:19Z</time>
      </trkpt>
      <trkpt lat="43.24425" lon="5.70586">
        <ele>432.9</ele>
        <time>2021-10-06T10:05:25Z</time>
      </trkpt>
      <trkpt lat="43.24424" lon="5.70594">
        <ele>433.2</ele>
        <time>2021-10-06T10:05:31Z</time>
      </trkpt>
      <trkpt lat="43.24423" lon="5.70602">
        <ele>433.5</ele>
        <time>2021-10-06T10:05:37Z</time>
      </trkpt>
      <trkpt lat="43.24422" lon="5.7061">
        <ele>433.7</ele>
        <time>2021-10-06T10:05:43Z</time>
      </trkpt>
      <trkpt lat="43.24421" lon="5.70618">
        <ele>434.1</ele>
        <time>2021-10-06T10:05:49Z</time>
      </trkpt>
      <trkpt lat="43.2442" lon="5.70627">
        <ele>434.4</ele>
        <time>2021-10-06T10:05:55Z</time>
      </trkpt>
      <trkpt lat="43.2442" lon="5.70634">
        <ele>434.7</ele>
        <time>2021-10-06T10:06:01Z</time>
      </trkpt>
      <trkpt lat="43.24419" lon="5.70642">
        <ele>435</ele>
        <time>2021-10-06T10:06:07Z</time>
      </trkpt>
      <trkpt lat="43.24417" lon="5.70649">
        <ele>435.2</ele>
        <time>2021-10-06T10:06:13Z</time>
      </trkpt>
      <trkpt lat="43.24416" lon="5.70658">
        <ele>435.5</ele>
        <time>2021-10-06T10:06:19Z</time>
      </trkpt>
      <trkpt lat="43.24415" lon="5.70665">
        <ele>435.8</ele>
        <time>2021-10-06T10:06:25Z</time>
      </trkpt>
      <trkpt lat="43.24415" lon="5.70673">
        <ele>436.1</ele>
        <time>2021-10-06T10:06:31Z</time>
      </trkpt>
      <trkpt lat="43.24414" lon="5.70679">
        <ele>436.4</ele>
        <time>2021-10-06T10:06:37Z</time>
      </trkpt>
      <trkpt lat="43.24415" lon="5.70686">
        <ele>436.7</ele>
        <time>2021-10-06T10:07:03Z</time>
      </trkpt>
      <trkpt lat="43.24413" lon="5.70693">
        <ele>436.8</ele>
        <time>2021-10-06T10:07:09Z</time>
      </trkpt>
      <trkpt lat="43.24411" lon="5.70701">
        <ele>437.1</ele>
        <time>2021-10-06T10:07:15Z</time>
      </trkpt>
      <trkpt lat="43.24411" lon="5.70709">
        <ele>437.4</ele>
        <time>2021-10-06T10:07:21Z</time>
      </trkpt>
      <trkpt lat="43.2441" lon="5.70717">
        <ele>437.7</ele>
        <time>2021-10-06T10:07:27Z</time>
      </trkpt>
      <trkpt lat="43.24409" lon="5.70724">
        <ele>437.9</ele>
        <time>2021-10-06T10:07:33Z</time>
      </trkpt>
      <trkpt lat="43.24407" lon="5.70732">
        <ele>438.1</ele>
        <time>2021-10-06T10:07:39Z</time>
      </trkpt>
      <trkpt lat="43.24407" lon="5.7074">
        <ele>438.3</ele>
        <time>2021-10-06T10:07:45Z</time>
      </trkpt>
      <trkpt lat="43.24406" lon="5.70748">
        <ele>438.6</ele>
        <time>2021-10-06T10:07:51Z</time>
      </trkpt>
      <trkpt lat="43.24404" lon="5.70757">
        <ele>438.7</ele>
        <time>2021-10-06T10:07:57Z</time>
      </trkpt>
      <trkpt lat="43.24404" lon="5.70764">
        <ele>438.8</ele>
        <time>2021-10-06T10:08:03Z</time>
      </trkpt>
      <trkpt lat="43.24403" lon="5.70771">
        <ele>438.9</ele>
        <time>2021-10-06T10:08:09Z</time>
      </trkpt>
      <trkpt lat="43.24402" lon="5.70779">
        <ele>439</ele>
        <time>2021-10-06T10:08:15Z</time>
      </trkpt>
      <trkpt lat="43.24401" lon="5.70788">
        <ele>439.1</ele>
        <time>2021-10-06T10:08:21Z</time>
      </trkpt>
      <trkpt lat="43.244" lon="5.70796">
        <ele>439.2</ele>
        <time>2021-10-06T10:08:27Z</time>
      </trkpt>
      <trkpt lat="43.24398" lon="5.70803">
        <ele>439.2</ele>
        <time>2021-10-06T10:08:33Z</time>
      </trkpt>
      <trkpt lat="43.24397" lon="5.70812">
        <ele>439.3</ele>
        <time>2021-10-06T10:08:39Z</time>
      </trkpt>
      <trkpt lat="43.24397" lon="5.70818">
        <ele>439.4</ele>
        <time>2021-10-06T10:08:43Z</time>
      </trkpt>
      <trkpt lat="43.24395" lon="5.70827">
        <ele>439.5</ele>
        <time>2021-10-06T10:08:49Z</time>
      </trkpt>
      <trkpt lat="43.24395" lon="5.70833">
        <ele>439.6</ele>
        <time>2021-10-06T10:08:53Z</time>
      </trkpt>
      <trkpt lat="43.24394" lon="5.70839">
        <ele>439.6</ele>
        <time>2021-10-06T10:08:57Z</time>
      </trkpt>
      <trkpt lat="43.24393" lon="5.70847">
        <ele>439.5</ele>
        <time>2021-10-06T10:09:03Z</time>
      </trkpt>
      <trkpt lat="43.24392" lon="5.70855">
        <ele>439.4</ele>
        <time>2021-10-06T10:09:09Z</time>
      </trkpt>
      <trkpt lat="43.2439" lon="5.70863">
        <ele>439.3</ele>
        <time>2021-10-06T10:09:15Z</time>
      </trkpt>
      <trkpt lat="43.2439" lon="5.70869">
        <ele>439.3</ele>
        <time>2021-10-06T10:09:19Z</time>
      </trkpt>
      <trkpt lat="43.2439" lon="5.70878">
        <ele>439.3</ele>
        <time>2021-10-06T10:09:25Z</time>
      </trkpt>
      <trkpt lat="43.24389" lon="5.70886">
        <ele>439.3</ele>
        <time>2021-10-06T10:09:31Z</time>
      </trkpt>
      <trkpt lat="43.24388" lon="5.70895">
        <ele>439.1</ele>
        <time>2021-10-06T10:09:37Z</time>
      </trkpt>
      <trkpt lat="43.24386" lon="5.70903">
        <ele>439</ele>
        <time>2021-10-06T10:09:43Z</time>
      </trkpt>
      <trkpt lat="43.24386" lon="5.7091">
        <ele>439</ele>
        <time>2021-10-06T10:09:49Z</time>
      </trkpt>
      <trkpt lat="43.24385" lon="5.70917">
        <ele>438.9</ele>
        <time>2021-10-06T10:09:55Z</time>
      </trkpt>
      <trkpt lat="43.24383" lon="5.70925">
        <ele>438.8</ele>
        <time>2021-10-06T10:10:01Z</time>
      </trkpt>
      <trkpt lat="43.24382" lon="5.70932">
        <ele>438.7</ele>
        <time>2021-10-06T10:10:07Z</time>
      </trkpt>
      <trkpt lat="43.24381" lon="5.70941">
        <ele>438.6</ele>
        <time>2021-10-06T10:10:13Z</time>
      </trkpt>
      <trkpt lat="43.2438" lon="5.70947">
        <ele>438.6</ele>
        <time>2021-10-06T10:10:17Z</time>
      </trkpt>
      <trkpt lat="43.24379" lon="5.70956">
        <ele>438.5</ele>
        <time>2021-10-06T10:10:23Z</time>
      </trkpt>
      <trkpt lat="43.24376" lon="5.70964">
        <ele>438.4</ele>
        <time>2021-10-06T10:10:29Z</time>
      </trkpt>
      <trkpt lat="43.24376" lon="5.70972">
        <ele>438.4</ele>
        <time>2021-10-06T10:10:35Z</time>
      </trkpt>
      <trkpt lat="43.24375" lon="5.7098">
        <ele>438.4</ele>
        <time>2021-10-06T10:10:41Z</time>
      </trkpt>
      <trkpt lat="43.24374" lon="5.70988">
        <ele>438.4</ele>
        <time>2021-10-06T10:10:47Z</time>
      </trkpt>
      <trkpt lat="43.24373" lon="5.70994">
        <ele>438.4</ele>
        <time>2021-10-06T10:10:51Z</time>
      </trkpt>
      <trkpt lat="43.24374" lon="5.71001">
        <ele>438.5</ele>
        <time>2021-10-06T10:10:57Z</time>
      </trkpt>
      <trkpt lat="43.24378" lon="5.71004">
        <ele>438.6</ele>
        <time>2021-10-06T10:11:27Z</time>
      </trkpt>
      <trkpt lat="43.24381" lon="5.7101">
        <ele>438.8</ele>
        <time>2021-10-06T10:12:15Z</time>
      </trkpt>
      <trkpt lat="43.24386" lon="5.71014">
        <ele>439.1</ele>
        <time>2021-10-06T10:12:23Z</time>
      </trkpt>
      <trkpt lat="43.2439" lon="5.7102">
        <ele>439.3</ele>
        <time>2021-10-06T10:12:29Z</time>
      </trkpt>
      <trkpt lat="43.24396" lon="5.71023">
        <ele>439.5</ele>
        <time>2021-10-06T10:12:35Z</time>
      </trkpt>
      <trkpt lat="43.24401" lon="5.71025">
        <ele>439.7</ele>
        <time>2021-10-06T10:12:41Z</time>
      </trkpt>
      <trkpt lat="43.24405" lon="5.71029">
        <ele>439.9</ele>
        <time>2021-10-06T10:12:47Z</time>
      </trkpt>
      <trkpt lat="43.2441" lon="5.71033">
        <ele>440.2</ele>
        <time>2021-10-06T10:12:53Z</time>
      </trkpt>
      <trkpt lat="43.24414" lon="5.71038">
        <ele>440.4</ele>
        <time>2021-10-06T10:12:59Z</time>
      </trkpt>
      <trkpt lat="43.24419" lon="5.7104">
        <ele>440.7</ele>
        <time>2021-10-06T10:13:05Z</time>
      </trkpt>
      <trkpt lat="43.24424" lon="5.71044">
        <ele>441.1</ele>
        <time>2021-10-06T10:13:11Z</time>
      </trkpt>
      <trkpt lat="43.24428" lon="5.71047">
        <ele>441.4</ele>
        <time>2021-10-06T10:13:15Z</time>
      </trkpt>
      <trkpt lat="43.24433" lon="5.71048">
        <ele>441.8</ele>
        <time>2021-10-06T10:13:21Z</time>
      </trkpt>
      <trkpt lat="43.24439" lon="5.71052">
        <ele>442.2</ele>
        <time>2021-10-06T10:13:27Z</time>
      </trkpt>
      <trkpt lat="43.24444" lon="5.71055">
        <ele>442.6</ele>
        <time>2021-10-06T10:13:33Z</time>
      </trkpt>
      <trkpt lat="43.24448" lon="5.71061">
        <ele>442.8</ele>
        <time>2021-10-06T10:13:39Z</time>
      </trkpt>
      <trkpt lat="43.24452" lon="5.71065">
        <ele>442.9</ele>
        <time>2021-10-06T10:13:45Z</time>
      </trkpt>
      <trkpt lat="43.24458" lon="5.7107">
        <ele>443.2</ele>
        <time>2021-10-06T10:13:51Z</time>
      </trkpt>
      <trkpt lat="43.24463" lon="5.71074">
        <ele>443.4</ele>
        <time>2021-10-06T10:13:57Z</time>
      </trkpt>
      <trkpt lat="43.24468" lon="5.71079">
        <ele>443.6</ele>
        <time>2021-10-06T10:14:03Z</time>
      </trkpt>
      <trkpt lat="43.24472" lon="5.71083">
        <ele>443.7</ele>
        <time>2021-10-06T10:14:09Z</time>
      </trkpt>
      <trkpt lat="43.24475" lon="5.71087">
        <ele>443.9</ele>
        <time>2021-10-06T10:14:13Z</time>
      </trkpt>
      <trkpt lat="43.2448" lon="5.71091">
        <ele>444.1</ele>
        <time>2021-10-06T10:14:17Z</time>
      </trkpt>
      <trkpt lat="43.24484" lon="5.71094">
        <ele>444.4</ele>
        <time>2021-10-06T10:14:21Z</time>
      </trkpt>
      <trkpt lat="43.24488" lon="5.71101">
        <ele>444.7</ele>
        <time>2021-10-06T10:14:27Z</time>
      </trkpt>
      <trkpt lat="43.24492" lon="5.71104">
        <ele>444.9</ele>
        <time>2021-10-06T10:14:31Z</time>
      </trkpt>
      <trkpt lat="43.24497" lon="5.71108">
        <ele>445.2</ele>
        <time>2021-10-06T10:14:37Z</time>
      </trkpt>
      <trkpt lat="43.24503" lon="5.7111">
        <ele>445.4</ele>
        <time>2021-10-06T10:14:43Z</time>
      </trkpt>
      <trkpt lat="43.24507" lon="5.71112">
        <ele>445.6</ele>
        <time>2021-10-06T10:14:47Z</time>
      </trkpt>
      <trkpt lat="43.24512" lon="5.71113">
        <ele>445.8</ele>
        <time>2021-10-06T10:14:51Z</time>
      </trkpt>
      <trkpt lat="43.24516" lon="5.71116">
        <ele>446</ele>
        <time>2021-10-06T10:14:55Z</time>
      </trkpt>
      <trkpt lat="43.24522" lon="5.71119">
        <ele>446.3</ele>
        <time>2021-10-06T10:15:01Z</time>
      </trkpt>
      <trkpt lat="43.24527" lon="5.71124">
        <ele>446.5</ele>
        <time>2021-10-06T10:15:07Z</time>
      </trkpt>
      <trkpt lat="43.24532" lon="5.71129">
        <ele>446.7</ele>
        <time>2021-10-06T10:15:13Z</time>
      </trkpt>
      <trkpt lat="43.24535" lon="5.71134">
        <ele>446.8</ele>
        <time>2021-10-06T10:15:17Z</time>
      </trkpt>
      <trkpt lat="43.24539" lon="5.7114">
        <ele>446.9</ele>
        <time>2021-10-06T10:15:23Z</time>
      </trkpt>
      <trkpt lat="43.24543" lon="5.71144">
        <ele>447</ele>
        <time>2021-10-06T10:15:27Z</time>
      </trkpt>
      <trkpt lat="43.24548" lon="5.7115">
        <ele>447.2</ele>
        <time>2021-10-06T10:15:33Z</time>
      </trkpt>
      <trkpt lat="43.24552" lon="5.71156">
        <ele>447.3</ele>
        <time>2021-10-06T10:15:39Z</time>
      </trkpt>
      <trkpt lat="43.24555" lon="5.71164">
        <ele>447.3</ele>
        <time>2021-10-06T10:15:45Z</time>
      </trkpt>
      <trkpt lat="43.24556" lon="5.71172">
        <ele>447.4</ele>
        <time>2021-10-06T10:15:51Z</time>
      </trkpt>
      <trkpt lat="43.2456" lon="5.71179">
        <ele>447.5</ele>
        <time>2021-10-06T10:15:57Z</time>
      </trkpt>
      <trkpt lat="43.24562" lon="5.71184">
        <ele>447.6</ele>
        <time>2021-10-06T10:16:01Z</time>
      </trkpt>
      <trkpt lat="43.24566" lon="5.71192">
        <ele>447.7</ele>
        <time>2021-10-06T10:16:07Z</time>
      </trkpt>
      <trkpt lat="43.24569" lon="5.71199">
        <ele>447.8</ele>
        <time>2021-10-06T10:16:13Z</time>
      </trkpt>
      <trkpt lat="43.24571" lon="5.71206">
        <ele>447.8</ele>
        <time>2021-10-06T10:16:19Z</time>
      </trkpt>
      <trkpt lat="43.24573" lon="5.71215">
        <ele>447.9</ele>
        <time>2021-10-06T10:16:25Z</time>
      </trkpt>
      <trkpt lat="43.24575" lon="5.71223">
        <ele>447.9</ele>
        <time>2021-10-06T10:16:31Z</time>
      </trkpt>
      <trkpt lat="43.24576" lon="5.7123">
        <ele>448</ele>
        <time>2021-10-06T10:16:35Z</time>
      </trkpt>
      <trkpt lat="43.24578" lon="5.71238">
        <ele>448</ele>
        <time>2021-10-06T10:16:41Z</time>
      </trkpt>
      <trkpt lat="43.2458" lon="5.71246">
        <ele>448</ele>
        <time>2021-10-06T10:16:47Z</time>
      </trkpt>
      <trkpt lat="43.24582" lon="5.71252">
        <ele>448.1</ele>
        <time>2021-10-06T10:16:51Z</time>
      </trkpt>
      <trkpt lat="43.24586" lon="5.7126">
        <ele>448.4</ele>
        <time>2021-10-06T10:16:57Z</time>
      </trkpt>
      <trkpt lat="43.24589" lon="5.71267">
        <ele>448.8</ele>
        <time>2021-10-06T10:17:03Z</time>
      </trkpt>
      <trkpt lat="43.24592" lon="5.71275">
        <ele>449.2</ele>
        <time>2021-10-06T10:17:09Z</time>
      </trkpt>
      <trkpt lat="43.24595" lon="5.71283">
        <ele>449.6</ele>
        <time>2021-10-06T10:17:15Z</time>
      </trkpt>
      <trkpt lat="43.24599" lon="5.7129">
        <ele>450</ele>
        <time>2021-10-06T10:17:21Z</time>
      </trkpt>
      <trkpt lat="43.24602" lon="5.71294">
        <ele>450.3</ele>
        <time>2021-10-06T10:17:25Z</time>
      </trkpt>
      <trkpt lat="43.24607" lon="5.713">
        <ele>450.6</ele>
        <time>2021-10-06T10:17:31Z</time>
      </trkpt>
      <trkpt lat="43.24612" lon="5.71306">
        <ele>451</ele>
        <time>2021-10-06T10:17:37Z</time>
      </trkpt>
      <trkpt lat="43.24616" lon="5.71313">
        <ele>451.4</ele>
        <time>2021-10-06T10:17:43Z</time>
      </trkpt>
      <trkpt lat="43.2462" lon="5.71319">
        <ele>451.8</ele>
        <time>2021-10-06T10:17:49Z</time>
      </trkpt>
      <trkpt lat="43.24623" lon="5.71325">
        <ele>452.2</ele>
        <time>2021-10-06T10:17:55Z</time>
      </trkpt>
      <trkpt lat="43.24627" lon="5.7133">
        <ele>452.5</ele>
        <time>2021-10-06T10:18:01Z</time>
      </trkpt>
      <trkpt lat="43.24632" lon="5.71336">
        <ele>452.8</ele>
        <time>2021-10-06T10:18:07Z</time>
      </trkpt>
      <trkpt lat="43.24635" lon="5.7134">
        <ele>453.1</ele>
        <time>2021-10-06T10:18:11Z</time>
      </trkpt>
      <trkpt lat="43.24638" lon="5.71345">
        <ele>453.4</ele>
        <time>2021-10-06T10:18:15Z</time>
      </trkpt>
      <trkpt lat="43.24642" lon="5.71351">
        <ele>453.7</ele>
        <time>2021-10-06T10:18:21Z</time>
      </trkpt>
      <trkpt lat="43.24648" lon="5.71356">
        <ele>454.1</ele>
        <time>2021-10-06T10:18:27Z</time>
      </trkpt>
      <trkpt lat="43.24652" lon="5.71362">
        <ele>454.4</ele>
        <time>2021-10-06T10:18:33Z</time>
      </trkpt>
      <trkpt lat="43.24656" lon="5.71368">
        <ele>454.6</ele>
        <time>2021-10-06T10:18:39Z</time>
      </trkpt>
      <trkpt lat="43.24661" lon="5.71374">
        <ele>454.9</ele>
        <time>2021-10-06T10:18:45Z</time>
      </trkpt>
      <trkpt lat="43.24665" lon="5.71379">
        <ele>455.1</ele>
        <time>2021-10-06T10:18:51Z</time>
      </trkpt>
      <trkpt lat="43.24669" lon="5.71384">
        <ele>455.3</ele>
        <time>2021-10-06T10:18:57Z</time>
      </trkpt>
      <trkpt lat="43.24674" lon="5.7139">
        <ele>455.4</ele>
        <time>2021-10-06T10:19:03Z</time>
      </trkpt>
      <trkpt lat="43.24679" lon="5.71393">
        <ele>455.6</ele>
        <time>2021-10-06T10:19:07Z</time>
      </trkpt>
      <trkpt lat="43.24683" lon="5.714">
        <ele>455.7</ele>
        <time>2021-10-06T10:19:13Z</time>
      </trkpt>
      <trkpt lat="43.24687" lon="5.71406">
        <ele>455.8</ele>
        <time>2021-10-06T10:19:19Z</time>
      </trkpt>
      <trkpt lat="43.24689" lon="5.71414">
        <ele>456</ele>
        <time>2021-10-06T10:19:25Z</time>
      </trkpt>
      <trkpt lat="43.24692" lon="5.71421">
        <ele>456</ele>
        <time>2021-10-06T10:19:31Z</time>
      </trkpt>
      <trkpt lat="43.24695" lon="5.71427">
        <ele>456</ele>
        <time>2021-10-06T10:19:37Z</time>
      </trkpt>
      <trkpt lat="43.24699" lon="5.71433">
        <ele>456.1</ele>
        <time>2021-10-06T10:19:43Z</time>
      </trkpt>
      <trkpt lat="43.24701" lon="5.7144">
        <ele>456.1</ele>
        <time>2021-10-06T10:19:47Z</time>
      </trkpt>
      <trkpt lat="43.24703" lon="5.71446">
        <ele>456.2</ele>
        <time>2021-10-06T10:19:51Z</time>
      </trkpt>
      <trkpt lat="43.24705" lon="5.71452">
        <ele>456.2</ele>
        <time>2021-10-06T10:19:55Z</time>
      </trkpt>
      <trkpt lat="43.2471" lon="5.71459">
        <ele>456.3</ele>
        <time>2021-10-06T10:20:01Z</time>
      </trkpt>
      <trkpt lat="43.24713" lon="5.71464">
        <ele>456.3</ele>
        <time>2021-10-06T10:20:07Z</time>
      </trkpt>
      <trkpt lat="43.24716" lon="5.7147">
        <ele>456.4</ele>
        <time>2021-10-06T10:20:13Z</time>
      </trkpt>
      <trkpt lat="43.2472" lon="5.71473">
        <ele>456.4</ele>
        <time>2021-10-06T10:20:19Z</time>
      </trkpt>
      <trkpt lat="43.24724" lon="5.7147">
        <ele>456.4</ele>
        <time>2021-10-06T10:21:13Z</time>
      </trkpt>
      <trkpt lat="43.24726" lon="5.71477">
        <ele>456.5</ele>
        <time>2021-10-06T10:24:21Z</time>
      </trkpt>
      <trkpt lat="43.2473" lon="5.71482">
        <ele>456.6</ele>
        <time>2021-10-06T10:24:27Z</time>
      </trkpt>
      <trkpt lat="43.24736" lon="5.71482">
        <ele>456.7</ele>
        <time>2021-10-06T10:24:33Z</time>
      </trkpt>
      <trkpt lat="43.24741" lon="5.71485">
        <ele>456.7</ele>
        <time>2021-10-06T10:24:39Z</time>
      </trkpt>
      <trkpt lat="43.24745" lon="5.71487">
        <ele>456.8</ele>
        <time>2021-10-06T10:24:45Z</time>
      </trkpt>
      <trkpt lat="43.2475" lon="5.7149">
        <ele>456.9</ele>
        <time>2021-10-06T10:24:51Z</time>
      </trkpt>
      <trkpt lat="43.24755" lon="5.71493">
        <ele>457.1</ele>
        <time>2021-10-06T10:24:57Z</time>
      </trkpt>
      <trkpt lat="43.2476" lon="5.71497">
        <ele>457.3</ele>
        <time>2021-10-06T10:25:03Z</time>
      </trkpt>
      <trkpt lat="43.24766" lon="5.71501">
        <ele>457.6</ele>
        <time>2021-10-06T10:25:09Z</time>
      </trkpt>
      <trkpt lat="43.24771" lon="5.71506">
        <ele>457.9</ele>
        <time>2021-10-06T10:25:15Z</time>
      </trkpt>
      <trkpt lat="43.24776" lon="5.7151">
        <ele>458.1</ele>
        <time>2021-10-06T10:25:21Z</time>
      </trkpt>
      <trkpt lat="43.24782" lon="5.71515">
        <ele>458.4</ele>
        <time>2021-10-06T10:25:27Z</time>
      </trkpt>
      <trkpt lat="43.24787" lon="5.71519">
        <ele>458.7</ele>
        <time>2021-10-06T10:25:33Z</time>
      </trkpt>
      <trkpt lat="43.24793" lon="5.71522">
        <ele>458.9</ele>
        <time>2021-10-06T10:25:39Z</time>
      </trkpt>
      <trkpt lat="43.24799" lon="5.71525">
        <ele>459.2</ele>
        <time>2021-10-06T10:25:45Z</time>
      </trkpt>
      <trkpt lat="43.24804" lon="5.7153">
        <ele>459.4</ele>
        <time>2021-10-06T10:25:51Z</time>
      </trkpt>
      <trkpt lat="43.24808" lon="5.71534">
        <ele>459.6</ele>
        <time>2021-10-06T10:25:57Z</time>
      </trkpt>
      <trkpt lat="43.24814" lon="5.71538">
        <ele>459.9</ele>
        <time>2021-10-06T10:26:03Z</time>
      </trkpt>
      <trkpt lat="43.24821" lon="5.7154">
        <ele>460.1</ele>
        <time>2021-10-06T10:26:09Z</time>
      </trkpt>
      <trkpt lat="43.24827" lon="5.71542">
        <ele>460.3</ele>
        <time>2021-10-06T10:26:15Z</time>
      </trkpt>
      <trkpt lat="43.24833" lon="5.71545">
        <ele>460.5</ele>
        <time>2021-10-06T10:26:21Z</time>
      </trkpt>
      <trkpt lat="43.24839" lon="5.71547">
        <ele>460.7</ele>
        <time>2021-10-06T10:26:27Z</time>
      </trkpt>
      <trkpt lat="43.24845" lon="5.71549">
        <ele>460.8</ele>
        <time>2021-10-06T10:26:33Z</time>
      </trkpt>
      <trkpt lat="43.24851" lon="5.71552">
        <ele>460.9</ele>
        <time>2021-10-06T10:26:39Z</time>
      </trkpt>
      <trkpt lat="43.24855" lon="5.71554">
        <ele>461</ele>
        <time>2021-10-06T10:26:43Z</time>
      </trkpt>
      <trkpt lat="43.24859" lon="5.71557">
        <ele>461.1</ele>
        <time>2021-10-06T10:26:47Z</time>
      </trkpt>
      <trkpt lat="43.24864" lon="5.71559">
        <ele>461.2</ele>
        <time>2021-10-06T10:26:51Z</time>
      </trkpt>
      <trkpt lat="43.24869" lon="5.71564">
        <ele>461.3</ele>
        <time>2021-10-06T10:26:57Z</time>
      </trkpt>
      <trkpt lat="43.24876" lon="5.71568">
        <ele>461.4</ele>
        <time>2021-10-06T10:27:03Z</time>
      </trkpt>
      <trkpt lat="43.24881" lon="5.71573">
        <ele>461.5</ele>
        <time>2021-10-06T10:27:09Z</time>
      </trkpt>
      <trkpt lat="43.24886" lon="5.71578">
        <ele>461.6</ele>
        <time>2021-10-06T10:27:15Z</time>
      </trkpt>
      <trkpt lat="43.24892" lon="5.71581">
        <ele>461.7</ele>
        <time>2021-10-06T10:27:21Z</time>
      </trkpt>
      <trkpt lat="43.24898" lon="5.71584">
        <ele>461.8</ele>
        <time>2021-10-06T10:27:27Z</time>
      </trkpt>
      <trkpt lat="43.24904" lon="5.71586">
        <ele>461.8</ele>
        <time>2021-10-06T10:27:33Z</time>
      </trkpt>
      <trkpt lat="43.24908" lon="5.71588">
        <ele>461.9</ele>
        <time>2021-10-06T10:27:37Z</time>
      </trkpt>
      <trkpt lat="43.24915" lon="5.71591">
        <ele>461.9</ele>
        <time>2021-10-06T10:27:43Z</time>
      </trkpt>
      <trkpt lat="43.2492" lon="5.71591">
        <ele>461.9</ele>
        <time>2021-10-06T10:27:49Z</time>
      </trkpt>
      <trkpt lat="43.24926" lon="5.71592">
        <ele>462</ele>
        <time>2021-10-06T10:27:55Z</time>
      </trkpt>
      <trkpt lat="43.24933" lon="5.71592">
        <ele>462.1</ele>
        <time>2021-10-06T10:28:01Z</time>
      </trkpt>
      <trkpt lat="43.24937" lon="5.71591">
        <ele>462.2</ele>
        <time>2021-10-06T10:28:05Z</time>
      </trkpt>
      <trkpt lat="43.24944" lon="5.71592">
        <ele>462.2</ele>
        <time>2021-10-06T10:28:11Z</time>
      </trkpt>
      <trkpt lat="43.24949" lon="5.71594">
        <ele>462.3</ele>
        <time>2021-10-06T10:28:17Z</time>
      </trkpt>
      <trkpt lat="43.24955" lon="5.71594">
        <ele>462.3</ele>
        <time>2021-10-06T10:28:23Z</time>
      </trkpt>
      <trkpt lat="43.24961" lon="5.71594">
        <ele>462.4</ele>
        <time>2021-10-06T10:28:29Z</time>
      </trkpt>
      <trkpt lat="43.24967" lon="5.71593">
        <ele>462.5</ele>
        <time>2021-10-06T10:28:35Z</time>
      </trkpt>
      <trkpt lat="43.24973" lon="5.71593">
        <ele>462.6</ele>
        <time>2021-10-06T10:28:41Z</time>
      </trkpt>
      <trkpt lat="43.24978" lon="5.71591">
        <ele>462.6</ele>
        <time>2021-10-06T10:28:47Z</time>
      </trkpt>
      <trkpt lat="43.24984" lon="5.71591">
        <ele>462.7</ele>
        <time>2021-10-06T10:28:53Z</time>
      </trkpt>
      <trkpt lat="43.2499" lon="5.7159">
        <ele>462.8</ele>
        <time>2021-10-06T10:28:59Z</time>
      </trkpt>
      <trkpt lat="43.24995" lon="5.7159">
        <ele>462.9</ele>
        <time>2021-10-06T10:29:05Z</time>
      </trkpt>
      <trkpt lat="43.25001" lon="5.71592">
        <ele>462.9</ele>
        <time>2021-10-06T10:29:11Z</time>
      </trkpt>
      <trkpt lat="43.25005" lon="5.71596">
        <ele>463.2</ele>
        <time>2021-10-06T10:29:17Z</time>
      </trkpt>
      <trkpt lat="43.25011" lon="5.716">
        <ele>463.4</ele>
        <time>2021-10-06T10:29:23Z</time>
      </trkpt>
      <trkpt lat="43.25016" lon="5.71605">
        <ele>463.6</ele>
        <time>2021-10-06T10:29:29Z</time>
      </trkpt>
      <trkpt lat="43.25021" lon="5.7161">
        <ele>463.8</ele>
        <time>2021-10-06T10:29:35Z</time>
      </trkpt>
      <trkpt lat="43.25026" lon="5.71612">
        <ele>464</ele>
        <time>2021-10-06T10:29:41Z</time>
      </trkpt>
      <trkpt lat="43.25032" lon="5.71613">
        <ele>464.3</ele>
        <time>2021-10-06T10:29:49Z</time>
      </trkpt>
      <trkpt lat="43.25037" lon="5.71611">
        <ele>464.6</ele>
        <time>2021-10-06T10:30:07Z</time>
      </trkpt>
      <trkpt lat="43.25041" lon="5.71607">
        <ele>464.9</ele>
        <time>2021-10-06T10:30:59Z</time>
      </trkpt>
      <trkpt lat="43.25041" lon="5.716">
        <ele>465.1</ele>
        <time>2021-10-06T10:31:31Z</time>
      </trkpt>
      <trkpt lat="43.25039" lon="5.71608">
        <ele>464.8</ele>
        <time>2021-10-06T10:32:55Z</time>
      </trkpt>
      <trkpt lat="43.2504" lon="5.71614">
        <ele>464.7</ele>
        <time>2021-10-06T10:33:17Z</time>
      </trkpt>
      <trkpt lat="43.25043" lon="5.71619">
        <ele>464.7</ele>
        <time>2021-10-06T10:36:05Z</time>
      </trkpt>
      <trkpt lat="43.25046" lon="5.71624">
        <ele>464.7</ele>
        <time>2021-10-06T10:36:35Z</time>
      </trkpt>
      <trkpt lat="43.25051" lon="5.71625">
        <ele>464.9</ele>
        <time>2021-10-06T10:37:01Z</time>
      </trkpt>
      <trkpt lat="43.25056" lon="5.71629">
        <ele>465.1</ele>
        <time>2021-10-06T10:37:09Z</time>
      </trkpt>
      <trkpt lat="43.25061" lon="5.71632">
        <ele>465.2</ele>
        <time>2021-10-06T10:37:15Z</time>
      </trkpt>
      <trkpt lat="43.25066" lon="5.71635">
        <ele>465.4</ele>
        <time>2021-10-06T10:37:21Z</time>
      </trkpt>
      <trkpt lat="43.25072" lon="5.71639">
        <ele>465.5</ele>
        <time>2021-10-06T10:37:27Z</time>
      </trkpt>
      <trkpt lat="43.25076" lon="5.71642">
        <ele>465.6</ele>
        <time>2021-10-06T10:37:31Z</time>
      </trkpt>
      <trkpt lat="43.25082" lon="5.71644">
        <ele>465.8</ele>
        <time>2021-10-06T10:37:37Z</time>
      </trkpt>
      <trkpt lat="43.25088" lon="5.71645">
        <ele>465.9</ele>
        <time>2021-10-06T10:37:43Z</time>
      </trkpt>
      <trkpt lat="43.25093" lon="5.71648">
        <ele>465.9</ele>
        <time>2021-10-06T10:37:49Z</time>
      </trkpt>
      <trkpt lat="43.25096" lon="5.71654">
        <ele>465.8</ele>
        <time>2021-10-06T10:37:55Z</time>
      </trkpt>
      <trkpt lat="43.25099" lon="5.7166">
        <ele>465.6</ele>
        <time>2021-10-06T10:38:01Z</time>
      </trkpt>
      <trkpt lat="43.25102" lon="5.71666">
        <ele>465.5</ele>
        <time>2021-10-06T10:38:07Z</time>
      </trkpt>
      <trkpt lat="43.25104" lon="5.71672">
        <ele>465.5</ele>
        <time>2021-10-06T10:38:13Z</time>
      </trkpt>
      <trkpt lat="43.25107" lon="5.71678">
        <ele>465.7</ele>
        <time>2021-10-06T10:38:19Z</time>
      </trkpt>
      <trkpt lat="43.25111" lon="5.71683">
        <ele>465.8</ele>
        <time>2021-10-06T10:38:25Z</time>
      </trkpt>
      <trkpt lat="43.25116" lon="5.71688">
        <ele>465.9</ele>
        <time>2021-10-06T10:38:31Z</time>
      </trkpt>
      <trkpt lat="43.25121" lon="5.7169">
        <ele>466.1</ele>
        <time>2021-10-06T10:38:37Z</time>
      </trkpt>
      <trkpt lat="43.25127" lon="5.7169">
        <ele>466.2</ele>
        <time>2021-10-06T10:38:43Z</time>
      </trkpt>
      <trkpt lat="43.25131" lon="5.71691">
        <ele>466.3</ele>
        <time>2021-10-06T10:38:47Z</time>
      </trkpt>
      <trkpt lat="43.25137" lon="5.71689">
        <ele>466.4</ele>
        <time>2021-10-06T10:38:53Z</time>
      </trkpt>
      <trkpt lat="43.25142" lon="5.71692">
        <ele>466.5</ele>
        <time>2021-10-06T10:38:59Z</time>
      </trkpt>
      <trkpt lat="43.25147" lon="5.71695">
        <ele>466.6</ele>
        <time>2021-10-06T10:39:05Z</time>
      </trkpt>
      <trkpt lat="43.25152" lon="5.71698">
        <ele>466.7</ele>
        <time>2021-10-06T10:39:09Z</time>
      </trkpt>
      <trkpt lat="43.25159" lon="5.71702">
        <ele>466.8</ele>
        <time>2021-10-06T10:39:15Z</time>
      </trkpt>
      <trkpt lat="43.25162" lon="5.71706">
        <ele>466.9</ele>
        <time>2021-10-06T10:39:21Z</time>
      </trkpt>
      <trkpt lat="43.25166" lon="5.71711">
        <ele>467</ele>
        <time>2021-10-06T10:39:29Z</time>
      </trkpt>
      <trkpt lat="43.25172" lon="5.71717">
        <ele>467.2</ele>
        <time>2021-10-06T10:39:39Z</time>
      </trkpt>
      <trkpt lat="43.25175" lon="5.71724">
        <ele>467.4</ele>
        <time>2021-10-06T10:39:45Z</time>
      </trkpt>
      <trkpt lat="43.25179" lon="5.71729">
        <ele>467.6</ele>
        <time>2021-10-06T10:39:49Z</time>
      </trkpt>
      <trkpt lat="43.25183" lon="5.71732">
        <ele>467.8</ele>
        <time>2021-10-06T10:39:53Z</time>
      </trkpt>
      <trkpt lat="43.25187" lon="5.71737">
        <ele>468</ele>
        <time>2021-10-06T10:39:57Z</time>
      </trkpt>
      <trkpt lat="43.2519" lon="5.71742">
        <ele>468.1</ele>
        <time>2021-10-06T10:40:01Z</time>
      </trkpt>
      <trkpt lat="43.25192" lon="5.71747">
        <ele>468.2</ele>
        <time>2021-10-06T10:40:05Z</time>
      </trkpt>
      <trkpt lat="43.25196" lon="5.71753">
        <ele>468.4</ele>
        <time>2021-10-06T10:40:11Z</time>
      </trkpt>
      <trkpt lat="43.25198" lon="5.7176">
        <ele>468.4</ele>
        <time>2021-10-06T10:40:17Z</time>
      </trkpt>
      <trkpt lat="43.25201" lon="5.71765">
        <ele>468.5</ele>
        <time>2021-10-06T10:40:23Z</time>
      </trkpt>
      <trkpt lat="43.25204" lon="5.71771">
        <ele>468.5</ele>
        <time>2021-10-06T10:40:29Z</time>
      </trkpt>
      <trkpt lat="43.25207" lon="5.71777">
        <ele>468.6</ele>
        <time>2021-10-06T10:40:35Z</time>
      </trkpt>
      <trkpt lat="43.25211" lon="5.71784">
        <ele>468.7</ele>
        <time>2021-10-06T10:40:41Z</time>
      </trkpt>
      <trkpt lat="43.25214" lon="5.71788">
        <ele>468.8</ele>
        <time>2021-10-06T10:40:45Z</time>
      </trkpt>
      <trkpt lat="43.25218" lon="5.71793">
        <ele>469</ele>
        <time>2021-10-06T10:40:51Z</time>
      </trkpt>
      <trkpt lat="43.25222" lon="5.71799">
        <ele>469.1</ele>
        <time>2021-10-06T10:40:57Z</time>
      </trkpt>
      <trkpt lat="43.25226" lon="5.71805">
        <ele>469.2</ele>
        <time>2021-10-06T10:41:03Z</time>
      </trkpt>
      <trkpt lat="43.25229" lon="5.71811">
        <ele>469.3</ele>
        <time>2021-10-06T10:41:09Z</time>
      </trkpt>
      <trkpt lat="43.25232" lon="5.71819">
        <ele>469.3</ele>
        <time>2021-10-06T10:41:15Z</time>
      </trkpt>
      <trkpt lat="43.25236" lon="5.71823">
        <ele>469.4</ele>
        <time>2021-10-06T10:41:21Z</time>
      </trkpt>
      <trkpt lat="43.25241" lon="5.71827">
        <ele>469.6</ele>
        <time>2021-10-06T10:41:27Z</time>
      </trkpt>
      <trkpt lat="43.25245" lon="5.71833">
        <ele>469.8</ele>
        <time>2021-10-06T10:41:33Z</time>
      </trkpt>
      <trkpt lat="43.2525" lon="5.71836">
        <ele>470</ele>
        <time>2021-10-06T10:41:37Z</time>
      </trkpt>
      <trkpt lat="43.25254" lon="5.71841">
        <ele>470.3</ele>
        <time>2021-10-06T10:41:43Z</time>
      </trkpt>
      <trkpt lat="43.25258" lon="5.71848">
        <ele>470.7</ele>
        <time>2021-10-06T10:41:49Z</time>
      </trkpt>
      <trkpt lat="43.25261" lon="5.71855">
        <ele>470.9</ele>
        <time>2021-10-06T10:41:55Z</time>
      </trkpt>
      <trkpt lat="43.25266" lon="5.71861">
        <ele>471.2</ele>
        <time>2021-10-06T10:42:01Z</time>
      </trkpt>
      <trkpt lat="43.25271" lon="5.71866">
        <ele>471.7</ele>
        <time>2021-10-06T10:42:07Z</time>
      </trkpt>
      <trkpt lat="43.25276" lon="5.7187">
        <ele>472.1</ele>
        <time>2021-10-06T10:42:13Z</time>
      </trkpt>
      <trkpt lat="43.2528" lon="5.71874">
        <ele>472.4</ele>
        <time>2021-10-06T10:42:19Z</time>
      </trkpt>
      <trkpt lat="43.25283" lon="5.7188">
        <ele>472.6</ele>
        <time>2021-10-06T10:42:25Z</time>
      </trkpt>
      <trkpt lat="43.25287" lon="5.71884">
        <ele>472.8</ele>
        <time>2021-10-06T10:42:31Z</time>
      </trkpt>
      <trkpt lat="43.25289" lon="5.71889">
        <ele>472.9</ele>
        <time>2021-10-06T10:42:37Z</time>
      </trkpt>
      <trkpt lat="43.25291" lon="5.71895">
        <ele>472.9</ele>
        <time>2021-10-06T10:42:41Z</time>
      </trkpt>
      <trkpt lat="43.25293" lon="5.71901">
        <ele>473</ele>
        <time>2021-10-06T10:42:45Z</time>
      </trkpt>
      <trkpt lat="43.25295" lon="5.71907">
        <ele>473</ele>
        <time>2021-10-06T10:42:49Z</time>
      </trkpt>
      <trkpt lat="43.25297" lon="5.71914">
        <ele>473</ele>
        <time>2021-10-06T10:42:55Z</time>
      </trkpt>
      <trkpt lat="43.25299" lon="5.71921">
        <ele>473</ele>
        <time>2021-10-06T10:43:01Z</time>
      </trkpt>
      <trkpt lat="43.253" lon="5.7193">
        <ele>472.8</ele>
        <time>2021-10-06T10:43:07Z</time>
      </trkpt>
      <trkpt lat="43.25302" lon="5.71937">
        <ele>472.7</ele>
        <time>2021-10-06T10:43:11Z</time>
      </trkpt>
      <trkpt lat="43.25304" lon="5.71943">
        <ele>472.7</ele>
        <time>2021-10-06T10:43:15Z</time>
      </trkpt>
      <trkpt lat="43.25307" lon="5.71947">
        <ele>472.7</ele>
        <time>2021-10-06T10:43:25Z</time>
      </trkpt>
      <trkpt lat="43.2531" lon="5.71952">
        <ele>472.6</ele>
        <time>2021-10-06T10:43:53Z</time>
      </trkpt>
      <trkpt lat="43.25313" lon="5.71956">
        <ele>472.5</ele>
        <time>2021-10-06T10:44:17Z</time>
      </trkpt>
      <trkpt lat="43.25316" lon="5.71962">
        <ele>472.3</ele>
        <time>2021-10-06T10:44:27Z</time>
      </trkpt>
      <trkpt lat="43.25318" lon="5.71968">
        <ele>472</ele>
        <time>2021-10-06T10:44:31Z</time>
      </trkpt>
      <trkpt lat="43.2532" lon="5.71975">
        <ele>471.7</ele>
        <time>2021-10-06T10:44:37Z</time>
      </trkpt>
      <trkpt lat="43.25322" lon="5.71982">
        <ele>471.3</ele>
        <time>2021-10-06T10:44:43Z</time>
      </trkpt>
      <trkpt lat="43.25326" lon="5.7199">
        <ele>470.8</ele>
        <time>2021-10-06T10:44:51Z</time>
      </trkpt>
      <trkpt lat="43.2533" lon="5.71997">
        <ele>470.3</ele>
        <time>2021-10-06T10:44:57Z</time>
      </trkpt>
      <trkpt lat="43.25333" lon="5.72004">
        <ele>469.8</ele>
        <time>2021-10-06T10:45:03Z</time>
      </trkpt>
      <trkpt lat="43.25337" lon="5.72009">
        <ele>469.7</ele>
        <time>2021-10-06T10:45:09Z</time>
      </trkpt>
      <trkpt lat="43.2534" lon="5.72016">
        <ele>469.5</ele>
        <time>2021-10-06T10:45:17Z</time>
      </trkpt>
      <trkpt lat="43.25344" lon="5.72023">
        <ele>469.2</ele>
        <time>2021-10-06T10:45:23Z</time>
      </trkpt>
      <trkpt lat="43.25348" lon="5.72029">
        <ele>469.1</ele>
        <time>2021-10-06T10:45:29Z</time>
      </trkpt>
      <trkpt lat="43.2535" lon="5.72035">
        <ele>468.8</ele>
        <time>2021-10-06T10:45:35Z</time>
      </trkpt>
      <trkpt lat="43.25354" lon="5.7204">
        <ele>468.6</ele>
        <time>2021-10-06T10:45:41Z</time>
      </trkpt>
      <trkpt lat="43.25358" lon="5.72044">
        <ele>468.5</ele>
        <time>2021-10-06T10:45:47Z</time>
      </trkpt>
      <trkpt lat="43.25363" lon="5.72047">
        <ele>468.5</ele>
        <time>2021-10-06T10:45:53Z</time>
      </trkpt>
      <trkpt lat="43.25367" lon="5.7205">
        <ele>468.5</ele>
        <time>2021-10-06T10:46:01Z</time>
      </trkpt>
      <trkpt lat="43.2537" lon="5.72055">
        <ele>468.2</ele>
        <time>2021-10-06T10:46:09Z</time>
      </trkpt>
      <trkpt lat="43.25372" lon="5.72061">
        <ele>467.7</ele>
        <time>2021-10-06T10:46:15Z</time>
      </trkpt>
      <trkpt lat="43.25374" lon="5.72067">
        <ele>467.3</ele>
        <time>2021-10-06T10:46:23Z</time>
      </trkpt>
      <trkpt lat="43.25376" lon="5.72073">
        <ele>466.9</ele>
        <time>2021-10-06T10:46:29Z</time>
      </trkpt>
      <trkpt lat="43.25378" lon="5.7208">
        <ele>466.4</ele>
        <time>2021-10-06T10:46:35Z</time>
      </trkpt>
      <trkpt lat="43.25381" lon="5.72088">
        <ele>465.9</ele>
        <time>2021-10-06T10:46:41Z</time>
      </trkpt>
      <trkpt lat="43.25383" lon="5.72094">
        <ele>465.6</ele>
        <time>2021-10-06T10:46:45Z</time>
      </trkpt>
      <trkpt lat="43.25386" lon="5.721">
        <ele>465.4</ele>
        <time>2021-10-06T10:46:51Z</time>
      </trkpt>
      <trkpt lat="43.25389" lon="5.72107">
        <ele>465.1</ele>
        <time>2021-10-06T10:46:57Z</time>
      </trkpt>
      <trkpt lat="43.25391" lon="5.72114">
        <ele>464.8</ele>
        <time>2021-10-06T10:47:03Z</time>
      </trkpt>
      <trkpt lat="43.25392" lon="5.72121">
        <ele>464.4</ele>
        <time>2021-10-06T10:47:09Z</time>
      </trkpt>
      <trkpt lat="43.25395" lon="5.72127">
        <ele>464.1</ele>
        <time>2021-10-06T10:47:17Z</time>
      </trkpt>
      <trkpt lat="43.25398" lon="5.72135">
        <ele>463.8</ele>
        <time>2021-10-06T10:47:25Z</time>
      </trkpt>
      <trkpt lat="43.25399" lon="5.72142">
        <ele>463.4</ele>
        <time>2021-10-06T10:47:31Z</time>
      </trkpt>
      <trkpt lat="43.25402" lon="5.72149">
        <ele>463</ele>
        <time>2021-10-06T10:47:39Z</time>
      </trkpt>
      <trkpt lat="43.25407" lon="5.72153">
        <ele>462.8</ele>
        <time>2021-10-06T10:47:43Z</time>
      </trkpt>
      <trkpt lat="43.25411" lon="5.72159">
        <ele>462.4</ele>
        <time>2021-10-06T10:47:49Z</time>
      </trkpt>
      <trkpt lat="43.25414" lon="5.72166">
        <ele>462.1</ele>
        <time>2021-10-06T10:47:55Z</time>
      </trkpt>
      <trkpt lat="43.25415" lon="5.72172">
        <ele>461.7</ele>
        <time>2021-10-06T10:48:01Z</time>
      </trkpt>
      <trkpt lat="43.25416" lon="5.72179">
        <ele>461.2</ele>
        <time>2021-10-06T10:48:07Z</time>
      </trkpt>
      <trkpt lat="43.25418" lon="5.72187">
        <ele>460.8</ele>
        <time>2021-10-06T10:48:13Z</time>
      </trkpt>
      <trkpt lat="43.2542" lon="5.72195">
        <ele>460.5</ele>
        <time>2021-10-06T10:48:19Z</time>
      </trkpt>
      <trkpt lat="43.2542" lon="5.72201">
        <ele>460.1</ele>
        <time>2021-10-06T10:48:25Z</time>
      </trkpt>
      <trkpt lat="43.25421" lon="5.72209">
        <ele>459.7</ele>
        <time>2021-10-06T10:48:31Z</time>
      </trkpt>
      <trkpt lat="43.25422" lon="5.72216">
        <ele>459.3</ele>
        <time>2021-10-06T10:48:37Z</time>
      </trkpt>
      <trkpt lat="43.25424" lon="5.72224">
        <ele>458.9</ele>
        <time>2021-10-06T10:48:45Z</time>
      </trkpt>
      <trkpt lat="43.25426" lon="5.72233">
        <ele>458.5</ele>
        <time>2021-10-06T10:48:51Z</time>
      </trkpt>
      <trkpt lat="43.25427" lon="5.72241">
        <ele>458.1</ele>
        <time>2021-10-06T10:48:57Z</time>
      </trkpt>
      <trkpt lat="43.2543" lon="5.72248">
        <ele>457.7</ele>
        <time>2021-10-06T10:49:05Z</time>
      </trkpt>
      <trkpt lat="43.2543" lon="5.72256">
        <ele>457.5</ele>
        <time>2021-10-06T10:49:11Z</time>
      </trkpt>
      <trkpt lat="43.25432" lon="5.72262">
        <ele>457.3</ele>
        <time>2021-10-06T10:49:17Z</time>
      </trkpt>
      <trkpt lat="43.25432" lon="5.72272">
        <ele>456.9</ele>
        <time>2021-10-06T10:49:23Z</time>
      </trkpt>
      <trkpt lat="43.25432" lon="5.7228">
        <ele>456.7</ele>
        <time>2021-10-06T10:49:27Z</time>
      </trkpt>
      <trkpt lat="43.25435" lon="5.72287">
        <ele>456.6</ele>
        <time>2021-10-06T10:49:31Z</time>
      </trkpt>
      <trkpt lat="43.25438" lon="5.72293">
        <ele>456.5</ele>
        <time>2021-10-06T10:49:37Z</time>
      </trkpt>
      <trkpt lat="43.2544" lon="5.723">
        <ele>456.3</ele>
        <time>2021-10-06T10:49:43Z</time>
      </trkpt>
      <trkpt lat="43.25442" lon="5.72308">
        <ele>456.1</ele>
        <time>2021-10-06T10:49:49Z</time>
      </trkpt>
      <trkpt lat="43.25444" lon="5.72316">
        <ele>456</ele>
        <time>2021-10-06T10:49:55Z</time>
      </trkpt>
      <trkpt lat="43.25446" lon="5.72322">
        <ele>455.8</ele>
        <time>2021-10-06T10:50:01Z</time>
      </trkpt>
      <trkpt lat="43.25448" lon="5.72328">
        <ele>455.7</ele>
        <time>2021-10-06T10:50:05Z</time>
      </trkpt>
      <trkpt lat="43.2545" lon="5.72335">
        <ele>455.5</ele>
        <time>2021-10-06T10:50:09Z</time>
      </trkpt>
      <trkpt lat="43.25453" lon="5.72341">
        <ele>455.3</ele>
        <time>2021-10-06T10:50:13Z</time>
      </trkpt>
      <trkpt lat="43.25457" lon="5.72348">
        <ele>455</ele>
        <time>2021-10-06T10:50:19Z</time>
      </trkpt>
      <trkpt lat="43.25462" lon="5.72354">
        <ele>454.9</ele>
        <time>2021-10-06T10:50:25Z</time>
      </trkpt>
      <trkpt lat="43.25466" lon="5.72357">
        <ele>454.9</ele>
        <time>2021-10-06T10:50:29Z</time>
      </trkpt>
      <trkpt lat="43.25471" lon="5.72359">
        <ele>454.9</ele>
        <time>2021-10-06T10:50:33Z</time>
      </trkpt>
      <trkpt lat="43.25475" lon="5.72363">
        <ele>454.9</ele>
        <time>2021-10-06T10:50:37Z</time>
      </trkpt>
      <trkpt lat="43.2548" lon="5.72368">
        <ele>454.8</ele>
        <time>2021-10-06T10:50:43Z</time>
      </trkpt>
      <trkpt lat="43.25485" lon="5.72373">
        <ele>454.6</ele>
        <time>2021-10-06T10:50:49Z</time>
      </trkpt>
      <trkpt lat="43.25489" lon="5.72378">
        <ele>454.4</ele>
        <time>2021-10-06T10:50:57Z</time>
      </trkpt>
      <trkpt lat="43.25492" lon="5.72384">
        <ele>454.1</ele>
        <time>2021-10-06T10:51:03Z</time>
      </trkpt>
      <trkpt lat="43.25494" lon="5.72391">
        <ele>453.7</ele>
        <time>2021-10-06T10:51:09Z</time>
      </trkpt>
      <trkpt lat="43.25496" lon="5.72399">
        <ele>453.2</ele>
        <time>2021-10-06T10:51:15Z</time>
      </trkpt>
      <trkpt lat="43.25496" lon="5.72407">
        <ele>452.6</ele>
        <time>2021-10-06T10:51:21Z</time>
      </trkpt>
      <trkpt lat="43.25497" lon="5.72414">
        <ele>452.1</ele>
        <time>2021-10-06T10:51:29Z</time>
      </trkpt>
      <trkpt lat="43.25498" lon="5.72422">
        <ele>451.4</ele>
        <time>2021-10-06T10:51:35Z</time>
      </trkpt>
      <trkpt lat="43.25497" lon="5.72432">
        <ele>450.5</ele>
        <time>2021-10-06T10:51:43Z</time>
      </trkpt>
      <trkpt lat="43.25497" lon="5.7244">
        <ele>449.7</ele>
        <time>2021-10-06T10:51:49Z</time>
      </trkpt>
      <trkpt lat="43.25497" lon="5.72448">
        <ele>449</ele>
        <time>2021-10-06T10:51:53Z</time>
      </trkpt>
      <trkpt lat="43.25496" lon="5.72455">
        <ele>448.3</ele>
        <time>2021-10-06T10:51:59Z</time>
      </trkpt>
      <trkpt lat="43.25496" lon="5.72462">
        <ele>447.6</ele>
        <time>2021-10-06T10:52:05Z</time>
      </trkpt>
      <trkpt lat="43.25496" lon="5.72469">
        <ele>446.9</ele>
        <time>2021-10-06T10:52:11Z</time>
      </trkpt>
      <trkpt lat="43.25495" lon="5.72476">
        <ele>446.3</ele>
        <time>2021-10-06T10:52:17Z</time>
      </trkpt>
      <trkpt lat="43.25495" lon="5.72483">
        <ele>445.6</ele>
        <time>2021-10-06T10:52:23Z</time>
      </trkpt>
      <trkpt lat="43.25498" lon="5.72491">
        <ele>444.9</ele>
        <time>2021-10-06T10:52:29Z</time>
      </trkpt>
      <trkpt lat="43.25501" lon="5.72499">
        <ele>444.2</ele>
        <time>2021-10-06T10:52:35Z</time>
      </trkpt>
      <trkpt lat="43.25504" lon="5.72507">
        <ele>444.2</ele>
        <time>2021-10-06T10:52:41Z</time>
      </trkpt>
      <trkpt lat="43.25505" lon="5.72514">
        <ele>444.2</ele>
        <time>2021-10-06T10:52:47Z</time>
      </trkpt>
      <trkpt lat="43.25508" lon="5.72521">
        <ele>444.2</ele>
        <time>2021-10-06T10:52:55Z</time>
      </trkpt>
      <trkpt lat="43.2551" lon="5.72527">
        <ele>444.2</ele>
        <time>2021-10-06T10:53:01Z</time>
      </trkpt>
      <trkpt lat="43.25512" lon="5.72533">
        <ele>444.3</ele>
        <time>2021-10-06T10:53:07Z</time>
      </trkpt>
      <trkpt lat="43.25515" lon="5.72537">
        <ele>444.4</ele>
        <time>2021-10-06T10:53:21Z</time>
      </trkpt>
      <trkpt lat="43.25517" lon="5.72545">
        <ele>444.4</ele>
        <time>2021-10-06T10:55:37Z</time>
      </trkpt>
      <trkpt lat="43.25519" lon="5.72552">
        <ele>444.3</ele>
        <time>2021-10-06T10:55:41Z</time>
      </trkpt>
      <trkpt lat="43.25521" lon="5.7256">
        <ele>444.2</ele>
        <time>2021-10-06T10:55:47Z</time>
      </trkpt>
      <trkpt lat="43.25523" lon="5.72567">
        <ele>444.2</ele>
        <time>2021-10-06T10:55:53Z</time>
      </trkpt>
      <trkpt lat="43.25525" lon="5.72573">
        <ele>444.2</ele>
        <time>2021-10-06T10:55:57Z</time>
      </trkpt>
      <trkpt lat="43.25528" lon="5.72579">
        <ele>444.1</ele>
        <time>2021-10-06T10:56:01Z</time>
      </trkpt>
      <trkpt lat="43.2553" lon="5.72585">
        <ele>444.1</ele>
        <time>2021-10-06T10:56:07Z</time>
      </trkpt>
      <trkpt lat="43.25533" lon="5.72592">
        <ele>444.2</ele>
        <time>2021-10-06T10:56:13Z</time>
      </trkpt>
      <trkpt lat="43.25532" lon="5.72599">
        <ele>444.2</ele>
        <time>2021-10-06T10:56:19Z</time>
      </trkpt>
      <trkpt lat="43.25532" lon="5.72606">
        <ele>444.3</ele>
        <time>2021-10-06T10:56:23Z</time>
      </trkpt>
      <trkpt lat="43.25533" lon="5.72615">
        <ele>444.3</ele>
        <time>2021-10-06T10:56:29Z</time>
      </trkpt>
      <trkpt lat="43.25535" lon="5.72621">
        <ele>444.4</ele>
        <time>2021-10-06T10:56:33Z</time>
      </trkpt>
      <trkpt lat="43.25537" lon="5.72626">
        <ele>444.4</ele>
        <time>2021-10-06T10:56:37Z</time>
      </trkpt>
      <trkpt lat="43.25541" lon="5.72634">
        <ele>444.5</ele>
        <time>2021-10-06T10:56:43Z</time>
      </trkpt>
      <trkpt lat="43.25543" lon="5.72639">
        <ele>444.5</ele>
        <time>2021-10-06T10:56:47Z</time>
      </trkpt>
      <trkpt lat="43.25546" lon="5.72644">
        <ele>444.5</ele>
        <time>2021-10-06T10:56:51Z</time>
      </trkpt>
      <trkpt lat="43.25548" lon="5.7265">
        <ele>444.5</ele>
        <time>2021-10-06T10:56:55Z</time>
      </trkpt>
      <trkpt lat="43.2555" lon="5.72655">
        <ele>444.5</ele>
        <time>2021-10-06T10:56:59Z</time>
      </trkpt>
      <trkpt lat="43.25553" lon="5.72662">
        <ele>444.4</ele>
        <time>2021-10-06T10:57:05Z</time>
      </trkpt>
      <trkpt lat="43.25556" lon="5.72668">
        <ele>444.3</ele>
        <time>2021-10-06T10:57:11Z</time>
      </trkpt>
      <trkpt lat="43.25561" lon="5.72673">
        <ele>444</ele>
        <time>2021-10-06T10:57:17Z</time>
      </trkpt>
      <trkpt lat="43.25566" lon="5.72676">
        <ele>443.8</ele>
        <time>2021-10-06T10:57:23Z</time>
      </trkpt>
      <trkpt lat="43.2557" lon="5.72678">
        <ele>443.6</ele>
        <time>2021-10-06T10:57:27Z</time>
      </trkpt>
      <trkpt lat="43.25575" lon="5.72681">
        <ele>443.5</ele>
        <time>2021-10-06T10:57:33Z</time>
      </trkpt>
      <trkpt lat="43.25581" lon="5.72684">
        <ele>443.2</ele>
        <time>2021-10-06T10:57:39Z</time>
      </trkpt>
      <trkpt lat="43.25586" lon="5.72686">
        <ele>443.1</ele>
        <time>2021-10-06T10:57:43Z</time>
      </trkpt>
      <trkpt lat="43.25591" lon="5.72688">
        <ele>443.1</ele>
        <time>2021-10-06T10:57:47Z</time>
      </trkpt>
      <trkpt lat="43.25595" lon="5.72691">
        <ele>443.1</ele>
        <time>2021-10-06T10:57:51Z</time>
      </trkpt>
      <trkpt lat="43.256" lon="5.72693">
        <ele>443.1</ele>
        <time>2021-10-06T10:57:55Z</time>
      </trkpt>
      <trkpt lat="43.25605" lon="5.72693">
        <ele>443.2</ele>
        <time>2021-10-06T10:57:59Z</time>
      </trkpt>
      <trkpt lat="43.25611" lon="5.72695">
        <ele>443.2</ele>
        <time>2021-10-06T10:58:05Z</time>
      </trkpt>
      <trkpt lat="43.25615" lon="5.72696">
        <ele>443.2</ele>
        <time>2021-10-06T10:58:11Z</time>
      </trkpt>
      <trkpt lat="43.2562" lon="5.72698">
        <ele>443.2</ele>
        <time>2021-10-06T10:58:15Z</time>
      </trkpt>
      <trkpt lat="43.25624" lon="5.72699">
        <ele>443.1</ele>
        <time>2021-10-06T10:58:19Z</time>
      </trkpt>
      <trkpt lat="43.2563" lon="5.727">
        <ele>443.2</ele>
        <time>2021-10-06T10:58:25Z</time>
      </trkpt>
      <trkpt lat="43.25636" lon="5.72703">
        <ele>443</ele>
        <time>2021-10-06T10:58:31Z</time>
      </trkpt>
      <trkpt lat="43.2564" lon="5.72706">
        <ele>442.9</ele>
        <time>2021-10-06T10:58:35Z</time>
      </trkpt>
      <trkpt lat="43.25645" lon="5.72709">
        <ele>442.7</ele>
        <time>2021-10-06T10:58:39Z</time>
      </trkpt>
      <trkpt lat="43.2565" lon="5.72711">
        <ele>442.6</ele>
        <time>2021-10-06T10:58:43Z</time>
      </trkpt>
      <trkpt lat="43.25654" lon="5.72714">
        <ele>442.3</ele>
        <time>2021-10-06T10:58:47Z</time>
      </trkpt>
      <trkpt lat="43.2566" lon="5.72717">
        <ele>442.1</ele>
        <time>2021-10-06T10:58:53Z</time>
      </trkpt>
      <trkpt lat="43.25664" lon="5.72719">
        <ele>442</ele>
        <time>2021-10-06T10:58:59Z</time>
      </trkpt>
      <trkpt lat="43.25669" lon="5.7272">
        <ele>441.7</ele>
        <time>2021-10-06T10:59:07Z</time>
      </trkpt>
      <trkpt lat="43.25674" lon="5.72723">
        <ele>441.1</ele>
        <time>2021-10-06T10:59:15Z</time>
      </trkpt>
      <trkpt lat="43.25675" lon="5.7273">
        <ele>440.4</ele>
        <time>2021-10-06T10:59:25Z</time>
      </trkpt>
      <trkpt lat="43.25677" lon="5.72738">
        <ele>439.6</ele>
        <time>2021-10-06T10:59:33Z</time>
      </trkpt>
      <trkpt lat="43.25678" lon="5.72746">
        <ele>438.9</ele>
        <time>2021-10-06T10:59:39Z</time>
      </trkpt>
      <trkpt lat="43.2568" lon="5.72752">
        <ele>438.5</ele>
        <time>2021-10-06T10:59:51Z</time>
      </trkpt>
      <trkpt lat="43.25681" lon="5.72746">
        <ele>438.8</ele>
        <time>2021-10-06T11:01:33Z</time>
      </trkpt>
      <trkpt lat="43.25679" lon="5.72752">
        <ele>438.5</ele>
        <time>2021-10-06T11:02:15Z</time>
      </trkpt>
      <trkpt lat="43.2568" lon="5.7276">
        <ele>438.2</ele>
        <time>2021-10-06T11:02:23Z</time>
      </trkpt>
      <trkpt lat="43.2568" lon="5.72768">
        <ele>438</ele>
        <time>2021-10-06T11:02:29Z</time>
      </trkpt>
      <trkpt lat="43.25683" lon="5.72775">
        <ele>437.8</ele>
        <time>2021-10-06T11:02:37Z</time>
      </trkpt>
      <trkpt lat="43.25687" lon="5.72781">
        <ele>437.5</ele>
        <time>2021-10-06T11:02:41Z</time>
      </trkpt>
      <trkpt lat="43.25688" lon="5.72787">
        <ele>437.4</ele>
        <time>2021-10-06T11:02:45Z</time>
      </trkpt>
      <trkpt lat="43.25687" lon="5.72795">
        <ele>437.2</ele>
        <time>2021-10-06T11:02:50Z</time>
      </trkpt>
      <trkpt lat="43.25686" lon="5.72803">
        <ele>437</ele>
        <time>2021-10-06T11:02:56Z</time>
      </trkpt>
      <trkpt lat="43.25685" lon="5.72812">
        <ele>436.8</ele>
        <time>2021-10-06T11:03:02Z</time>
      </trkpt>
      <trkpt lat="43.25685" lon="5.72821">
        <ele>436.5</ele>
        <time>2021-10-06T11:03:08Z</time>
      </trkpt>
      <trkpt lat="43.25687" lon="5.7283">
        <ele>436.3</ele>
        <time>2021-10-06T11:03:14Z</time>
      </trkpt>
      <trkpt lat="43.25688" lon="5.72839">
        <ele>436.1</ele>
        <time>2021-10-06T11:03:20Z</time>
      </trkpt>
      <trkpt lat="43.25689" lon="5.72847">
        <ele>435.9</ele>
        <time>2021-10-06T11:03:26Z</time>
      </trkpt>
      <trkpt lat="43.25687" lon="5.72854">
        <ele>435.7</ele>
        <time>2021-10-06T11:03:32Z</time>
      </trkpt>
      <trkpt lat="43.25687" lon="5.72862">
        <ele>435.5</ele>
        <time>2021-10-06T11:03:36Z</time>
      </trkpt>
      <trkpt lat="43.25688" lon="5.72871">
        <ele>435.2</ele>
        <time>2021-10-06T11:03:42Z</time>
      </trkpt>
      <trkpt lat="43.2569" lon="5.7288">
        <ele>435</ele>
        <time>2021-10-06T11:03:48Z</time>
      </trkpt>
      <trkpt lat="43.2569" lon="5.72888">
        <ele>434.8</ele>
        <time>2021-10-06T11:03:54Z</time>
      </trkpt>
      <trkpt lat="43.25689" lon="5.72895">
        <ele>434.6</ele>
        <time>2021-10-06T11:04:00Z</time>
      </trkpt>
      <trkpt lat="43.25688" lon="5.72903">
        <ele>434.4</ele>
        <time>2021-10-06T11:04:06Z</time>
      </trkpt>
      <trkpt lat="43.25688" lon="5.72912">
        <ele>434.1</ele>
        <time>2021-10-06T11:04:12Z</time>
      </trkpt>
      <trkpt lat="43.25689" lon="5.72918">
        <ele>434</ele>
        <time>2021-10-06T11:04:16Z</time>
      </trkpt>
      <trkpt lat="43.2569" lon="5.72925">
        <ele>433.8</ele>
        <time>2021-10-06T11:04:20Z</time>
      </trkpt>
      <trkpt lat="43.2569" lon="5.72933">
        <ele>433.5</ele>
        <time>2021-10-06T11:04:26Z</time>
      </trkpt>
      <trkpt lat="43.25689" lon="5.72942">
        <ele>433.3</ele>
        <time>2021-10-06T11:04:32Z</time>
      </trkpt>
      <trkpt lat="43.25689" lon="5.72949">
        <ele>433.1</ele>
        <time>2021-10-06T11:04:36Z</time>
      </trkpt>
      <trkpt lat="43.25688" lon="5.72957">
        <ele>432.9</ele>
        <time>2021-10-06T11:04:42Z</time>
      </trkpt>
      <trkpt lat="43.25686" lon="5.72963">
        <ele>432.8</ele>
        <time>2021-10-06T11:04:48Z</time>
      </trkpt>
      <trkpt lat="43.25684" lon="5.72971">
        <ele>432.6</ele>
        <time>2021-10-06T11:04:54Z</time>
      </trkpt>
      <trkpt lat="43.25682" lon="5.72977">
        <ele>432.4</ele>
        <time>2021-10-06T11:04:58Z</time>
      </trkpt>
      <trkpt lat="43.25681" lon="5.72983">
        <ele>432.3</ele>
        <time>2021-10-06T11:05:02Z</time>
      </trkpt>
      <trkpt lat="43.2568" lon="5.72989">
        <ele>432.1</ele>
        <time>2021-10-06T11:05:06Z</time>
      </trkpt>
      <trkpt lat="43.25678" lon="5.72997">
        <ele>431.9</ele>
        <time>2021-10-06T11:05:12Z</time>
      </trkpt>
      <trkpt lat="43.25676" lon="5.73003">
        <ele>431.9</ele>
        <time>2021-10-06T11:05:16Z</time>
      </trkpt>
      <trkpt lat="43.25675" lon="5.7301">
        <ele>431.8</ele>
        <time>2021-10-06T11:05:20Z</time>
      </trkpt>
      <trkpt lat="43.25674" lon="5.73016">
        <ele>431.8</ele>
        <time>2021-10-06T11:05:24Z</time>
      </trkpt>
      <trkpt lat="43.25672" lon="5.73024">
        <ele>431.9</ele>
        <time>2021-10-06T11:05:30Z</time>
      </trkpt>
      <trkpt lat="43.25668" lon="5.73032">
        <ele>432</ele>
        <time>2021-10-06T11:05:36Z</time>
      </trkpt>
      <trkpt lat="43.25665" lon="5.73039">
        <ele>432</ele>
        <time>2021-10-06T11:05:42Z</time>
      </trkpt>
      <trkpt lat="43.25663" lon="5.73045">
        <ele>432</ele>
        <time>2021-10-06T11:05:48Z</time>
      </trkpt>
      <trkpt lat="43.25658" lon="5.73051">
        <ele>432.1</ele>
        <time>2021-10-06T11:05:54Z</time>
      </trkpt>
      <trkpt lat="43.25654" lon="5.73056">
        <ele>432.1</ele>
        <time>2021-10-06T11:06:00Z</time>
      </trkpt>
      <trkpt lat="43.25653" lon="5.73061">
        <ele>432.2</ele>
        <time>2021-10-06T11:06:04Z</time>
      </trkpt>
      <trkpt lat="43.25651" lon="5.73067">
        <ele>432.2</ele>
        <time>2021-10-06T11:06:08Z</time>
      </trkpt>
      <trkpt lat="43.25648" lon="5.73075">
        <ele>432.2</ele>
        <time>2021-10-06T11:06:14Z</time>
      </trkpt>
      <trkpt lat="43.25646" lon="5.73084">
        <ele>432.2</ele>
        <time>2021-10-06T11:06:20Z</time>
      </trkpt>
      <trkpt lat="43.25645" lon="5.7309">
        <ele>432</ele>
        <time>2021-10-06T11:06:24Z</time>
      </trkpt>
      <trkpt lat="43.25645" lon="5.73099">
        <ele>431.7</ele>
        <time>2021-10-06T11:06:30Z</time>
      </trkpt>
      <trkpt lat="43.25644" lon="5.73105">
        <ele>431.4</ele>
        <time>2021-10-06T11:06:34Z</time>
      </trkpt>
      <trkpt lat="43.25643" lon="5.73114">
        <ele>431.1</ele>
        <time>2021-10-06T11:06:40Z</time>
      </trkpt>
      <trkpt lat="43.25642" lon="5.73121">
        <ele>430.8</ele>
        <time>2021-10-06T11:06:44Z</time>
      </trkpt>
      <trkpt lat="43.25639" lon="5.73128">
        <ele>430.5</ele>
        <time>2021-10-06T11:06:50Z</time>
      </trkpt>
      <trkpt lat="43.25636" lon="5.73134">
        <ele>430.3</ele>
        <time>2021-10-06T11:06:56Z</time>
      </trkpt>
      <trkpt lat="43.25634" lon="5.73142">
        <ele>430</ele>
        <time>2021-10-06T11:07:02Z</time>
      </trkpt>
      <trkpt lat="43.25632" lon="5.7315">
        <ele>429.7</ele>
        <time>2021-10-06T11:07:08Z</time>
      </trkpt>
      <trkpt lat="43.25631" lon="5.73159">
        <ele>429.3</ele>
        <time>2021-10-06T11:07:14Z</time>
      </trkpt>
      <trkpt lat="43.2563" lon="5.73166">
        <ele>429</ele>
        <time>2021-10-06T11:07:20Z</time>
      </trkpt>
      <trkpt lat="43.2563" lon="5.73174">
        <ele>428.7</ele>
        <time>2021-10-06T11:07:26Z</time>
      </trkpt>
      <trkpt lat="43.2563" lon="5.73183">
        <ele>428.4</ele>
        <time>2021-10-06T11:07:32Z</time>
      </trkpt>
      <trkpt lat="43.2563" lon="5.7319">
        <ele>428.1</ele>
        <time>2021-10-06T11:07:36Z</time>
      </trkpt>
      <trkpt lat="43.2563" lon="5.73199">
        <ele>427.8</ele>
        <time>2021-10-06T11:07:42Z</time>
      </trkpt>
      <trkpt lat="43.2563" lon="5.73208">
        <ele>427.5</ele>
        <time>2021-10-06T11:07:48Z</time>
      </trkpt>
      <trkpt lat="43.25631" lon="5.73215">
        <ele>427.2</ele>
        <time>2021-10-06T11:07:52Z</time>
      </trkpt>
      <trkpt lat="43.25632" lon="5.73221">
        <ele>426.9</ele>
        <time>2021-10-06T11:07:56Z</time>
      </trkpt>
      <trkpt lat="43.25633" lon="5.73227">
        <ele>426.7</ele>
        <time>2021-10-06T11:08:00Z</time>
      </trkpt>
      <trkpt lat="43.25636" lon="5.73235">
        <ele>426.3</ele>
        <time>2021-10-06T11:08:06Z</time>
      </trkpt>
      <trkpt lat="43.25637" lon="5.73243">
        <ele>426</ele>
        <time>2021-10-06T11:08:12Z</time>
      </trkpt>
      <trkpt lat="43.2564" lon="5.73251">
        <ele>425.6</ele>
        <time>2021-10-06T11:08:18Z</time>
      </trkpt>
      <trkpt lat="43.25642" lon="5.73259">
        <ele>425.5</ele>
        <time>2021-10-06T11:08:24Z</time>
      </trkpt>
      <trkpt lat="43.25644" lon="5.73266">
        <ele>425.4</ele>
        <time>2021-10-06T11:08:30Z</time>
      </trkpt>
      <trkpt lat="43.25646" lon="5.73273">
        <ele>425.4</ele>
        <time>2021-10-06T11:08:34Z</time>
      </trkpt>
      <trkpt lat="43.25647" lon="5.73279">
        <ele>425.3</ele>
        <time>2021-10-06T11:08:38Z</time>
      </trkpt>
      <trkpt lat="43.2565" lon="5.73287">
        <ele>425.2</ele>
        <time>2021-10-06T11:08:44Z</time>
      </trkpt>
      <trkpt lat="43.25653" lon="5.73292">
        <ele>425.2</ele>
        <time>2021-10-06T11:08:50Z</time>
      </trkpt>
      <trkpt lat="43.25657" lon="5.73297">
        <ele>425.1</ele>
        <time>2021-10-06T11:08:58Z</time>
      </trkpt>
      <trkpt lat="43.25659" lon="5.73304">
        <ele>425.1</ele>
        <time>2021-10-06T11:09:04Z</time>
      </trkpt>
      <trkpt lat="43.25658" lon="5.73313">
        <ele>425</ele>
        <time>2021-10-06T11:09:10Z</time>
      </trkpt>
      <trkpt lat="43.25659" lon="5.7332">
        <ele>425</ele>
        <time>2021-10-06T11:09:14Z</time>
      </trkpt>
      <trkpt lat="43.2566" lon="5.73326">
        <ele>425</ele>
        <time>2021-10-06T11:09:18Z</time>
      </trkpt>
      <trkpt lat="43.25663" lon="5.73333">
        <ele>425</ele>
        <time>2021-10-06T11:09:24Z</time>
      </trkpt>
      <trkpt lat="43.25668" lon="5.73338">
        <ele>424.8</ele>
        <time>2021-10-06T11:09:30Z</time>
      </trkpt>
      <trkpt lat="43.25674" lon="5.73342">
        <ele>424.3</ele>
        <time>2021-10-06T11:09:36Z</time>
      </trkpt>
      <trkpt lat="43.25678" lon="5.73347">
        <ele>424</ele>
        <time>2021-10-06T11:09:44Z</time>
      </trkpt>
      <trkpt lat="43.25683" lon="5.73353">
        <ele>423.6</ele>
        <time>2021-10-06T11:09:50Z</time>
      </trkpt>
      <trkpt lat="43.25689" lon="5.73357">
        <ele>423.2</ele>
        <time>2021-10-06T11:09:56Z</time>
      </trkpt>
      <trkpt lat="43.25694" lon="5.7336">
        <ele>422.9</ele>
        <time>2021-10-06T11:10:00Z</time>
      </trkpt>
      <trkpt lat="43.25699" lon="5.73364">
        <ele>422.7</ele>
        <time>2021-10-06T11:10:04Z</time>
      </trkpt>
      <trkpt lat="43.25703" lon="5.73367">
        <ele>422.4</ele>
        <time>2021-10-06T11:10:08Z</time>
      </trkpt>
      <trkpt lat="43.25708" lon="5.73368">
        <ele>422.2</ele>
        <time>2021-10-06T11:10:12Z</time>
      </trkpt>
      <trkpt lat="43.25713" lon="5.7337">
        <ele>422</ele>
        <time>2021-10-06T11:10:18Z</time>
      </trkpt>
      <trkpt lat="43.25717" lon="5.73375">
        <ele>421.9</ele>
        <time>2021-10-06T11:10:24Z</time>
      </trkpt>
      <trkpt lat="43.25721" lon="5.73382">
        <ele>421.8</ele>
        <time>2021-10-06T11:10:30Z</time>
      </trkpt>
      <trkpt lat="43.25724" lon="5.73389">
        <ele>421.8</ele>
        <time>2021-10-06T11:10:36Z</time>
      </trkpt>
      <trkpt lat="43.25727" lon="5.73394">
        <ele>421.8</ele>
        <time>2021-10-06T11:10:42Z</time>
      </trkpt>
      <trkpt lat="43.25731" lon="5.73397">
        <ele>421.8</ele>
        <time>2021-10-06T11:10:58Z</time>
      </trkpt>
      <trkpt lat="43.25735" lon="5.73401">
        <ele>421.8</ele>
        <time>2021-10-06T11:11:18Z</time>
      </trkpt>
      <trkpt lat="43.25739" lon="5.73397">
        <ele>421.6</ele>
        <time>2021-10-06T11:12:16Z</time>
      </trkpt>
      <trkpt lat="43.25741" lon="5.73403">
        <ele>421.7</ele>
        <time>2021-10-06T11:13:44Z</time>
      </trkpt>
      <trkpt lat="43.25745" lon="5.73408">
        <ele>421.8</ele>
        <time>2021-10-06T11:13:54Z</time>
      </trkpt>
      <trkpt lat="43.25748" lon="5.73413">
        <ele>421.9</ele>
        <time>2021-10-06T11:14:02Z</time>
      </trkpt>
      <trkpt lat="43.25752" lon="5.73416">
        <ele>421.9</ele>
        <time>2021-10-06T11:14:10Z</time>
      </trkpt>
      <trkpt lat="43.25748" lon="5.73412">
        <ele>421.9</ele>
        <time>2021-10-06T11:14:32Z</time>
      </trkpt>
      <trkpt lat="43.25744" lon="5.73409">
        <ele>421.8</ele>
        <time>2021-10-06T11:14:46Z</time>
      </trkpt>
      <trkpt lat="43.25741" lon="5.73404">
        <ele>421.7</ele>
        <time>2021-10-06T11:15:02Z</time>
      </trkpt>
      <trkpt lat="43.25742" lon="5.73412">
        <ele>421.9</ele>
        <time>2021-10-06T11:15:46Z</time>
      </trkpt>
      <trkpt lat="43.25747" lon="5.73415">
        <ele>422</ele>
        <time>2021-10-06T11:15:54Z</time>
      </trkpt>
      <trkpt lat="43.2575" lon="5.73418">
        <ele>422</ele>
        <time>2021-10-06T11:16:12Z</time>
      </trkpt>
      <trkpt lat="43.25752" lon="5.73425">
        <ele>422</ele>
        <time>2021-10-06T11:16:24Z</time>
      </trkpt>
      <trkpt lat="43.25757" lon="5.73419">
        <ele>421.9</ele>
        <time>2021-10-06T11:17:08Z</time>
      </trkpt>
      <trkpt lat="43.2576" lon="5.73413">
        <ele>421.7</ele>
        <time>2021-10-06T11:17:14Z</time>
      </trkpt>
      <trkpt lat="43.25766" lon="5.7341">
        <ele>421.5</ele>
        <time>2021-10-06T11:17:20Z</time>
      </trkpt>
      <trkpt lat="43.25771" lon="5.73408">
        <ele>421.4</ele>
        <time>2021-10-06T11:17:26Z</time>
      </trkpt>
      <trkpt lat="43.25775" lon="5.73405">
        <ele>421.1</ele>
        <time>2021-10-06T11:17:32Z</time>
      </trkpt>
      <trkpt lat="43.25776" lon="5.73397">
        <ele>420.8</ele>
        <time>2021-10-06T11:17:38Z</time>
      </trkpt>
      <trkpt lat="43.2578" lon="5.73399">
        <ele>420.8</ele>
        <time>2021-10-06T11:17:48Z</time>
      </trkpt>
      <trkpt lat="43.25785" lon="5.734">
        <ele>420.7</ele>
        <time>2021-10-06T11:17:58Z</time>
      </trkpt>
      <trkpt lat="43.25788" lon="5.73396">
        <ele>420.4</ele>
        <time>2021-10-06T11:18:06Z</time>
      </trkpt>
      <trkpt lat="43.25792" lon="5.73392">
        <ele>420.2</ele>
        <time>2021-10-06T11:18:30Z</time>
      </trkpt>
      <trkpt lat="43.25796" lon="5.73389">
        <ele>419.9</ele>
        <time>2021-10-06T11:18:36Z</time>
      </trkpt>
      <trkpt lat="43.25802" lon="5.73386">
        <ele>419.6</ele>
        <time>2021-10-06T11:18:44Z</time>
      </trkpt>
      <trkpt lat="43.25807" lon="5.73386">
        <ele>419.5</ele>
        <time>2021-10-06T11:18:50Z</time>
      </trkpt>
      <trkpt lat="43.25813" lon="5.73386">
        <ele>419.3</ele>
        <time>2021-10-06T11:18:58Z</time>
      </trkpt>
      <trkpt lat="43.25818" lon="5.73384">
        <ele>419.1</ele>
        <time>2021-10-06T11:19:04Z</time>
      </trkpt>
      <trkpt lat="43.25822" lon="5.73382">
        <ele>418.8</ele>
        <time>2021-10-06T11:19:08Z</time>
      </trkpt>
      <trkpt lat="43.25828" lon="5.7338">
        <ele>418.5</ele>
        <time>2021-10-06T11:19:14Z</time>
      </trkpt>
      <trkpt lat="43.25833" lon="5.73379">
        <ele>418.3</ele>
        <time>2021-10-06T11:19:18Z</time>
      </trkpt>
      <trkpt lat="43.25839" lon="5.73377">
        <ele>418.2</ele>
        <time>2021-10-06T11:19:24Z</time>
      </trkpt>
      <trkpt lat="43.25844" lon="5.73375">
        <ele>418.1</ele>
        <time>2021-10-06T11:19:32Z</time>
      </trkpt>
      <trkpt lat="43.25849" lon="5.73374">
        <ele>418.1</ele>
        <time>2021-10-06T11:19:38Z</time>
      </trkpt>
      <trkpt lat="43.25854" lon="5.73371">
        <ele>417.9</ele>
        <time>2021-10-06T11:19:46Z</time>
      </trkpt>
      <trkpt lat="43.25859" lon="5.73365">
        <ele>417.6</ele>
        <time>2021-10-06T11:19:54Z</time>
      </trkpt>
      <trkpt lat="43.25864" lon="5.7336">
        <ele>417.3</ele>
        <time>2021-10-06T11:20:02Z</time>
      </trkpt>
      <trkpt lat="43.25867" lon="5.73356">
        <ele>417</ele>
        <time>2021-10-06T11:20:06Z</time>
      </trkpt>
      <trkpt lat="43.25872" lon="5.73351">
        <ele>416.7</ele>
        <time>2021-10-06T11:20:12Z</time>
      </trkpt>
      <trkpt lat="43.25877" lon="5.73347">
        <ele>416.5</ele>
        <time>2021-10-06T11:20:18Z</time>
      </trkpt>
      <trkpt lat="43.25882" lon="5.73343">
        <ele>416.2</ele>
        <time>2021-10-06T11:20:24Z</time>
      </trkpt>
      <trkpt lat="43.25885" lon="5.73338">
        <ele>416</ele>
        <time>2021-10-06T11:20:30Z</time>
      </trkpt>
      <trkpt lat="43.25889" lon="5.73334">
        <ele>415.7</ele>
        <time>2021-10-06T11:20:34Z</time>
      </trkpt>
      <trkpt lat="43.25894" lon="5.73329">
        <ele>415</ele>
        <time>2021-10-06T11:20:40Z</time>
      </trkpt>
      <trkpt lat="43.25899" lon="5.73325">
        <ele>414.3</ele>
        <time>2021-10-06T11:20:46Z</time>
      </trkpt>
      <trkpt lat="43.25902" lon="5.73319">
        <ele>413.4</ele>
        <time>2021-10-06T11:20:52Z</time>
      </trkpt>
      <trkpt lat="43.25906" lon="5.73314">
        <ele>412.5</ele>
        <time>2021-10-06T11:20:58Z</time>
      </trkpt>
      <trkpt lat="43.2591" lon="5.73311">
        <ele>411.9</ele>
        <time>2021-10-06T11:21:04Z</time>
      </trkpt>
      <trkpt lat="43.25915" lon="5.73311">
        <ele>411.9</ele>
        <time>2021-10-06T11:21:14Z</time>
      </trkpt>
      <trkpt lat="43.25921" lon="5.7331">
        <ele>411.5</ele>
        <time>2021-10-06T11:21:30Z</time>
      </trkpt>
      <trkpt lat="43.25926" lon="5.73311">
        <ele>411.4</ele>
        <time>2021-10-06T11:21:40Z</time>
      </trkpt>
      <trkpt lat="43.25933" lon="5.73315">
        <ele>411.7</ele>
        <time>2021-10-06T11:21:46Z</time>
      </trkpt>
      <trkpt lat="43.25938" lon="5.73314">
        <ele>411.3</ele>
        <time>2021-10-06T11:21:52Z</time>
      </trkpt>
      <trkpt lat="43.25942" lon="5.73313">
        <ele>410.8</ele>
        <time>2021-10-06T11:21:58Z</time>
      </trkpt>
      <trkpt lat="43.25947" lon="5.7331">
        <ele>410</ele>
        <time>2021-10-06T11:22:06Z</time>
      </trkpt>
      <trkpt lat="43.25952" lon="5.73312">
        <ele>410</ele>
        <time>2021-10-06T11:22:12Z</time>
      </trkpt>
      <trkpt lat="43.25956" lon="5.73314">
        <ele>410.1</ele>
        <time>2021-10-06T11:22:16Z</time>
      </trkpt>
      <trkpt lat="43.25961" lon="5.73314">
        <ele>409.9</ele>
        <time>2021-10-06T11:22:22Z</time>
      </trkpt>
      <trkpt lat="43.25966" lon="5.73315">
        <ele>409.8</ele>
        <time>2021-10-06T11:22:28Z</time>
      </trkpt>
      <trkpt lat="43.25972" lon="5.73316">
        <ele>409.8</ele>
        <time>2021-10-06T11:22:34Z</time>
      </trkpt>
      <trkpt lat="43.25977" lon="5.73316">
        <ele>409.4</ele>
        <time>2021-10-06T11:22:40Z</time>
      </trkpt>
      <trkpt lat="43.25982" lon="5.73315">
        <ele>408.8</ele>
        <time>2021-10-06T11:22:46Z</time>
      </trkpt>
      <trkpt lat="43.25987" lon="5.73314">
        <ele>408.3</ele>
        <time>2021-10-06T11:22:50Z</time>
      </trkpt>
      <trkpt lat="43.25993" lon="5.73315">
        <ele>408.1</ele>
        <time>2021-10-06T11:22:54Z</time>
      </trkpt>
      <trkpt lat="43.25998" lon="5.73315">
        <ele>407.9</ele>
        <time>2021-10-06T11:23:00Z</time>
      </trkpt>
      <trkpt lat="43.26004" lon="5.73315">
        <ele>407.5</ele>
        <time>2021-10-06T11:23:06Z</time>
      </trkpt>
      <trkpt lat="43.26008" lon="5.73315">
        <ele>407</ele>
        <time>2021-10-06T11:23:10Z</time>
      </trkpt>
      <trkpt lat="43.26013" lon="5.73312">
        <ele>405.8</ele>
        <time>2021-10-06T11:23:22Z</time>
      </trkpt>
      <trkpt lat="43.26018" lon="5.73308">
        <ele>404.6</ele>
        <time>2021-10-06T11:23:28Z</time>
      </trkpt>
      <trkpt lat="43.26022" lon="5.73307">
        <ele>403.8</ele>
        <time>2021-10-06T11:23:34Z</time>
      </trkpt>
      <trkpt lat="43.26028" lon="5.73305">
        <ele>403</ele>
        <time>2021-10-06T11:23:40Z</time>
      </trkpt>
      <trkpt lat="43.26032" lon="5.73304">
        <ele>402.4</ele>
        <time>2021-10-06T11:23:48Z</time>
      </trkpt>
      <trkpt lat="43.26038" lon="5.73303">
        <ele>401.6</ele>
        <time>2021-10-06T11:23:58Z</time>
      </trkpt>
      <trkpt lat="43.26043" lon="5.73303">
        <ele>401.2</ele>
        <time>2021-10-06T11:24:04Z</time>
      </trkpt>
      <trkpt lat="43.26049" lon="5.73303">
        <ele>400.6</ele>
        <time>2021-10-06T11:24:10Z</time>
      </trkpt>
      <trkpt lat="43.26054" lon="5.733">
        <ele>399.7</ele>
        <time>2021-10-06T11:24:18Z</time>
      </trkpt>
      <trkpt lat="43.2606" lon="5.73301">
        <ele>399.2</ele>
        <time>2021-10-06T11:24:28Z</time>
      </trkpt>
      <trkpt lat="43.26066" lon="5.73298">
        <ele>398.3</ele>
        <time>2021-10-06T11:24:36Z</time>
      </trkpt>
      <trkpt lat="43.26072" lon="5.73297">
        <ele>397.4</ele>
        <time>2021-10-06T11:24:44Z</time>
      </trkpt>
      <trkpt lat="43.26076" lon="5.73296">
        <ele>396.8</ele>
        <time>2021-10-06T11:25:02Z</time>
      </trkpt>
      <trkpt lat="43.26081" lon="5.73294">
        <ele>396</ele>
        <time>2021-10-06T11:25:22Z</time>
      </trkpt>
      <trkpt lat="43.26085" lon="5.73288">
        <ele>394.8</ele>
        <time>2021-10-06T11:25:36Z</time>
      </trkpt>
      <trkpt lat="43.26088" lon="5.73282">
        <ele>393.4</ele>
        <time>2021-10-06T11:25:44Z</time>
      </trkpt>
      <trkpt lat="43.26094" lon="5.73279">
        <ele>392.4</ele>
        <time>2021-10-06T11:25:52Z</time>
      </trkpt>
      <trkpt lat="43.26098" lon="5.73276">
        <ele>391.6</ele>
        <time>2021-10-06T11:26:00Z</time>
      </trkpt>
      <trkpt lat="43.26104" lon="5.73278">
        <ele>391.5</ele>
        <time>2021-10-06T11:26:06Z</time>
      </trkpt>
      <trkpt lat="43.2611" lon="5.73282">
        <ele>391.8</ele>
        <time>2021-10-06T11:26:12Z</time>
      </trkpt>
      <trkpt lat="43.26115" lon="5.73285">
        <ele>391.8</ele>
        <time>2021-10-06T11:26:16Z</time>
      </trkpt>
      <trkpt lat="43.26119" lon="5.73287">
        <ele>391.8</ele>
        <time>2021-10-06T11:26:22Z</time>
      </trkpt>
      <trkpt lat="43.26125" lon="5.73287">
        <ele>391.3</ele>
        <time>2021-10-06T11:26:28Z</time>
      </trkpt>
      <trkpt lat="43.26132" lon="5.73287">
        <ele>390.8</ele>
        <time>2021-10-06T11:26:34Z</time>
      </trkpt>
      <trkpt lat="43.26137" lon="5.73289">
        <ele>390.7</ele>
        <time>2021-10-06T11:26:38Z</time>
      </trkpt>
      <trkpt lat="43.26142" lon="5.73289">
        <ele>390.3</ele>
        <time>2021-10-06T11:26:44Z</time>
      </trkpt>
      <trkpt lat="43.26147" lon="5.7329">
        <ele>390</ele>
        <time>2021-10-06T11:27:30Z</time>
      </trkpt>
      <trkpt lat="43.26152" lon="5.73291">
        <ele>389.6</ele>
        <time>2021-10-06T11:27:34Z</time>
      </trkpt>
      <trkpt lat="43.26158" lon="5.73292">
        <ele>389.2</ele>
        <time>2021-10-06T11:27:42Z</time>
      </trkpt>
      <trkpt lat="43.26163" lon="5.73294">
        <ele>389</ele>
        <time>2021-10-06T11:27:46Z</time>
      </trkpt>
      <trkpt lat="43.26169" lon="5.73296">
        <ele>388.7</ele>
        <time>2021-10-06T11:27:52Z</time>
      </trkpt>
      <trkpt lat="43.26174" lon="5.73297">
        <ele>388.2</ele>
        <time>2021-10-06T11:27:56Z</time>
      </trkpt>
      <trkpt lat="43.26179" lon="5.73298">
        <ele>387.6</ele>
        <time>2021-10-06T11:28:02Z</time>
      </trkpt>
      <trkpt lat="43.26184" lon="5.733">
        <ele>387.1</ele>
        <time>2021-10-06T11:28:08Z</time>
      </trkpt>
      <trkpt lat="43.26189" lon="5.73301">
        <ele>386.7</ele>
        <time>2021-10-06T11:28:12Z</time>
      </trkpt>
      <trkpt lat="43.26195" lon="5.73304">
        <ele>386.2</ele>
        <time>2021-10-06T11:28:18Z</time>
      </trkpt>
      <trkpt lat="43.26199" lon="5.73307">
        <ele>385.9</ele>
        <time>2021-10-06T11:28:24Z</time>
      </trkpt>
      <trkpt lat="43.26202" lon="5.73312">
        <ele>385.8</ele>
        <time>2021-10-06T11:28:30Z</time>
      </trkpt>
      <trkpt lat="43.26207" lon="5.73316">
        <ele>385.5</ele>
        <time>2021-10-06T11:28:38Z</time>
      </trkpt>
      <trkpt lat="43.26209" lon="5.73319">
        <ele>385.4</ele>
        <time>2021-10-06T11:28:42Z</time>
      </trkpt>
      <trkpt lat="43.26212" lon="5.73324">
        <ele>385.4</ele>
        <time>2021-10-06T11:28:47Z</time>
      </trkpt>
      <trkpt lat="43.26216" lon="5.73328">
        <ele>384.9</ele>
        <time>2021-10-06T11:28:53Z</time>
      </trkpt>
      <trkpt lat="43.26221" lon="5.7333">
        <ele>384.4</ele>
        <time>2021-10-06T11:28:59Z</time>
      </trkpt>
      <trkpt lat="43.26225" lon="5.73333">
        <ele>383.9</ele>
        <time>2021-10-06T11:29:05Z</time>
      </trkpt>
      <trkpt lat="43.26229" lon="5.73336">
        <ele>383.5</ele>
        <time>2021-10-06T11:29:15Z</time>
      </trkpt>
      <trkpt lat="43.26232" lon="5.73331">
        <ele>382.6</ele>
        <time>2021-10-06T11:29:43Z</time>
      </trkpt>
      <trkpt lat="43.26234" lon="5.73324">
        <ele>382.1</ele>
        <time>2021-10-06T11:29:59Z</time>
      </trkpt>
      <trkpt lat="43.2623" lon="5.7332">
        <ele>382.4</ele>
        <time>2021-10-06T11:30:33Z</time>
      </trkpt>
      <trkpt lat="43.2623" lon="5.73326">
        <ele>382.8</ele>
        <time>2021-10-06T11:30:55Z</time>
      </trkpt>
      <trkpt lat="43.26235" lon="5.73326">
        <ele>382</ele>
        <time>2021-10-06T11:31:31Z</time>
      </trkpt>
      <trkpt lat="43.26239" lon="5.73329">
        <ele>381.5</ele>
        <time>2021-10-06T11:31:41Z</time>
      </trkpt>
      <trkpt lat="43.26244" lon="5.73325">
        <ele>380.6</ele>
        <time>2021-10-06T11:31:49Z</time>
      </trkpt>
      <trkpt lat="43.26247" lon="5.73321">
        <ele>379.9</ele>
        <time>2021-10-06T11:31:55Z</time>
      </trkpt>
      <trkpt lat="43.2625" lon="5.73314">
        <ele>379.4</ele>
        <time>2021-10-06T11:32:01Z</time>
      </trkpt>
      <trkpt lat="43.26251" lon="5.73307">
        <ele>378.9</ele>
        <time>2021-10-06T11:32:07Z</time>
      </trkpt>
      <trkpt lat="43.26251" lon="5.733">
        <ele>378.7</ele>
        <time>2021-10-06T11:32:15Z</time>
      </trkpt>
      <trkpt lat="43.2625" lon="5.73294">
        <ele>378.6</ele>
        <time>2021-10-06T11:32:23Z</time>
      </trkpt>
      <trkpt lat="43.26246" lon="5.73297">
        <ele>379.2</ele>
        <time>2021-10-06T11:32:51Z</time>
      </trkpt>
      <trkpt lat="43.26241" lon="5.73303">
        <ele>380</ele>
        <time>2021-10-06T11:33:05Z</time>
      </trkpt>
      <trkpt lat="43.26238" lon="5.73308">
        <ele>380.7</ele>
        <time>2021-10-06T11:33:11Z</time>
      </trkpt>
      <trkpt lat="43.26234" lon="5.73312">
        <ele>381.5</ele>
        <time>2021-10-06T11:33:23Z</time>
      </trkpt>
      <trkpt lat="43.26229" lon="5.73313">
        <ele>382.2</ele>
        <time>2021-10-06T11:33:45Z</time>
      </trkpt>
      <trkpt lat="43.26224" lon="5.73311">
        <ele>382.8</ele>
        <time>2021-10-06T11:34:01Z</time>
      </trkpt>
      <trkpt lat="43.26219" lon="5.73306">
        <ele>383.1</ele>
        <time>2021-10-06T11:34:07Z</time>
      </trkpt>
      <trkpt lat="43.26215" lon="5.73302">
        <ele>383.3</ele>
        <time>2021-10-06T11:34:17Z</time>
      </trkpt>
      <trkpt lat="43.26211" lon="5.73298">
        <ele>383.6</ele>
        <time>2021-10-06T11:34:29Z</time>
      </trkpt>
      <trkpt lat="43.26208" lon="5.73293">
        <ele>383.6</ele>
        <time>2021-10-06T11:34:37Z</time>
      </trkpt>
      <trkpt lat="43.26206" lon="5.73286">
        <ele>383.4</ele>
        <time>2021-10-06T11:34:47Z</time>
      </trkpt>
      <trkpt lat="43.26204" lon="5.73279">
        <ele>383</ele>
        <time>2021-10-06T11:34:59Z</time>
      </trkpt>
      <trkpt lat="43.26202" lon="5.73274">
        <ele>382.8</ele>
        <time>2021-10-06T11:35:15Z</time>
      </trkpt>
      <trkpt lat="43.26199" lon="5.73269">
        <ele>382.8</ele>
        <time>2021-10-06T11:35:37Z</time>
      </trkpt>
      <trkpt lat="43.26204" lon="5.73271">
        <ele>382.4</ele>
        <time>2021-10-06T11:36:59Z</time>
      </trkpt>
      <trkpt lat="43.26202" lon="5.73265">
        <ele>382.2</ele>
        <time>2021-10-06T11:37:05Z</time>
      </trkpt>
      <trkpt lat="43.26198" lon="5.73261">
        <ele>382.3</ele>
        <time>2021-10-06T11:37:15Z</time>
      </trkpt>
      <trkpt lat="43.26198" lon="5.73269">
        <ele>382.9</ele>
        <time>2021-10-06T11:38:31Z</time>
      </trkpt>
      <trkpt lat="43.26199" lon="5.73275">
        <ele>383.3</ele>
        <time>2021-10-06T11:38:47Z</time>
      </trkpt>
      <trkpt lat="43.26196" lon="5.73281">
        <ele>384.1</ele>
        <time>2021-10-06T11:41:17Z</time>
      </trkpt>
      <trkpt lat="43.26201" lon="5.73282">
        <ele>383.7</ele>
        <time>2021-10-06T11:51:35Z</time>
      </trkpt>
      <trkpt lat="43.26197" lon="5.7328">
        <ele>383.9</ele>
        <time>2021-10-06T12:36:39Z</time>
      </trkpt>
      <trkpt lat="43.26193" lon="5.73275">
        <ele>383.9</ele>
        <time>2021-10-06T12:39:21Z</time>
      </trkpt>
      <trkpt lat="43.26188" lon="5.73278">
        <ele>384.7</ele>
        <time>2021-10-06T12:39:47Z</time>
      </trkpt>
      <trkpt lat="43.26184" lon="5.73281">
        <ele>385.5</ele>
        <time>2021-10-06T12:40:03Z</time>
      </trkpt>
      <trkpt lat="43.26179" lon="5.73284">
        <ele>386.3</ele>
        <time>2021-10-06T12:40:17Z</time>
      </trkpt>
      <trkpt lat="43.26175" lon="5.73288">
        <ele>387.1</ele>
        <time>2021-10-06T12:40:21Z</time>
      </trkpt>
      <trkpt lat="43.26171" lon="5.73292">
        <ele>388</ele>
        <time>2021-10-06T12:40:31Z</time>
      </trkpt>
      <trkpt lat="43.26165" lon="5.73288">
        <ele>388.3</ele>
        <time>2021-10-06T12:40:39Z</time>
      </trkpt>
      <trkpt lat="43.2616" lon="5.73287">
        <ele>388.5</ele>
        <time>2021-10-06T12:40:45Z</time>
      </trkpt>
      <trkpt lat="43.26155" lon="5.73286">
        <ele>388.8</ele>
        <time>2021-10-06T12:40:51Z</time>
      </trkpt>
      <trkpt lat="43.2615" lon="5.73286">
        <ele>389.2</ele>
        <time>2021-10-06T12:40:57Z</time>
      </trkpt>
      <trkpt lat="43.26144" lon="5.73285">
        <ele>389.5</ele>
        <time>2021-10-06T12:41:03Z</time>
      </trkpt>
      <trkpt lat="43.26138" lon="5.73285">
        <ele>390</ele>
        <time>2021-10-06T12:41:09Z</time>
      </trkpt>
      <trkpt lat="43.26132" lon="5.73283">
        <ele>390.1</ele>
        <time>2021-10-06T12:41:17Z</time>
      </trkpt>
      <trkpt lat="43.26127" lon="5.73282">
        <ele>390.4</ele>
        <time>2021-10-06T12:41:21Z</time>
      </trkpt>
      <trkpt lat="43.26121" lon="5.73281">
        <ele>390.7</ele>
        <time>2021-10-06T12:41:27Z</time>
      </trkpt>
      <trkpt lat="43.26116" lon="5.73278">
        <ele>390.6</ele>
        <time>2021-10-06T12:41:33Z</time>
      </trkpt>
      <trkpt lat="43.26111" lon="5.73276">
        <ele>390.7</ele>
        <time>2021-10-06T12:41:37Z</time>
      </trkpt>
      <trkpt lat="43.26105" lon="5.73275">
        <ele>391</ele>
        <time>2021-10-06T12:41:43Z</time>
      </trkpt>
      <trkpt lat="43.26098" lon="5.73273">
        <ele>391.2</ele>
        <time>2021-10-06T12:41:49Z</time>
      </trkpt>
      <trkpt lat="43.26093" lon="5.73272">
        <ele>391.2</ele>
        <time>2021-10-06T12:41:55Z</time>
      </trkpt>
      <trkpt lat="43.26088" lon="5.7327">
        <ele>391.4</ele>
        <time>2021-10-06T12:42:01Z</time>
      </trkpt>
      <trkpt lat="43.26081" lon="5.7327">
        <ele>391.7</ele>
        <time>2021-10-06T12:42:07Z</time>
      </trkpt>
      <trkpt lat="43.26074" lon="5.73268">
        <ele>391.8</ele>
        <time>2021-10-06T12:42:13Z</time>
      </trkpt>
      <trkpt lat="43.26069" lon="5.73264">
        <ele>391.6</ele>
        <time>2021-10-06T12:42:17Z</time>
      </trkpt>
      <trkpt lat="43.26064" lon="5.73263">
        <ele>391.6</ele>
        <time>2021-10-06T12:42:21Z</time>
      </trkpt>
      <trkpt lat="43.26059" lon="5.73261">
        <ele>391.5</ele>
        <time>2021-10-06T12:42:27Z</time>
      </trkpt>
      <trkpt lat="43.26054" lon="5.7326">
        <ele>391.7</ele>
        <time>2021-10-06T12:42:33Z</time>
      </trkpt>
      <trkpt lat="43.26047" lon="5.73258">
        <ele>391.8</ele>
        <time>2021-10-06T12:42:39Z</time>
      </trkpt>
      <trkpt lat="43.26042" lon="5.73257">
        <ele>392</ele>
        <time>2021-10-06T12:42:43Z</time>
      </trkpt>
      <trkpt lat="43.26038" lon="5.73256">
        <ele>391.9</ele>
        <time>2021-10-06T12:42:47Z</time>
      </trkpt>
      <trkpt lat="43.26032" lon="5.73255">
        <ele>392.1</ele>
        <time>2021-10-06T12:42:53Z</time>
      </trkpt>
      <trkpt lat="43.26027" lon="5.73255">
        <ele>392.4</ele>
        <time>2021-10-06T12:42:57Z</time>
      </trkpt>
      <trkpt lat="43.26022" lon="5.73255">
        <ele>392.8</ele>
        <time>2021-10-06T12:43:01Z</time>
      </trkpt>
      <trkpt lat="43.26017" lon="5.73255">
        <ele>393</ele>
        <time>2021-10-06T12:43:05Z</time>
      </trkpt>
      <trkpt lat="43.26012" lon="5.73253">
        <ele>393</ele>
        <time>2021-10-06T12:43:09Z</time>
      </trkpt>
      <trkpt lat="43.26007" lon="5.73252">
        <ele>392.9</ele>
        <time>2021-10-06T12:43:13Z</time>
      </trkpt>
      <trkpt lat="43.26003" lon="5.73249">
        <ele>392.7</ele>
        <time>2021-10-06T12:43:17Z</time>
      </trkpt>
      <trkpt lat="43.25998" lon="5.73244">
        <ele>392.6</ele>
        <time>2021-10-06T12:43:23Z</time>
      </trkpt>
      <trkpt lat="43.25994" lon="5.73241">
        <ele>392.7</ele>
        <time>2021-10-06T12:43:29Z</time>
      </trkpt>
      <trkpt lat="43.25989" lon="5.73236">
        <ele>392.7</ele>
        <time>2021-10-06T12:43:35Z</time>
      </trkpt>
      <trkpt lat="43.25984" lon="5.7323">
        <ele>392.6</ele>
        <time>2021-10-06T12:43:41Z</time>
      </trkpt>
      <trkpt lat="43.25978" lon="5.73226">
        <ele>392.7</ele>
        <time>2021-10-06T12:43:47Z</time>
      </trkpt>
      <trkpt lat="43.25972" lon="5.73222">
        <ele>392.8</ele>
        <time>2021-10-06T12:43:53Z</time>
      </trkpt>
      <trkpt lat="43.25967" lon="5.7322">
        <ele>393.1</ele>
        <time>2021-10-06T12:43:59Z</time>
      </trkpt>
      <trkpt lat="43.25961" lon="5.73216">
        <ele>393.3</ele>
        <time>2021-10-06T12:44:05Z</time>
      </trkpt>
      <trkpt lat="43.25956" lon="5.73211">
        <ele>393.3</ele>
        <time>2021-10-06T12:44:11Z</time>
      </trkpt>
      <trkpt lat="43.25951" lon="5.73206">
        <ele>393.1</ele>
        <time>2021-10-06T12:44:17Z</time>
      </trkpt>
      <trkpt lat="43.25948" lon="5.73199">
        <ele>392.7</ele>
        <time>2021-10-06T12:44:23Z</time>
      </trkpt>
      <trkpt lat="43.25946" lon="5.7319">
        <ele>392</ele>
        <time>2021-10-06T12:44:29Z</time>
      </trkpt>
      <trkpt lat="43.25947" lon="5.73182">
        <ele>391.1</ele>
        <time>2021-10-06T12:44:35Z</time>
      </trkpt>
      <trkpt lat="43.2595" lon="5.73176">
        <ele>390.2</ele>
        <time>2021-10-06T12:44:41Z</time>
      </trkpt>
      <trkpt lat="43.25954" lon="5.73168">
        <ele>389</ele>
        <time>2021-10-06T12:44:47Z</time>
      </trkpt>
      <trkpt lat="43.25957" lon="5.73163">
        <ele>388.5</ele>
        <time>2021-10-06T12:44:51Z</time>
      </trkpt>
      <trkpt lat="43.25961" lon="5.73157">
        <ele>388</ele>
        <time>2021-10-06T12:44:57Z</time>
      </trkpt>
      <trkpt lat="43.25963" lon="5.73151">
        <ele>387.7</ele>
        <time>2021-10-06T12:45:03Z</time>
      </trkpt>
      <trkpt lat="43.2596" lon="5.73144">
        <ele>387.6</ele>
        <time>2021-10-06T12:45:09Z</time>
      </trkpt>
      <trkpt lat="43.25956" lon="5.73139">
        <ele>387.9</ele>
        <time>2021-10-06T12:45:45Z</time>
      </trkpt>
      <trkpt lat="43.2595" lon="5.73137">
        <ele>388.4</ele>
        <time>2021-10-06T12:45:51Z</time>
      </trkpt>
      <trkpt lat="43.25944" lon="5.73138">
        <ele>388.9</ele>
        <time>2021-10-06T12:45:57Z</time>
      </trkpt>
      <trkpt lat="43.25938" lon="5.7314">
        <ele>389.5</ele>
        <time>2021-10-06T12:46:03Z</time>
      </trkpt>
      <trkpt lat="43.25933" lon="5.73142">
        <ele>390</ele>
        <time>2021-10-06T12:46:09Z</time>
      </trkpt>
      <trkpt lat="43.25928" lon="5.73143">
        <ele>390.5</ele>
        <time>2021-10-06T12:46:15Z</time>
      </trkpt>
      <trkpt lat="43.25923" lon="5.73144">
        <ele>390.9</ele>
        <time>2021-10-06T12:46:21Z</time>
      </trkpt>
      <trkpt lat="43.25917" lon="5.73146">
        <ele>391.4</ele>
        <time>2021-10-06T12:46:27Z</time>
      </trkpt>
      <trkpt lat="43.25911" lon="5.73149">
        <ele>392.2</ele>
        <time>2021-10-06T12:46:33Z</time>
      </trkpt>
      <trkpt lat="43.25905" lon="5.7315">
        <ele>392.9</ele>
        <time>2021-10-06T12:46:39Z</time>
      </trkpt>
      <trkpt lat="43.25899" lon="5.73151">
        <ele>393.6</ele>
        <time>2021-10-06T12:46:45Z</time>
      </trkpt>
      <trkpt lat="43.25894" lon="5.73156">
        <ele>394.3</ele>
        <time>2021-10-06T12:46:51Z</time>
      </trkpt>
      <trkpt lat="43.25889" lon="5.73163">
        <ele>394.7</ele>
        <time>2021-10-06T12:46:57Z</time>
      </trkpt>
      <trkpt lat="43.25885" lon="5.7317">
        <ele>395.3</ele>
        <time>2021-10-06T12:47:03Z</time>
      </trkpt>
      <trkpt lat="43.25881" lon="5.73176">
        <ele>396.2</ele>
        <time>2021-10-06T12:47:09Z</time>
      </trkpt>
      <trkpt lat="43.25877" lon="5.73182">
        <ele>397</ele>
        <time>2021-10-06T12:47:15Z</time>
      </trkpt>
      <trkpt lat="43.25872" lon="5.73186">
        <ele>397.7</ele>
        <time>2021-10-06T12:47:21Z</time>
      </trkpt>
      <trkpt lat="43.25868" lon="5.7319">
        <ele>398.4</ele>
        <time>2021-10-06T12:47:27Z</time>
      </trkpt>
      <trkpt lat="43.25863" lon="5.73193">
        <ele>399</ele>
        <time>2021-10-06T12:47:31Z</time>
      </trkpt>
      <trkpt lat="43.25859" lon="5.73198">
        <ele>399.6</ele>
        <time>2021-10-06T12:47:35Z</time>
      </trkpt>
      <trkpt lat="43.25854" lon="5.73204">
        <ele>400.4</ele>
        <time>2021-10-06T12:47:41Z</time>
      </trkpt>
      <trkpt lat="43.25849" lon="5.73206">
        <ele>400.8</ele>
        <time>2021-10-06T12:47:45Z</time>
      </trkpt>
      <trkpt lat="43.25843" lon="5.73206">
        <ele>401.2</ele>
        <time>2021-10-06T12:47:49Z</time>
      </trkpt>
      <trkpt lat="43.25837" lon="5.73205">
        <ele>401.6</ele>
        <time>2021-10-06T12:47:55Z</time>
      </trkpt>
      <trkpt lat="43.25832" lon="5.73201">
        <ele>401.9</ele>
        <time>2021-10-06T12:48:01Z</time>
      </trkpt>
      <trkpt lat="43.25831" lon="5.73194">
        <ele>401.8</ele>
        <time>2021-10-06T12:48:07Z</time>
      </trkpt>
      <trkpt lat="43.25831" lon="5.73186">
        <ele>401.4</ele>
        <time>2021-10-06T12:48:13Z</time>
      </trkpt>
      <trkpt lat="43.25833" lon="5.73177">
        <ele>400.6</ele>
        <time>2021-10-06T12:48:19Z</time>
      </trkpt>
      <trkpt lat="43.25834" lon="5.73171">
        <ele>400.1</ele>
        <time>2021-10-06T12:48:23Z</time>
      </trkpt>
      <trkpt lat="43.25835" lon="5.73165">
        <ele>400</ele>
        <time>2021-10-06T12:48:27Z</time>
      </trkpt>
      <trkpt lat="43.25836" lon="5.73158">
        <ele>400.4</ele>
        <time>2021-10-06T12:48:31Z</time>
      </trkpt>
      <trkpt lat="43.25838" lon="5.7315">
        <ele>400.9</ele>
        <time>2021-10-06T12:48:37Z</time>
      </trkpt>
      <trkpt lat="43.2584" lon="5.73141">
        <ele>401.2</ele>
        <time>2021-10-06T12:48:43Z</time>
      </trkpt>
      <trkpt lat="43.25843" lon="5.73133">
        <ele>401.5</ele>
        <time>2021-10-06T12:48:49Z</time>
      </trkpt>
      <trkpt lat="43.25846" lon="5.73125">
        <ele>401.6</ele>
        <time>2021-10-06T12:48:55Z</time>
      </trkpt>
      <trkpt lat="43.25848" lon="5.73116">
        <ele>401.9</ele>
        <time>2021-10-06T12:49:01Z</time>
      </trkpt>
      <trkpt lat="43.2585" lon="5.7311">
        <ele>401.9</ele>
        <time>2021-10-06T12:49:07Z</time>
      </trkpt>
      <trkpt lat="43.25853" lon="5.73104">
        <ele>401.7</ele>
        <time>2021-10-06T12:49:13Z</time>
      </trkpt>
      <trkpt lat="43.25856" lon="5.73098">
        <ele>401.6</ele>
        <time>2021-10-06T12:49:19Z</time>
      </trkpt>
      <trkpt lat="43.25858" lon="5.73091">
        <ele>401.5</ele>
        <time>2021-10-06T12:49:25Z</time>
      </trkpt>
      <trkpt lat="43.25861" lon="5.73085">
        <ele>401.2</ele>
        <time>2021-10-06T12:49:31Z</time>
      </trkpt>
      <trkpt lat="43.25863" lon="5.73078">
        <ele>401.3</ele>
        <time>2021-10-06T12:49:39Z</time>
      </trkpt>
      <trkpt lat="43.25864" lon="5.73071">
        <ele>401.7</ele>
        <time>2021-10-06T12:49:45Z</time>
      </trkpt>
      <trkpt lat="43.25864" lon="5.73064">
        <ele>402.3</ele>
        <time>2021-10-06T12:49:51Z</time>
      </trkpt>
      <trkpt lat="43.25863" lon="5.73056">
        <ele>403.2</ele>
        <time>2021-10-06T12:49:59Z</time>
      </trkpt>
      <trkpt lat="43.25865" lon="5.73049">
        <ele>403.4</ele>
        <time>2021-10-06T12:50:09Z</time>
      </trkpt>
      <trkpt lat="43.25867" lon="5.73043">
        <ele>403.4</ele>
        <time>2021-10-06T12:50:17Z</time>
      </trkpt>
      <trkpt lat="43.25868" lon="5.73037">
        <ele>403.8</ele>
        <time>2021-10-06T12:50:23Z</time>
      </trkpt>
      <trkpt lat="43.25869" lon="5.7303">
        <ele>403.9</ele>
        <time>2021-10-06T12:50:29Z</time>
      </trkpt>
      <trkpt lat="43.25871" lon="5.73024">
        <ele>404</ele>
        <time>2021-10-06T12:50:35Z</time>
      </trkpt>
      <trkpt lat="43.25873" lon="5.73018">
        <ele>403.9</ele>
        <time>2021-10-06T12:50:43Z</time>
      </trkpt>
      <trkpt lat="43.25875" lon="5.73012">
        <ele>404.1</ele>
        <time>2021-10-06T12:50:59Z</time>
      </trkpt>
      <trkpt lat="43.25876" lon="5.73004">
        <ele>404.5</ele>
        <time>2021-10-06T12:51:05Z</time>
      </trkpt>
      <trkpt lat="43.25875" lon="5.72997">
        <ele>405.1</ele>
        <time>2021-10-06T12:51:11Z</time>
      </trkpt>
      <trkpt lat="43.25875" lon="5.72989">
        <ele>405.1</ele>
        <time>2021-10-06T12:51:17Z</time>
      </trkpt>
      <trkpt lat="43.25877" lon="5.72981">
        <ele>404.7</ele>
        <time>2021-10-06T12:51:23Z</time>
      </trkpt>
      <trkpt lat="43.25877" lon="5.72972">
        <ele>404.7</ele>
        <time>2021-10-06T12:51:29Z</time>
      </trkpt>
      <trkpt lat="43.25878" lon="5.72964">
        <ele>404.8</ele>
        <time>2021-10-06T12:51:35Z</time>
      </trkpt>
      <trkpt lat="43.25878" lon="5.72956">
        <ele>404.9</ele>
        <time>2021-10-06T12:51:41Z</time>
      </trkpt>
      <trkpt lat="43.25877" lon="5.72948">
        <ele>405.1</ele>
        <time>2021-10-06T12:51:47Z</time>
      </trkpt>
      <trkpt lat="43.25876" lon="5.72941">
        <ele>405.5</ele>
        <time>2021-10-06T12:51:53Z</time>
      </trkpt>
      <trkpt lat="43.25873" lon="5.72936">
        <ele>406.1</ele>
        <time>2021-10-06T12:51:59Z</time>
      </trkpt>
      <trkpt lat="43.25871" lon="5.7293">
        <ele>406.8</ele>
        <time>2021-10-06T12:52:05Z</time>
      </trkpt>
      <trkpt lat="43.25869" lon="5.72923">
        <ele>407.4</ele>
        <time>2021-10-06T12:52:13Z</time>
      </trkpt>
      <trkpt lat="43.25866" lon="5.72918">
        <ele>408.1</ele>
        <time>2021-10-06T12:52:19Z</time>
      </trkpt>
      <trkpt lat="43.25864" lon="5.72911">
        <ele>408.6</ele>
        <time>2021-10-06T12:52:25Z</time>
      </trkpt>
      <trkpt lat="43.25862" lon="5.72903">
        <ele>409</ele>
        <time>2021-10-06T12:52:31Z</time>
      </trkpt>
      <trkpt lat="43.25861" lon="5.72895">
        <ele>409</ele>
        <time>2021-10-06T12:52:37Z</time>
      </trkpt>
      <trkpt lat="43.25862" lon="5.72887">
        <ele>408.8</ele>
        <time>2021-10-06T12:52:43Z</time>
      </trkpt>
      <trkpt lat="43.25864" lon="5.72878">
        <ele>408.2</ele>
        <time>2021-10-06T12:52:49Z</time>
      </trkpt>
      <trkpt lat="43.25863" lon="5.7287">
        <ele>408.2</ele>
        <time>2021-10-06T12:52:55Z</time>
      </trkpt>
      <trkpt lat="43.25863" lon="5.72861">
        <ele>408.3</ele>
        <time>2021-10-06T12:53:01Z</time>
      </trkpt>
      <trkpt lat="43.25862" lon="5.72852">
        <ele>408.4</ele>
        <time>2021-10-06T12:53:07Z</time>
      </trkpt>
      <trkpt lat="43.25862" lon="5.72844">
        <ele>408.3</ele>
        <time>2021-10-06T12:53:13Z</time>
      </trkpt>
      <trkpt lat="43.25862" lon="5.72835">
        <ele>408</ele>
        <time>2021-10-06T12:53:19Z</time>
      </trkpt>
      <trkpt lat="43.25861" lon="5.72826">
        <ele>408.4</ele>
        <time>2021-10-06T12:53:25Z</time>
      </trkpt>
      <trkpt lat="43.25859" lon="5.72819">
        <ele>408.9</ele>
        <time>2021-10-06T12:53:31Z</time>
      </trkpt>
      <trkpt lat="43.25857" lon="5.7281">
        <ele>409.6</ele>
        <time>2021-10-06T12:53:37Z</time>
      </trkpt>
      <trkpt lat="43.25855" lon="5.72803">
        <ele>410.2</ele>
        <time>2021-10-06T12:53:43Z</time>
      </trkpt>
      <trkpt lat="43.25856" lon="5.72795">
        <ele>410.1</ele>
        <time>2021-10-06T12:53:49Z</time>
      </trkpt>
      <trkpt lat="43.25857" lon="5.72788">
        <ele>410</ele>
        <time>2021-10-06T12:53:53Z</time>
      </trkpt>
      <trkpt lat="43.25857" lon="5.72782">
        <ele>409.9</ele>
        <time>2021-10-06T12:53:57Z</time>
      </trkpt>
      <trkpt lat="43.25857" lon="5.72773">
        <ele>410</ele>
        <time>2021-10-06T12:54:03Z</time>
      </trkpt>
      <trkpt lat="43.25857" lon="5.72767">
        <ele>410.2</ele>
        <time>2021-10-06T12:54:07Z</time>
      </trkpt>
      <trkpt lat="43.25856" lon="5.72758">
        <ele>410.5</ele>
        <time>2021-10-06T12:54:13Z</time>
      </trkpt>
      <trkpt lat="43.25856" lon="5.72749">
        <ele>410.7</ele>
        <time>2021-10-06T12:54:19Z</time>
      </trkpt>
      <trkpt lat="43.25854" lon="5.72743">
        <ele>411.2</ele>
        <time>2021-10-06T12:54:23Z</time>
      </trkpt>
      <trkpt lat="43.25852" lon="5.72735">
        <ele>411.7</ele>
        <time>2021-10-06T12:54:29Z</time>
      </trkpt>
      <trkpt lat="43.2585" lon="5.72727">
        <ele>412</ele>
        <time>2021-10-06T12:54:35Z</time>
      </trkpt>
      <trkpt lat="43.25849" lon="5.7272">
        <ele>412.3</ele>
        <time>2021-10-06T12:54:41Z</time>
      </trkpt>
      <trkpt lat="43.25848" lon="5.72713">
        <ele>412.5</ele>
        <time>2021-10-06T12:54:47Z</time>
      </trkpt>
      <trkpt lat="43.25847" lon="5.72706">
        <ele>413</ele>
        <time>2021-10-06T12:54:53Z</time>
      </trkpt>
      <trkpt lat="43.25847" lon="5.72698">
        <ele>412.9</ele>
        <time>2021-10-06T12:54:59Z</time>
      </trkpt>
      <trkpt lat="43.25848" lon="5.72691">
        <ele>412.7</ele>
        <time>2021-10-06T12:55:05Z</time>
      </trkpt>
      <trkpt lat="43.25848" lon="5.72684">
        <ele>412.8</ele>
        <time>2021-10-06T12:55:11Z</time>
      </trkpt>
      <trkpt lat="43.25848" lon="5.72674">
        <ele>412.8</ele>
        <time>2021-10-06T12:55:17Z</time>
      </trkpt>
      <trkpt lat="43.25849" lon="5.72666">
        <ele>412.6</ele>
        <time>2021-10-06T12:55:23Z</time>
      </trkpt>
      <trkpt lat="43.25849" lon="5.72658">
        <ele>412.5</ele>
        <time>2021-10-06T12:55:29Z</time>
      </trkpt>
      <trkpt lat="43.25849" lon="5.72651">
        <ele>412.5</ele>
        <time>2021-10-06T12:55:35Z</time>
      </trkpt>
      <trkpt lat="43.25847" lon="5.72646">
        <ele>413</ele>
        <time>2021-10-06T12:55:39Z</time>
      </trkpt>
      <trkpt lat="43.25843" lon="5.72639">
        <ele>413.7</ele>
        <time>2021-10-06T12:55:43Z</time>
      </trkpt>
      <trkpt lat="43.25841" lon="5.72632">
        <ele>414</ele>
        <time>2021-10-06T12:55:49Z</time>
      </trkpt>
      <trkpt lat="43.25842" lon="5.72624">
        <ele>413.7</ele>
        <time>2021-10-06T12:55:55Z</time>
      </trkpt>
      <trkpt lat="43.25842" lon="5.72615">
        <ele>413.7</ele>
        <time>2021-10-06T12:56:01Z</time>
      </trkpt>
      <trkpt lat="43.25843" lon="5.72607">
        <ele>413.5</ele>
        <time>2021-10-06T12:56:07Z</time>
      </trkpt>
      <trkpt lat="43.25841" lon="5.72599">
        <ele>413.7</ele>
        <time>2021-10-06T12:56:13Z</time>
      </trkpt>
      <trkpt lat="43.25839" lon="5.72592">
        <ele>414</ele>
        <time>2021-10-06T12:56:19Z</time>
      </trkpt>
      <trkpt lat="43.25836" lon="5.72584">
        <ele>414.5</ele>
        <time>2021-10-06T12:56:25Z</time>
      </trkpt>
      <trkpt lat="43.25833" lon="5.72577">
        <ele>415</ele>
        <time>2021-10-06T12:56:31Z</time>
      </trkpt>
      <trkpt lat="43.25833" lon="5.7257">
        <ele>415.1</ele>
        <time>2021-10-06T12:56:37Z</time>
      </trkpt>
      <trkpt lat="43.25832" lon="5.72562">
        <ele>415.4</ele>
        <time>2021-10-06T12:56:43Z</time>
      </trkpt>
      <trkpt lat="43.25833" lon="5.72555">
        <ele>415.2</ele>
        <time>2021-10-06T12:56:51Z</time>
      </trkpt>
      <trkpt lat="43.25833" lon="5.72548">
        <ele>415.2</ele>
        <time>2021-10-06T12:56:57Z</time>
      </trkpt>
      <trkpt lat="43.25833" lon="5.7254">
        <ele>415</ele>
        <time>2021-10-06T12:57:03Z</time>
      </trkpt>
      <trkpt lat="43.25833" lon="5.72533">
        <ele>415.2</ele>
        <time>2021-10-06T12:57:09Z</time>
      </trkpt>
      <trkpt lat="43.25832" lon="5.72524">
        <ele>415.6</ele>
        <time>2021-10-06T12:57:15Z</time>
      </trkpt>
      <trkpt lat="43.25828" lon="5.72516">
        <ele>416.6</ele>
        <time>2021-10-06T12:57:21Z</time>
      </trkpt>
      <trkpt lat="43.25824" lon="5.72512">
        <ele>417.8</ele>
        <time>2021-10-06T12:57:37Z</time>
      </trkpt>
      <trkpt lat="43.25822" lon="5.72505">
        <ele>418.4</ele>
        <time>2021-10-06T12:57:49Z</time>
      </trkpt>
      <trkpt lat="43.25823" lon="5.72496">
        <ele>418.5</ele>
        <time>2021-10-06T12:57:55Z</time>
      </trkpt>
      <trkpt lat="43.25822" lon="5.72489">
        <ele>418.9</ele>
        <time>2021-10-06T12:58:01Z</time>
      </trkpt>
      <trkpt lat="43.25821" lon="5.72482">
        <ele>419.6</ele>
        <time>2021-10-06T12:58:07Z</time>
      </trkpt>
      <trkpt lat="43.2582" lon="5.72473">
        <ele>420.4</ele>
        <time>2021-10-06T12:58:13Z</time>
      </trkpt>
      <trkpt lat="43.25819" lon="5.72465">
        <ele>421.1</ele>
        <time>2021-10-06T12:58:19Z</time>
      </trkpt>
      <trkpt lat="43.25818" lon="5.72457">
        <ele>421.9</ele>
        <time>2021-10-06T12:58:25Z</time>
      </trkpt>
      <trkpt lat="43.25817" lon="5.72448">
        <ele>422.6</ele>
        <time>2021-10-06T12:58:31Z</time>
      </trkpt>
      <trkpt lat="43.25817" lon="5.7244">
        <ele>423</ele>
        <time>2021-10-06T12:58:37Z</time>
      </trkpt>
      <trkpt lat="43.25817" lon="5.72432">
        <ele>423.4</ele>
        <time>2021-10-06T12:58:43Z</time>
      </trkpt>
      <trkpt lat="43.25817" lon="5.72424">
        <ele>423.6</ele>
        <time>2021-10-06T12:58:49Z</time>
      </trkpt>
      <trkpt lat="43.25818" lon="5.72417">
        <ele>423.7</ele>
        <time>2021-10-06T12:58:55Z</time>
      </trkpt>
      <trkpt lat="43.2582" lon="5.72409">
        <ele>423.3</ele>
        <time>2021-10-06T12:59:01Z</time>
      </trkpt>
      <trkpt lat="43.25818" lon="5.72401">
        <ele>423.7</ele>
        <time>2021-10-06T12:59:07Z</time>
      </trkpt>
      <trkpt lat="43.25818" lon="5.72392">
        <ele>423.7</ele>
        <time>2021-10-06T12:59:13Z</time>
      </trkpt>
      <trkpt lat="43.25819" lon="5.72385">
        <ele>423.4</ele>
        <time>2021-10-06T12:59:19Z</time>
      </trkpt>
      <trkpt lat="43.25818" lon="5.72377">
        <ele>423.6</ele>
        <time>2021-10-06T12:59:25Z</time>
      </trkpt>
      <trkpt lat="43.2582" lon="5.72369">
        <ele>423</ele>
        <time>2021-10-06T12:59:31Z</time>
      </trkpt>
      <trkpt lat="43.2582" lon="5.72362">
        <ele>423.1</ele>
        <time>2021-10-06T12:59:37Z</time>
      </trkpt>
      <trkpt lat="43.2582" lon="5.72353">
        <ele>423.2</ele>
        <time>2021-10-06T12:59:43Z</time>
      </trkpt>
      <trkpt lat="43.2582" lon="5.72344">
        <ele>423.2</ele>
        <time>2021-10-06T12:59:49Z</time>
      </trkpt>
      <trkpt lat="43.25819" lon="5.72337">
        <ele>423.6</ele>
        <time>2021-10-06T12:59:55Z</time>
      </trkpt>
      <trkpt lat="43.2582" lon="5.7233">
        <ele>423.3</ele>
        <time>2021-10-06T13:00:01Z</time>
      </trkpt>
      <trkpt lat="43.2582" lon="5.72323">
        <ele>423.2</ele>
        <time>2021-10-06T13:00:05Z</time>
      </trkpt>
      <trkpt lat="43.2582" lon="5.72314">
        <ele>423.2</ele>
        <time>2021-10-06T13:00:11Z</time>
      </trkpt>
      <trkpt lat="43.2582" lon="5.72307">
        <ele>423.2</ele>
        <time>2021-10-06T13:00:15Z</time>
      </trkpt>
      <trkpt lat="43.25819" lon="5.723">
        <ele>423.5</ele>
        <time>2021-10-06T13:00:19Z</time>
      </trkpt>
      <trkpt lat="43.25818" lon="5.72294">
        <ele>423.9</ele>
        <time>2021-10-06T13:00:23Z</time>
      </trkpt>
      <trkpt lat="43.25815" lon="5.72289">
        <ele>424.5</ele>
        <time>2021-10-06T13:00:27Z</time>
      </trkpt>
      <trkpt lat="43.25814" lon="5.72282">
        <ele>424.8</ele>
        <time>2021-10-06T13:00:33Z</time>
      </trkpt>
      <trkpt lat="43.25812" lon="5.72274">
        <ele>425.2</ele>
        <time>2021-10-06T13:00:39Z</time>
      </trkpt>
      <trkpt lat="43.25813" lon="5.72266">
        <ele>425</ele>
        <time>2021-10-06T13:00:45Z</time>
      </trkpt>
      <trkpt lat="43.25811" lon="5.7226">
        <ele>425.5</ele>
        <time>2021-10-06T13:00:49Z</time>
      </trkpt>
      <trkpt lat="43.25808" lon="5.72255">
        <ele>426.1</ele>
        <time>2021-10-06T13:00:53Z</time>
      </trkpt>
      <trkpt lat="43.25807" lon="5.72248">
        <ele>426.3</ele>
        <time>2021-10-06T13:00:59Z</time>
      </trkpt>
      <trkpt lat="43.25805" lon="5.72241">
        <ele>426.6</ele>
        <time>2021-10-06T13:01:03Z</time>
      </trkpt>
      <trkpt lat="43.25803" lon="5.72235">
        <ele>426.8</ele>
        <time>2021-10-06T13:01:07Z</time>
      </trkpt>
      <trkpt lat="43.25801" lon="5.72227">
        <ele>427.1</ele>
        <time>2021-10-06T13:01:13Z</time>
      </trkpt>
      <trkpt lat="43.25798" lon="5.72221">
        <ele>427.6</ele>
        <time>2021-10-06T13:01:19Z</time>
      </trkpt>
      <trkpt lat="43.25797" lon="5.72214">
        <ele>427.5</ele>
        <time>2021-10-06T13:01:25Z</time>
      </trkpt>
      <trkpt lat="43.25796" lon="5.72205">
        <ele>427.7</ele>
        <time>2021-10-06T13:01:31Z</time>
      </trkpt>
      <trkpt lat="43.25794" lon="5.722">
        <ele>427.9</ele>
        <time>2021-10-06T13:01:35Z</time>
      </trkpt>
      <trkpt lat="43.25791" lon="5.72192">
        <ele>428.4</ele>
        <time>2021-10-06T13:01:41Z</time>
      </trkpt>
      <trkpt lat="43.25789" lon="5.72184">
        <ele>428.6</ele>
        <time>2021-10-06T13:01:47Z</time>
      </trkpt>
      <trkpt lat="43.25788" lon="5.72176">
        <ele>428.6</ele>
        <time>2021-10-06T13:01:53Z</time>
      </trkpt>
      <trkpt lat="43.25787" lon="5.72169">
        <ele>428.9</ele>
        <time>2021-10-06T13:01:59Z</time>
      </trkpt>
      <trkpt lat="43.25785" lon="5.7216">
        <ele>429</ele>
        <time>2021-10-06T13:02:05Z</time>
      </trkpt>
      <trkpt lat="43.25782" lon="5.72153">
        <ele>429.4</ele>
        <time>2021-10-06T13:02:11Z</time>
      </trkpt>
      <trkpt lat="43.25778" lon="5.7215">
        <ele>430.3</ele>
        <time>2021-10-06T13:02:15Z</time>
      </trkpt>
      <trkpt lat="43.25774" lon="5.72143">
        <ele>431.1</ele>
        <time>2021-10-06T13:02:21Z</time>
      </trkpt>
      <trkpt lat="43.25772" lon="5.72137">
        <ele>431.5</ele>
        <time>2021-10-06T13:02:27Z</time>
      </trkpt>
      <trkpt lat="43.25768" lon="5.7213">
        <ele>432</ele>
        <time>2021-10-06T13:02:33Z</time>
      </trkpt>
      <trkpt lat="43.25765" lon="5.72123">
        <ele>432.7</ele>
        <time>2021-10-06T13:02:39Z</time>
      </trkpt>
      <trkpt lat="43.25762" lon="5.72116">
        <ele>433.2</ele>
        <time>2021-10-06T13:02:45Z</time>
      </trkpt>
      <trkpt lat="43.2576" lon="5.7211">
        <ele>433.5</ele>
        <time>2021-10-06T13:02:51Z</time>
      </trkpt>
      <trkpt lat="43.25757" lon="5.72104">
        <ele>434</ele>
        <time>2021-10-06T13:02:57Z</time>
      </trkpt>
      <trkpt lat="43.25754" lon="5.72098">
        <ele>434.6</ele>
        <time>2021-10-06T13:03:03Z</time>
      </trkpt>
      <trkpt lat="43.25752" lon="5.72091">
        <ele>434.8</ele>
        <time>2021-10-06T13:03:11Z</time>
      </trkpt>
      <trkpt lat="43.2575" lon="5.72086">
        <ele>435.2</ele>
        <time>2021-10-06T13:03:17Z</time>
      </trkpt>
      <trkpt lat="43.25751" lon="5.72079">
        <ele>434.7</ele>
        <time>2021-10-06T13:03:23Z</time>
      </trkpt>
      <trkpt lat="43.25753" lon="5.72071">
        <ele>433.9</ele>
        <time>2021-10-06T13:03:29Z</time>
      </trkpt>
      <trkpt lat="43.25751" lon="5.72063">
        <ele>434</ele>
        <time>2021-10-06T13:03:35Z</time>
      </trkpt>
      <trkpt lat="43.25749" lon="5.72057">
        <ele>434.3</ele>
        <time>2021-10-06T13:03:39Z</time>
      </trkpt>
      <trkpt lat="43.25747" lon="5.72051">
        <ele>434.8</ele>
        <time>2021-10-06T13:03:43Z</time>
      </trkpt>
      <trkpt lat="43.25744" lon="5.72043">
        <ele>435.3</ele>
        <time>2021-10-06T13:03:49Z</time>
      </trkpt>
      <trkpt lat="43.25742" lon="5.72036">
        <ele>435.8</ele>
        <time>2021-10-06T13:03:55Z</time>
      </trkpt>
      <trkpt lat="43.25738" lon="5.72028">
        <ele>436.4</ele>
        <time>2021-10-06T13:04:01Z</time>
      </trkpt>
      <trkpt lat="43.25736" lon="5.72022">
        <ele>436.8</ele>
        <time>2021-10-06T13:04:07Z</time>
      </trkpt>
      <trkpt lat="43.25734" lon="5.72014">
        <ele>437</ele>
        <time>2021-10-06T13:04:13Z</time>
      </trkpt>
      <trkpt lat="43.25732" lon="5.72008">
        <ele>437.3</ele>
        <time>2021-10-06T13:04:17Z</time>
      </trkpt>
      <trkpt lat="43.2573" lon="5.72">
        <ele>437.6</ele>
        <time>2021-10-06T13:04:23Z</time>
      </trkpt>
      <trkpt lat="43.25727" lon="5.71993">
        <ele>437.4</ele>
        <time>2021-10-06T13:04:29Z</time>
      </trkpt>
      <trkpt lat="43.25725" lon="5.71986">
        <ele>437.1</ele>
        <time>2021-10-06T13:04:35Z</time>
      </trkpt>
      <trkpt lat="43.25723" lon="5.71978">
        <ele>436.6</ele>
        <time>2021-10-06T13:04:41Z</time>
      </trkpt>
      <trkpt lat="43.25722" lon="5.7197">
        <ele>436</ele>
        <time>2021-10-06T13:04:47Z</time>
      </trkpt>
      <trkpt lat="43.25721" lon="5.71962">
        <ele>435.2</ele>
        <time>2021-10-06T13:04:53Z</time>
      </trkpt>
      <trkpt lat="43.2572" lon="5.71954">
        <ele>434.5</ele>
        <time>2021-10-06T13:04:59Z</time>
      </trkpt>
      <trkpt lat="43.25718" lon="5.71946">
        <ele>433.9</ele>
        <time>2021-10-06T13:05:05Z</time>
      </trkpt>
      <trkpt lat="43.25717" lon="5.7194">
        <ele>433.3</ele>
        <time>2021-10-06T13:05:09Z</time>
      </trkpt>
      <trkpt lat="43.25714" lon="5.71932">
        <ele>433</ele>
        <time>2021-10-06T13:05:15Z</time>
      </trkpt>
      <trkpt lat="43.25711" lon="5.71927">
        <ele>433</ele>
        <time>2021-10-06T13:05:19Z</time>
      </trkpt>
      <trkpt lat="43.25707" lon="5.7192">
        <ele>432.7</ele>
        <time>2021-10-06T13:05:25Z</time>
      </trkpt>
      <trkpt lat="43.25703" lon="5.71914">
        <ele>432.6</ele>
        <time>2021-10-06T13:05:31Z</time>
      </trkpt>
      <trkpt lat="43.25698" lon="5.71909">
        <ele>432.5</ele>
        <time>2021-10-06T13:05:37Z</time>
      </trkpt>
      <trkpt lat="43.25694" lon="5.71902">
        <ele>431.9</ele>
        <time>2021-10-06T13:05:43Z</time>
      </trkpt>
      <trkpt lat="43.2569" lon="5.71898">
        <ele>431.5</ele>
        <time>2021-10-06T13:05:47Z</time>
      </trkpt>
      <trkpt lat="43.25687" lon="5.71892">
        <ele>430.9</ele>
        <time>2021-10-06T13:05:53Z</time>
      </trkpt>
      <trkpt lat="43.25683" lon="5.71888">
        <ele>430.6</ele>
        <time>2021-10-06T13:05:59Z</time>
      </trkpt>
      <trkpt lat="43.25679" lon="5.71885">
        <ele>430.5</ele>
        <time>2021-10-06T13:06:05Z</time>
      </trkpt>
      <trkpt lat="43.25674" lon="5.71883">
        <ele>430.7</ele>
        <time>2021-10-06T13:08:17Z</time>
      </trkpt>
      <trkpt lat="43.25669" lon="5.71881">
        <ele>431.2</ele>
        <time>2021-10-06T13:08:23Z</time>
      </trkpt>
      <trkpt lat="43.25664" lon="5.71878">
        <ele>431.5</ele>
        <time>2021-10-06T13:08:29Z</time>
      </trkpt>
      <trkpt lat="43.2566" lon="5.71874">
        <ele>431.6</ele>
        <time>2021-10-06T13:08:35Z</time>
      </trkpt>
      <trkpt lat="43.25656" lon="5.71868">
        <ele>431.6</ele>
        <time>2021-10-06T13:08:41Z</time>
      </trkpt>
      <trkpt lat="43.25652" lon="5.71864">
        <ele>432.1</ele>
        <time>2021-10-06T13:08:45Z</time>
      </trkpt>
      <trkpt lat="43.25647" lon="5.71858">
        <ele>432.4</ele>
        <time>2021-10-06T13:08:51Z</time>
      </trkpt>
      <trkpt lat="43.25641" lon="5.71852">
        <ele>432.7</ele>
        <time>2021-10-06T13:08:57Z</time>
      </trkpt>
      <trkpt lat="43.25638" lon="5.71848">
        <ele>433</ele>
        <time>2021-10-06T13:09:01Z</time>
      </trkpt>
      <trkpt lat="43.25634" lon="5.71843">
        <ele>433</ele>
        <time>2021-10-06T13:09:05Z</time>
      </trkpt>
      <trkpt lat="43.25631" lon="5.71838">
        <ele>432.8</ele>
        <time>2021-10-06T13:09:09Z</time>
      </trkpt>
      <trkpt lat="43.25628" lon="5.71834">
        <ele>433.1</ele>
        <time>2021-10-06T13:09:13Z</time>
      </trkpt>
      <trkpt lat="43.25625" lon="5.71829">
        <ele>433.7</ele>
        <time>2021-10-06T13:09:17Z</time>
      </trkpt>
      <trkpt lat="43.2562" lon="5.71823">
        <ele>434.4</ele>
        <time>2021-10-06T13:09:23Z</time>
      </trkpt>
      <trkpt lat="43.25616" lon="5.71817">
        <ele>435.1</ele>
        <time>2021-10-06T13:09:29Z</time>
      </trkpt>
      <trkpt lat="43.25614" lon="5.71811">
        <ele>435.2</ele>
        <time>2021-10-06T13:09:33Z</time>
      </trkpt>
      <trkpt lat="43.25611" lon="5.71802">
        <ele>434.9</ele>
        <time>2021-10-06T13:09:39Z</time>
      </trkpt>
      <trkpt lat="43.2561" lon="5.71796">
        <ele>434.8</ele>
        <time>2021-10-06T13:09:43Z</time>
      </trkpt>
      <trkpt lat="43.2561" lon="5.71786">
        <ele>433.8</ele>
        <time>2021-10-06T13:09:49Z</time>
      </trkpt>
      <trkpt lat="43.25609" lon="5.7178">
        <ele>433.1</ele>
        <time>2021-10-06T13:09:53Z</time>
      </trkpt>
      <trkpt lat="43.25609" lon="5.71774">
        <ele>432.6</ele>
        <time>2021-10-06T13:09:57Z</time>
      </trkpt>
      <trkpt lat="43.25609" lon="5.71767">
        <ele>431.7</ele>
        <time>2021-10-06T13:10:01Z</time>
      </trkpt>
      <trkpt lat="43.25608" lon="5.71757">
        <ele>431.1</ele>
        <time>2021-10-06T13:10:07Z</time>
      </trkpt>
      <trkpt lat="43.25607" lon="5.71751">
        <ele>430.7</ele>
        <time>2021-10-06T13:10:11Z</time>
      </trkpt>
      <trkpt lat="43.25606" lon="5.71742">
        <ele>430.1</ele>
        <time>2021-10-06T13:10:17Z</time>
      </trkpt>
      <trkpt lat="43.25606" lon="5.71736">
        <ele>429.4</ele>
        <time>2021-10-06T13:10:21Z</time>
      </trkpt>
      <trkpt lat="43.25606" lon="5.71729">
        <ele>429</ele>
        <time>2021-10-06T13:10:25Z</time>
      </trkpt>
      <trkpt lat="43.25604" lon="5.71723">
        <ele>428.9</ele>
        <time>2021-10-06T13:10:29Z</time>
      </trkpt>
      <trkpt lat="43.25603" lon="5.71717">
        <ele>428.9</ele>
        <time>2021-10-06T13:10:33Z</time>
      </trkpt>
      <trkpt lat="43.25601" lon="5.71711">
        <ele>428.9</ele>
        <time>2021-10-06T13:10:37Z</time>
      </trkpt>
      <trkpt lat="43.25599" lon="5.71704">
        <ele>428.9</ele>
        <time>2021-10-06T13:10:41Z</time>
      </trkpt>
      <trkpt lat="43.25597" lon="5.71697">
        <ele>428.9</ele>
        <time>2021-10-06T13:10:45Z</time>
      </trkpt>
      <trkpt lat="43.25595" lon="5.71691">
        <ele>429</ele>
        <time>2021-10-06T13:10:49Z</time>
      </trkpt>
      <trkpt lat="43.25594" lon="5.71684">
        <ele>428.9</ele>
        <time>2021-10-06T13:10:53Z</time>
      </trkpt>
      <trkpt lat="43.25593" lon="5.71678">
        <ele>428.5</ele>
        <time>2021-10-06T13:10:57Z</time>
      </trkpt>
      <trkpt lat="43.25592" lon="5.71672">
        <ele>428.1</ele>
        <time>2021-10-06T13:11:01Z</time>
      </trkpt>
      <trkpt lat="43.2559" lon="5.71663">
        <ele>428</ele>
        <time>2021-10-06T13:11:07Z</time>
      </trkpt>
      <trkpt lat="43.25589" lon="5.71657">
        <ele>427.9</ele>
        <time>2021-10-06T13:11:11Z</time>
      </trkpt>
      <trkpt lat="43.25587" lon="5.71649">
        <ele>427.8</ele>
        <time>2021-10-06T13:11:17Z</time>
      </trkpt>
      <trkpt lat="43.25585" lon="5.71643">
        <ele>427.9</ele>
        <time>2021-10-06T13:11:21Z</time>
      </trkpt>
      <trkpt lat="43.25583" lon="5.71637">
        <ele>427.8</ele>
        <time>2021-10-06T13:11:25Z</time>
      </trkpt>
      <trkpt lat="43.25582" lon="5.71631">
        <ele>427.9</ele>
        <time>2021-10-06T13:11:29Z</time>
      </trkpt>
      <trkpt lat="43.2558" lon="5.71624">
        <ele>428</ele>
        <time>2021-10-06T13:11:33Z</time>
      </trkpt>
      <trkpt lat="43.25578" lon="5.71615">
        <ele>428</ele>
        <time>2021-10-06T13:11:39Z</time>
      </trkpt>
      <trkpt lat="43.25576" lon="5.71609">
        <ele>428.1</ele>
        <time>2021-10-06T13:11:43Z</time>
      </trkpt>
      <trkpt lat="43.25574" lon="5.71602">
        <ele>428.2</ele>
        <time>2021-10-06T13:11:47Z</time>
      </trkpt>
      <trkpt lat="43.25572" lon="5.71596">
        <ele>428.1</ele>
        <time>2021-10-06T13:11:51Z</time>
      </trkpt>
      <trkpt lat="43.2557" lon="5.71591">
        <ele>428.4</ele>
        <time>2021-10-06T13:11:55Z</time>
      </trkpt>
      <trkpt lat="43.25568" lon="5.71585">
        <ele>428.6</ele>
        <time>2021-10-06T13:11:59Z</time>
      </trkpt>
      <trkpt lat="43.25566" lon="5.71579">
        <ele>428.6</ele>
        <time>2021-10-06T13:12:03Z</time>
      </trkpt>
      <trkpt lat="43.25564" lon="5.7157">
        <ele>428.7</ele>
        <time>2021-10-06T13:12:09Z</time>
      </trkpt>
      <trkpt lat="43.25561" lon="5.71562">
        <ele>428.8</ele>
        <time>2021-10-06T13:12:15Z</time>
      </trkpt>
      <trkpt lat="43.25558" lon="5.71553">
        <ele>429</ele>
        <time>2021-10-06T13:12:21Z</time>
      </trkpt>
      <trkpt lat="43.25556" lon="5.71545">
        <ele>428.9</ele>
        <time>2021-10-06T13:12:27Z</time>
      </trkpt>
      <trkpt lat="43.25555" lon="5.71536">
        <ele>428.3</ele>
        <time>2021-10-06T13:12:33Z</time>
      </trkpt>
      <trkpt lat="43.25552" lon="5.71528">
        <ele>428.6</ele>
        <time>2021-10-06T13:12:39Z</time>
      </trkpt>
      <trkpt lat="43.25549" lon="5.71522">
        <ele>429.2</ele>
        <time>2021-10-06T13:12:43Z</time>
      </trkpt>
      <trkpt lat="43.25546" lon="5.71517">
        <ele>429.7</ele>
        <time>2021-10-06T13:12:47Z</time>
      </trkpt>
      <trkpt lat="43.25543" lon="5.71511">
        <ele>430.3</ele>
        <time>2021-10-06T13:12:51Z</time>
      </trkpt>
      <trkpt lat="43.25539" lon="5.71507">
        <ele>431.1</ele>
        <time>2021-10-06T13:12:55Z</time>
      </trkpt>
      <trkpt lat="43.25535" lon="5.71502">
        <ele>432</ele>
        <time>2021-10-06T13:12:59Z</time>
      </trkpt>
      <trkpt lat="43.25532" lon="5.71498">
        <ele>432.7</ele>
        <time>2021-10-06T13:13:03Z</time>
      </trkpt>
      <trkpt lat="43.25529" lon="5.71492">
        <ele>432.9</ele>
        <time>2021-10-06T13:13:07Z</time>
      </trkpt>
      <trkpt lat="43.25526" lon="5.71486">
        <ele>432.9</ele>
        <time>2021-10-06T13:13:11Z</time>
      </trkpt>
      <trkpt lat="43.25524" lon="5.7148">
        <ele>433</ele>
        <time>2021-10-06T13:13:15Z</time>
      </trkpt>
      <trkpt lat="43.25521" lon="5.71475">
        <ele>433.1</ele>
        <time>2021-10-06T13:13:19Z</time>
      </trkpt>
      <trkpt lat="43.25518" lon="5.71467">
        <ele>432.7</ele>
        <time>2021-10-06T13:13:25Z</time>
      </trkpt>
      <trkpt lat="43.25515" lon="5.71458">
        <ele>432.4</ele>
        <time>2021-10-06T13:13:31Z</time>
      </trkpt>
      <trkpt lat="43.25513" lon="5.71453">
        <ele>432.4</ele>
        <time>2021-10-06T13:13:35Z</time>
      </trkpt>
      <trkpt lat="43.2551" lon="5.71448">
        <ele>432.6</ele>
        <time>2021-10-06T13:13:39Z</time>
      </trkpt>
      <trkpt lat="43.25507" lon="5.7144">
        <ele>432.6</ele>
        <time>2021-10-06T13:13:45Z</time>
      </trkpt>
      <trkpt lat="43.25504" lon="5.71434">
        <ele>432.5</ele>
        <time>2021-10-06T13:13:49Z</time>
      </trkpt>
      <trkpt lat="43.25501" lon="5.71429">
        <ele>432.7</ele>
        <time>2021-10-06T13:13:53Z</time>
      </trkpt>
      <trkpt lat="43.25498" lon="5.71424">
        <ele>433</ele>
        <time>2021-10-06T13:13:57Z</time>
      </trkpt>
      <trkpt lat="43.25495" lon="5.71419">
        <ele>433.2</ele>
        <time>2021-10-06T13:14:01Z</time>
      </trkpt>
      <trkpt lat="43.25493" lon="5.71414">
        <ele>433.6</ele>
        <time>2021-10-06T13:14:05Z</time>
      </trkpt>
      <trkpt lat="43.25489" lon="5.71406">
        <ele>434.2</ele>
        <time>2021-10-06T13:14:11Z</time>
      </trkpt>
      <trkpt lat="43.25486" lon="5.71402">
        <ele>434.9</ele>
        <time>2021-10-06T13:14:15Z</time>
      </trkpt>
      <trkpt lat="43.25481" lon="5.71395">
        <ele>436.1</ele>
        <time>2021-10-06T13:14:21Z</time>
      </trkpt>
      <trkpt lat="43.25478" lon="5.7139">
        <ele>436.7</ele>
        <time>2021-10-06T13:14:25Z</time>
      </trkpt>
      <trkpt lat="43.25475" lon="5.71383">
        <ele>436.9</ele>
        <time>2021-10-06T13:14:31Z</time>
      </trkpt>
      <trkpt lat="43.25473" lon="5.71377">
        <ele>436.6</ele>
        <time>2021-10-06T13:14:35Z</time>
      </trkpt>
      <trkpt lat="43.25472" lon="5.7137">
        <ele>436.3</ele>
        <time>2021-10-06T13:14:39Z</time>
      </trkpt>
      <trkpt lat="43.2547" lon="5.71362">
        <ele>435.9</ele>
        <time>2021-10-06T13:14:45Z</time>
      </trkpt>
      <trkpt lat="43.2547" lon="5.71353">
        <ele>435</ele>
        <time>2021-10-06T13:14:51Z</time>
      </trkpt>
      <trkpt lat="43.25468" lon="5.71345">
        <ele>434.8</ele>
        <time>2021-10-06T13:14:57Z</time>
      </trkpt>
      <trkpt lat="43.25466" lon="5.71337">
        <ele>434.2</ele>
        <time>2021-10-06T13:15:03Z</time>
      </trkpt>
      <trkpt lat="43.25464" lon="5.71332">
        <ele>434.6</ele>
        <time>2021-10-06T13:15:07Z</time>
      </trkpt>
      <trkpt lat="43.25462" lon="5.71326">
        <ele>435.7</ele>
        <time>2021-10-06T13:15:11Z</time>
      </trkpt>
      <trkpt lat="43.2546" lon="5.7132">
        <ele>436.4</ele>
        <time>2021-10-06T13:15:15Z</time>
      </trkpt>
      <trkpt lat="43.25459" lon="5.71314">
        <ele>436.9</ele>
        <time>2021-10-06T13:15:19Z</time>
      </trkpt>
      <trkpt lat="43.25457" lon="5.71305">
        <ele>437.5</ele>
        <time>2021-10-06T13:15:25Z</time>
      </trkpt>
      <trkpt lat="43.25457" lon="5.71297">
        <ele>437.6</ele>
        <time>2021-10-06T13:15:31Z</time>
      </trkpt>
      <trkpt lat="43.25456" lon="5.71291">
        <ele>438</ele>
        <time>2021-10-06T13:15:35Z</time>
      </trkpt>
      <trkpt lat="43.25455" lon="5.71284">
        <ele>438.5</ele>
        <time>2021-10-06T13:15:39Z</time>
      </trkpt>
      <trkpt lat="43.25454" lon="5.71278">
        <ele>438.9</ele>
        <time>2021-10-06T13:15:43Z</time>
      </trkpt>
      <trkpt lat="43.25452" lon="5.71271">
        <ele>439.4</ele>
        <time>2021-10-06T13:15:47Z</time>
      </trkpt>
      <trkpt lat="43.2545" lon="5.71263">
        <ele>440.1</ele>
        <time>2021-10-06T13:15:53Z</time>
      </trkpt>
      <trkpt lat="43.25449" lon="5.71257">
        <ele>440.7</ele>
        <time>2021-10-06T13:15:57Z</time>
      </trkpt>
      <trkpt lat="43.25448" lon="5.71249">
        <ele>440.8</ele>
        <time>2021-10-06T13:16:03Z</time>
      </trkpt>
      <trkpt lat="43.25448" lon="5.71241">
        <ele>441.3</ele>
        <time>2021-10-06T13:16:09Z</time>
      </trkpt>
      <trkpt lat="43.25449" lon="5.71234">
        <ele>441.4</ele>
        <time>2021-10-06T13:16:13Z</time>
      </trkpt>
      <trkpt lat="43.25449" lon="5.71227">
        <ele>441.5</ele>
        <time>2021-10-06T13:16:17Z</time>
      </trkpt>
      <trkpt lat="43.25451" lon="5.71221">
        <ele>441.1</ele>
        <time>2021-10-06T13:16:21Z</time>
      </trkpt>
      <trkpt lat="43.25453" lon="5.71214">
        <ele>440.8</ele>
        <time>2021-10-06T13:16:27Z</time>
      </trkpt>
      <trkpt lat="43.25455" lon="5.71206">
        <ele>440.8</ele>
        <time>2021-10-06T13:16:33Z</time>
      </trkpt>
      <trkpt lat="43.25456" lon="5.71197">
        <ele>440.9</ele>
        <time>2021-10-06T13:16:39Z</time>
      </trkpt>
      <trkpt lat="43.25456" lon="5.71191">
        <ele>441.1</ele>
        <time>2021-10-06T13:16:43Z</time>
      </trkpt>
      <trkpt lat="43.25457" lon="5.71183">
        <ele>441.4</ele>
        <time>2021-10-06T13:16:49Z</time>
      </trkpt>
      <trkpt lat="43.25457" lon="5.71175">
        <ele>442</ele>
        <time>2021-10-06T13:16:55Z</time>
      </trkpt>
      <trkpt lat="43.25458" lon="5.71166">
        <ele>442.1</ele>
        <time>2021-10-06T13:17:01Z</time>
      </trkpt>
      <trkpt lat="43.25459" lon="5.71158">
        <ele>441.5</ele>
        <time>2021-10-06T13:17:07Z</time>
      </trkpt>
      <trkpt lat="43.2546" lon="5.71151">
        <ele>441</ele>
        <time>2021-10-06T13:17:11Z</time>
      </trkpt>
      <trkpt lat="43.25461" lon="5.71142">
        <ele>440.3</ele>
        <time>2021-10-06T13:17:17Z</time>
      </trkpt>
      <trkpt lat="43.25463" lon="5.71137">
        <ele>439.7</ele>
        <time>2021-10-06T13:17:21Z</time>
      </trkpt>
      <trkpt lat="43.25466" lon="5.7113">
        <ele>439</ele>
        <time>2021-10-06T13:17:27Z</time>
      </trkpt>
      <trkpt lat="43.25461" lon="5.71127">
        <ele>439.7</ele>
        <time>2021-10-06T13:17:49Z</time>
      </trkpt>
      <trkpt lat="43.25457" lon="5.71128">
        <ele>440.4</ele>
        <time>2021-10-06T13:19:27Z</time>
      </trkpt>
      <trkpt lat="43.25458" lon="5.71122">
        <ele>439.8</ele>
        <time>2021-10-06T13:21:45Z</time>
      </trkpt>
      <trkpt lat="43.25458" lon="5.71115">
        <ele>439.5</ele>
        <time>2021-10-06T13:22:13Z</time>
      </trkpt>
      <trkpt lat="43.25458" lon="5.71107">
        <ele>439.2</ele>
        <time>2021-10-06T13:22:43Z</time>
      </trkpt>
      <trkpt lat="43.25455" lon="5.71102">
        <ele>439.3</ele>
        <time>2021-10-06T13:22:51Z</time>
      </trkpt>
      <trkpt lat="43.25451" lon="5.71097">
        <ele>439.3</ele>
        <time>2021-10-06T13:23:05Z</time>
      </trkpt>
      <trkpt lat="43.25448" lon="5.71091">
        <ele>439.2</ele>
        <time>2021-10-06T13:23:13Z</time>
      </trkpt>
      <trkpt lat="43.25447" lon="5.71083">
        <ele>438.8</ele>
        <time>2021-10-06T13:23:21Z</time>
      </trkpt>
      <trkpt lat="43.25446" lon="5.71076">
        <ele>438</ele>
        <time>2021-10-06T13:23:29Z</time>
      </trkpt>
      <trkpt lat="43.25445" lon="5.7107">
        <ele>437.4</ele>
        <time>2021-10-06T13:23:35Z</time>
      </trkpt>
      <trkpt lat="43.25445" lon="5.71062">
        <ele>436.5</ele>
        <time>2021-10-06T13:23:43Z</time>
      </trkpt>
      <trkpt lat="43.25445" lon="5.71056">
        <ele>435.7</ele>
        <time>2021-10-06T13:23:49Z</time>
      </trkpt>
      <trkpt lat="43.25445" lon="5.71049">
        <ele>434.9</ele>
        <time>2021-10-06T13:23:55Z</time>
      </trkpt>
      <trkpt lat="43.25443" lon="5.71041">
        <ele>433.9</ele>
        <time>2021-10-06T13:24:01Z</time>
      </trkpt>
      <trkpt lat="43.25443" lon="5.71034">
        <ele>433</ele>
        <time>2021-10-06T13:24:07Z</time>
      </trkpt>
      <trkpt lat="43.25442" lon="5.71027">
        <ele>432.1</ele>
        <time>2021-10-06T13:24:15Z</time>
      </trkpt>
      <trkpt lat="43.25441" lon="5.71019">
        <ele>431.2</ele>
        <time>2021-10-06T13:24:23Z</time>
      </trkpt>
      <trkpt lat="43.2544" lon="5.71011">
        <ele>430.1</ele>
        <time>2021-10-06T13:24:31Z</time>
      </trkpt>
      <trkpt lat="43.2544" lon="5.71005">
        <ele>429.2</ele>
        <time>2021-10-06T13:24:37Z</time>
      </trkpt>
      <trkpt lat="43.2544" lon="5.70997">
        <ele>428.5</ele>
        <time>2021-10-06T13:24:43Z</time>
      </trkpt>
      <trkpt lat="43.25437" lon="5.7099">
        <ele>427.9</ele>
        <time>2021-10-06T13:24:49Z</time>
      </trkpt>
      <trkpt lat="43.25432" lon="5.70984">
        <ele>427.3</ele>
        <time>2021-10-06T13:24:55Z</time>
      </trkpt>
      <trkpt lat="43.25428" lon="5.70981">
        <ele>426.8</ele>
        <time>2021-10-06T13:24:59Z</time>
      </trkpt>
      <trkpt lat="43.25423" lon="5.70977">
        <ele>426.2</ele>
        <time>2021-10-06T13:25:05Z</time>
      </trkpt>
      <trkpt lat="43.2542" lon="5.70973">
        <ele>425.6</ele>
        <time>2021-10-06T13:25:11Z</time>
      </trkpt>
      <trkpt lat="43.25414" lon="5.70968">
        <ele>425</ele>
        <time>2021-10-06T13:25:17Z</time>
      </trkpt>
      <trkpt lat="43.2541" lon="5.70963">
        <ele>424.5</ele>
        <time>2021-10-06T13:25:23Z</time>
      </trkpt>
      <trkpt lat="43.25408" lon="5.70956">
        <ele>423.9</ele>
        <time>2021-10-06T13:25:33Z</time>
      </trkpt>
      <trkpt lat="43.25404" lon="5.70952">
        <ele>423.3</ele>
        <time>2021-10-06T13:25:39Z</time>
      </trkpt>
      <trkpt lat="43.25401" lon="5.70946">
        <ele>422.5</ele>
        <time>2021-10-06T13:25:47Z</time>
      </trkpt>
      <trkpt lat="43.25397" lon="5.70942">
        <ele>421.7</ele>
        <time>2021-10-06T13:25:55Z</time>
      </trkpt>
      <trkpt lat="43.25393" lon="5.70937">
        <ele>420.9</ele>
        <time>2021-10-06T13:26:01Z</time>
      </trkpt>
      <trkpt lat="43.25389" lon="5.70932">
        <ele>419.9</ele>
        <time>2021-10-06T13:26:09Z</time>
      </trkpt>
      <trkpt lat="43.25386" lon="5.70926">
        <ele>418.8</ele>
        <time>2021-10-06T13:26:17Z</time>
      </trkpt>
      <trkpt lat="43.25383" lon="5.7092">
        <ele>417.7</ele>
        <time>2021-10-06T13:26:25Z</time>
      </trkpt>
      <trkpt lat="43.25379" lon="5.70919">
        <ele>416.8</ele>
        <time>2021-10-06T13:26:31Z</time>
      </trkpt>
      <trkpt lat="43.25373" lon="5.70916">
        <ele>415.6</ele>
        <time>2021-10-06T13:26:37Z</time>
      </trkpt>
      <trkpt lat="43.25368" lon="5.70913">
        <ele>414.8</ele>
        <time>2021-10-06T13:26:43Z</time>
      </trkpt>
      <trkpt lat="43.25363" lon="5.70911">
        <ele>414</ele>
        <time>2021-10-06T13:26:49Z</time>
      </trkpt>
      <trkpt lat="43.25358" lon="5.70909">
        <ele>413.2</ele>
        <time>2021-10-06T13:26:55Z</time>
      </trkpt>
      <trkpt lat="43.25352" lon="5.70906">
        <ele>412.1</ele>
        <time>2021-10-06T13:27:03Z</time>
      </trkpt>
      <trkpt lat="43.25347" lon="5.70903">
        <ele>411.2</ele>
        <time>2021-10-06T13:27:09Z</time>
      </trkpt>
      <trkpt lat="43.25342" lon="5.70901">
        <ele>410.4</ele>
        <time>2021-10-06T13:27:15Z</time>
      </trkpt>
      <trkpt lat="43.25337" lon="5.70899">
        <ele>409.5</ele>
        <time>2021-10-06T13:27:21Z</time>
      </trkpt>
      <trkpt lat="43.25333" lon="5.70897">
        <ele>408.8</ele>
        <time>2021-10-06T13:27:27Z</time>
      </trkpt>
      <trkpt lat="43.25328" lon="5.70895">
        <ele>408.5</ele>
        <time>2021-10-06T13:27:33Z</time>
      </trkpt>
      <trkpt lat="43.25326" lon="5.70888">
        <ele>407.9</ele>
        <time>2021-10-06T13:27:43Z</time>
      </trkpt>
      <trkpt lat="43.25324" lon="5.70881">
        <ele>407.2</ele>
        <time>2021-10-06T13:27:51Z</time>
      </trkpt>
      <trkpt lat="43.25322" lon="5.70874">
        <ele>406.5</ele>
        <time>2021-10-06T13:27:59Z</time>
      </trkpt>
      <trkpt lat="43.25318" lon="5.70869">
        <ele>405.7</ele>
        <time>2021-10-06T13:28:05Z</time>
      </trkpt>
      <trkpt lat="43.25313" lon="5.70864">
        <ele>404.7</ele>
        <time>2021-10-06T13:28:11Z</time>
      </trkpt>
      <trkpt lat="43.25308" lon="5.7086">
        <ele>403.8</ele>
        <time>2021-10-06T13:28:17Z</time>
      </trkpt>
      <trkpt lat="43.25306" lon="5.70853">
        <ele>402.7</ele>
        <time>2021-10-06T13:28:25Z</time>
      </trkpt>
      <trkpt lat="43.25306" lon="5.70846">
        <ele>401.8</ele>
        <time>2021-10-06T13:28:35Z</time>
      </trkpt>
      <trkpt lat="43.253" lon="5.70844">
        <ele>400.7</ele>
        <time>2021-10-06T13:28:43Z</time>
      </trkpt>
      <trkpt lat="43.25295" lon="5.70843">
        <ele>399.8</ele>
        <time>2021-10-06T13:28:49Z</time>
      </trkpt>
      <trkpt lat="43.25288" lon="5.70842">
        <ele>398.8</ele>
        <time>2021-10-06T13:28:55Z</time>
      </trkpt>
      <trkpt lat="43.25289" lon="5.70849">
        <ele>400</ele>
        <time>2021-10-06T13:30:29Z</time>
      </trkpt>
      <trkpt lat="43.25288" lon="5.70855">
        <ele>400.8</ele>
        <time>2021-10-06T13:31:17Z</time>
      </trkpt>
      <trkpt lat="43.25283" lon="5.70854">
        <ele>400</ele>
        <time>2021-10-06T13:32:15Z</time>
      </trkpt>
      <trkpt lat="43.25288" lon="5.70853">
        <ele>400.3</ele>
        <time>2021-10-06T13:34:23Z</time>
      </trkpt>
      <trkpt lat="43.25283" lon="5.70849">
        <ele>399.1</ele>
        <time>2021-10-06T13:34:53Z</time>
      </trkpt>
      <trkpt lat="43.25278" lon="5.70847">
        <ele>398</ele>
        <time>2021-10-06T13:34:59Z</time>
      </trkpt>
      <trkpt lat="43.25273" lon="5.70846">
        <ele>397.2</ele>
        <time>2021-10-06T13:35:03Z</time>
      </trkpt>
      <trkpt lat="43.25267" lon="5.70845">
        <ele>396.2</ele>
        <time>2021-10-06T13:35:09Z</time>
      </trkpt>
      <trkpt lat="43.25262" lon="5.70842">
        <ele>394.8</ele>
        <time>2021-10-06T13:35:13Z</time>
      </trkpt>
      <trkpt lat="43.25257" lon="5.7084">
        <ele>393.7</ele>
        <time>2021-10-06T13:35:17Z</time>
      </trkpt>
      <trkpt lat="43.25253" lon="5.70839">
        <ele>392.7</ele>
        <time>2021-10-06T13:35:21Z</time>
      </trkpt>
      <trkpt lat="43.25247" lon="5.70837">
        <ele>391.8</ele>
        <time>2021-10-06T13:35:27Z</time>
      </trkpt>
      <trkpt lat="43.25242" lon="5.70834">
        <ele>391</ele>
        <time>2021-10-06T13:35:33Z</time>
      </trkpt>
      <trkpt lat="43.25237" lon="5.70833">
        <ele>390.4</ele>
        <time>2021-10-06T13:35:37Z</time>
      </trkpt>
      <trkpt lat="43.25231" lon="5.7083">
        <ele>389.9</ele>
        <time>2021-10-06T13:35:43Z</time>
      </trkpt>
      <trkpt lat="43.25225" lon="5.70827">
        <ele>389.2</ele>
        <time>2021-10-06T13:35:49Z</time>
      </trkpt>
      <trkpt lat="43.25219" lon="5.70824">
        <ele>388.6</ele>
        <time>2021-10-06T13:35:55Z</time>
      </trkpt>
      <trkpt lat="43.25214" lon="5.70824">
        <ele>388.3</ele>
        <time>2021-10-06T13:35:59Z</time>
      </trkpt>
      <trkpt lat="43.25208" lon="5.70823">
        <ele>388</ele>
        <time>2021-10-06T13:36:05Z</time>
      </trkpt>
      <trkpt lat="43.25203" lon="5.70822">
        <ele>387.6</ele>
        <time>2021-10-06T13:36:09Z</time>
      </trkpt>
      <trkpt lat="43.25198" lon="5.70821">
        <ele>387.3</ele>
        <time>2021-10-06T13:36:13Z</time>
      </trkpt>
      <trkpt lat="43.25192" lon="5.7082">
        <ele>386.8</ele>
        <time>2021-10-06T13:36:19Z</time>
      </trkpt>
      <trkpt lat="43.25186" lon="5.70821">
        <ele>386.8</ele>
        <time>2021-10-06T13:36:23Z</time>
      </trkpt>
      <trkpt lat="43.25181" lon="5.70821">
        <ele>386.4</ele>
        <time>2021-10-06T13:36:27Z</time>
      </trkpt>
      <trkpt lat="43.25176" lon="5.7082">
        <ele>386</ele>
        <time>2021-10-06T13:36:31Z</time>
      </trkpt>
      <trkpt lat="43.25171" lon="5.70817">
        <ele>385.2</ele>
        <time>2021-10-06T13:36:37Z</time>
      </trkpt>
      <trkpt lat="43.25165" lon="5.70814">
        <ele>384.4</ele>
        <time>2021-10-06T13:36:43Z</time>
      </trkpt>
      <trkpt lat="43.25159" lon="5.70812">
        <ele>383.7</ele>
        <time>2021-10-06T13:36:49Z</time>
      </trkpt>
      <trkpt lat="43.25154" lon="5.70811">
        <ele>383</ele>
        <time>2021-10-06T13:36:53Z</time>
      </trkpt>
      <trkpt lat="43.25148" lon="5.70809">
        <ele>382.4</ele>
        <time>2021-10-06T13:36:57Z</time>
      </trkpt>
      <trkpt lat="43.25143" lon="5.70808">
        <ele>381.7</ele>
        <time>2021-10-06T13:37:01Z</time>
      </trkpt>
      <trkpt lat="43.25139" lon="5.70808">
        <ele>381.3</ele>
        <time>2021-10-06T13:37:05Z</time>
      </trkpt>
      <trkpt lat="43.25134" lon="5.70807">
        <ele>380.8</ele>
        <time>2021-10-06T13:37:11Z</time>
      </trkpt>
      <trkpt lat="43.25128" lon="5.70808">
        <ele>380.5</ele>
        <time>2021-10-06T13:37:17Z</time>
      </trkpt>
      <trkpt lat="43.25124" lon="5.70808">
        <ele>380.3</ele>
        <time>2021-10-06T13:37:21Z</time>
      </trkpt>
      <trkpt lat="43.25117" lon="5.70808">
        <ele>379.7</ele>
        <time>2021-10-06T13:37:27Z</time>
      </trkpt>
      <trkpt lat="43.25111" lon="5.70806">
        <ele>378.8</ele>
        <time>2021-10-06T13:37:33Z</time>
      </trkpt>
      <trkpt lat="43.25106" lon="5.70806">
        <ele>378.5</ele>
        <time>2021-10-06T13:37:37Z</time>
      </trkpt>
      <trkpt lat="43.25101" lon="5.70806">
        <ele>378.1</ele>
        <time>2021-10-06T13:37:41Z</time>
      </trkpt>
      <trkpt lat="43.25097" lon="5.70806">
        <ele>377.7</ele>
        <time>2021-10-06T13:37:45Z</time>
      </trkpt>
      <trkpt lat="43.25092" lon="5.70805">
        <ele>377.1</ele>
        <time>2021-10-06T13:37:49Z</time>
      </trkpt>
      <trkpt lat="43.25087" lon="5.70801">
        <ele>376</ele>
        <time>2021-10-06T13:37:55Z</time>
      </trkpt>
      <trkpt lat="43.25081" lon="5.708">
        <ele>375.3</ele>
        <time>2021-10-06T13:38:01Z</time>
      </trkpt>
      <trkpt lat="43.25075" lon="5.70798">
        <ele>374.7</ele>
        <time>2021-10-06T13:38:05Z</time>
      </trkpt>
      <trkpt lat="43.25069" lon="5.70797">
        <ele>374.1</ele>
        <time>2021-10-06T13:38:09Z</time>
      </trkpt>
      <trkpt lat="43.25064" lon="5.70797">
        <ele>374</ele>
        <time>2021-10-06T13:38:13Z</time>
      </trkpt>
      <trkpt lat="43.25058" lon="5.708">
        <ele>374.3</ele>
        <time>2021-10-06T13:38:19Z</time>
      </trkpt>
      <trkpt lat="43.25053" lon="5.70802">
        <ele>374.5</ele>
        <time>2021-10-06T13:38:23Z</time>
      </trkpt>
      <trkpt lat="43.25048" lon="5.70805">
        <ele>374.9</ele>
        <time>2021-10-06T13:38:27Z</time>
      </trkpt>
      <trkpt lat="43.25043" lon="5.70809">
        <ele>375.4</ele>
        <time>2021-10-06T13:38:33Z</time>
      </trkpt>
      <trkpt lat="43.25039" lon="5.70811">
        <ele>375.4</ele>
        <time>2021-10-06T13:38:37Z</time>
      </trkpt>
      <trkpt lat="43.25034" lon="5.70812">
        <ele>375.3</ele>
        <time>2021-10-06T13:38:41Z</time>
      </trkpt>
      <trkpt lat="43.25029" lon="5.70813">
        <ele>375.3</ele>
        <time>2021-10-06T13:38:45Z</time>
      </trkpt>
      <trkpt lat="43.25023" lon="5.70816">
        <ele>375.4</ele>
        <time>2021-10-06T13:38:51Z</time>
      </trkpt>
      <trkpt lat="43.25018" lon="5.70819">
        <ele>375.5</ele>
        <time>2021-10-06T13:38:55Z</time>
      </trkpt>
      <trkpt lat="43.25012" lon="5.70824">
        <ele>375.8</ele>
        <time>2021-10-06T13:39:01Z</time>
      </trkpt>
      <trkpt lat="43.25006" lon="5.70826">
        <ele>375.6</ele>
        <time>2021-10-06T13:39:07Z</time>
      </trkpt>
      <trkpt lat="43.25" lon="5.70828">
        <ele>375.5</ele>
        <time>2021-10-06T13:39:13Z</time>
      </trkpt>
      <trkpt lat="43.24995" lon="5.7083">
        <ele>377.3</ele>
        <time>2021-10-06T13:39:17Z</time>
      </trkpt>
      <trkpt lat="43.24989" lon="5.70831">
        <ele>379.2</ele>
        <time>2021-10-06T13:39:21Z</time>
      </trkpt>
      <trkpt lat="43.24983" lon="5.70832">
        <ele>381.3</ele>
        <time>2021-10-06T13:39:25Z</time>
      </trkpt>
      <trkpt lat="43.24978" lon="5.7083">
        <ele>383</ele>
        <time>2021-10-06T13:39:31Z</time>
      </trkpt>
      <trkpt lat="43.24974" lon="5.70827">
        <ele>384.2</ele>
        <time>2021-10-06T13:39:35Z</time>
      </trkpt>
      <trkpt lat="43.24973" lon="5.70821">
        <ele>384.1</ele>
        <time>2021-10-06T13:39:41Z</time>
      </trkpt>
      <trkpt lat="43.24976" lon="5.70814">
        <ele>382.6</ele>
        <time>2021-10-06T13:39:51Z</time>
      </trkpt>
      <trkpt lat="43.24979" lon="5.70809">
        <ele>380.9</ele>
        <time>2021-10-06T13:39:57Z</time>
      </trkpt>
      <trkpt lat="43.24984" lon="5.70804">
        <ele>378.6</ele>
        <time>2021-10-06T13:40:03Z</time>
      </trkpt>
      <trkpt lat="43.24989" lon="5.70798">
        <ele>376.3</ele>
        <time>2021-10-06T13:40:07Z</time>
      </trkpt>
      <trkpt lat="43.24993" lon="5.70791">
        <ele>373.7</ele>
        <time>2021-10-06T13:40:13Z</time>
      </trkpt>
      <trkpt lat="43.24995" lon="5.70785">
        <ele>372.6</ele>
        <time>2021-10-06T13:40:17Z</time>
      </trkpt>
      <trkpt lat="43.24996" lon="5.70779">
        <ele>371.1</ele>
        <time>2021-10-06T13:40:21Z</time>
      </trkpt>
      <trkpt lat="43.24998" lon="5.70772">
        <ele>369.7</ele>
        <time>2021-10-06T13:40:25Z</time>
      </trkpt>
      <trkpt lat="43.24998" lon="5.70766">
        <ele>368.7</ele>
        <time>2021-10-06T13:40:29Z</time>
      </trkpt>
      <trkpt lat="43.24999" lon="5.70759">
        <ele>367.7</ele>
        <time>2021-10-06T13:40:33Z</time>
      </trkpt>
      <trkpt lat="43.25" lon="5.70752">
        <ele>366.5</ele>
        <time>2021-10-06T13:40:37Z</time>
      </trkpt>
      <trkpt lat="43.24998" lon="5.70744">
        <ele>367</ele>
        <time>2021-10-06T13:40:41Z</time>
      </trkpt>
      <trkpt lat="43.24999" lon="5.70736">
        <ele>366.3</ele>
        <time>2021-10-06T13:40:47Z</time>
      </trkpt>
      <trkpt lat="43.25002" lon="5.70728">
        <ele>365.6</ele>
        <time>2021-10-06T13:40:53Z</time>
      </trkpt>
      <trkpt lat="43.25005" lon="5.70719">
        <ele>365.3</ele>
        <time>2021-10-06T13:40:59Z</time>
      </trkpt>
      <trkpt lat="43.25009" lon="5.70712">
        <ele>364.9</ele>
        <time>2021-10-06T13:41:05Z</time>
      </trkpt>
      <trkpt lat="43.25011" lon="5.70705">
        <ele>364.5</ele>
        <time>2021-10-06T13:41:09Z</time>
      </trkpt>
      <trkpt lat="43.25012" lon="5.70698">
        <ele>364.3</ele>
        <time>2021-10-06T13:41:13Z</time>
      </trkpt>
      <trkpt lat="43.25013" lon="5.70691">
        <ele>364</ele>
        <time>2021-10-06T13:41:17Z</time>
      </trkpt>
      <trkpt lat="43.25011" lon="5.70683">
        <ele>363.9</ele>
        <time>2021-10-06T13:41:21Z</time>
      </trkpt>
      <trkpt lat="43.25011" lon="5.70676">
        <ele>363.8</ele>
        <time>2021-10-06T13:41:25Z</time>
      </trkpt>
      <trkpt lat="43.25012" lon="5.70669">
        <ele>363.5</ele>
        <time>2021-10-06T13:41:29Z</time>
      </trkpt>
      <trkpt lat="43.25011" lon="5.70663">
        <ele>363.5</ele>
        <time>2021-10-06T13:41:33Z</time>
      </trkpt>
      <trkpt lat="43.25011" lon="5.70654">
        <ele>363.3</ele>
        <time>2021-10-06T13:41:39Z</time>
      </trkpt>
      <trkpt lat="43.25011" lon="5.70647">
        <ele>363.3</ele>
        <time>2021-10-06T13:41:43Z</time>
      </trkpt>
      <trkpt lat="43.25012" lon="5.70638">
        <ele>363</ele>
        <time>2021-10-06T13:41:49Z</time>
      </trkpt>
      <trkpt lat="43.25012" lon="5.70632">
        <ele>362.9</ele>
        <time>2021-10-06T13:41:53Z</time>
      </trkpt>
      <trkpt lat="43.25012" lon="5.70624">
        <ele>362.8</ele>
        <time>2021-10-06T13:41:57Z</time>
      </trkpt>
      <trkpt lat="43.25012" lon="5.70617">
        <ele>362.7</ele>
        <time>2021-10-06T13:42:01Z</time>
      </trkpt>
      <trkpt lat="43.25012" lon="5.70608">
        <ele>362.5</ele>
        <time>2021-10-06T13:42:07Z</time>
      </trkpt>
      <trkpt lat="43.25013" lon="5.70599">
        <ele>362.3</ele>
        <time>2021-10-06T13:42:13Z</time>
      </trkpt>
      <trkpt lat="43.25013" lon="5.70592">
        <ele>362.1</ele>
        <time>2021-10-06T13:42:17Z</time>
      </trkpt>
      <trkpt lat="43.25013" lon="5.70586">
        <ele>362</ele>
        <time>2021-10-06T13:42:21Z</time>
      </trkpt>
      <trkpt lat="43.25013" lon="5.70578">
        <ele>361.9</ele>
        <time>2021-10-06T13:42:27Z</time>
      </trkpt>
      <trkpt lat="43.25016" lon="5.70573">
        <ele>361.5</ele>
        <time>2021-10-06T13:42:31Z</time>
      </trkpt>
      <trkpt lat="43.25016" lon="5.70565">
        <ele>361.4</ele>
        <time>2021-10-06T13:42:35Z</time>
      </trkpt>
      <trkpt lat="43.25017" lon="5.70559">
        <ele>361.1</ele>
        <time>2021-10-06T13:42:39Z</time>
      </trkpt>
      <trkpt lat="43.25016" lon="5.7055">
        <ele>361.2</ele>
        <time>2021-10-06T13:42:45Z</time>
      </trkpt>
      <trkpt lat="43.25013" lon="5.70545">
        <ele>361.5</ele>
        <time>2021-10-06T13:42:49Z</time>
      </trkpt>
      <trkpt lat="43.25014" lon="5.70539">
        <ele>361.4</ele>
        <time>2021-10-06T13:42:53Z</time>
      </trkpt>
      <trkpt lat="43.25016" lon="5.70531">
        <ele>361</ele>
        <time>2021-10-06T13:42:57Z</time>
      </trkpt>
      <trkpt lat="43.25018" lon="5.70525">
        <ele>360.6</ele>
        <time>2021-10-06T13:43:01Z</time>
      </trkpt>
      <trkpt lat="43.25018" lon="5.70519">
        <ele>360.5</ele>
        <time>2021-10-06T13:43:05Z</time>
      </trkpt>
      <trkpt lat="43.25019" lon="5.70512">
        <ele>360.4</ele>
        <time>2021-10-06T13:43:09Z</time>
      </trkpt>
      <trkpt lat="43.25019" lon="5.70506">
        <ele>360.3</ele>
        <time>2021-10-06T13:43:13Z</time>
      </trkpt>
      <trkpt lat="43.25018" lon="5.70499">
        <ele>360.4</ele>
        <time>2021-10-06T13:43:17Z</time>
      </trkpt>
      <trkpt lat="43.25015" lon="5.70492">
        <ele>360.5</ele>
        <time>2021-10-06T13:43:21Z</time>
      </trkpt>
      <trkpt lat="43.25013" lon="5.70486">
        <ele>360.6</ele>
        <time>2021-10-06T13:43:25Z</time>
      </trkpt>
      <trkpt lat="43.25012" lon="5.70479">
        <ele>360.5</ele>
        <time>2021-10-06T13:43:29Z</time>
      </trkpt>
      <trkpt lat="43.25013" lon="5.70473">
        <ele>360.1</ele>
        <time>2021-10-06T13:43:33Z</time>
      </trkpt>
      <trkpt lat="43.25012" lon="5.70466">
        <ele>359.9</ele>
        <time>2021-10-06T13:43:37Z</time>
      </trkpt>
      <trkpt lat="43.25009" lon="5.70458">
        <ele>360</ele>
        <time>2021-10-06T13:43:41Z</time>
      </trkpt>
      <trkpt lat="43.25007" lon="5.70451">
        <ele>360.2</ele>
        <time>2021-10-06T13:43:45Z</time>
      </trkpt>
      <trkpt lat="43.25006" lon="5.70442">
        <ele>360</ele>
        <time>2021-10-06T13:43:51Z</time>
      </trkpt>
      <trkpt lat="43.25004" lon="5.70435">
        <ele>359.9</ele>
        <time>2021-10-06T13:43:55Z</time>
      </trkpt>
      <trkpt lat="43.25003" lon="5.70429">
        <ele>360</ele>
        <time>2021-10-06T13:43:59Z</time>
      </trkpt>
      <trkpt lat="43.25" lon="5.70422">
        <ele>360.1</ele>
        <time>2021-10-06T13:44:03Z</time>
      </trkpt>
      <trkpt lat="43.24999" lon="5.70415">
        <ele>360.2</ele>
        <time>2021-10-06T13:44:07Z</time>
      </trkpt>
      <trkpt lat="43.24998" lon="5.70406">
        <ele>360.2</ele>
        <time>2021-10-06T13:44:13Z</time>
      </trkpt>
      <trkpt lat="43.24996" lon="5.70399">
        <ele>360.5</ele>
        <time>2021-10-06T13:44:17Z</time>
      </trkpt>
      <trkpt lat="43.24995" lon="5.70391">
        <ele>360.3</ele>
        <time>2021-10-06T13:44:23Z</time>
      </trkpt>
      <trkpt lat="43.24994" lon="5.70384">
        <ele>360.1</ele>
        <time>2021-10-06T13:44:29Z</time>
      </trkpt>
      <trkpt lat="43.24992" lon="5.70377">
        <ele>360.2</ele>
        <time>2021-10-06T13:44:33Z</time>
      </trkpt>
      <trkpt lat="43.24991" lon="5.7037">
        <ele>360.3</ele>
        <time>2021-10-06T13:44:37Z</time>
      </trkpt>
      <trkpt lat="43.2499" lon="5.70363">
        <ele>360</ele>
        <time>2021-10-06T13:44:41Z</time>
      </trkpt>
      <trkpt lat="43.2499" lon="5.70357">
        <ele>359.5</ele>
        <time>2021-10-06T13:44:45Z</time>
      </trkpt>
      <trkpt lat="43.2499" lon="5.70349">
        <ele>358.9</ele>
        <time>2021-10-06T13:44:49Z</time>
      </trkpt>
      <trkpt lat="43.24989" lon="5.70342">
        <ele>358.6</ele>
        <time>2021-10-06T13:44:53Z</time>
      </trkpt>
      <trkpt lat="43.24988" lon="5.70335">
        <ele>358.5</ele>
        <time>2021-10-06T13:44:57Z</time>
      </trkpt>
      <trkpt lat="43.24985" lon="5.70328">
        <ele>358.4</ele>
        <time>2021-10-06T13:45:01Z</time>
      </trkpt>
      <trkpt lat="43.24982" lon="5.70322">
        <ele>358.2</ele>
        <time>2021-10-06T13:45:05Z</time>
      </trkpt>
      <trkpt lat="43.24979" lon="5.70316">
        <ele>358.3</ele>
        <time>2021-10-06T13:45:09Z</time>
      </trkpt>
      <trkpt lat="43.24975" lon="5.70311">
        <ele>358.5</ele>
        <time>2021-10-06T13:45:13Z</time>
      </trkpt>
      <trkpt lat="43.24972" lon="5.70306">
        <ele>358.6</ele>
        <time>2021-10-06T13:45:17Z</time>
      </trkpt>
      <trkpt lat="43.24969" lon="5.703">
        <ele>358.4</ele>
        <time>2021-10-06T13:45:21Z</time>
      </trkpt>
      <trkpt lat="43.24965" lon="5.70295">
        <ele>358.4</ele>
        <time>2021-10-06T13:45:25Z</time>
      </trkpt>
      <trkpt lat="43.24963" lon="5.70288">
        <ele>357.8</ele>
        <time>2021-10-06T13:45:31Z</time>
      </trkpt>
      <trkpt lat="43.2496" lon="5.70283">
        <ele>357.8</ele>
        <time>2021-10-06T13:45:35Z</time>
      </trkpt>
      <trkpt lat="43.24955" lon="5.70277">
        <ele>357.7</ele>
        <time>2021-10-06T13:45:41Z</time>
      </trkpt>
      <trkpt lat="43.24949" lon="5.70271">
        <ele>357.9</ele>
        <time>2021-10-06T13:45:47Z</time>
      </trkpt>
      <trkpt lat="43.24943" lon="5.70266">
        <ele>358.1</ele>
        <time>2021-10-06T13:45:51Z</time>
      </trkpt>
      <trkpt lat="43.24938" lon="5.70261">
        <ele>358.3</ele>
        <time>2021-10-06T13:45:55Z</time>
      </trkpt>
      <trkpt lat="43.24934" lon="5.70257">
        <ele>358.4</ele>
        <time>2021-10-06T13:45:59Z</time>
      </trkpt>
      <trkpt lat="43.2493" lon="5.70253">
        <ele>358.3</ele>
        <time>2021-10-06T13:46:03Z</time>
      </trkpt>
      <trkpt lat="43.24925" lon="5.7025">
        <ele>358.5</ele>
        <time>2021-10-06T13:46:07Z</time>
      </trkpt>
      <trkpt lat="43.2492" lon="5.70247">
        <ele>359</ele>
        <time>2021-10-06T13:46:11Z</time>
      </trkpt>
      <trkpt lat="43.24916" lon="5.70242">
        <ele>359.3</ele>
        <time>2021-10-06T13:46:15Z</time>
      </trkpt>
      <trkpt lat="43.24913" lon="5.70238">
        <ele>359.5</ele>
        <time>2021-10-06T13:46:19Z</time>
      </trkpt>
      <trkpt lat="43.24908" lon="5.70232">
        <ele>359.9</ele>
        <time>2021-10-06T13:46:25Z</time>
      </trkpt>
      <trkpt lat="43.24903" lon="5.70226">
        <ele>359.9</ele>
        <time>2021-10-06T13:46:31Z</time>
      </trkpt>
      <trkpt lat="43.24899" lon="5.70221">
        <ele>360.1</ele>
        <time>2021-10-06T13:46:35Z</time>
      </trkpt>
      <trkpt lat="43.24893" lon="5.70216">
        <ele>360.5</ele>
        <time>2021-10-06T13:46:41Z</time>
      </trkpt>
      <trkpt lat="43.24888" lon="5.70211">
        <ele>360.6</ele>
        <time>2021-10-06T13:46:47Z</time>
      </trkpt>
      <trkpt lat="43.24884" lon="5.70207">
        <ele>360.6</ele>
        <time>2021-10-06T13:46:51Z</time>
      </trkpt>
      <trkpt lat="43.24879" lon="5.70203">
        <ele>360.6</ele>
        <time>2021-10-06T13:46:55Z</time>
      </trkpt>
      <trkpt lat="43.24875" lon="5.70199">
        <ele>360.6</ele>
        <time>2021-10-06T13:46:59Z</time>
      </trkpt>
      <trkpt lat="43.2487" lon="5.70198">
        <ele>361.2</ele>
        <time>2021-10-06T13:47:03Z</time>
      </trkpt>
      <trkpt lat="43.24864" lon="5.70195">
        <ele>361.3</ele>
        <time>2021-10-06T13:47:07Z</time>
      </trkpt>
      <trkpt lat="43.24859" lon="5.70195">
        <ele>361.9</ele>
        <time>2021-10-06T13:47:11Z</time>
      </trkpt>
      <trkpt lat="43.24853" lon="5.70193">
        <ele>362.4</ele>
        <time>2021-10-06T13:47:17Z</time>
      </trkpt>
      <trkpt lat="43.24848" lon="5.70192">
        <ele>362.7</ele>
        <time>2021-10-06T13:47:21Z</time>
      </trkpt>
      <trkpt lat="43.24843" lon="5.7019">
        <ele>362.8</ele>
        <time>2021-10-06T13:47:25Z</time>
      </trkpt>
      <trkpt lat="43.24839" lon="5.70187">
        <ele>362.6</ele>
        <time>2021-10-06T13:47:29Z</time>
      </trkpt>
      <trkpt lat="43.24834" lon="5.70184">
        <ele>362.4</ele>
        <time>2021-10-06T13:47:33Z</time>
      </trkpt>
      <trkpt lat="43.2483" lon="5.70181">
        <ele>362.1</ele>
        <time>2021-10-06T13:47:37Z</time>
      </trkpt>
      <trkpt lat="43.24826" lon="5.70177">
        <ele>361.9</ele>
        <time>2021-10-06T13:47:41Z</time>
      </trkpt>
      <trkpt lat="43.24821" lon="5.70175">
        <ele>362</ele>
        <time>2021-10-06T13:47:45Z</time>
      </trkpt>
      <trkpt lat="43.24814" lon="5.70172">
        <ele>362.3</ele>
        <time>2021-10-06T13:47:51Z</time>
      </trkpt>
      <trkpt lat="43.24809" lon="5.70171">
        <ele>362.7</ele>
        <time>2021-10-06T13:47:55Z</time>
      </trkpt>
      <trkpt lat="43.24805" lon="5.7017">
        <ele>363.3</ele>
        <time>2021-10-06T13:47:59Z</time>
      </trkpt>
      <trkpt lat="43.248" lon="5.70168">
        <ele>363.5</ele>
        <time>2021-10-06T13:48:03Z</time>
      </trkpt>
      <trkpt lat="43.24796" lon="5.70165">
        <ele>364</ele>
        <time>2021-10-06T13:48:07Z</time>
      </trkpt>
      <trkpt lat="43.24791" lon="5.70164">
        <ele>365</ele>
        <time>2021-10-06T13:48:11Z</time>
      </trkpt>
      <trkpt lat="43.24785" lon="5.70162">
        <ele>366</ele>
        <time>2021-10-06T13:48:15Z</time>
      </trkpt>
      <trkpt lat="43.24781" lon="5.70161">
        <ele>366.8</ele>
        <time>2021-10-06T13:48:19Z</time>
      </trkpt>
      <trkpt lat="43.24775" lon="5.70159">
        <ele>368</ele>
        <time>2021-10-06T13:48:25Z</time>
      </trkpt>
      <trkpt lat="43.2477" lon="5.70158">
        <ele>368.9</ele>
        <time>2021-10-06T13:48:29Z</time>
      </trkpt>
      <trkpt lat="43.24765" lon="5.70155">
        <ele>370</ele>
        <time>2021-10-06T13:48:35Z</time>
      </trkpt>
      <trkpt lat="43.24759" lon="5.70155">
        <ele>370.9</ele>
        <time>2021-10-06T13:48:41Z</time>
      </trkpt>
      <trkpt lat="43.24753" lon="5.70156">
        <ele>371.7</ele>
        <time>2021-10-06T13:48:47Z</time>
      </trkpt>
      <trkpt lat="43.24748" lon="5.70157">
        <ele>372.3</ele>
        <time>2021-10-06T13:48:53Z</time>
      </trkpt>
      <trkpt lat="43.24744" lon="5.70159">
        <ele>372.7</ele>
        <time>2021-10-06T13:49:01Z</time>
      </trkpt>
      <trkpt lat="43.2474" lon="5.70156">
        <ele>373.5</ele>
        <time>2021-10-06T13:49:11Z</time>
      </trkpt>
      <trkpt lat="43.24736" lon="5.70152">
        <ele>374.4</ele>
        <time>2021-10-06T13:51:47Z</time>
      </trkpt>
      <trkpt lat="43.24735" lon="5.70145">
        <ele>375.3</ele>
        <time>2021-10-06T13:53:11Z</time>
      </trkpt>
      <trkpt lat="43.24733" lon="5.70139">
        <ele>376.1</ele>
        <time>2021-10-06T13:53:19Z</time>
      </trkpt>
      <trkpt lat="43.2473" lon="5.70132">
        <ele>377</ele>
        <time>2021-10-06T13:53:31Z</time>
      </trkpt>
      <trkpt lat="43.24729" lon="5.70127">
        <ele>377.8</ele>
        <time>2021-10-06T13:53:45Z</time>
      </trkpt>
      <trkpt lat="43.2473" lon="5.7012">
        <ele>378.3</ele>
        <time>2021-10-06T13:54:01Z</time>
      </trkpt>
      <trkpt lat="43.24733" lon="5.70113">
        <ele>378.8</ele>
        <time>2021-10-06T13:54:07Z</time>
      </trkpt>
      <trkpt lat="43.24737" lon="5.70109">
        <ele>378.9</ele>
        <time>2021-10-06T13:54:13Z</time>
      </trkpt>
      <trkpt lat="43.24741" lon="5.70104">
        <ele>379.1</ele>
        <time>2021-10-06T13:54:21Z</time>
      </trkpt>
      <trkpt lat="43.24745" lon="5.70101">
        <ele>379.2</ele>
        <time>2021-10-06T13:54:29Z</time>
      </trkpt>
      <trkpt lat="43.24751" lon="5.70098">
        <ele>379.1</ele>
        <time>2021-10-06T13:54:43Z</time>
      </trkpt>
      <trkpt lat="43.24757" lon="5.70097">
        <ele>378.1</ele>
        <time>2021-10-06T13:54:53Z</time>
      </trkpt>
      <trkpt lat="43.24763" lon="5.70093">
        <ele>377.4</ele>
        <time>2021-10-06T13:54:59Z</time>
      </trkpt>
      <trkpt lat="43.24768" lon="5.70089">
        <ele>376.9</ele>
        <time>2021-10-06T13:55:07Z</time>
      </trkpt>
      <trkpt lat="43.24774" lon="5.70084">
        <ele>376.3</ele>
        <time>2021-10-06T13:55:13Z</time>
      </trkpt>
      <trkpt lat="43.24778" lon="5.70082">
        <ele>375.9</ele>
        <time>2021-10-06T13:55:17Z</time>
      </trkpt>
      <trkpt lat="43.24782" lon="5.70079">
        <ele>376.2</ele>
        <time>2021-10-06T13:55:21Z</time>
      </trkpt>
      <trkpt lat="43.24788" lon="5.70076">
        <ele>376</ele>
        <time>2021-10-06T13:55:27Z</time>
      </trkpt>
      <trkpt lat="43.24794" lon="5.70074">
        <ele>375.6</ele>
        <time>2021-10-06T13:55:35Z</time>
      </trkpt>
      <trkpt lat="43.24797" lon="5.70067">
        <ele>376.7</ele>
        <time>2021-10-06T13:55:39Z</time>
      </trkpt>
      <trkpt lat="43.24801" lon="5.70064">
        <ele>377.1</ele>
        <time>2021-10-06T13:55:45Z</time>
      </trkpt>
      <trkpt lat="43.24805" lon="5.70059">
        <ele>377.7</ele>
        <time>2021-10-06T13:55:51Z</time>
      </trkpt>
      <trkpt lat="43.24809" lon="5.70055">
        <ele>378.3</ele>
        <time>2021-10-06T13:55:57Z</time>
      </trkpt>
      <trkpt lat="43.24813" lon="5.70052">
        <ele>378.2</ele>
        <time>2021-10-06T13:56:07Z</time>
      </trkpt>
      <trkpt lat="43.24818" lon="5.7005">
        <ele>377.6</ele>
        <time>2021-10-06T13:56:15Z</time>
      </trkpt>
      <trkpt lat="43.24823" lon="5.70049">
        <ele>377.2</ele>
        <time>2021-10-06T13:56:19Z</time>
      </trkpt>
      <trkpt lat="43.24828" lon="5.70047">
        <ele>376.7</ele>
        <time>2021-10-06T13:56:25Z</time>
      </trkpt>
      <trkpt lat="43.24833" lon="5.70043">
        <ele>376.5</ele>
        <time>2021-10-06T13:56:31Z</time>
      </trkpt>
      <trkpt lat="43.24839" lon="5.7004">
        <ele>376.6</ele>
        <time>2021-10-06T13:56:37Z</time>
      </trkpt>
      <trkpt lat="43.24843" lon="5.70037">
        <ele>377</ele>
        <time>2021-10-06T13:56:41Z</time>
      </trkpt>
      <trkpt lat="43.24848" lon="5.70032">
        <ele>377.6</ele>
        <time>2021-10-06T13:56:47Z</time>
      </trkpt>
      <trkpt lat="43.24852" lon="5.70028">
        <ele>378</ele>
        <time>2021-10-06T13:56:53Z</time>
      </trkpt>
      <trkpt lat="43.24856" lon="5.70023">
        <ele>378.7</ele>
        <time>2021-10-06T13:56:59Z</time>
      </trkpt>
      <trkpt lat="43.24859" lon="5.70018">
        <ele>379.5</ele>
        <time>2021-10-06T13:57:05Z</time>
      </trkpt>
      <trkpt lat="43.24864" lon="5.70013">
        <ele>379.7</ele>
        <time>2021-10-06T13:57:11Z</time>
      </trkpt>
      <trkpt lat="43.24867" lon="5.70009">
        <ele>380.1</ele>
        <time>2021-10-06T13:57:17Z</time>
      </trkpt>
      <trkpt lat="43.24871" lon="5.70004">
        <ele>380.4</ele>
        <time>2021-10-06T13:57:23Z</time>
      </trkpt>
      <trkpt lat="43.24876" lon="5.69999">
        <ele>380.5</ele>
        <time>2021-10-06T13:57:29Z</time>
      </trkpt>
      <trkpt lat="43.2488" lon="5.69994">
        <ele>381.2</ele>
        <time>2021-10-06T13:57:35Z</time>
      </trkpt>
      <trkpt lat="43.24883" lon="5.69988">
        <ele>382</ele>
        <time>2021-10-06T13:57:41Z</time>
      </trkpt>
      <trkpt lat="43.24886" lon="5.69983">
        <ele>382.5</ele>
        <time>2021-10-06T13:57:47Z</time>
      </trkpt>
      <trkpt lat="43.24892" lon="5.69978">
        <ele>382.6</ele>
        <time>2021-10-06T13:57:53Z</time>
      </trkpt>
      <trkpt lat="43.24896" lon="5.69974">
        <ele>382.7</ele>
        <time>2021-10-06T13:57:57Z</time>
      </trkpt>
      <trkpt lat="43.24898" lon="5.69968">
        <ele>383.5</ele>
        <time>2021-10-06T13:58:03Z</time>
      </trkpt>
      <trkpt lat="43.24903" lon="5.69963">
        <ele>383.6</ele>
        <time>2021-10-06T13:58:09Z</time>
      </trkpt>
      <trkpt lat="43.24908" lon="5.69958">
        <ele>383.7</ele>
        <time>2021-10-06T13:58:15Z</time>
      </trkpt>
      <trkpt lat="43.24912" lon="5.69953">
        <ele>384</ele>
        <time>2021-10-06T13:58:21Z</time>
      </trkpt>
      <trkpt lat="43.24916" lon="5.69947">
        <ele>384.2</ele>
        <time>2021-10-06T13:58:27Z</time>
      </trkpt>
      <trkpt lat="43.2492" lon="5.69942">
        <ele>384.6</ele>
        <time>2021-10-06T13:58:33Z</time>
      </trkpt>
      <trkpt lat="43.24924" lon="5.69938">
        <ele>384.9</ele>
        <time>2021-10-06T13:58:39Z</time>
      </trkpt>
      <trkpt lat="43.24927" lon="5.69932">
        <ele>385.7</ele>
        <time>2021-10-06T13:58:47Z</time>
      </trkpt>
      <trkpt lat="43.2493" lon="5.69926">
        <ele>386.4</ele>
        <time>2021-10-06T13:58:55Z</time>
      </trkpt>
      <trkpt lat="43.24934" lon="5.69921">
        <ele>387.1</ele>
        <time>2021-10-06T13:59:01Z</time>
      </trkpt>
      <trkpt lat="43.24938" lon="5.69915">
        <ele>387.8</ele>
        <time>2021-10-06T13:59:07Z</time>
      </trkpt>
      <trkpt lat="43.24941" lon="5.69909">
        <ele>388.7</ele>
        <time>2021-10-06T13:59:13Z</time>
      </trkpt>
      <trkpt lat="43.24946" lon="5.69904">
        <ele>389.1</ele>
        <time>2021-10-06T13:59:19Z</time>
      </trkpt>
      <trkpt lat="43.24951" lon="5.699">
        <ele>389</ele>
        <time>2021-10-06T13:59:25Z</time>
      </trkpt>
      <trkpt lat="43.24955" lon="5.69895">
        <ele>389.4</ele>
        <time>2021-10-06T13:59:31Z</time>
      </trkpt>
      <trkpt lat="43.24958" lon="5.6989">
        <ele>390</ele>
        <time>2021-10-06T13:59:37Z</time>
      </trkpt>
      <trkpt lat="43.24963" lon="5.69885">
        <ele>390.3</ele>
        <time>2021-10-06T13:59:43Z</time>
      </trkpt>
      <trkpt lat="43.24966" lon="5.69881">
        <ele>390.5</ele>
        <time>2021-10-06T13:59:47Z</time>
      </trkpt>
      <trkpt lat="43.24971" lon="5.69875">
        <ele>390.8</ele>
        <time>2021-10-06T13:59:53Z</time>
      </trkpt>
      <trkpt lat="43.24973" lon="5.69869">
        <ele>391.5</ele>
        <time>2021-10-06T14:00:13Z</time>
      </trkpt>
      <trkpt lat="43.24979" lon="5.69864">
        <ele>391.4</ele>
        <time>2021-10-06T14:00:19Z</time>
      </trkpt>
      <trkpt lat="43.24982" lon="5.6986">
        <ele>391.5</ele>
        <time>2021-10-06T14:00:23Z</time>
      </trkpt>
      <trkpt lat="43.24986" lon="5.69854">
        <ele>391.8</ele>
        <time>2021-10-06T14:00:29Z</time>
      </trkpt>
      <trkpt lat="43.2499" lon="5.69848">
        <ele>392</ele>
        <time>2021-10-06T14:00:35Z</time>
      </trkpt>
      <trkpt lat="43.24994" lon="5.69843">
        <ele>391.7</ele>
        <time>2021-10-06T14:00:41Z</time>
      </trkpt>
      <trkpt lat="43.25" lon="5.69839">
        <ele>391</ele>
        <time>2021-10-06T14:00:47Z</time>
      </trkpt>
      <trkpt lat="43.25004" lon="5.69834">
        <ele>391.2</ele>
        <time>2021-10-06T14:00:51Z</time>
      </trkpt>
      <trkpt lat="43.25008" lon="5.6983">
        <ele>391.2</ele>
        <time>2021-10-06T14:00:55Z</time>
      </trkpt>
      <trkpt lat="43.25014" lon="5.69827">
        <ele>391</ele>
        <time>2021-10-06T14:01:01Z</time>
      </trkpt>
      <trkpt lat="43.25018" lon="5.69823">
        <ele>391.1</ele>
        <time>2021-10-06T14:01:05Z</time>
      </trkpt>
      <trkpt lat="43.25023" lon="5.69818">
        <ele>391</ele>
        <time>2021-10-06T14:01:09Z</time>
      </trkpt>
      <trkpt lat="43.25028" lon="5.69814">
        <ele>391.1</ele>
        <time>2021-10-06T14:01:13Z</time>
      </trkpt>
      <trkpt lat="43.25031" lon="5.69808">
        <ele>391.5</ele>
        <time>2021-10-06T14:01:17Z</time>
      </trkpt>
      <trkpt lat="43.25033" lon="5.69801">
        <ele>392.5</ele>
        <time>2021-10-06T14:01:23Z</time>
      </trkpt>
      <trkpt lat="43.25037" lon="5.69794">
        <ele>392.9</ele>
        <time>2021-10-06T14:01:29Z</time>
      </trkpt>
      <trkpt lat="43.2504" lon="5.69786">
        <ele>393.5</ele>
        <time>2021-10-06T14:01:35Z</time>
      </trkpt>
      <trkpt lat="43.25043" lon="5.69781">
        <ele>393.7</ele>
        <time>2021-10-06T14:01:39Z</time>
      </trkpt>
      <trkpt lat="43.25048" lon="5.69774">
        <ele>393.7</ele>
        <time>2021-10-06T14:01:45Z</time>
      </trkpt>
      <trkpt lat="43.25052" lon="5.6977">
        <ele>393.5</ele>
        <time>2021-10-06T14:01:49Z</time>
      </trkpt>
      <trkpt lat="43.25055" lon="5.69765">
        <ele>393.5</ele>
        <time>2021-10-06T14:01:53Z</time>
      </trkpt>
      <trkpt lat="43.25057" lon="5.6976">
        <ele>393.6</ele>
        <time>2021-10-06T14:01:57Z</time>
      </trkpt>
      <trkpt lat="43.2506" lon="5.69755">
        <ele>393.7</ele>
        <time>2021-10-06T14:02:01Z</time>
      </trkpt>
      <trkpt lat="43.25063" lon="5.69747">
        <ele>393.9</ele>
        <time>2021-10-06T14:02:07Z</time>
      </trkpt>
      <trkpt lat="43.25064" lon="5.69741">
        <ele>394.2</ele>
        <time>2021-10-06T14:02:11Z</time>
      </trkpt>
      <trkpt lat="43.25067" lon="5.69733">
        <ele>394.4</ele>
        <time>2021-10-06T14:02:17Z</time>
      </trkpt>
      <trkpt lat="43.25069" lon="5.69725">
        <ele>394.6</ele>
        <time>2021-10-06T14:02:23Z</time>
      </trkpt>
      <trkpt lat="43.25072" lon="5.69718">
        <ele>394.5</ele>
        <time>2021-10-06T14:02:29Z</time>
      </trkpt>
      <trkpt lat="43.25075" lon="5.6971">
        <ele>394.4</ele>
        <time>2021-10-06T14:02:35Z</time>
      </trkpt>
      <trkpt lat="43.25076" lon="5.69702">
        <ele>394.9</ele>
        <time>2021-10-06T14:02:41Z</time>
      </trkpt>
      <trkpt lat="43.25078" lon="5.69693">
        <ele>395</ele>
        <time>2021-10-06T14:02:47Z</time>
      </trkpt>
      <trkpt lat="43.2508" lon="5.69688">
        <ele>394.9</ele>
        <time>2021-10-06T14:02:51Z</time>
      </trkpt>
      <trkpt lat="43.25084" lon="5.6968">
        <ele>394.7</ele>
        <time>2021-10-06T14:02:57Z</time>
      </trkpt>
      <trkpt lat="43.25085" lon="5.69671">
        <ele>395.4</ele>
        <time>2021-10-06T14:03:03Z</time>
      </trkpt>
      <trkpt lat="43.25086" lon="5.69664">
        <ele>395.7</ele>
        <time>2021-10-06T14:03:07Z</time>
      </trkpt>
      <trkpt lat="43.25085" lon="5.69658">
        <ele>395.7</ele>
        <time>2021-10-06T14:03:11Z</time>
      </trkpt>
      <trkpt lat="43.25085" lon="5.69651">
        <ele>395.8</ele>
        <time>2021-10-06T14:03:15Z</time>
      </trkpt>
      <trkpt lat="43.25085" lon="5.69645">
        <ele>395.8</ele>
        <time>2021-10-06T14:03:19Z</time>
      </trkpt>
      <trkpt lat="43.25086" lon="5.69636">
        <ele>395.6</ele>
        <time>2021-10-06T14:03:25Z</time>
      </trkpt>
      <trkpt lat="43.25088" lon="5.69628">
        <ele>395.4</ele>
        <time>2021-10-06T14:03:31Z</time>
      </trkpt>
      <trkpt lat="43.2509" lon="5.6962">
        <ele>395.1</ele>
        <time>2021-10-06T14:03:37Z</time>
      </trkpt>
      <trkpt lat="43.25089" lon="5.69611">
        <ele>395.2</ele>
        <time>2021-10-06T14:03:43Z</time>
      </trkpt>
      <trkpt lat="43.25088" lon="5.69604">
        <ele>395.3</ele>
        <time>2021-10-06T14:03:47Z</time>
      </trkpt>
      <trkpt lat="43.25086" lon="5.69598">
        <ele>395.6</ele>
        <time>2021-10-06T14:03:51Z</time>
      </trkpt>
      <trkpt lat="43.25085" lon="5.69591">
        <ele>395.8</ele>
        <time>2021-10-06T14:03:55Z</time>
      </trkpt>
      <trkpt lat="43.25085" lon="5.69585">
        <ele>395.8</ele>
        <time>2021-10-06T14:03:59Z</time>
      </trkpt>
      <trkpt lat="43.25084" lon="5.69576">
        <ele>395.2</ele>
        <time>2021-10-06T14:04:05Z</time>
      </trkpt>
      <trkpt lat="43.25085" lon="5.69568">
        <ele>394.4</ele>
        <time>2021-10-06T14:04:11Z</time>
      </trkpt>
      <trkpt lat="43.25083" lon="5.69559">
        <ele>393.7</ele>
        <time>2021-10-06T14:04:17Z</time>
      </trkpt>
      <trkpt lat="43.25081" lon="5.69553">
        <ele>393.6</ele>
        <time>2021-10-06T14:04:21Z</time>
      </trkpt>
      <trkpt lat="43.25079" lon="5.69546">
        <ele>393.6</ele>
        <time>2021-10-06T14:04:25Z</time>
      </trkpt>
      <trkpt lat="43.25076" lon="5.6954">
        <ele>393.9</ele>
        <time>2021-10-06T14:04:29Z</time>
      </trkpt>
      <trkpt lat="43.25073" lon="5.69535">
        <ele>394.1</ele>
        <time>2021-10-06T14:04:33Z</time>
      </trkpt>
      <trkpt lat="43.2507" lon="5.69529">
        <ele>394.4</ele>
        <time>2021-10-06T14:04:37Z</time>
      </trkpt>
      <trkpt lat="43.25067" lon="5.69524">
        <ele>394.7</ele>
        <time>2021-10-06T14:04:41Z</time>
      </trkpt>
      <trkpt lat="43.25064" lon="5.69518">
        <ele>394.9</ele>
        <time>2021-10-06T14:04:45Z</time>
      </trkpt>
      <trkpt lat="43.2506" lon="5.69512">
        <ele>395.2</ele>
        <time>2021-10-06T14:04:49Z</time>
      </trkpt>
      <trkpt lat="43.25057" lon="5.69506">
        <ele>395.3</ele>
        <time>2021-10-06T14:04:53Z</time>
      </trkpt>
      <trkpt lat="43.25054" lon="5.69502">
        <ele>395.7</ele>
        <time>2021-10-06T14:04:57Z</time>
      </trkpt>
      <trkpt lat="43.25052" lon="5.69493">
        <ele>394.6</ele>
        <time>2021-10-06T14:05:03Z</time>
      </trkpt>
      <trkpt lat="43.2505" lon="5.69487">
        <ele>394</ele>
        <time>2021-10-06T14:05:07Z</time>
      </trkpt>
      <trkpt lat="43.25048" lon="5.69481">
        <ele>393.3</ele>
        <time>2021-10-06T14:05:11Z</time>
      </trkpt>
      <trkpt lat="43.25046" lon="5.69473">
        <ele>392.3</ele>
        <time>2021-10-06T14:05:17Z</time>
      </trkpt>
      <trkpt lat="43.25043" lon="5.69468">
        <ele>391.9</ele>
        <time>2021-10-06T14:05:21Z</time>
      </trkpt>
      <trkpt lat="43.25042" lon="5.69462">
        <ele>391.1</ele>
        <time>2021-10-06T14:05:25Z</time>
      </trkpt>
      <trkpt lat="43.2504" lon="5.69455">
        <ele>390.2</ele>
        <time>2021-10-06T14:05:29Z</time>
      </trkpt>
      <trkpt lat="43.25037" lon="5.69447">
        <ele>389.3</ele>
        <time>2021-10-06T14:05:33Z</time>
      </trkpt>
      <trkpt lat="43.25034" lon="5.69441">
        <ele>388.8</ele>
        <time>2021-10-06T14:05:37Z</time>
      </trkpt>
      <trkpt lat="43.2503" lon="5.69436">
        <ele>388.6</ele>
        <time>2021-10-06T14:05:41Z</time>
      </trkpt>
      <trkpt lat="43.25027" lon="5.6943">
        <ele>388.2</ele>
        <time>2021-10-06T14:05:45Z</time>
      </trkpt>
      <trkpt lat="43.25023" lon="5.69423">
        <ele>387.5</ele>
        <time>2021-10-06T14:05:51Z</time>
      </trkpt>
      <trkpt lat="43.2502" lon="5.69417">
        <ele>387.2</ele>
        <time>2021-10-06T14:05:55Z</time>
      </trkpt>
      <trkpt lat="43.25016" lon="5.69412">
        <ele>386.5</ele>
        <time>2021-10-06T14:05:59Z</time>
      </trkpt>
      <trkpt lat="43.25013" lon="5.69407">
        <ele>385.9</ele>
        <time>2021-10-06T14:06:03Z</time>
      </trkpt>
      <trkpt lat="43.2501" lon="5.69402">
        <ele>385.4</ele>
        <time>2021-10-06T14:06:07Z</time>
      </trkpt>
      <trkpt lat="43.25007" lon="5.69397">
        <ele>384.8</ele>
        <time>2021-10-06T14:06:11Z</time>
      </trkpt>
      <trkpt lat="43.25003" lon="5.69392">
        <ele>384.1</ele>
        <time>2021-10-06T14:06:15Z</time>
      </trkpt>
      <trkpt lat="43.24999" lon="5.69385">
        <ele>382.9</ele>
        <time>2021-10-06T14:06:21Z</time>
      </trkpt>
      <trkpt lat="43.24996" lon="5.69381">
        <ele>382.8</ele>
        <time>2021-10-06T14:06:25Z</time>
      </trkpt>
      <trkpt lat="43.24993" lon="5.69377">
        <ele>382.7</ele>
        <time>2021-10-06T14:06:29Z</time>
      </trkpt>
      <trkpt lat="43.24988" lon="5.69372">
        <ele>382.5</ele>
        <time>2021-10-06T14:06:33Z</time>
      </trkpt>
      <trkpt lat="43.24985" lon="5.69368">
        <ele>382.5</ele>
        <time>2021-10-06T14:06:37Z</time>
      </trkpt>
      <trkpt lat="43.24981" lon="5.69363">
        <ele>382.2</ele>
        <time>2021-10-06T14:06:41Z</time>
      </trkpt>
      <trkpt lat="43.24977" lon="5.69358">
        <ele>381.8</ele>
        <time>2021-10-06T14:06:45Z</time>
      </trkpt>
      <trkpt lat="43.24973" lon="5.69354">
        <ele>382.1</ele>
        <time>2021-10-06T14:06:49Z</time>
      </trkpt>
      <trkpt lat="43.24968" lon="5.69351">
        <ele>382.4</ele>
        <time>2021-10-06T14:06:53Z</time>
      </trkpt>
      <trkpt lat="43.24963" lon="5.69348">
        <ele>383.1</ele>
        <time>2021-10-06T14:06:57Z</time>
      </trkpt>
      <trkpt lat="43.24958" lon="5.69343">
        <ele>382.8</ele>
        <time>2021-10-06T14:07:03Z</time>
      </trkpt>
      <trkpt lat="43.24956" lon="5.69335">
        <ele>381.1</ele>
        <time>2021-10-06T14:07:09Z</time>
      </trkpt>
      <trkpt lat="43.24954" lon="5.69329">
        <ele>380</ele>
        <time>2021-10-06T14:07:13Z</time>
      </trkpt>
      <trkpt lat="43.24952" lon="5.69321">
        <ele>378.4</ele>
        <time>2021-10-06T14:07:19Z</time>
      </trkpt>
      <trkpt lat="43.24948" lon="5.69313">
        <ele>377.1</ele>
        <time>2021-10-06T14:07:25Z</time>
      </trkpt>
      <trkpt lat="43.24946" lon="5.69308">
        <ele>376.1</ele>
        <time>2021-10-06T14:07:29Z</time>
      </trkpt>
      <trkpt lat="43.24942" lon="5.69303">
        <ele>375.7</ele>
        <time>2021-10-06T14:07:33Z</time>
      </trkpt>
      <trkpt lat="43.24937" lon="5.693">
        <ele>375.8</ele>
        <time>2021-10-06T14:07:37Z</time>
      </trkpt>
      <trkpt lat="43.24932" lon="5.69298">
        <ele>376.4</ele>
        <time>2021-10-06T14:07:41Z</time>
      </trkpt>
      <trkpt lat="43.24927" lon="5.69297">
        <ele>377.3</ele>
        <time>2021-10-06T14:07:45Z</time>
      </trkpt>
      <trkpt lat="43.24921" lon="5.69295">
        <ele>377.9</ele>
        <time>2021-10-06T14:07:49Z</time>
      </trkpt>
      <trkpt lat="43.24917" lon="5.69292">
        <ele>377.9</ele>
        <time>2021-10-06T14:07:53Z</time>
      </trkpt>
      <trkpt lat="43.24912" lon="5.69286">
        <ele>377.5</ele>
        <time>2021-10-06T14:07:59Z</time>
      </trkpt>
      <trkpt lat="43.24907" lon="5.6928">
        <ele>376.8</ele>
        <time>2021-10-06T14:08:05Z</time>
      </trkpt>
      <trkpt lat="43.24902" lon="5.69274">
        <ele>375.9</ele>
        <time>2021-10-06T14:08:11Z</time>
      </trkpt>
      <trkpt lat="43.24898" lon="5.69269">
        <ele>375.5</ele>
        <time>2021-10-06T14:08:15Z</time>
      </trkpt>
      <trkpt lat="43.24893" lon="5.69263">
        <ele>374.8</ele>
        <time>2021-10-06T14:08:21Z</time>
      </trkpt>
      <trkpt lat="43.24888" lon="5.69259">
        <ele>374.5</ele>
        <time>2021-10-06T14:08:27Z</time>
      </trkpt>
      <trkpt lat="43.24884" lon="5.69254">
        <ele>373.9</ele>
        <time>2021-10-06T14:08:31Z</time>
      </trkpt>
      <trkpt lat="43.2488" lon="5.69251">
        <ele>373.6</ele>
        <time>2021-10-06T14:08:35Z</time>
      </trkpt>
      <trkpt lat="43.24876" lon="5.69248">
        <ele>373.7</ele>
        <time>2021-10-06T14:08:39Z</time>
      </trkpt>
      <trkpt lat="43.2487" lon="5.69245">
        <ele>374.3</ele>
        <time>2021-10-06T14:08:45Z</time>
      </trkpt>
      <trkpt lat="43.24865" lon="5.69241">
        <ele>374.2</ele>
        <time>2021-10-06T14:08:51Z</time>
      </trkpt>
      <trkpt lat="43.24859" lon="5.69236">
        <ele>373.6</ele>
        <time>2021-10-06T14:08:57Z</time>
      </trkpt>
      <trkpt lat="43.24856" lon="5.69229">
        <ele>372.4</ele>
        <time>2021-10-06T14:09:03Z</time>
      </trkpt>
      <trkpt lat="43.24851" lon="5.69224">
        <ele>371.5</ele>
        <time>2021-10-06T14:09:09Z</time>
      </trkpt>
      <trkpt lat="43.24848" lon="5.69219">
        <ele>370.5</ele>
        <time>2021-10-06T14:09:13Z</time>
      </trkpt>
      <trkpt lat="43.24843" lon="5.69215">
        <ele>370</ele>
        <time>2021-10-06T14:09:19Z</time>
      </trkpt>
      <trkpt lat="43.24838" lon="5.69212">
        <ele>369.9</ele>
        <time>2021-10-06T14:09:25Z</time>
      </trkpt>
      <trkpt lat="43.24834" lon="5.69208">
        <ele>369.3</ele>
        <time>2021-10-06T14:09:33Z</time>
      </trkpt>
      <trkpt lat="43.24829" lon="5.69204">
        <ele>369.4</ele>
        <time>2021-10-06T14:09:39Z</time>
      </trkpt>
      <trkpt lat="43.24825" lon="5.692">
        <ele>369.4</ele>
        <time>2021-10-06T14:09:43Z</time>
      </trkpt>
      <trkpt lat="43.2482" lon="5.69196">
        <ele>369.6</ele>
        <time>2021-10-06T14:09:49Z</time>
      </trkpt>
      <trkpt lat="43.24816" lon="5.69192">
        <ele>369.6</ele>
        <time>2021-10-06T14:09:55Z</time>
      </trkpt>
      <trkpt lat="43.24813" lon="5.69185">
        <ele>368.4</ele>
        <time>2021-10-06T14:10:01Z</time>
      </trkpt>
      <trkpt lat="43.2481" lon="5.69179">
        <ele>367.3</ele>
        <time>2021-10-06T14:10:05Z</time>
      </trkpt>
      <trkpt lat="43.24806" lon="5.69174">
        <ele>366.7</ele>
        <time>2021-10-06T14:10:11Z</time>
      </trkpt>
      <trkpt lat="43.24803" lon="5.69168">
        <ele>366</ele>
        <time>2021-10-06T14:10:15Z</time>
      </trkpt>
      <trkpt lat="43.24798" lon="5.69162">
        <ele>367</ele>
        <time>2021-10-06T14:10:21Z</time>
      </trkpt>
      <trkpt lat="43.24793" lon="5.69156">
        <ele>368</ele>
        <time>2021-10-06T14:10:27Z</time>
      </trkpt>
      <trkpt lat="43.24791" lon="5.69151">
        <ele>368.4</ele>
        <time>2021-10-06T14:10:31Z</time>
      </trkpt>
      <trkpt lat="43.24788" lon="5.69145">
        <ele>368.7</ele>
        <time>2021-10-06T14:10:35Z</time>
      </trkpt>
      <trkpt lat="43.24785" lon="5.6914">
        <ele>368.9</ele>
        <time>2021-10-06T14:10:39Z</time>
      </trkpt>
      <trkpt lat="43.24781" lon="5.69136">
        <ele>369.8</ele>
        <time>2021-10-06T14:10:45Z</time>
      </trkpt>
      <trkpt lat="43.24776" lon="5.69132">
        <ele>370.5</ele>
        <time>2021-10-06T14:10:49Z</time>
      </trkpt>
      <trkpt lat="43.24773" lon="5.69126">
        <ele>370.7</ele>
        <time>2021-10-06T14:10:53Z</time>
      </trkpt>
      <trkpt lat="43.2477" lon="5.69119">
        <ele>370.5</ele>
        <time>2021-10-06T14:10:59Z</time>
      </trkpt>
      <trkpt lat="43.24766" lon="5.69112">
        <ele>370.4</ele>
        <time>2021-10-06T14:11:05Z</time>
      </trkpt>
      <trkpt lat="43.24763" lon="5.69105">
        <ele>370.2</ele>
        <time>2021-10-06T14:11:11Z</time>
      </trkpt>
      <trkpt lat="43.2476" lon="5.69098">
        <ele>369.7</ele>
        <time>2021-10-06T14:11:17Z</time>
      </trkpt>
      <trkpt lat="43.24757" lon="5.69092">
        <ele>369.3</ele>
        <time>2021-10-06T14:11:21Z</time>
      </trkpt>
      <trkpt lat="43.24754" lon="5.69086">
        <ele>368.9</ele>
        <time>2021-10-06T14:11:27Z</time>
      </trkpt>
      <trkpt lat="43.24751" lon="5.69082">
        <ele>369.2</ele>
        <time>2021-10-06T14:11:31Z</time>
      </trkpt>
      <trkpt lat="43.2475" lon="5.69074">
        <ele>370.9</ele>
        <time>2021-10-06T14:11:37Z</time>
      </trkpt>
      <trkpt lat="43.24746" lon="5.69068">
        <ele>372.7</ele>
        <time>2021-10-06T14:11:43Z</time>
      </trkpt>
      <trkpt lat="43.24749" lon="5.69061">
        <ele>373.8</ele>
        <time>2021-10-06T14:11:51Z</time>
      </trkpt>
      <trkpt lat="43.24751" lon="5.69054">
        <ele>374.8</ele>
        <time>2021-10-06T14:12:01Z</time>
      </trkpt>
      <trkpt lat="43.24755" lon="5.6905">
        <ele>375.2</ele>
        <time>2021-10-06T14:12:09Z</time>
      </trkpt>
      <trkpt lat="43.24761" lon="5.69048">
        <ele>374.9</ele>
        <time>2021-10-06T14:12:15Z</time>
      </trkpt>
      <trkpt lat="43.24767" lon="5.69048">
        <ele>374.2</ele>
        <time>2021-10-06T14:12:23Z</time>
      </trkpt>
      <trkpt lat="43.24772" lon="5.69046">
        <ele>374</ele>
        <time>2021-10-06T14:12:29Z</time>
      </trkpt>
      <trkpt lat="43.24778" lon="5.69046">
        <ele>373.3</ele>
        <time>2021-10-06T14:12:37Z</time>
      </trkpt>
      <trkpt lat="43.24783" lon="5.69046">
        <ele>372.8</ele>
        <time>2021-10-06T14:12:43Z</time>
      </trkpt>
      <trkpt lat="43.24788" lon="5.69046">
        <ele>372.2</ele>
        <time>2021-10-06T14:12:49Z</time>
      </trkpt>
      <trkpt lat="43.24794" lon="5.69046">
        <ele>371.6</ele>
        <time>2021-10-06T14:12:55Z</time>
      </trkpt>
      <trkpt lat="43.24799" lon="5.69044">
        <ele>371.5</ele>
        <time>2021-10-06T14:13:01Z</time>
      </trkpt>
      <trkpt lat="43.24804" lon="5.69042">
        <ele>371.6</ele>
        <time>2021-10-06T14:13:07Z</time>
      </trkpt>
      <trkpt lat="43.24809" lon="5.69041">
        <ele>371.2</ele>
        <time>2021-10-06T14:13:13Z</time>
      </trkpt>
      <trkpt lat="43.24815" lon="5.69039">
        <ele>371.2</ele>
        <time>2021-10-06T14:13:17Z</time>
      </trkpt>
      <trkpt lat="43.24821" lon="5.69038">
        <ele>371.1</ele>
        <time>2021-10-06T14:13:21Z</time>
      </trkpt>
      <trkpt lat="43.24826" lon="5.69037">
        <ele>370.7</ele>
        <time>2021-10-06T14:13:27Z</time>
      </trkpt>
      <trkpt lat="43.24831" lon="5.69037">
        <ele>370.3</ele>
        <time>2021-10-06T14:13:33Z</time>
      </trkpt>
      <trkpt lat="43.24836" lon="5.69032">
        <ele>371.4</ele>
        <time>2021-10-06T14:13:39Z</time>
      </trkpt>
      <trkpt lat="43.24841" lon="5.6903">
        <ele>371.4</ele>
        <time>2021-10-06T14:13:45Z</time>
      </trkpt>
      <trkpt lat="43.24847" lon="5.6903">
        <ele>370.8</ele>
        <time>2021-10-06T14:13:51Z</time>
      </trkpt>
      <trkpt lat="43.24852" lon="5.69029">
        <ele>370.6</ele>
        <time>2021-10-06T14:13:59Z</time>
      </trkpt>
      <trkpt lat="43.24856" lon="5.69024">
        <ele>371.5</ele>
        <time>2021-10-06T14:14:05Z</time>
      </trkpt>
      <trkpt lat="43.2486" lon="5.69021">
        <ele>372</ele>
        <time>2021-10-06T14:14:09Z</time>
      </trkpt>
      <trkpt lat="43.24864" lon="5.69019">
        <ele>372.1</ele>
        <time>2021-10-06T14:14:13Z</time>
      </trkpt>
      <trkpt lat="43.24871" lon="5.69016">
        <ele>372.2</ele>
        <time>2021-10-06T14:14:19Z</time>
      </trkpt>
      <trkpt lat="43.24877" lon="5.69014">
        <ele>371.8</ele>
        <time>2021-10-06T14:14:25Z</time>
      </trkpt>
      <trkpt lat="43.24882" lon="5.69012">
        <ele>371.9</ele>
        <time>2021-10-06T14:14:29Z</time>
      </trkpt>
      <trkpt lat="43.24888" lon="5.69009">
        <ele>371.7</ele>
        <time>2021-10-06T14:14:35Z</time>
      </trkpt>
      <trkpt lat="43.24894" lon="5.69004">
        <ele>372.2</ele>
        <time>2021-10-06T14:14:41Z</time>
      </trkpt>
      <trkpt lat="43.24899" lon="5.68999">
        <ele>372.8</ele>
        <time>2021-10-06T14:14:47Z</time>
      </trkpt>
      <trkpt lat="43.24904" lon="5.68995">
        <ele>373.4</ele>
        <time>2021-10-06T14:14:53Z</time>
      </trkpt>
      <trkpt lat="43.24909" lon="5.68991">
        <ele>374.1</ele>
        <time>2021-10-06T14:15:01Z</time>
      </trkpt>
      <trkpt lat="43.24915" lon="5.68988">
        <ele>374.3</ele>
        <time>2021-10-06T14:15:07Z</time>
      </trkpt>
      <trkpt lat="43.2492" lon="5.68984">
        <ele>374.9</ele>
        <time>2021-10-06T14:15:13Z</time>
      </trkpt>
      <trkpt lat="43.24925" lon="5.68979">
        <ele>375.8</ele>
        <time>2021-10-06T14:15:19Z</time>
      </trkpt>
      <trkpt lat="43.2493" lon="5.68975">
        <ele>376.5</ele>
        <time>2021-10-06T14:15:25Z</time>
      </trkpt>
      <trkpt lat="43.24935" lon="5.68971">
        <ele>377</ele>
        <time>2021-10-06T14:15:31Z</time>
      </trkpt>
      <trkpt lat="43.2494" lon="5.6897">
        <ele>376.8</ele>
        <time>2021-10-06T14:15:37Z</time>
      </trkpt>
      <trkpt lat="43.24946" lon="5.68968">
        <ele>376.7</ele>
        <time>2021-10-06T14:15:43Z</time>
      </trkpt>
      <trkpt lat="43.24951" lon="5.68963">
        <ele>377.4</ele>
        <time>2021-10-06T14:15:49Z</time>
      </trkpt>
      <trkpt lat="43.24956" lon="5.68959">
        <ele>377.8</ele>
        <time>2021-10-06T14:15:55Z</time>
      </trkpt>
      <trkpt lat="43.24961" lon="5.68955">
        <ele>378.2</ele>
        <time>2021-10-06T14:16:01Z</time>
      </trkpt>
      <trkpt lat="43.24966" lon="5.68951">
        <ele>378.7</ele>
        <time>2021-10-06T14:16:07Z</time>
      </trkpt>
      <trkpt lat="43.24971" lon="5.68947">
        <ele>379</ele>
        <time>2021-10-06T14:16:13Z</time>
      </trkpt>
      <trkpt lat="43.24976" lon="5.68944">
        <ele>379.1</ele>
        <time>2021-10-06T14:16:19Z</time>
      </trkpt>
      <trkpt lat="43.24982" lon="5.68942">
        <ele>378.9</ele>
        <time>2021-10-06T14:16:25Z</time>
      </trkpt>
      <trkpt lat="43.24987" lon="5.68939">
        <ele>378.7</ele>
        <time>2021-10-06T14:16:31Z</time>
      </trkpt>
      <trkpt lat="43.24992" lon="5.68936">
        <ele>378.6</ele>
        <time>2021-10-06T14:16:37Z</time>
      </trkpt>
      <trkpt lat="43.24998" lon="5.68932">
        <ele>378.7</ele>
        <time>2021-10-06T14:16:45Z</time>
      </trkpt>
      <trkpt lat="43.25002" lon="5.68928">
        <ele>379.1</ele>
        <time>2021-10-06T14:16:49Z</time>
      </trkpt>
      <trkpt lat="43.25007" lon="5.68923">
        <ele>379.5</ele>
        <time>2021-10-06T14:16:55Z</time>
      </trkpt>
      <trkpt lat="43.25011" lon="5.6892">
        <ele>379.7</ele>
        <time>2021-10-06T14:17:01Z</time>
      </trkpt>
      <trkpt lat="43.25016" lon="5.68917">
        <ele>379.7</ele>
        <time>2021-10-06T14:17:07Z</time>
      </trkpt>
      <trkpt lat="43.25021" lon="5.68913">
        <ele>380.3</ele>
        <time>2021-10-06T14:17:13Z</time>
      </trkpt>
      <trkpt lat="43.25026" lon="5.68908">
        <ele>381.1</ele>
        <time>2021-10-06T14:17:19Z</time>
      </trkpt>
      <trkpt lat="43.2503" lon="5.68904">
        <ele>381.6</ele>
        <time>2021-10-06T14:17:23Z</time>
      </trkpt>
      <trkpt lat="43.25036" lon="5.68899">
        <ele>382.1</ele>
        <time>2021-10-06T14:17:29Z</time>
      </trkpt>
      <trkpt lat="43.2504" lon="5.68896">
        <ele>382.4</ele>
        <time>2021-10-06T14:17:33Z</time>
      </trkpt>
      <trkpt lat="43.25045" lon="5.68892">
        <ele>382.6</ele>
        <time>2021-10-06T14:17:39Z</time>
      </trkpt>
      <trkpt lat="43.25049" lon="5.68887">
        <ele>383.2</ele>
        <time>2021-10-06T14:17:45Z</time>
      </trkpt>
      <trkpt lat="43.25054" lon="5.68882">
        <ele>383.9</ele>
        <time>2021-10-06T14:17:55Z</time>
      </trkpt>
      <trkpt lat="43.2506" lon="5.68877">
        <ele>384.3</ele>
        <time>2021-10-06T14:18:01Z</time>
      </trkpt>
      <trkpt lat="43.25064" lon="5.68873">
        <ele>384.6</ele>
        <time>2021-10-06T14:18:07Z</time>
      </trkpt>
      <trkpt lat="43.25068" lon="5.6887">
        <ele>384.9</ele>
        <time>2021-10-06T14:18:13Z</time>
      </trkpt>
      <trkpt lat="43.25073" lon="5.68867">
        <ele>384.6</ele>
        <time>2021-10-06T14:18:21Z</time>
      </trkpt>
      <trkpt lat="43.25078" lon="5.68865">
        <ele>384.4</ele>
        <time>2021-10-06T14:18:25Z</time>
      </trkpt>
      <trkpt lat="43.25083" lon="5.68861">
        <ele>384.4</ele>
        <time>2021-10-06T14:18:29Z</time>
      </trkpt>
      <trkpt lat="43.25087" lon="5.68859">
        <ele>384.3</ele>
        <time>2021-10-06T14:18:33Z</time>
      </trkpt>
      <trkpt lat="43.25093" lon="5.68857">
        <ele>384</ele>
        <time>2021-10-06T14:18:39Z</time>
      </trkpt>
      <trkpt lat="43.25098" lon="5.68855">
        <ele>383.7</ele>
        <time>2021-10-06T14:18:45Z</time>
      </trkpt>
      <trkpt lat="43.25103" lon="5.68851">
        <ele>384</ele>
        <time>2021-10-06T14:18:51Z</time>
      </trkpt>
      <trkpt lat="43.25108" lon="5.68848">
        <ele>383.9</ele>
        <time>2021-10-06T14:18:57Z</time>
      </trkpt>
      <trkpt lat="43.25113" lon="5.68846">
        <ele>383.6</ele>
        <time>2021-10-06T14:19:03Z</time>
      </trkpt>
      <trkpt lat="43.25118" lon="5.68843">
        <ele>383.6</ele>
        <time>2021-10-06T14:19:11Z</time>
      </trkpt>
      <trkpt lat="43.25123" lon="5.6884">
        <ele>383.4</ele>
        <time>2021-10-06T14:19:19Z</time>
      </trkpt>
      <trkpt lat="43.25128" lon="5.68834">
        <ele>383.9</ele>
        <time>2021-10-06T14:19:25Z</time>
      </trkpt>
      <trkpt lat="43.25132" lon="5.6883">
        <ele>384</ele>
        <time>2021-10-06T14:19:29Z</time>
      </trkpt>
      <trkpt lat="43.25136" lon="5.68826">
        <ele>384.2</ele>
        <time>2021-10-06T14:19:33Z</time>
      </trkpt>
      <trkpt lat="43.25141" lon="5.68821">
        <ele>384.4</ele>
        <time>2021-10-06T14:19:39Z</time>
      </trkpt>
      <trkpt lat="43.25145" lon="5.68817">
        <ele>384.4</ele>
        <time>2021-10-06T14:19:45Z</time>
      </trkpt>
      <trkpt lat="43.25148" lon="5.68812">
        <ele>384.7</ele>
        <time>2021-10-06T14:19:51Z</time>
      </trkpt>
      <trkpt lat="43.25153" lon="5.68809">
        <ele>384.6</ele>
        <time>2021-10-06T14:19:57Z</time>
      </trkpt>
      <trkpt lat="43.25158" lon="5.68804">
        <ele>384.5</ele>
        <time>2021-10-06T14:20:03Z</time>
      </trkpt>
      <trkpt lat="43.25162" lon="5.688">
        <ele>384.3</ele>
        <time>2021-10-06T14:20:09Z</time>
      </trkpt>
      <trkpt lat="43.25166" lon="5.68796">
        <ele>384.4</ele>
        <time>2021-10-06T14:20:15Z</time>
      </trkpt>
      <trkpt lat="43.2517" lon="5.68791">
        <ele>384.7</ele>
        <time>2021-10-06T14:20:23Z</time>
      </trkpt>
      <trkpt lat="43.25175" lon="5.68787">
        <ele>384.9</ele>
        <time>2021-10-06T14:20:33Z</time>
      </trkpt>
      <trkpt lat="43.25176" lon="5.6878">
        <ele>386</ele>
        <time>2021-10-06T14:20:39Z</time>
      </trkpt>
      <trkpt lat="43.25173" lon="5.68776">
        <ele>387.1</ele>
        <time>2021-10-06T14:21:05Z</time>
      </trkpt>
      <trkpt lat="43.25168" lon="5.68777">
        <ele>387.3</ele>
        <time>2021-10-06T14:21:25Z</time>
      </trkpt>
      <trkpt lat="43.25167" lon="5.68784">
        <ele>386.2</ele>
        <time>2021-10-06T14:21:55Z</time>
      </trkpt>
      <trkpt lat="43.25171" lon="5.68788">
        <ele>385.2</ele>
        <time>2021-10-06T14:23:05Z</time>
      </trkpt>
      <trkpt lat="43.25167" lon="5.68782">
        <ele>386.5</ele>
        <time>2021-10-06T14:25:59Z</time>
      </trkpt>
      <trkpt lat="43.25162" lon="5.68782">
        <ele>387.6</ele>
        <time>2021-10-06T14:26:05Z</time>
      </trkpt>
      <trkpt lat="43.25157" lon="5.68782">
        <ele>388.7</ele>
        <time>2021-10-06T14:26:09Z</time>
      </trkpt>
      <trkpt lat="43.25151" lon="5.68783">
        <ele>389.6</ele>
        <time>2021-10-06T14:26:15Z</time>
      </trkpt>
      <trkpt lat="43.25145" lon="5.68785">
        <ele>390.4</ele>
        <time>2021-10-06T14:26:23Z</time>
      </trkpt>
      <trkpt lat="43.25139" lon="5.68789">
        <ele>390.8</ele>
        <time>2021-10-06T14:26:29Z</time>
      </trkpt>
      <trkpt lat="43.25135" lon="5.68791">
        <ele>391.2</ele>
        <time>2021-10-06T14:26:33Z</time>
      </trkpt>
      <trkpt lat="43.25129" lon="5.68794">
        <ele>391.6</ele>
        <time>2021-10-06T14:26:39Z</time>
      </trkpt>
      <trkpt lat="43.25125" lon="5.68796">
        <ele>392.1</ele>
        <time>2021-10-06T14:26:43Z</time>
      </trkpt>
      <trkpt lat="43.2512" lon="5.68798">
        <ele>392.7</ele>
        <time>2021-10-06T14:26:47Z</time>
      </trkpt>
      <trkpt lat="43.25115" lon="5.68799">
        <ele>393.3</ele>
        <time>2021-10-06T14:26:51Z</time>
      </trkpt>
      <trkpt lat="43.25111" lon="5.68801">
        <ele>393.6</ele>
        <time>2021-10-06T14:26:55Z</time>
      </trkpt>
      <trkpt lat="43.25107" lon="5.68804">
        <ele>393.7</ele>
        <time>2021-10-06T14:26:59Z</time>
      </trkpt>
      <trkpt lat="43.25101" lon="5.68808">
        <ele>394</ele>
        <time>2021-10-06T14:27:05Z</time>
      </trkpt>
      <trkpt lat="43.25096" lon="5.68809">
        <ele>394.6</ele>
        <time>2021-10-06T14:27:11Z</time>
      </trkpt>
      <trkpt lat="43.2509" lon="5.68812">
        <ele>394.9</ele>
        <time>2021-10-06T14:27:17Z</time>
      </trkpt>
      <trkpt lat="43.25084" lon="5.68813">
        <ele>395.7</ele>
        <time>2021-10-06T14:27:23Z</time>
      </trkpt>
      <trkpt lat="43.2508" lon="5.68815">
        <ele>396.3</ele>
        <time>2021-10-06T14:27:29Z</time>
      </trkpt>
      <trkpt lat="43.25074" lon="5.68814">
        <ele>397.7</ele>
        <time>2021-10-06T14:27:35Z</time>
      </trkpt>
      <trkpt lat="43.25067" lon="5.68816">
        <ele>398.4</ele>
        <time>2021-10-06T14:27:41Z</time>
      </trkpt>
      <trkpt lat="43.25061" lon="5.68817">
        <ele>399.5</ele>
        <time>2021-10-06T14:27:47Z</time>
      </trkpt>
      <trkpt lat="43.25056" lon="5.68818">
        <ele>400.3</ele>
        <time>2021-10-06T14:27:53Z</time>
      </trkpt>
      <trkpt lat="43.25051" lon="5.68819">
        <ele>401</ele>
        <time>2021-10-06T14:27:59Z</time>
      </trkpt>
      <trkpt lat="43.25045" lon="5.68822">
        <ele>401.6</ele>
        <time>2021-10-06T14:28:05Z</time>
      </trkpt>
      <trkpt lat="43.2504" lon="5.68824">
        <ele>402</ele>
        <time>2021-10-06T14:28:11Z</time>
      </trkpt>
      <trkpt lat="43.25034" lon="5.68826">
        <ele>402.6</ele>
        <time>2021-10-06T14:28:17Z</time>
      </trkpt>
      <trkpt lat="43.25028" lon="5.68829">
        <ele>402.8</ele>
        <time>2021-10-06T14:28:23Z</time>
      </trkpt>
      <trkpt lat="43.25024" lon="5.68832">
        <ele>402.9</ele>
        <time>2021-10-06T14:28:29Z</time>
      </trkpt>
      <trkpt lat="43.25019" lon="5.68836">
        <ele>402.5</ele>
        <time>2021-10-06T14:28:35Z</time>
      </trkpt>
      <trkpt lat="43.25014" lon="5.6884">
        <ele>402.3</ele>
        <time>2021-10-06T14:28:41Z</time>
      </trkpt>
      <trkpt lat="43.2501" lon="5.68842">
        <ele>402.6</ele>
        <time>2021-10-06T14:28:45Z</time>
      </trkpt>
      <trkpt lat="43.25005" lon="5.68845">
        <ele>402.5</ele>
        <time>2021-10-06T14:28:49Z</time>
      </trkpt>
      <trkpt lat="43.25001" lon="5.68848">
        <ele>402.3</ele>
        <time>2021-10-06T14:28:53Z</time>
      </trkpt>
      <trkpt lat="43.24996" lon="5.6885">
        <ele>402.9</ele>
        <time>2021-10-06T14:28:59Z</time>
      </trkpt>
      <trkpt lat="43.24991" lon="5.68853">
        <ele>403.5</ele>
        <time>2021-10-06T14:29:05Z</time>
      </trkpt>
      <trkpt lat="43.24986" lon="5.68856">
        <ele>403.8</ele>
        <time>2021-10-06T14:29:11Z</time>
      </trkpt>
      <trkpt lat="43.2498" lon="5.68859">
        <ele>404</ele>
        <time>2021-10-06T14:29:17Z</time>
      </trkpt>
      <trkpt lat="43.24975" lon="5.68862">
        <ele>404.3</ele>
        <time>2021-10-06T14:29:21Z</time>
      </trkpt>
      <trkpt lat="43.24971" lon="5.68865">
        <ele>404.4</ele>
        <time>2021-10-06T14:29:25Z</time>
      </trkpt>
      <trkpt lat="43.24965" lon="5.68869">
        <ele>404.3</ele>
        <time>2021-10-06T14:29:31Z</time>
      </trkpt>
      <trkpt lat="43.24959" lon="5.68872">
        <ele>404.8</ele>
        <time>2021-10-06T14:29:37Z</time>
      </trkpt>
      <trkpt lat="43.24953" lon="5.68873">
        <ele>405.4</ele>
        <time>2021-10-06T14:29:43Z</time>
      </trkpt>
      <trkpt lat="43.24949" lon="5.68874">
        <ele>406.1</ele>
        <time>2021-10-06T14:29:47Z</time>
      </trkpt>
      <trkpt lat="43.24943" lon="5.68876">
        <ele>406.6</ele>
        <time>2021-10-06T14:29:53Z</time>
      </trkpt>
      <trkpt lat="43.24938" lon="5.68879">
        <ele>407</ele>
        <time>2021-10-06T14:29:59Z</time>
      </trkpt>
      <trkpt lat="43.24933" lon="5.6888">
        <ele>407.4</ele>
        <time>2021-10-06T14:30:05Z</time>
      </trkpt>
      <trkpt lat="43.24927" lon="5.68883">
        <ele>407.8</ele>
        <time>2021-10-06T14:30:11Z</time>
      </trkpt>
      <trkpt lat="43.24921" lon="5.68885">
        <ele>408.3</ele>
        <time>2021-10-06T14:30:17Z</time>
      </trkpt>
      <trkpt lat="43.24916" lon="5.68887">
        <ele>408.6</ele>
        <time>2021-10-06T14:30:21Z</time>
      </trkpt>
      <trkpt lat="43.2491" lon="5.68887">
        <ele>409.1</ele>
        <time>2021-10-06T14:30:27Z</time>
      </trkpt>
      <trkpt lat="43.24906" lon="5.68888">
        <ele>409.2</ele>
        <time>2021-10-06T14:30:33Z</time>
      </trkpt>
      <trkpt lat="43.24901" lon="5.68889">
        <ele>409.1</ele>
        <time>2021-10-06T14:30:39Z</time>
      </trkpt>
      <trkpt lat="43.24895" lon="5.68889">
        <ele>409.7</ele>
        <time>2021-10-06T14:30:45Z</time>
      </trkpt>
      <trkpt lat="43.24891" lon="5.68889">
        <ele>410</ele>
        <time>2021-10-06T14:30:51Z</time>
      </trkpt>
      <trkpt lat="43.24885" lon="5.68891">
        <ele>410.2</ele>
        <time>2021-10-06T14:30:57Z</time>
      </trkpt>
      <trkpt lat="43.24878" lon="5.68893">
        <ele>410.2</ele>
        <time>2021-10-06T14:31:03Z</time>
      </trkpt>
      <trkpt lat="43.24872" lon="5.68896">
        <ele>409.9</ele>
        <time>2021-10-06T14:31:11Z</time>
      </trkpt>
      <trkpt lat="43.24868" lon="5.68896">
        <ele>410.4</ele>
        <time>2021-10-06T14:31:17Z</time>
      </trkpt>
      <trkpt lat="43.24862" lon="5.68899">
        <ele>410.3</ele>
        <time>2021-10-06T14:31:23Z</time>
      </trkpt>
      <trkpt lat="43.24859" lon="5.68903">
        <ele>409.4</ele>
        <time>2021-10-06T14:31:27Z</time>
      </trkpt>
      <trkpt lat="43.24856" lon="5.68909">
        <ele>408.5</ele>
        <time>2021-10-06T14:31:31Z</time>
      </trkpt>
      <trkpt lat="43.24852" lon="5.68915">
        <ele>407.5</ele>
        <time>2021-10-06T14:31:37Z</time>
      </trkpt>
      <trkpt lat="43.24848" lon="5.6892">
        <ele>406.7</ele>
        <time>2021-10-06T14:31:43Z</time>
      </trkpt>
      <trkpt lat="43.24843" lon="5.68924">
        <ele>406</ele>
        <time>2021-10-06T14:31:49Z</time>
      </trkpt>
      <trkpt lat="43.24838" lon="5.68928">
        <ele>405.4</ele>
        <time>2021-10-06T14:31:55Z</time>
      </trkpt>
      <trkpt lat="43.24833" lon="5.68933">
        <ele>404.3</ele>
        <time>2021-10-06T14:32:01Z</time>
      </trkpt>
      <trkpt lat="43.24829" lon="5.68937">
        <ele>403.1</ele>
        <time>2021-10-06T14:32:05Z</time>
      </trkpt>
      <trkpt lat="43.24824" lon="5.68939">
        <ele>402.3</ele>
        <time>2021-10-06T14:32:09Z</time>
      </trkpt>
      <trkpt lat="43.2482" lon="5.68942">
        <ele>401.2</ele>
        <time>2021-10-06T14:32:13Z</time>
      </trkpt>
      <trkpt lat="43.24815" lon="5.68945">
        <ele>400.2</ele>
        <time>2021-10-06T14:32:17Z</time>
      </trkpt>
      <trkpt lat="43.2481" lon="5.68946">
        <ele>399.6</ele>
        <time>2021-10-06T14:32:21Z</time>
      </trkpt>
      <trkpt lat="43.24805" lon="5.68946">
        <ele>399.4</ele>
        <time>2021-10-06T14:32:25Z</time>
      </trkpt>
      <trkpt lat="43.24799" lon="5.68947">
        <ele>399.2</ele>
        <time>2021-10-06T14:32:31Z</time>
      </trkpt>
      <trkpt lat="43.24793" lon="5.68947">
        <ele>399</ele>
        <time>2021-10-06T14:32:37Z</time>
      </trkpt>
      <trkpt lat="43.24787" lon="5.68946">
        <ele>399.1</ele>
        <time>2021-10-06T14:32:43Z</time>
      </trkpt>
      <trkpt lat="43.24782" lon="5.68942">
        <ele>400</ele>
        <time>2021-10-06T14:32:49Z</time>
      </trkpt>
      <trkpt lat="43.24778" lon="5.68938">
        <ele>401.1</ele>
        <time>2021-10-06T14:32:55Z</time>
      </trkpt>
      <trkpt lat="43.24775" lon="5.68932">
        <ele>402.4</ele>
        <time>2021-10-06T14:33:01Z</time>
      </trkpt>
      <trkpt lat="43.24771" lon="5.68926">
        <ele>403.8</ele>
        <time>2021-10-06T14:33:07Z</time>
      </trkpt>
      <trkpt lat="43.24766" lon="5.68921">
        <ele>405</ele>
        <time>2021-10-06T14:33:13Z</time>
      </trkpt>
      <trkpt lat="43.24761" lon="5.68915">
        <ele>405.8</ele>
        <time>2021-10-06T14:33:19Z</time>
      </trkpt>
      <trkpt lat="43.24757" lon="5.6891">
        <ele>406.1</ele>
        <time>2021-10-06T14:33:25Z</time>
      </trkpt>
      <trkpt lat="43.24752" lon="5.68905">
        <ele>406.4</ele>
        <time>2021-10-06T14:33:31Z</time>
      </trkpt>
      <trkpt lat="43.24746" lon="5.689">
        <ele>406.3</ele>
        <time>2021-10-06T14:33:37Z</time>
      </trkpt>
      <trkpt lat="43.24742" lon="5.68895">
        <ele>406.3</ele>
        <time>2021-10-06T14:33:43Z</time>
      </trkpt>
      <trkpt lat="43.24738" lon="5.6889">
        <ele>406.3</ele>
        <time>2021-10-06T14:33:49Z</time>
      </trkpt>
      <trkpt lat="43.24734" lon="5.68884">
        <ele>406.4</ele>
        <time>2021-10-06T14:33:55Z</time>
      </trkpt>
      <trkpt lat="43.24729" lon="5.6888">
        <ele>406.2</ele>
        <time>2021-10-06T14:34:01Z</time>
      </trkpt>
      <trkpt lat="43.24725" lon="5.68875">
        <ele>406.1</ele>
        <time>2021-10-06T14:34:07Z</time>
      </trkpt>
      <trkpt lat="43.24723" lon="5.68868">
        <ele>406.7</ele>
        <time>2021-10-06T14:34:17Z</time>
      </trkpt>
      <trkpt lat="43.24727" lon="5.68862">
        <ele>407.8</ele>
        <time>2021-10-06T14:34:27Z</time>
      </trkpt>
      <trkpt lat="43.2473" lon="5.68856">
        <ele>408.9</ele>
        <time>2021-10-06T14:34:35Z</time>
      </trkpt>
      <trkpt lat="43.24732" lon="5.68849">
        <ele>409.8</ele>
        <time>2021-10-06T14:34:43Z</time>
      </trkpt>
      <trkpt lat="43.24734" lon="5.68843">
        <ele>410.6</ele>
        <time>2021-10-06T14:34:49Z</time>
      </trkpt>
      <trkpt lat="43.24738" lon="5.68838">
        <ele>411.8</ele>
        <time>2021-10-06T14:34:57Z</time>
      </trkpt>
      <trkpt lat="43.24742" lon="5.68834">
        <ele>412.7</ele>
        <time>2021-10-06T14:35:05Z</time>
      </trkpt>
      <trkpt lat="43.24746" lon="5.68829">
        <ele>413.7</ele>
        <time>2021-10-06T14:35:13Z</time>
      </trkpt>
      <trkpt lat="43.24749" lon="5.68824">
        <ele>414.5</ele>
        <time>2021-10-06T14:35:19Z</time>
      </trkpt>
      <trkpt lat="43.24753" lon="5.6882">
        <ele>415.4</ele>
        <time>2021-10-06T14:35:27Z</time>
      </trkpt>
      <trkpt lat="43.24756" lon="5.68814">
        <ele>416.3</ele>
        <time>2021-10-06T14:35:35Z</time>
      </trkpt>
      <trkpt lat="43.24758" lon="5.68808">
        <ele>417.1</ele>
        <time>2021-10-06T14:35:49Z</time>
      </trkpt>
      <trkpt lat="43.24762" lon="5.68804">
        <ele>418</ele>
        <time>2021-10-06T14:35:59Z</time>
      </trkpt>
      <trkpt lat="43.24767" lon="5.688">
        <ele>419.1</ele>
        <time>2021-10-06T14:36:09Z</time>
      </trkpt>
      <trkpt lat="43.24772" lon="5.68799">
        <ele>419.9</ele>
        <time>2021-10-06T14:36:17Z</time>
      </trkpt>
      <trkpt lat="43.24778" lon="5.68798">
        <ele>420.8</ele>
        <time>2021-10-06T14:36:25Z</time>
      </trkpt>
      <trkpt lat="43.24782" lon="5.68797">
        <ele>421.6</ele>
        <time>2021-10-06T14:36:33Z</time>
      </trkpt>
      <trkpt lat="43.24788" lon="5.68795">
        <ele>422.7</ele>
        <time>2021-10-06T14:36:43Z</time>
      </trkpt>
      <trkpt lat="43.24793" lon="5.68794">
        <ele>423.5</ele>
        <time>2021-10-06T14:36:51Z</time>
      </trkpt>
      <trkpt lat="43.24798" lon="5.68793">
        <ele>424.4</ele>
        <time>2021-10-06T14:36:59Z</time>
      </trkpt>
      <trkpt lat="43.24803" lon="5.68791">
        <ele>425.3</ele>
        <time>2021-10-06T14:37:05Z</time>
      </trkpt>
      <trkpt lat="43.24808" lon="5.68791">
        <ele>426.1</ele>
        <time>2021-10-06T14:37:13Z</time>
      </trkpt>
      <trkpt lat="43.24813" lon="5.68791">
        <ele>426.9</ele>
        <time>2021-10-06T14:37:21Z</time>
      </trkpt>
      <trkpt lat="43.24818" lon="5.6879">
        <ele>427.8</ele>
        <time>2021-10-06T14:37:31Z</time>
      </trkpt>
      <trkpt lat="43.24823" lon="5.68789">
        <ele>428.6</ele>
        <time>2021-10-06T14:37:39Z</time>
      </trkpt>
      <trkpt lat="43.24828" lon="5.68787">
        <ele>429.5</ele>
        <time>2021-10-06T14:37:45Z</time>
      </trkpt>
      <trkpt lat="43.24832" lon="5.68785">
        <ele>430.3</ele>
        <time>2021-10-06T14:37:51Z</time>
      </trkpt>
      <trkpt lat="43.24838" lon="5.68785">
        <ele>430.9</ele>
        <time>2021-10-06T14:38:01Z</time>
      </trkpt>
      <trkpt lat="43.24843" lon="5.68781">
        <ele>431.6</ele>
        <time>2021-10-06T14:38:09Z</time>
      </trkpt>
      <trkpt lat="43.24848" lon="5.68778">
        <ele>432.4</ele>
        <time>2021-10-06T14:38:17Z</time>
      </trkpt>
      <trkpt lat="43.24854" lon="5.68777">
        <ele>433.1</ele>
        <time>2021-10-06T14:38:25Z</time>
      </trkpt>
      <trkpt lat="43.24859" lon="5.68772">
        <ele>434</ele>
        <time>2021-10-06T14:38:31Z</time>
      </trkpt>
      <trkpt lat="43.24862" lon="5.68767">
        <ele>434.9</ele>
        <time>2021-10-06T14:38:39Z</time>
      </trkpt>
      <trkpt lat="43.24866" lon="5.68763">
        <ele>435.8</ele>
        <time>2021-10-06T14:38:45Z</time>
      </trkpt>
      <trkpt lat="43.2487" lon="5.68759">
        <ele>436.7</ele>
        <time>2021-10-06T14:38:51Z</time>
      </trkpt>
      <trkpt lat="43.24875" lon="5.68756">
        <ele>437.8</ele>
        <time>2021-10-06T14:38:59Z</time>
      </trkpt>
      <trkpt lat="43.24879" lon="5.68753">
        <ele>438.7</ele>
        <time>2021-10-06T14:39:05Z</time>
      </trkpt>
      <trkpt lat="43.24884" lon="5.68749">
        <ele>439.8</ele>
        <time>2021-10-06T14:39:13Z</time>
      </trkpt>
      <trkpt lat="43.24889" lon="5.68747">
        <ele>440.5</ele>
        <time>2021-10-06T14:39:21Z</time>
      </trkpt>
      <trkpt lat="43.24894" lon="5.68744">
        <ele>441.2</ele>
        <time>2021-10-06T14:39:27Z</time>
      </trkpt>
      <trkpt lat="43.24898" lon="5.68742">
        <ele>441.9</ele>
        <time>2021-10-06T14:39:33Z</time>
      </trkpt>
      <trkpt lat="43.24903" lon="5.68739">
        <ele>442.7</ele>
        <time>2021-10-06T14:39:39Z</time>
      </trkpt>
      <trkpt lat="43.24908" lon="5.68735">
        <ele>443.5</ele>
        <time>2021-10-06T14:39:45Z</time>
      </trkpt>
      <trkpt lat="43.24912" lon="5.6873">
        <ele>444.3</ele>
        <time>2021-10-06T14:39:51Z</time>
      </trkpt>
      <trkpt lat="43.24916" lon="5.68724">
        <ele>445.2</ele>
        <time>2021-10-06T14:39:57Z</time>
      </trkpt>
      <trkpt lat="43.2492" lon="5.6872">
        <ele>445.3</ele>
        <time>2021-10-06T14:40:03Z</time>
      </trkpt>
      <trkpt lat="43.24923" lon="5.68715">
        <ele>445.5</ele>
        <time>2021-10-06T14:40:09Z</time>
      </trkpt>
      <trkpt lat="43.24927" lon="5.68708">
        <ele>445.9</ele>
        <time>2021-10-06T14:40:17Z</time>
      </trkpt>
      <trkpt lat="43.24931" lon="5.68702">
        <ele>446.4</ele>
        <time>2021-10-06T14:40:23Z</time>
      </trkpt>
      <trkpt lat="43.24935" lon="5.68697">
        <ele>446.9</ele>
        <time>2021-10-06T14:40:29Z</time>
      </trkpt>
      <trkpt lat="43.24939" lon="5.68691">
        <ele>447.6</ele>
        <time>2021-10-06T14:40:35Z</time>
      </trkpt>
      <trkpt lat="43.24943" lon="5.68685">
        <ele>448.4</ele>
        <time>2021-10-06T14:40:41Z</time>
      </trkpt>
      <trkpt lat="43.24946" lon="5.68681">
        <ele>449.1</ele>
        <time>2021-10-06T14:40:47Z</time>
      </trkpt>
      <trkpt lat="43.24951" lon="5.68675">
        <ele>450.2</ele>
        <time>2021-10-06T14:40:55Z</time>
      </trkpt>
      <trkpt lat="43.24954" lon="5.68669">
        <ele>451.2</ele>
        <time>2021-10-06T14:41:01Z</time>
      </trkpt>
      <trkpt lat="43.24957" lon="5.68664">
        <ele>452</ele>
        <time>2021-10-06T14:41:07Z</time>
      </trkpt>
      <trkpt lat="43.2496" lon="5.68657">
        <ele>452.5</ele>
        <time>2021-10-06T14:41:13Z</time>
      </trkpt>
      <trkpt lat="43.24963" lon="5.68649">
        <ele>453.2</ele>
        <time>2021-10-06T14:41:19Z</time>
      </trkpt>
      <trkpt lat="43.24964" lon="5.68641">
        <ele>453.7</ele>
        <time>2021-10-06T14:41:25Z</time>
      </trkpt>
      <trkpt lat="43.24967" lon="5.68635">
        <ele>454.3</ele>
        <time>2021-10-06T14:41:31Z</time>
      </trkpt>
      <trkpt lat="43.2497" lon="5.68628">
        <ele>455.1</ele>
        <time>2021-10-06T14:41:39Z</time>
      </trkpt>
      <trkpt lat="43.24974" lon="5.68623">
        <ele>455.8</ele>
        <time>2021-10-06T14:41:45Z</time>
      </trkpt>
      <trkpt lat="43.24977" lon="5.68618">
        <ele>456.6</ele>
        <time>2021-10-06T14:41:51Z</time>
      </trkpt>
      <trkpt lat="43.2498" lon="5.68613">
        <ele>457.3</ele>
        <time>2021-10-06T14:41:57Z</time>
      </trkpt>
      <trkpt lat="43.24983" lon="5.68607">
        <ele>458.3</ele>
        <time>2021-10-06T14:42:05Z</time>
      </trkpt>
      <trkpt lat="43.24986" lon="5.68602">
        <ele>459.1</ele>
        <time>2021-10-06T14:42:11Z</time>
      </trkpt>
      <trkpt lat="43.2499" lon="5.68598">
        <ele>460</ele>
        <time>2021-10-06T14:42:17Z</time>
      </trkpt>
      <trkpt lat="43.24994" lon="5.68593">
        <ele>461</ele>
        <time>2021-10-06T14:42:23Z</time>
      </trkpt>
      <trkpt lat="43.24997" lon="5.68588">
        <ele>462.1</ele>
        <time>2021-10-06T14:42:29Z</time>
      </trkpt>
      <trkpt lat="43.25" lon="5.68583">
        <ele>463</ele>
        <time>2021-10-06T14:42:35Z</time>
      </trkpt>
      <trkpt lat="43.25003" lon="5.68577">
        <ele>462.9</ele>
        <time>2021-10-06T14:42:41Z</time>
      </trkpt>
      <trkpt lat="43.25006" lon="5.68572">
        <ele>462.9</ele>
        <time>2021-10-06T14:42:47Z</time>
      </trkpt>
      <trkpt lat="43.25008" lon="5.68565">
        <ele>462.9</ele>
        <time>2021-10-06T14:42:53Z</time>
      </trkpt>
      <trkpt lat="43.25009" lon="5.6856">
        <ele>462.9</ele>
        <time>2021-10-06T14:42:59Z</time>
      </trkpt>
      <trkpt lat="43.25011" lon="5.68554">
        <ele>463</ele>
        <time>2021-10-06T14:43:05Z</time>
      </trkpt>
      <trkpt lat="43.25014" lon="5.68548">
        <ele>463</ele>
        <time>2021-10-06T14:43:11Z</time>
      </trkpt>
      <trkpt lat="43.25016" lon="5.68541">
        <ele>463</ele>
        <time>2021-10-06T14:43:17Z</time>
      </trkpt>
      <trkpt lat="43.25017" lon="5.68533">
        <ele>463.2</ele>
        <time>2021-10-06T14:43:23Z</time>
      </trkpt>
      <trkpt lat="43.25017" lon="5.68527">
        <ele>463.3</ele>
        <time>2021-10-06T14:43:29Z</time>
      </trkpt>
      <trkpt lat="43.2502" lon="5.68521">
        <ele>463.3</ele>
        <time>2021-10-06T14:43:39Z</time>
      </trkpt>
      <trkpt lat="43.25026" lon="5.68517">
        <ele>463.3</ele>
        <time>2021-10-06T14:43:47Z</time>
      </trkpt>
      <trkpt lat="43.2503" lon="5.68512">
        <ele>463.3</ele>
        <time>2021-10-06T14:43:53Z</time>
      </trkpt>
      <trkpt lat="43.25035" lon="5.68507">
        <ele>463.4</ele>
        <time>2021-10-06T14:44:01Z</time>
      </trkpt>
      <trkpt lat="43.25038" lon="5.68501">
        <ele>463.5</ele>
        <time>2021-10-06T14:44:07Z</time>
      </trkpt>
      <trkpt lat="43.2504" lon="5.68495">
        <ele>463.3</ele>
        <time>2021-10-06T14:44:13Z</time>
      </trkpt>
      <trkpt lat="43.25043" lon="5.68488">
        <ele>463</ele>
        <time>2021-10-06T14:44:19Z</time>
      </trkpt>
      <trkpt lat="43.25045" lon="5.6848">
        <ele>462.5</ele>
        <time>2021-10-06T14:44:25Z</time>
      </trkpt>
      <trkpt lat="43.25046" lon="5.68472">
        <ele>462.1</ele>
        <time>2021-10-06T14:44:31Z</time>
      </trkpt>
      <trkpt lat="43.25046" lon="5.68464">
        <ele>461.7</ele>
        <time>2021-10-06T14:44:37Z</time>
      </trkpt>
      <trkpt lat="43.25046" lon="5.68457">
        <ele>461.4</ele>
        <time>2021-10-06T14:44:45Z</time>
      </trkpt>
      <trkpt lat="43.2505" lon="5.68453">
        <ele>460.8</ele>
        <time>2021-10-06T14:44:55Z</time>
      </trkpt>
      <trkpt lat="43.25045" lon="5.68449">
        <ele>461.1</ele>
        <time>2021-10-06T14:45:15Z</time>
      </trkpt>
      <trkpt lat="43.25041" lon="5.68445">
        <ele>461.2</ele>
        <time>2021-10-06T14:45:21Z</time>
      </trkpt>
      <trkpt lat="43.2504" lon="5.68438">
        <ele>461.1</ele>
        <time>2021-10-06T14:45:27Z</time>
      </trkpt>
      <trkpt lat="43.25039" lon="5.6843">
        <ele>460.9</ele>
        <time>2021-10-06T14:45:33Z</time>
      </trkpt>
      <trkpt lat="43.25038" lon="5.68422">
        <ele>460.7</ele>
        <time>2021-10-06T14:45:39Z</time>
      </trkpt>
      <trkpt lat="43.25036" lon="5.68414">
        <ele>460.7</ele>
        <time>2021-10-06T14:45:45Z</time>
      </trkpt>
      <trkpt lat="43.25035" lon="5.68407">
        <ele>460.9</ele>
        <time>2021-10-06T14:45:51Z</time>
      </trkpt>
      <trkpt lat="43.25035" lon="5.68401">
        <ele>461</ele>
        <time>2021-10-06T14:45:57Z</time>
      </trkpt>
      <trkpt lat="43.25034" lon="5.68394">
        <ele>461.3</ele>
        <time>2021-10-06T14:46:03Z</time>
      </trkpt>
      <trkpt lat="43.2503" lon="5.68386">
        <ele>462</ele>
        <time>2021-10-06T14:46:09Z</time>
      </trkpt>
      <trkpt lat="43.25028" lon="5.6838">
        <ele>462.6</ele>
        <time>2021-10-06T14:46:15Z</time>
      </trkpt>
      <trkpt lat="43.25025" lon="5.68373">
        <ele>463.4</ele>
        <time>2021-10-06T14:46:21Z</time>
      </trkpt>
      <trkpt lat="43.25023" lon="5.68366">
        <ele>464.1</ele>
        <time>2021-10-06T14:46:27Z</time>
      </trkpt>
      <trkpt lat="43.2502" lon="5.68358">
        <ele>465.1</ele>
        <time>2021-10-06T14:46:33Z</time>
      </trkpt>
      <trkpt lat="43.25017" lon="5.68351">
        <ele>466.1</ele>
        <time>2021-10-06T14:46:39Z</time>
      </trkpt>
      <trkpt lat="43.25015" lon="5.68345">
        <ele>466.8</ele>
        <time>2021-10-06T14:46:45Z</time>
      </trkpt>
      <trkpt lat="43.25014" lon="5.68338">
        <ele>467.4</ele>
        <time>2021-10-06T14:46:51Z</time>
      </trkpt>
      <trkpt lat="43.25013" lon="5.6833">
        <ele>467.8</ele>
        <time>2021-10-06T14:46:59Z</time>
      </trkpt>
      <trkpt lat="43.25012" lon="5.68324">
        <ele>467.5</ele>
        <time>2021-10-06T14:47:05Z</time>
      </trkpt>
      <trkpt lat="43.2501" lon="5.68317">
        <ele>467.7</ele>
        <time>2021-10-06T14:47:11Z</time>
      </trkpt>
      <trkpt lat="43.25007" lon="5.68311">
        <ele>468.4</ele>
        <time>2021-10-06T14:47:17Z</time>
      </trkpt>
      <trkpt lat="43.25003" lon="5.68306">
        <ele>469.7</ele>
        <time>2021-10-06T14:47:23Z</time>
      </trkpt>
      <trkpt lat="43.24997" lon="5.68303">
        <ele>470.2</ele>
        <time>2021-10-06T14:47:29Z</time>
      </trkpt>
      <trkpt lat="43.24991" lon="5.68299">
        <ele>469.4</ele>
        <time>2021-10-06T14:47:35Z</time>
      </trkpt>
      <trkpt lat="43.24985" lon="5.68296">
        <ele>468.7</ele>
        <time>2021-10-06T14:47:41Z</time>
      </trkpt>
      <trkpt lat="43.24979" lon="5.68292">
        <ele>467.9</ele>
        <time>2021-10-06T14:47:47Z</time>
      </trkpt>
      <trkpt lat="43.24974" lon="5.68289">
        <ele>467.2</ele>
        <time>2021-10-06T14:47:53Z</time>
      </trkpt>
      <trkpt lat="43.24969" lon="5.68286">
        <ele>466.7</ele>
        <time>2021-10-06T14:47:57Z</time>
      </trkpt>
      <trkpt lat="43.24965" lon="5.68282">
        <ele>466.1</ele>
        <time>2021-10-06T14:48:21Z</time>
      </trkpt>
      <trkpt lat="43.24962" lon="5.68278">
        <ele>465.7</ele>
        <time>2021-10-06T14:48:27Z</time>
      </trkpt>
      <trkpt lat="43.24958" lon="5.68275">
        <ele>465.2</ele>
        <time>2021-10-06T14:48:33Z</time>
      </trkpt>
      <trkpt lat="43.24955" lon="5.6827">
        <ele>464.8</ele>
        <time>2021-10-06T14:48:39Z</time>
      </trkpt>
      <trkpt lat="43.24951" lon="5.68266">
        <ele>464.3</ele>
        <time>2021-10-06T14:48:45Z</time>
      </trkpt>
      <trkpt lat="43.24946" lon="5.68262">
        <ele>463.8</ele>
        <time>2021-10-06T14:48:51Z</time>
      </trkpt>
      <trkpt lat="43.24941" lon="5.68262">
        <ele>463.3</ele>
        <time>2021-10-06T14:48:57Z</time>
      </trkpt>
      <trkpt lat="43.24936" lon="5.68262">
        <ele>462.9</ele>
        <time>2021-10-06T14:49:03Z</time>
      </trkpt>
      <trkpt lat="43.2493" lon="5.68259">
        <ele>462.3</ele>
        <time>2021-10-06T14:49:11Z</time>
      </trkpt>
      <trkpt lat="43.24925" lon="5.68256">
        <ele>461.8</ele>
        <time>2021-10-06T14:49:19Z</time>
      </trkpt>
      <trkpt lat="43.24921" lon="5.68252">
        <ele>461.4</ele>
        <time>2021-10-06T14:49:25Z</time>
      </trkpt>
      <trkpt lat="43.24916" lon="5.68249">
        <ele>460.8</ele>
        <time>2021-10-06T14:49:31Z</time>
      </trkpt>
      <trkpt lat="43.24911" lon="5.68247">
        <ele>459.5</ele>
        <time>2021-10-06T14:49:37Z</time>
      </trkpt>
      <trkpt lat="43.24907" lon="5.68242">
        <ele>458.1</ele>
        <time>2021-10-06T14:49:45Z</time>
      </trkpt>
      <trkpt lat="43.24902" lon="5.68239">
        <ele>456.9</ele>
        <time>2021-10-06T14:49:53Z</time>
      </trkpt>
      <trkpt lat="43.24897" lon="5.68236">
        <ele>455.7</ele>
        <time>2021-10-06T14:49:59Z</time>
      </trkpt>
      <trkpt lat="43.24893" lon="5.68233">
        <ele>454.5</ele>
        <time>2021-10-06T14:50:05Z</time>
      </trkpt>
      <trkpt lat="43.24887" lon="5.6823">
        <ele>453.3</ele>
        <time>2021-10-06T14:50:11Z</time>
      </trkpt>
      <trkpt lat="43.24882" lon="5.68229">
        <ele>452.4</ele>
        <time>2021-10-06T14:50:19Z</time>
      </trkpt>
      <trkpt lat="43.24878" lon="5.68227">
        <ele>451.4</ele>
        <time>2021-10-06T14:50:27Z</time>
      </trkpt>
      <trkpt lat="43.24873" lon="5.68223">
        <ele>450.2</ele>
        <time>2021-10-06T14:50:35Z</time>
      </trkpt>
      <trkpt lat="43.24868" lon="5.68219">
        <ele>449.1</ele>
        <time>2021-10-06T14:50:41Z</time>
      </trkpt>
      <trkpt lat="43.24863" lon="5.68214">
        <ele>448</ele>
        <time>2021-10-06T14:50:49Z</time>
      </trkpt>
      <trkpt lat="43.24859" lon="5.68208">
        <ele>446.8</ele>
        <time>2021-10-06T14:50:57Z</time>
      </trkpt>
      <trkpt lat="43.24854" lon="5.68205">
        <ele>445.9</ele>
        <time>2021-10-06T14:51:03Z</time>
      </trkpt>
      <trkpt lat="43.24849" lon="5.68204">
        <ele>445.2</ele>
        <time>2021-10-06T14:51:09Z</time>
      </trkpt>
      <trkpt lat="43.24844" lon="5.68204">
        <ele>444.6</ele>
        <time>2021-10-06T14:51:15Z</time>
      </trkpt>
      <trkpt lat="43.24839" lon="5.68201">
        <ele>443.8</ele>
        <time>2021-10-06T14:51:21Z</time>
      </trkpt>
      <trkpt lat="43.24834" lon="5.68198">
        <ele>442.9</ele>
        <time>2021-10-06T14:51:27Z</time>
      </trkpt>
      <trkpt lat="43.24829" lon="5.68196">
        <ele>442.4</ele>
        <time>2021-10-06T14:51:33Z</time>
      </trkpt>
      <trkpt lat="43.24824" lon="5.68194">
        <ele>441.8</ele>
        <time>2021-10-06T14:51:39Z</time>
      </trkpt>
      <trkpt lat="43.24818" lon="5.68191">
        <ele>441.1</ele>
        <time>2021-10-06T14:51:45Z</time>
      </trkpt>
      <trkpt lat="43.24813" lon="5.68187">
        <ele>440.6</ele>
        <time>2021-10-06T14:51:51Z</time>
      </trkpt>
      <trkpt lat="43.24808" lon="5.68182">
        <ele>440.2</ele>
        <time>2021-10-06T14:51:57Z</time>
      </trkpt>
      <trkpt lat="43.24803" lon="5.68181">
        <ele>439.8</ele>
        <time>2021-10-06T14:52:01Z</time>
      </trkpt>
      <trkpt lat="43.24797" lon="5.68179">
        <ele>439.4</ele>
        <time>2021-10-06T14:52:31Z</time>
      </trkpt>
      <trkpt lat="43.24793" lon="5.68175">
        <ele>439.1</ele>
        <time>2021-10-06T14:52:11Z</time>
      </trkpt>
      <trkpt lat="43.24788" lon="5.6817">
        <ele>438.8</ele>
        <time>2021-10-06T14:52:17Z</time>
      </trkpt>
      <trkpt lat="43.24783" lon="5.68167">
        <ele>438.6</ele>
        <time>2021-10-06T14:52:21Z</time>
      </trkpt>
      <trkpt lat="43.24777" lon="5.68164">
        <ele>438</ele>
        <time>2021-10-06T14:52:27Z</time>
      </trkpt>
      <trkpt lat="43.24772" lon="5.68161">
        <ele>437.5</ele>
        <time>2021-10-06T14:52:33Z</time>
      </trkpt>
      <trkpt lat="43.24767" lon="5.68159">
        <ele>437.1</ele>
        <time>2021-10-06T14:52:37Z</time>
      </trkpt>
      <trkpt lat="43.24763" lon="5.68156">
        <ele>436.8</ele>
        <time>2021-10-06T14:52:41Z</time>
      </trkpt>
      <trkpt lat="43.24756" lon="5.68154">
        <ele>436.5</ele>
        <time>2021-10-06T14:52:47Z</time>
      </trkpt>
      <trkpt lat="43.24751" lon="5.6815">
        <ele>436.2</ele>
        <time>2021-10-06T14:52:53Z</time>
      </trkpt>
      <trkpt lat="43.24747" lon="5.68146">
        <ele>436</ele>
        <time>2021-10-06T14:52:57Z</time>
      </trkpt>
      <trkpt lat="43.24741" lon="5.6814">
        <ele>435.8</ele>
        <time>2021-10-06T14:53:03Z</time>
      </trkpt>
      <trkpt lat="43.24736" lon="5.68135">
        <ele>435.6</ele>
        <time>2021-10-06T14:53:09Z</time>
      </trkpt>
      <trkpt lat="43.24732" lon="5.68131">
        <ele>435.4</ele>
        <time>2021-10-06T14:53:15Z</time>
      </trkpt>
      <trkpt lat="43.24728" lon="5.68127">
        <ele>435.3</ele>
        <time>2021-10-06T14:53:19Z</time>
      </trkpt>
      <trkpt lat="43.24723" lon="5.68124">
        <ele>435.3</ele>
        <time>2021-10-06T14:53:23Z</time>
      </trkpt>
      <trkpt lat="43.24718" lon="5.68123">
        <ele>435.3</ele>
        <time>2021-10-06T14:53:27Z</time>
      </trkpt>
      <trkpt lat="43.24712" lon="5.68121">
        <ele>435.3</ele>
        <time>2021-10-06T14:53:33Z</time>
      </trkpt>
      <trkpt lat="43.24707" lon="5.68121">
        <ele>435.4</ele>
        <time>2021-10-06T14:53:39Z</time>
      </trkpt>
      <trkpt lat="43.24702" lon="5.68118">
        <ele>435.4</ele>
        <time>2021-10-06T14:53:45Z</time>
      </trkpt>
      <trkpt lat="43.24697" lon="5.68116">
        <ele>435.5</ele>
        <time>2021-10-06T14:53:51Z</time>
      </trkpt>
      <trkpt lat="43.24691" lon="5.68115">
        <ele>435.6</ele>
        <time>2021-10-06T14:53:57Z</time>
      </trkpt>
      <trkpt lat="43.24685" lon="5.68113">
        <ele>435.7</ele>
        <time>2021-10-06T14:54:03Z</time>
      </trkpt>
      <trkpt lat="43.24679" lon="5.68109">
        <ele>435.7</ele>
        <time>2021-10-06T14:54:09Z</time>
      </trkpt>
      <trkpt lat="43.24674" lon="5.68104">
        <ele>435.8</ele>
        <time>2021-10-06T14:54:15Z</time>
      </trkpt>
      <trkpt lat="43.24669" lon="5.68102">
        <ele>435.9</ele>
        <time>2021-10-06T14:54:19Z</time>
      </trkpt>
      <trkpt lat="43.24663" lon="5.681">
        <ele>436.5</ele>
        <time>2021-10-06T14:54:25Z</time>
      </trkpt>
      <trkpt lat="43.24656" lon="5.681">
        <ele>437.3</ele>
        <time>2021-10-06T14:54:31Z</time>
      </trkpt>
      <trkpt lat="43.24651" lon="5.68098">
        <ele>438</ele>
        <time>2021-10-06T14:54:37Z</time>
      </trkpt>
      <trkpt lat="43.24646" lon="5.68097">
        <ele>438.7</ele>
        <time>2021-10-06T14:54:43Z</time>
      </trkpt>
      <trkpt lat="43.24641" lon="5.68095">
        <ele>439.5</ele>
        <time>2021-10-06T14:54:49Z</time>
      </trkpt>
      <trkpt lat="43.24635" lon="5.68095">
        <ele>440.2</ele>
        <time>2021-10-06T14:54:55Z</time>
      </trkpt>
      <trkpt lat="43.24631" lon="5.68095">
        <ele>440.8</ele>
        <time>2021-10-06T14:55:01Z</time>
      </trkpt>
      <trkpt lat="43.24625" lon="5.68095">
        <ele>441.6</ele>
        <time>2021-10-06T14:55:07Z</time>
      </trkpt>
      <trkpt lat="43.24619" lon="5.68096">
        <ele>442.4</ele>
        <time>2021-10-06T14:55:15Z</time>
      </trkpt>
      <trkpt lat="43.24614" lon="5.68094">
        <ele>443.1</ele>
        <time>2021-10-06T14:55:21Z</time>
      </trkpt>
      <trkpt lat="43.24608" lon="5.68094">
        <ele>443.9</ele>
        <time>2021-10-06T14:55:27Z</time>
      </trkpt>
      <trkpt lat="43.24603" lon="5.68095">
        <ele>444.5</ele>
        <time>2021-10-06T14:55:35Z</time>
      </trkpt>
      <trkpt lat="43.24598" lon="5.68094">
        <ele>445.3</ele>
        <time>2021-10-06T14:55:41Z</time>
      </trkpt>
      <trkpt lat="43.24592" lon="5.68092">
        <ele>446.1</ele>
        <time>2021-10-06T14:55:47Z</time>
      </trkpt>
      <trkpt lat="43.24587" lon="5.68091">
        <ele>446.9</ele>
        <time>2021-10-06T14:55:53Z</time>
      </trkpt>
      <trkpt lat="43.24581" lon="5.68091">
        <ele>447.7</ele>
        <time>2021-10-06T14:55:59Z</time>
      </trkpt>
      <trkpt lat="43.24575" lon="5.68091">
        <ele>448.2</ele>
        <time>2021-10-06T14:56:05Z</time>
      </trkpt>
      <trkpt lat="43.2457" lon="5.6809">
        <ele>448.6</ele>
        <time>2021-10-06T14:56:11Z</time>
      </trkpt>
      <trkpt lat="43.24565" lon="5.6809">
        <ele>449.1</ele>
        <time>2021-10-06T14:56:17Z</time>
      </trkpt>
      <trkpt lat="43.24559" lon="5.6809">
        <ele>449.6</ele>
        <time>2021-10-06T14:56:25Z</time>
      </trkpt>
      <trkpt lat="43.24554" lon="5.68091">
        <ele>449.9</ele>
        <time>2021-10-06T14:56:31Z</time>
      </trkpt>
      <trkpt lat="43.24549" lon="5.68091">
        <ele>450.4</ele>
        <time>2021-10-06T14:56:37Z</time>
      </trkpt>
      <trkpt lat="43.24543" lon="5.6809">
        <ele>450.9</ele>
        <time>2021-10-06T14:56:45Z</time>
      </trkpt>
      <trkpt lat="43.24543" lon="5.68083">
        <ele>451.3</ele>
        <time>2021-10-06T14:56:53Z</time>
      </trkpt>
      <trkpt lat="43.24539" lon="5.68082">
        <ele>451.7</ele>
        <time>2021-10-06T14:57:09Z</time>
      </trkpt>
      <trkpt lat="43.24536" lon="5.68088">
        <ele>451.7</ele>
        <time>2021-10-06T14:57:27Z</time>
      </trkpt>
      <trkpt lat="43.24539" lon="5.68083">
        <ele>451.7</ele>
        <time>2021-10-06T14:58:45Z</time>
      </trkpt>
      <trkpt lat="43.24535" lon="5.68086">
        <ele>451.9</ele>
        <time>2021-10-06T15:00:05Z</time>
      </trkpt>
      <trkpt lat="43.2453" lon="5.68089">
        <ele>452.1</ele>
        <time>2021-10-06T15:00:11Z</time>
      </trkpt>
      <trkpt lat="43.24525" lon="5.68088">
        <ele>452.6</ele>
        <time>2021-10-06T15:00:19Z</time>
      </trkpt>
      <trkpt lat="43.24519" lon="5.68086">
        <ele>453.2</ele>
        <time>2021-10-06T15:00:25Z</time>
      </trkpt>
      <trkpt lat="43.24515" lon="5.68081">
        <ele>453.7</ele>
        <time>2021-10-06T15:00:29Z</time>
      </trkpt>
      <trkpt lat="43.24512" lon="5.68077">
        <ele>453.9</ele>
        <time>2021-10-06T15:00:33Z</time>
      </trkpt>
      <trkpt lat="43.24508" lon="5.68072">
        <ele>454.3</ele>
        <time>2021-10-06T15:00:39Z</time>
      </trkpt>
      <trkpt lat="43.24504" lon="5.68067">
        <ele>454.7</ele>
        <time>2021-10-06T15:00:47Z</time>
      </trkpt>
      <trkpt lat="43.24501" lon="5.68061">
        <ele>455.2</ele>
        <time>2021-10-06T15:00:53Z</time>
      </trkpt>
      <trkpt lat="43.24497" lon="5.68054">
        <ele>455.3</ele>
        <time>2021-10-06T15:01:03Z</time>
      </trkpt>
      <trkpt lat="43.24493" lon="5.6805">
        <ele>455.3</ele>
        <time>2021-10-06T15:01:11Z</time>
      </trkpt>
      <trkpt lat="43.24487" lon="5.68048">
        <ele>455.3</ele>
        <time>2021-10-06T15:01:19Z</time>
      </trkpt>
      <trkpt lat="43.24482" lon="5.68046">
        <ele>455.2</ele>
        <time>2021-10-06T15:01:23Z</time>
      </trkpt>
      <trkpt lat="43.24477" lon="5.68044">
        <ele>455.2</ele>
        <time>2021-10-06T15:01:27Z</time>
      </trkpt>
      <trkpt lat="43.24472" lon="5.68041">
        <ele>455.2</ele>
        <time>2021-10-06T15:01:31Z</time>
      </trkpt>
      <trkpt lat="43.24468" lon="5.68038">
        <ele>455.2</ele>
        <time>2021-10-06T15:01:37Z</time>
      </trkpt>
      <trkpt lat="43.24465" lon="5.68031">
        <ele>455.2</ele>
        <time>2021-10-06T15:01:45Z</time>
      </trkpt>
      <trkpt lat="43.24463" lon="5.68024">
        <ele>455.3</ele>
        <time>2021-10-06T15:01:51Z</time>
      </trkpt>
      <trkpt lat="43.24462" lon="5.68015">
        <ele>455.4</ele>
        <time>2021-10-06T15:01:57Z</time>
      </trkpt>
      <trkpt lat="43.24461" lon="5.68009">
        <ele>455.4</ele>
        <time>2021-10-06T15:02:01Z</time>
      </trkpt>
      <trkpt lat="43.2446" lon="5.68001">
        <ele>455.5</ele>
        <time>2021-10-06T15:02:07Z</time>
      </trkpt>
      <trkpt lat="43.24458" lon="5.67993">
        <ele>455.2</ele>
        <time>2021-10-06T15:02:13Z</time>
      </trkpt>
      <trkpt lat="43.24455" lon="5.67985">
        <ele>455</ele>
        <time>2021-10-06T15:02:19Z</time>
      </trkpt>
      <trkpt lat="43.24453" lon="5.67978">
        <ele>454.7</ele>
        <time>2021-10-06T15:02:25Z</time>
      </trkpt>
      <trkpt lat="43.24451" lon="5.67971">
        <ele>454.6</ele>
        <time>2021-10-06T15:02:31Z</time>
      </trkpt>
      <trkpt lat="43.24448" lon="5.67965">
        <ele>454.4</ele>
        <time>2021-10-06T15:02:39Z</time>
      </trkpt>
      <trkpt lat="43.24447" lon="5.67959">
        <ele>454.3</ele>
        <time>2021-10-06T15:02:43Z</time>
      </trkpt>
      <trkpt lat="43.24444" lon="5.67952">
        <ele>454.2</ele>
        <time>2021-10-06T15:02:47Z</time>
      </trkpt>
      <trkpt lat="43.24441" lon="5.67946">
        <ele>454.2</ele>
        <time>2021-10-06T15:02:51Z</time>
      </trkpt>
      <trkpt lat="43.24439" lon="5.67941">
        <ele>454.2</ele>
        <time>2021-10-06T15:02:55Z</time>
      </trkpt>
      <trkpt lat="43.24435" lon="5.67934">
        <ele>454.2</ele>
        <time>2021-10-06T15:03:01Z</time>
      </trkpt>
      <trkpt lat="43.24431" lon="5.67929">
        <ele>454.3</ele>
        <time>2021-10-06T15:03:07Z</time>
      </trkpt>
      <trkpt lat="43.24428" lon="5.67924">
        <ele>454.4</ele>
        <time>2021-10-06T15:03:13Z</time>
      </trkpt>
      <trkpt lat="43.24424" lon="5.6792">
        <ele>454.6</ele>
        <time>2021-10-06T15:03:19Z</time>
      </trkpt>
      <trkpt lat="43.2442" lon="5.67914">
        <ele>454.8</ele>
        <time>2021-10-06T15:03:25Z</time>
      </trkpt>
      <trkpt lat="43.24416" lon="5.67911">
        <ele>454.9</ele>
        <time>2021-10-06T15:03:29Z</time>
      </trkpt>
      <trkpt lat="43.24412" lon="5.67906">
        <ele>454.6</ele>
        <time>2021-10-06T15:03:33Z</time>
      </trkpt>
      <trkpt lat="43.24409" lon="5.67898">
        <ele>454.3</ele>
        <time>2021-10-06T15:03:39Z</time>
      </trkpt>
      <trkpt lat="43.24407" lon="5.67893">
        <ele>454</ele>
        <time>2021-10-06T15:03:43Z</time>
      </trkpt>
      <trkpt lat="43.24404" lon="5.67886">
        <ele>453.7</ele>
        <time>2021-10-06T15:03:49Z</time>
      </trkpt>
      <trkpt lat="43.24402" lon="5.6788">
        <ele>453.5</ele>
        <time>2021-10-06T15:03:53Z</time>
      </trkpt>
      <trkpt lat="43.24399" lon="5.67874">
        <ele>453.2</ele>
        <time>2021-10-06T15:03:59Z</time>
      </trkpt>
      <trkpt lat="43.24395" lon="5.67868">
        <ele>452.9</ele>
        <time>2021-10-06T15:04:05Z</time>
      </trkpt>
      <trkpt lat="43.2439" lon="5.67862">
        <ele>452.4</ele>
        <time>2021-10-06T15:04:11Z</time>
      </trkpt>
      <trkpt lat="43.24385" lon="5.67859">
        <ele>452</ele>
        <time>2021-10-06T15:04:15Z</time>
      </trkpt>
      <trkpt lat="43.24379" lon="5.67856">
        <ele>451.6</ele>
        <time>2021-10-06T15:04:21Z</time>
      </trkpt>
      <trkpt lat="43.24373" lon="5.67855">
        <ele>451.1</ele>
        <time>2021-10-06T15:04:27Z</time>
      </trkpt>
      <trkpt lat="43.24367" lon="5.67852">
        <ele>450.7</ele>
        <time>2021-10-06T15:04:33Z</time>
      </trkpt>
      <trkpt lat="43.24363" lon="5.67848">
        <ele>450.3</ele>
        <time>2021-10-06T15:04:37Z</time>
      </trkpt>
      <trkpt lat="43.24359" lon="5.67845">
        <ele>450</ele>
        <time>2021-10-06T15:04:45Z</time>
      </trkpt>
      <trkpt lat="43.24354" lon="5.6784">
        <ele>449.6</ele>
        <time>2021-10-06T15:04:53Z</time>
      </trkpt>
      <trkpt lat="43.24351" lon="5.67834">
        <ele>449.2</ele>
        <time>2021-10-06T15:04:59Z</time>
      </trkpt>
      <trkpt lat="43.24347" lon="5.67826">
        <ele>448.8</ele>
        <time>2021-10-06T15:05:05Z</time>
      </trkpt>
      <trkpt lat="43.24344" lon="5.67821">
        <ele>448.5</ele>
        <time>2021-10-06T15:05:09Z</time>
      </trkpt>
      <trkpt lat="43.24339" lon="5.67816">
        <ele>448</ele>
        <time>2021-10-06T15:05:13Z</time>
      </trkpt>
      <trkpt lat="43.24334" lon="5.67811">
        <ele>447.5</ele>
        <time>2021-10-06T15:05:23Z</time>
      </trkpt>
      <trkpt lat="43.2433" lon="5.67808">
        <ele>447.2</ele>
        <time>2021-10-06T15:05:27Z</time>
      </trkpt>
      <trkpt lat="43.24326" lon="5.67805">
        <ele>446.8</ele>
        <time>2021-10-06T15:05:31Z</time>
      </trkpt>
      <trkpt lat="43.24321" lon="5.67799">
        <ele>446.4</ele>
        <time>2021-10-06T15:05:37Z</time>
      </trkpt>
      <trkpt lat="43.24316" lon="5.67794">
        <ele>446</ele>
        <time>2021-10-06T15:05:43Z</time>
      </trkpt>
      <trkpt lat="43.24311" lon="5.67791">
        <ele>445.7</ele>
        <time>2021-10-06T15:05:51Z</time>
      </trkpt>
      <trkpt lat="43.24305" lon="5.67786">
        <ele>445.2</ele>
        <time>2021-10-06T15:05:59Z</time>
      </trkpt>
      <trkpt lat="43.24301" lon="5.67784">
        <ele>444.9</ele>
        <time>2021-10-06T15:06:03Z</time>
      </trkpt>
      <trkpt lat="43.24296" lon="5.6778">
        <ele>444.6</ele>
        <time>2021-10-06T15:06:07Z</time>
      </trkpt>
      <trkpt lat="43.24292" lon="5.67776">
        <ele>444.3</ele>
        <time>2021-10-06T15:06:13Z</time>
      </trkpt>
      <trkpt lat="43.24288" lon="5.67771">
        <ele>444</ele>
        <time>2021-10-06T15:06:19Z</time>
      </trkpt>
      <trkpt lat="43.24285" lon="5.67765">
        <ele>443.8</ele>
        <time>2021-10-06T15:06:23Z</time>
      </trkpt>
      <trkpt lat="43.24282" lon="5.67759">
        <ele>443.6</ele>
        <time>2021-10-06T15:06:33Z</time>
      </trkpt>
      <trkpt lat="43.24278" lon="5.67756">
        <ele>443.4</ele>
        <time>2021-10-06T15:06:37Z</time>
      </trkpt>
      <trkpt lat="43.24273" lon="5.67754">
        <ele>443.1</ele>
        <time>2021-10-06T15:06:41Z</time>
      </trkpt>
      <trkpt lat="43.24268" lon="5.6775">
        <ele>442.9</ele>
        <time>2021-10-06T15:06:47Z</time>
      </trkpt>
      <trkpt lat="43.24263" lon="5.67745">
        <ele>442.5</ele>
        <time>2021-10-06T15:06:53Z</time>
      </trkpt>
      <trkpt lat="43.24258" lon="5.67744">
        <ele>442.2</ele>
        <time>2021-10-06T15:06:59Z</time>
      </trkpt>
      <trkpt lat="43.24251" lon="5.67744">
        <ele>441.9</ele>
        <time>2021-10-06T15:07:05Z</time>
      </trkpt>
      <trkpt lat="43.24247" lon="5.67739">
        <ele>441.4</ele>
        <time>2021-10-06T15:07:11Z</time>
      </trkpt>
      <trkpt lat="43.24243" lon="5.67733">
        <ele>440.9</ele>
        <time>2021-10-06T15:07:15Z</time>
      </trkpt>
      <trkpt lat="43.24239" lon="5.67727">
        <ele>440.4</ele>
        <time>2021-10-06T15:07:23Z</time>
      </trkpt>
      <trkpt lat="43.24234" lon="5.67723">
        <ele>439.9</ele>
        <time>2021-10-06T15:07:29Z</time>
      </trkpt>
      <trkpt lat="43.24231" lon="5.67716">
        <ele>439.4</ele>
        <time>2021-10-06T15:07:37Z</time>
      </trkpt>
      <trkpt lat="43.24226" lon="5.67712">
        <ele>438.9</ele>
        <time>2021-10-06T15:07:41Z</time>
      </trkpt>
      <trkpt lat="43.24221" lon="5.67707">
        <ele>438.4</ele>
        <time>2021-10-06T15:07:47Z</time>
      </trkpt>
      <trkpt lat="43.24216" lon="5.67702">
        <ele>437.8</ele>
        <time>2021-10-06T15:07:53Z</time>
      </trkpt>
      <trkpt lat="43.24213" lon="5.67698">
        <ele>437.3</ele>
        <time>2021-10-06T15:07:57Z</time>
      </trkpt>
      <trkpt lat="43.24208" lon="5.67692">
        <ele>436.7</ele>
        <time>2021-10-06T15:08:03Z</time>
      </trkpt>
      <trkpt lat="43.24204" lon="5.67688">
        <ele>436.2</ele>
        <time>2021-10-06T15:08:07Z</time>
      </trkpt>
      <trkpt lat="43.24201" lon="5.67683">
        <ele>435.7</ele>
        <time>2021-10-06T15:08:11Z</time>
      </trkpt>
      <trkpt lat="43.24197" lon="5.67677">
        <ele>435</ele>
        <time>2021-10-06T15:08:17Z</time>
      </trkpt>
      <trkpt lat="43.24193" lon="5.67673">
        <ele>434.5</ele>
        <time>2021-10-06T15:08:21Z</time>
      </trkpt>
      <trkpt lat="43.24187" lon="5.6767">
        <ele>433.9</ele>
        <time>2021-10-06T15:08:27Z</time>
      </trkpt>
      <trkpt lat="43.24183" lon="5.67667">
        <ele>433.4</ele>
        <time>2021-10-06T15:08:31Z</time>
      </trkpt>
      <trkpt lat="43.24178" lon="5.67664">
        <ele>432.9</ele>
        <time>2021-10-06T15:08:35Z</time>
      </trkpt>
      <trkpt lat="43.24173" lon="5.67661">
        <ele>432.5</ele>
        <time>2021-10-06T15:08:41Z</time>
      </trkpt>
      <trkpt lat="43.2417" lon="5.67656">
        <ele>432.1</ele>
        <time>2021-10-06T15:08:47Z</time>
      </trkpt>
      <trkpt lat="43.24167" lon="5.67651">
        <ele>431.8</ele>
        <time>2021-10-06T15:08:53Z</time>
      </trkpt>
      <trkpt lat="43.24163" lon="5.67645">
        <ele>431.7</ele>
        <time>2021-10-06T15:08:59Z</time>
      </trkpt>
      <trkpt lat="43.24159" lon="5.6764">
        <ele>431.6</ele>
        <time>2021-10-06T15:09:05Z</time>
      </trkpt>
      <trkpt lat="43.24154" lon="5.67635">
        <ele>431.5</ele>
        <time>2021-10-06T15:09:11Z</time>
      </trkpt>
      <trkpt lat="43.2415" lon="5.67632">
        <ele>431.4</ele>
        <time>2021-10-06T15:09:15Z</time>
      </trkpt>
      <trkpt lat="43.24146" lon="5.67629">
        <ele>431.3</ele>
        <time>2021-10-06T15:09:19Z</time>
      </trkpt>
      <trkpt lat="43.24139" lon="5.67629">
        <ele>431.2</ele>
        <time>2021-10-06T15:09:25Z</time>
      </trkpt>
      <trkpt lat="43.24133" lon="5.6763">
        <ele>431.2</ele>
        <time>2021-10-06T15:09:31Z</time>
      </trkpt>
      <trkpt lat="43.24128" lon="5.67636">
        <ele>431.2</ele>
        <time>2021-10-06T15:09:37Z</time>
      </trkpt>
      <trkpt lat="43.24124" lon="5.6764">
        <ele>431.2</ele>
        <time>2021-10-06T15:09:41Z</time>
      </trkpt>
      <trkpt lat="43.24118" lon="5.67643">
        <ele>431.1</ele>
        <time>2021-10-06T15:09:47Z</time>
      </trkpt>
      <trkpt lat="43.24114" lon="5.67646">
        <ele>431.1</ele>
        <time>2021-10-06T15:09:51Z</time>
      </trkpt>
      <trkpt lat="43.24108" lon="5.67649">
        <ele>431.1</ele>
        <time>2021-10-06T15:09:57Z</time>
      </trkpt>
      <trkpt lat="43.24101" lon="5.6765">
        <ele>431</ele>
        <time>2021-10-06T15:10:03Z</time>
      </trkpt>
      <trkpt lat="43.24096" lon="5.67651">
        <ele>431</ele>
        <time>2021-10-06T15:10:09Z</time>
      </trkpt>
      <trkpt lat="43.24091" lon="5.6765">
        <ele>430.9</ele>
        <time>2021-10-06T15:10:15Z</time>
      </trkpt>
      <trkpt lat="43.24085" lon="5.67649">
        <ele>430.8</ele>
        <time>2021-10-06T15:10:21Z</time>
      </trkpt>
      <trkpt lat="43.2408" lon="5.67646">
        <ele>430.7</ele>
        <time>2021-10-06T15:10:27Z</time>
      </trkpt>
      <trkpt lat="43.24075" lon="5.67645">
        <ele>430.5</ele>
        <time>2021-10-06T15:10:31Z</time>
      </trkpt>
      <trkpt lat="43.2407" lon="5.67642">
        <ele>430.4</ele>
        <time>2021-10-06T15:10:35Z</time>
      </trkpt>
      <trkpt lat="43.24065" lon="5.67638">
        <ele>430.2</ele>
        <time>2021-10-06T15:10:41Z</time>
      </trkpt>
      <trkpt lat="43.24062" lon="5.67634">
        <ele>430.1</ele>
        <time>2021-10-06T15:10:45Z</time>
      </trkpt>
      <trkpt lat="43.24057" lon="5.67627">
        <ele>429.9</ele>
        <time>2021-10-06T15:10:51Z</time>
      </trkpt>
      <trkpt lat="43.24052" lon="5.67621">
        <ele>429.7</ele>
        <time>2021-10-06T15:10:57Z</time>
      </trkpt>
      <trkpt lat="43.24049" lon="5.67612">
        <ele>429.5</ele>
        <time>2021-10-06T15:11:03Z</time>
      </trkpt>
      <trkpt lat="43.24049" lon="5.67605">
        <ele>429.4</ele>
        <time>2021-10-06T15:11:09Z</time>
      </trkpt>
      <trkpt lat="43.2405" lon="5.67597">
        <ele>429.4</ele>
        <time>2021-10-06T15:11:15Z</time>
      </trkpt>
      <trkpt lat="43.24048" lon="5.6759">
        <ele>429.2</ele>
        <time>2021-10-06T15:11:19Z</time>
      </trkpt>
      <trkpt lat="43.24047" lon="5.67584">
        <ele>429.1</ele>
        <time>2021-10-06T15:11:23Z</time>
      </trkpt>
      <trkpt lat="43.24045" lon="5.67577">
        <ele>429.1</ele>
        <time>2021-10-06T15:11:27Z</time>
      </trkpt>
      <trkpt lat="43.24045" lon="5.67571">
        <ele>429.2</ele>
        <time>2021-10-06T15:11:31Z</time>
      </trkpt>
      <trkpt lat="43.24042" lon="5.67564">
        <ele>429.1</ele>
        <time>2021-10-06T15:11:37Z</time>
      </trkpt>
      <trkpt lat="43.24042" lon="5.67556">
        <ele>429.2</ele>
        <time>2021-10-06T15:11:43Z</time>
      </trkpt>
      <trkpt lat="43.24038" lon="5.6755">
        <ele>429.1</ele>
        <time>2021-10-06T15:11:47Z</time>
      </trkpt>
      <trkpt lat="43.24034" lon="5.67544">
        <ele>429</ele>
        <time>2021-10-06T15:11:53Z</time>
      </trkpt>
      <trkpt lat="43.24031" lon="5.67539">
        <ele>428.9</ele>
        <time>2021-10-06T15:11:57Z</time>
      </trkpt>
      <trkpt lat="43.24027" lon="5.67536">
        <ele>428.8</ele>
        <time>2021-10-06T15:12:01Z</time>
      </trkpt>
      <trkpt lat="43.24022" lon="5.67533">
        <ele>428.7</ele>
        <time>2021-10-06T15:12:05Z</time>
      </trkpt>
      <trkpt lat="43.24017" lon="5.67527">
        <ele>428.5</ele>
        <time>2021-10-06T15:12:11Z</time>
      </trkpt>
      <trkpt lat="43.24012" lon="5.67522">
        <ele>428.4</ele>
        <time>2021-10-06T15:12:15Z</time>
      </trkpt>
      <trkpt lat="43.24008" lon="5.67519">
        <ele>428.3</ele>
        <time>2021-10-06T15:12:19Z</time>
      </trkpt>
      <trkpt lat="43.24004" lon="5.67515">
        <ele>428.1</ele>
        <time>2021-10-06T15:12:23Z</time>
      </trkpt>
      <trkpt lat="43.24" lon="5.67512">
        <ele>428</ele>
        <time>2021-10-06T15:12:27Z</time>
      </trkpt>
      <trkpt lat="43.23996" lon="5.67507">
        <ele>427.8</ele>
        <time>2021-10-06T15:12:31Z</time>
      </trkpt>
      <trkpt lat="43.23991" lon="5.67503">
        <ele>427.6</ele>
        <time>2021-10-06T15:12:37Z</time>
      </trkpt>
      <trkpt lat="43.23986" lon="5.67499">
        <ele>427.3</ele>
        <time>2021-10-06T15:12:41Z</time>
      </trkpt>
      <trkpt lat="43.23981" lon="5.67496">
        <ele>427.1</ele>
        <time>2021-10-06T15:12:47Z</time>
      </trkpt>
      <trkpt lat="43.23977" lon="5.67492">
        <ele>426.8</ele>
        <time>2021-10-06T15:12:55Z</time>
      </trkpt>
      <trkpt lat="43.23973" lon="5.67487">
        <ele>426.6</ele>
        <time>2021-10-06T15:12:59Z</time>
      </trkpt>
      <trkpt lat="43.2397" lon="5.67482">
        <ele>426.4</ele>
        <time>2021-10-06T15:13:03Z</time>
      </trkpt>
      <trkpt lat="43.23965" lon="5.67477">
        <ele>426.2</ele>
        <time>2021-10-06T15:13:09Z</time>
      </trkpt>
      <trkpt lat="43.2396" lon="5.67472">
        <ele>425.9</ele>
        <time>2021-10-06T15:13:15Z</time>
      </trkpt>
      <trkpt lat="43.23955" lon="5.67466">
        <ele>425.7</ele>
        <time>2021-10-06T15:13:21Z</time>
      </trkpt>
      <trkpt lat="43.23952" lon="5.67462">
        <ele>425.5</ele>
        <time>2021-10-06T15:13:25Z</time>
      </trkpt>
      <trkpt lat="43.23948" lon="5.67457">
        <ele>425.3</ele>
        <time>2021-10-06T15:13:29Z</time>
      </trkpt>
      <trkpt lat="43.23943" lon="5.6745">
        <ele>425.1</ele>
        <time>2021-10-06T15:13:35Z</time>
      </trkpt>
      <trkpt lat="43.23937" lon="5.67444">
        <ele>424.8</ele>
        <time>2021-10-06T15:13:41Z</time>
      </trkpt>
      <trkpt lat="43.2393" lon="5.67442">
        <ele>424.5</ele>
        <time>2021-10-06T15:13:47Z</time>
      </trkpt>
      <trkpt lat="43.23925" lon="5.67442">
        <ele>424.3</ele>
        <time>2021-10-06T15:13:51Z</time>
      </trkpt>
      <trkpt lat="43.23919" lon="5.67437">
        <ele>424.1</ele>
        <time>2021-10-06T15:13:57Z</time>
      </trkpt>
      <trkpt lat="43.23913" lon="5.67433">
        <ele>423.7</ele>
        <time>2021-10-06T15:14:05Z</time>
      </trkpt>
      <trkpt lat="43.23909" lon="5.67429">
        <ele>423.4</ele>
        <time>2021-10-06T15:14:07Z</time>
      </trkpt>
      <trkpt lat="43.23905" lon="5.67426">
        <ele>423</ele>
        <time>2021-10-06T15:14:11Z</time>
      </trkpt>
      <trkpt lat="43.23901" lon="5.67421">
        <ele>422.6</ele>
        <time>2021-10-06T15:14:15Z</time>
      </trkpt>
      <trkpt lat="43.23896" lon="5.67415">
        <ele>422.3</ele>
        <time>2021-10-06T15:14:21Z</time>
      </trkpt>
      <trkpt lat="43.23893" lon="5.67411">
        <ele>421.9</ele>
        <time>2021-10-06T15:14:27Z</time>
      </trkpt>
      <trkpt lat="43.23889" lon="5.67407">
        <ele>421.5</ele>
        <time>2021-10-06T15:14:31Z</time>
      </trkpt>
      <trkpt lat="43.23886" lon="5.67402">
        <ele>421.1</ele>
        <time>2021-10-06T15:14:35Z</time>
      </trkpt>
      <trkpt lat="43.23882" lon="5.67397">
        <ele>420.7</ele>
        <time>2021-10-06T15:14:41Z</time>
      </trkpt>
      <trkpt lat="43.23877" lon="5.6739">
        <ele>420.2</ele>
        <time>2021-10-06T15:14:47Z</time>
      </trkpt>
      <trkpt lat="43.23873" lon="5.67386">
        <ele>419.8</ele>
        <time>2021-10-06T15:14:51Z</time>
      </trkpt>
      <trkpt lat="43.23869" lon="5.6738">
        <ele>419.3</ele>
        <time>2021-10-06T15:14:57Z</time>
      </trkpt>
      <trkpt lat="43.23864" lon="5.67373">
        <ele>418.9</ele>
        <time>2021-10-06T15:15:03Z</time>
      </trkpt>
      <trkpt lat="43.23861" lon="5.67367">
        <ele>418.5</ele>
        <time>2021-10-06T15:15:09Z</time>
      </trkpt>
      <trkpt lat="43.23856" lon="5.67361">
        <ele>418</ele>
        <time>2021-10-06T15:15:15Z</time>
      </trkpt>
      <trkpt lat="43.23852" lon="5.67357">
        <ele>417.7</ele>
        <time>2021-10-06T15:15:19Z</time>
      </trkpt>
      <trkpt lat="43.23847" lon="5.67352">
        <ele>417.2</ele>
        <time>2021-10-06T15:15:25Z</time>
      </trkpt>
      <trkpt lat="43.23842" lon="5.67347">
        <ele>416.8</ele>
        <time>2021-10-06T15:15:29Z</time>
      </trkpt>
      <trkpt lat="43.23836" lon="5.67343">
        <ele>416.3</ele>
        <time>2021-10-06T15:15:35Z</time>
      </trkpt>
      <trkpt lat="43.2383" lon="5.6734">
        <ele>415.8</ele>
        <time>2021-10-06T15:15:41Z</time>
      </trkpt>
      <trkpt lat="43.23824" lon="5.67337">
        <ele>415.2</ele>
        <time>2021-10-06T15:15:47Z</time>
      </trkpt>
      <trkpt lat="43.23818" lon="5.67335">
        <ele>414.8</ele>
        <time>2021-10-06T15:15:53Z</time>
      </trkpt>
      <trkpt lat="43.23814" lon="5.67332">
        <ele>414.4</ele>
        <time>2021-10-06T15:15:57Z</time>
      </trkpt>
      <trkpt lat="43.2381" lon="5.67327">
        <ele>414</ele>
        <time>2021-10-06T15:16:03Z</time>
      </trkpt>
      <trkpt lat="43.23805" lon="5.67322">
        <ele>413.4</ele>
        <time>2021-10-06T15:16:09Z</time>
      </trkpt>
      <trkpt lat="43.23802" lon="5.67317">
        <ele>413.1</ele>
        <time>2021-10-06T15:16:13Z</time>
      </trkpt>
      <trkpt lat="43.23797" lon="5.67311">
        <ele>412.7</ele>
        <time>2021-10-06T15:16:19Z</time>
      </trkpt>
      <trkpt lat="43.23793" lon="5.67305">
        <ele>412.2</ele>
        <time>2021-10-06T15:16:25Z</time>
      </trkpt>
      <trkpt lat="43.23788" lon="5.67299">
        <ele>411.8</ele>
        <time>2021-10-06T15:16:31Z</time>
      </trkpt>
      <trkpt lat="43.23784" lon="5.67294">
        <ele>411.5</ele>
        <time>2021-10-06T15:16:35Z</time>
      </trkpt>
      <trkpt lat="43.23779" lon="5.67289">
        <ele>411.1</ele>
        <time>2021-10-06T15:16:41Z</time>
      </trkpt>
      <trkpt lat="43.23774" lon="5.67283">
        <ele>410.7</ele>
        <time>2021-10-06T15:16:47Z</time>
      </trkpt>
      <trkpt lat="43.2377" lon="5.67278">
        <ele>410.4</ele>
        <time>2021-10-06T15:16:53Z</time>
      </trkpt>
      <trkpt lat="43.23766" lon="5.67275">
        <ele>410.1</ele>
        <time>2021-10-06T15:16:59Z</time>
      </trkpt>
      <trkpt lat="43.23762" lon="5.6727">
        <ele>409.8</ele>
        <time>2021-10-06T15:17:05Z</time>
      </trkpt>
      <trkpt lat="43.23759" lon="5.67262">
        <ele>409.6</ele>
        <time>2021-10-06T15:17:11Z</time>
      </trkpt>
      <trkpt lat="43.23754" lon="5.67257">
        <ele>409.2</ele>
        <time>2021-10-06T15:17:17Z</time>
      </trkpt>
      <trkpt lat="43.23749" lon="5.67254">
        <ele>408.9</ele>
        <time>2021-10-06T15:17:23Z</time>
      </trkpt>
      <trkpt lat="43.23744" lon="5.6725">
        <ele>408.5</ele>
        <time>2021-10-06T15:17:29Z</time>
      </trkpt>
      <trkpt lat="43.23741" lon="5.67245">
        <ele>408.2</ele>
        <time>2021-10-06T15:17:35Z</time>
      </trkpt>
      <trkpt lat="43.23738" lon="5.6724">
        <ele>407.9</ele>
        <time>2021-10-06T15:17:41Z</time>
      </trkpt>
      <trkpt lat="43.23735" lon="5.67234">
        <ele>407.5</ele>
        <time>2021-10-06T15:17:47Z</time>
      </trkpt>
      <trkpt lat="43.23732" lon="5.67227">
        <ele>407.2</ele>
        <time>2021-10-06T15:17:53Z</time>
      </trkpt>
      <trkpt lat="43.23727" lon="5.67222">
        <ele>406.8</ele>
        <time>2021-10-06T15:17:59Z</time>
      </trkpt>
      <trkpt lat="43.23724" lon="5.67216">
        <ele>406.4</ele>
        <time>2021-10-06T15:18:05Z</time>
      </trkpt>
      <trkpt lat="43.23722" lon="5.67208">
        <ele>406.1</ele>
        <time>2021-10-06T15:18:11Z</time>
      </trkpt>
      <trkpt lat="43.2372" lon="5.672">
        <ele>405.9</ele>
        <time>2021-10-06T15:18:17Z</time>
      </trkpt>
      <trkpt lat="43.23718" lon="5.67192">
        <ele>405.6</ele>
        <time>2021-10-06T15:18:23Z</time>
      </trkpt>
      <trkpt lat="43.23715" lon="5.67185">
        <ele>405.3</ele>
        <time>2021-10-06T15:18:29Z</time>
      </trkpt>
      <trkpt lat="43.23713" lon="5.67177">
        <ele>405</ele>
        <time>2021-10-06T15:18:35Z</time>
      </trkpt>
      <trkpt lat="43.23711" lon="5.6717">
        <ele>404.7</ele>
        <time>2021-10-06T15:18:43Z</time>
      </trkpt>
      <trkpt lat="43.23709" lon="5.67164">
        <ele>404.5</ele>
        <time>2021-10-06T15:18:47Z</time>
      </trkpt>
      <trkpt lat="43.23706" lon="5.67158">
        <ele>404.1</ele>
        <time>2021-10-06T15:18:53Z</time>
      </trkpt>
      <trkpt lat="43.23704" lon="5.67151">
        <ele>403.7</ele>
        <time>2021-10-06T15:18:59Z</time>
      </trkpt>
      <trkpt lat="43.23702" lon="5.67142">
        <ele>403.4</ele>
        <time>2021-10-06T15:19:05Z</time>
      </trkpt>
      <trkpt lat="43.237" lon="5.67135">
        <ele>403.1</ele>
        <time>2021-10-06T15:19:09Z</time>
      </trkpt>
      <trkpt lat="43.23698" lon="5.67128">
        <ele>402.8</ele>
        <time>2021-10-06T15:19:15Z</time>
      </trkpt>
      <trkpt lat="43.23696" lon="5.67119">
        <ele>402.5</ele>
        <time>2021-10-06T15:19:21Z</time>
      </trkpt>
      <trkpt lat="43.23694" lon="5.67111">
        <ele>402.2</ele>
        <time>2021-10-06T15:19:27Z</time>
      </trkpt>
      <trkpt lat="43.23693" lon="5.67103">
        <ele>401.9</ele>
        <time>2021-10-06T15:19:33Z</time>
      </trkpt>
      <trkpt lat="43.23692" lon="5.67094">
        <ele>401.7</ele>
        <time>2021-10-06T15:19:39Z</time>
      </trkpt>
      <trkpt lat="43.23691" lon="5.67087">
        <ele>401.5</ele>
        <time>2021-10-06T15:19:43Z</time>
      </trkpt>
      <trkpt lat="43.2369" lon="5.67079">
        <ele>401.2</ele>
        <time>2021-10-06T15:19:49Z</time>
      </trkpt>
      <trkpt lat="43.23691" lon="5.6707">
        <ele>400.9</ele>
        <time>2021-10-06T15:19:55Z</time>
      </trkpt>
      <trkpt lat="43.2369" lon="5.67064">
        <ele>400.7</ele>
        <time>2021-10-06T15:19:59Z</time>
      </trkpt>
      <trkpt lat="43.23689" lon="5.67057">
        <ele>400.4</ele>
        <time>2021-10-06T15:20:03Z</time>
      </trkpt>
      <trkpt lat="43.23688" lon="5.67051">
        <ele>400.1</ele>
        <time>2021-10-06T15:20:07Z</time>
      </trkpt>
      <trkpt lat="43.23687" lon="5.67042">
        <ele>399.7</ele>
        <time>2021-10-06T15:20:13Z</time>
      </trkpt>
      <trkpt lat="43.23685" lon="5.67034">
        <ele>399.3</ele>
        <time>2021-10-06T15:20:19Z</time>
      </trkpt>
      <trkpt lat="43.23683" lon="5.67027">
        <ele>399</ele>
        <time>2021-10-06T15:20:25Z</time>
      </trkpt>
      <trkpt lat="43.23679" lon="5.67022">
        <ele>398.6</ele>
        <time>2021-10-06T15:20:31Z</time>
      </trkpt>
      <trkpt lat="43.23674" lon="5.6702">
        <ele>398.1</ele>
        <time>2021-10-06T15:20:37Z</time>
      </trkpt>
      <trkpt lat="43.23668" lon="5.67019">
        <ele>397.8</ele>
        <time>2021-10-06T15:20:43Z</time>
      </trkpt>
      <trkpt lat="43.23664" lon="5.6702">
        <ele>397.8</ele>
        <time>2021-10-06T15:20:57Z</time>
      </trkpt>
      <trkpt lat="43.23658" lon="5.67021">
        <ele>398.1</ele>
        <time>2021-10-06T15:21:03Z</time>
      </trkpt>
      <trkpt lat="43.23653" lon="5.67022">
        <ele>398.3</ele>
        <time>2021-10-06T15:21:09Z</time>
      </trkpt>
      <trkpt lat="43.23647" lon="5.67024">
        <ele>398.6</ele>
        <time>2021-10-06T15:21:15Z</time>
      </trkpt>
      <trkpt lat="43.23642" lon="5.67025">
        <ele>398.8</ele>
        <time>2021-10-06T15:21:21Z</time>
      </trkpt>
      <trkpt lat="43.23637" lon="5.67028">
        <ele>399.1</ele>
        <time>2021-10-06T15:21:27Z</time>
      </trkpt>
      <trkpt lat="43.23631" lon="5.67029">
        <ele>399.3</ele>
        <time>2021-10-06T15:21:33Z</time>
      </trkpt>
      <trkpt lat="43.23626" lon="5.67031">
        <ele>399.5</ele>
        <time>2021-10-06T15:21:41Z</time>
      </trkpt>
      <trkpt lat="43.23621" lon="5.67033">
        <ele>399.7</ele>
        <time>2021-10-06T15:21:47Z</time>
      </trkpt>
      <trkpt lat="43.23615" lon="5.67034">
        <ele>399.9</ele>
        <time>2021-10-06T15:21:53Z</time>
      </trkpt>
      <trkpt lat="43.2361" lon="5.67038">
        <ele>400.2</ele>
        <time>2021-10-06T15:22:49Z</time>
      </trkpt>
      <trkpt lat="43.23603" lon="5.67037">
        <ele>400.4</ele>
        <time>2021-10-06T15:22:55Z</time>
      </trkpt>
      <trkpt lat="43.23599" lon="5.67036">
        <ele>400.5</ele>
        <time>2021-10-06T15:22:59Z</time>
      </trkpt>
      <trkpt lat="43.23593" lon="5.67036">
        <ele>400.7</ele>
        <time>2021-10-06T15:23:05Z</time>
      </trkpt>
      <trkpt lat="43.23587" lon="5.67036">
        <ele>400.9</ele>
        <time>2021-10-06T15:23:11Z</time>
      </trkpt>
      <trkpt lat="43.23582" lon="5.67036">
        <ele>401</ele>
        <time>2021-10-06T15:23:17Z</time>
      </trkpt>
      <trkpt lat="43.23576" lon="5.67036">
        <ele>401.2</ele>
        <time>2021-10-06T15:23:23Z</time>
      </trkpt>
      <trkpt lat="43.2357" lon="5.67037">
        <ele>401.3</ele>
        <time>2021-10-06T15:23:29Z</time>
      </trkpt>
      <trkpt lat="43.23565" lon="5.67036">
        <ele>401.5</ele>
        <time>2021-10-06T15:23:35Z</time>
      </trkpt>
      <trkpt lat="43.23561" lon="5.67034">
        <ele>401.6</ele>
        <time>2021-10-06T15:23:41Z</time>
      </trkpt>
      <trkpt lat="43.23555" lon="5.67034">
        <ele>401.7</ele>
        <time>2021-10-06T15:23:49Z</time>
      </trkpt>
      <trkpt lat="43.23549" lon="5.67028">
        <ele>402</ele>
        <time>2021-10-06T15:23:55Z</time>
      </trkpt>
      <trkpt lat="43.23543" lon="5.67029">
        <ele>402.1</ele>
        <time>2021-10-06T15:24:01Z</time>
      </trkpt>
      <trkpt lat="43.23541" lon="5.6703">
        <ele>402.2</ele>
        <time>2021-10-06T15:24:03Z</time>
      </trkpt>
      <trkpt lat="43.23536" lon="5.67032">
        <ele>402.3</ele>
        <time>2021-10-06T15:24:08Z</time>
      </trkpt>
      <trkpt lat="43.2353" lon="5.67035">
        <ele>402.4</ele>
        <time>2021-10-06T15:24:12Z</time>
      </trkpt>
      <trkpt lat="43.23524" lon="5.67036">
        <ele>402.5</ele>
        <time>2021-10-06T15:24:18Z</time>
      </trkpt>
      <trkpt lat="43.23518" lon="5.67036">
        <ele>402.7</ele>
        <time>2021-10-06T15:24:22Z</time>
      </trkpt>
      <trkpt lat="43.23513" lon="5.67035">
        <ele>402.8</ele>
        <time>2021-10-06T15:24:28Z</time>
      </trkpt>
      <trkpt lat="43.23508" lon="5.67032">
        <ele>403</ele>
        <time>2021-10-06T15:24:36Z</time>
      </trkpt>
      <trkpt lat="43.23503" lon="5.67034">
        <ele>403.1</ele>
        <time>2021-10-06T15:24:54Z</time>
      </trkpt>
      <trkpt lat="43.23505" lon="5.67027">
        <ele>403.2</ele>
        <time>2021-10-06T15:25:16Z</time>
      </trkpt>
      <trkpt lat="43.23505" lon="5.67019">
        <ele>403.4</ele>
        <time>2021-10-06T15:25:26Z</time>
      </trkpt>
      <trkpt lat="43.23504" lon="5.67012">
        <ele>403.6</ele>
        <time>2021-10-06T15:25:34Z</time>
      </trkpt>
    </trkseg>
  </trk>
</gpx>